
Distance (Route):
Temperature : 20.6°C
Humidity : 56.3%
Pressure : 0hPa| Receiver | Frames | First received | Last received |
|---|---|---|---|
| IW2NTF | 1191 | 2026-09-01 23:02:19 | 2026-09-02 01:48:40 |
| DO3MHA-11 | 546 | 2026-09-01 23:44:24 | 2026-09-02 01:31:36 |
| DB0UT-7 | 184 | 2026-09-01 23:47:26 | 2026-09-02 01:29:29 |
| OE5DRO-10 | 164 | 2026-09-02 00:21:02 | 2026-09-02 01:22:49 |
| NBG1-10 | 130 | 2026-09-01 23:57:12 | 2026-09-02 01:28:14 |
| RDZBGO | 122 | 2026-09-02 00:26:00 | 2026-09-02 01:22:08 |
| DF1GD-15 | 58 | 2026-09-02 00:59:28 | 2026-09-02 01:27:06 |
| DF7PN | 38 | 2026-09-02 00:49:41 | 2026-09-02 01:18:09 |
| BAUMI2-15 | 36 | 2026-09-02 00:32:23 | 2026-09-02 01:21:24 |
| PG1ADW-2 | 34 | 2026-09-02 00:44:46 | 2026-09-02 01:19:24 |
| DK5PH-5 | 34 | 2026-09-02 00:52:57 | 2026-09-02 01:18:23 |
| IN3HCDX | 17 | 2026-09-02 01:13:55 | 2026-09-02 01:21:35 |
| OE5DXL-15 | 14 | 2026-09-02 00:47:48 | 2026-09-02 01:25:53 |
| OE3JTB-15 | 7 | 2026-09-02 00:29:03 | 2026-09-02 01:21:16 |
| Receiver | Date | Latitude | Longitude | Direction | Speed | Altitude | Climb | Temperature | Humidity | Pressure | Voltage | Killtimer | Uptime | BKT | XDATA |
|---|---|---|---|---|---|---|---|---|---|---|---|---|---|---|---|
| IW2NTF | 2026-09-02 01:48:40 | 45.61643 | 9.95254 | 313° | 9km/h | 927m | -5m/s | 20.6°C | 56.3% | 0hPa | 2.7V | 07:57:43 | 03:14:54 | 00:00:00 | |
| IW2NTF | 2026-09-02 01:48:40 | 45.61639 | 9.95259 | 325° | 11km/h | 937m | -4.9m/s | 20.5°C | 56.6% | 0hPa | 2.7V | 07:57:45 | 03:14:52 | 00:00:00 | |
| IW2NTF | 2026-09-02 01:48:35 | 45.61634 | 9.95263 | 328° | 9km/h | 946m | -4.9m/s | 20.4°C | 56.9% | 0hPa | 2.7V | 07:57:47 | 03:14:50 | 00:00:00 | |
| IW2NTF | 2026-09-02 01:48:35 | 45.61631 | 9.95267 | 307° | 9km/h | 956m | -5.1m/s | 20.3°C | 57.2% | 0hPa | 2.6V | 07:57:49 | 03:14:48 | 00:00:00 | |
| IW2NTF | 2026-09-02 01:48:35 | 45.61628 | 9.95272 | 317° | 11km/h | 967m | -4.9m/s | 20.2°C | 57.4% | 0hPa | 2.7V | 07:57:51 | 03:14:46 | 00:00:00 | |
| IW2NTF | 2026-09-02 01:48:26 | 45.61620 | 9.95279 | 317° | 7km/h | 987m | -5m/s | 20.1°C | 58.3% | 0hPa | 2.6V | 07:57:55 | 03:14:42 | 00:00:00 | |
| IW2NTF | 2026-09-02 01:48:26 | 45.61613 | 9.95287 | 339° | 9km/h | 1007m | -5.2m/s | 19.9°C | 59% | 0hPa | 2.7V | 07:57:59 | 03:14:38 | 00:00:00 | |
| IW2NTF | 2026-09-02 01:48:20 | 45.61609 | 9.95289 | 342° | 5km/h | 1017m | -4.9m/s | 19.9°C | 59.3% | 0hPa | 2.7V | 07:58:01 | 03:14:36 | 00:00:00 | |
| IW2NTF | 2026-09-02 01:48:20 | 45.61607 | 9.95291 | 308° | 5km/h | 1027m | -5m/s | 19.8°C | 60.1% | 0hPa | 2.7V | 07:58:03 | 03:14:34 | 00:00:00 | |
| IW2NTF | 2026-09-02 01:48:20 | 45.61605 | 9.95294 | 323° | 7km/h | 1036m | -4.8m/s | 19.7°C | 60.8% | 0hPa | 2.7V | 07:58:05 | 03:14:32 | 00:00:00 | |
| IW2NTF | 2026-09-02 01:48:14 | 45.61601 | 9.95297 | 343° | 5km/h | 1046m | -5.2m/s | 19.6°C | 61.9% | 0hPa | 2.7V | 07:58:07 | 03:14:30 | 00:00:00 | |
| IW2NTF | 2026-09-02 01:48:14 | 45.61599 | 9.95298 | 323° | 4km/h | 1056m | -5.2m/s | 19.5°C | 62.8% | 0hPa | 2.7V | 07:58:09 | 03:14:28 | 00:00:00 | |
| IW2NTF | 2026-09-02 01:48:14 | 45.61597 | 9.95300 | 304° | 5km/h | 1066m | -4.6m/s | 19.4°C | 63.1% | 0hPa | 2.7V | 07:58:11 | 03:14:26 | 00:00:00 | |
| IW2NTF | 2026-09-02 01:48:09 | 45.61595 | 9.95304 | 325° | 7km/h | 1076m | -5m/s | 19.3°C | 63.3% | 0hPa | 2.7V | 07:58:13 | 03:14:24 | 00:00:00 | |
| IW2NTF | 2026-09-02 01:48:09 | 45.61593 | 9.95306 | 332° | 4km/h | 1086m | -5.1m/s | 19.2°C | 64.2% | 0hPa | 2.6V | 07:58:15 | 03:14:22 | 00:00:00 | |
| IW2NTF | 2026-09-02 01:48:09 | 45.61592 | 9.95307 | 295° | 4km/h | 1096m | -5.2m/s | 19.1°C | 65.2% | 0hPa | 2.7V | 07:58:17 | 03:14:20 | 00:00:00 | |
| IW2NTF | 2026-09-02 01:48:02 | 45.61590 | 9.95310 | 320° | 4km/h | 1106m | -5m/s | 19°C | 66% | 0hPa | 2.7V | 07:58:19 | 03:14:18 | 00:00:00 | |
| IW2NTF | 2026-09-02 01:48:02 | 45.61589 | 9.95311 | 354° | 2km/h | 1116m | -5m/s | 18.9°C | 67.6% | 0hPa | 2.6V | 07:58:21 | 03:14:16 | 00:00:00 | |
| IW2NTF | 2026-09-02 01:48:02 | 45.61588 | 9.95312 | 273° | 2km/h | 1127m | -5.3m/s | 18.8°C | 67.7% | 0hPa | 2.7V | 07:58:23 | 03:14:14 | 00:00:00 | |
| IW2NTF | 2026-09-02 01:47:56 | 45.61588 | 9.95314 | 304° | 4km/h | 1138m | -5.1m/s | 18.7°C | 68.1% | 0hPa | 2.7V | 07:58:25 | 03:14:12 | 00:00:00 | |
| IW2NTF | 2026-09-02 01:47:56 | 45.61586 | 9.95315 | 354° | 4km/h | 1147m | -5.1m/s | 18.6°C | 68.5% | 0hPa | 2.6V | 07:58:27 | 03:14:10 | 00:00:00 | |
| IW2NTF | 2026-09-02 01:47:56 | 45.61585 | 9.95315 | 3° | 0km/h | 1158m | -5.1m/s | 18.5°C | 68.9% | 0hPa | 2.7V | 07:58:29 | 03:14:08 | 00:00:00 | |
| IW2NTF | 2026-09-02 01:47:50 | 45.61585 | 9.95316 | 271° | 4km/h | 1168m | -4.8m/s | 18.4°C | 70.9% | 0hPa | 2.7V | 07:58:31 | 03:14:06 | 00:00:00 | |
| IW2NTF | 2026-09-02 01:47:50 | 45.61584 | 9.95319 | 304° | 4km/h | 1178m | -4.8m/s | 18.3°C | 72.7% | 0hPa | 2.6V | 07:58:33 | 03:14:04 | 00:00:00 | |
| IW2NTF | 2026-09-02 01:47:50 | 45.61583 | 9.95320 | 339° | 2km/h | 1188m | -5.2m/s | 18.2°C | 72.6% | 0hPa | 2.7V | 07:58:35 | 03:14:02 | 00:00:00 | |
| IW2NTF | 2026-09-02 01:47:45 | 45.61584 | 9.95321 | 222° | 4km/h | 1199m | -5.1m/s | 18.1°C | 73.3% | 0hPa | 2.7V | 07:58:37 | 03:14:00 | 00:00:00 | |
| IW2NTF | 2026-09-02 01:47:45 | 45.61584 | 9.95322 | 256° | 4km/h | 1209m | -5.5m/s | 18°C | 74.5% | 0hPa | 2.6V | 07:58:39 | 03:13:58 | 00:00:00 | |
| IW2NTF | 2026-09-02 01:47:45 | 45.61584 | 9.95323 | 36° | 0km/h | 1221m | -5.7m/s | 17.9°C | 73.9% | 0hPa | 2.7V | 07:58:41 | 03:13:56 | 00:00:00 | |
| IW2NTF | 2026-09-02 01:47:38 | 45.61585 | 9.95322 | 143° | 2km/h | 1232m | -5.5m/s | 17.8°C | 75.4% | 0hPa | 2.7V | 07:58:43 | 03:13:54 | 00:00:00 | |
| IW2NTF | 2026-09-02 01:47:38 | 45.61586 | 9.95323 | 231° | 4km/h | 1243m | -5.3m/s | 17.7°C | 79.2% | 0hPa | 2.7V | 07:58:45 | 03:13:52 | 00:00:00 | |
| IW2NTF | 2026-09-02 01:47:38 | 45.61586 | 9.95324 | 306° | 0km/h | 1253m | -5.2m/s | 17.6°C | 80.2% | 0hPa | 2.7V | 07:58:47 | 03:13:50 | 00:00:00 | |
| IW2NTF | 2026-09-02 01:47:32 | 45.61586 | 9.95323 | 152° | 2km/h | 1264m | -5.5m/s | 17.5°C | 81.5% | 0hPa | 2.6V | 07:58:49 | 03:13:48 | 00:00:00 | |
| IW2NTF | 2026-09-02 01:47:32 | 45.61588 | 9.95323 | 177° | 4km/h | 1274m | -5.3m/s | 17.4°C | 79.1% | 0hPa | 2.7V | 07:58:51 | 03:13:46 | 00:00:00 | |
| IW2NTF | 2026-09-02 01:47:32 | 45.61589 | 9.95323 | 136° | 2km/h | 1285m | -5.2m/s | 17.3°C | 83.8% | 0hPa | 2.7V | 07:58:53 | 03:13:44 | 00:00:00 | |
| IW2NTF | 2026-09-02 01:47:26 | 45.61590 | 9.95321 | 105° | 4km/h | 1295m | -5.4m/s | 17.3°C | 81% | 0hPa | 2.7V | 07:58:55 | 03:13:42 | 00:00:00 | |
| IW2NTF | 2026-09-02 01:47:26 | 45.61591 | 9.95318 | 133° | 5km/h | 1306m | -5.4m/s | 17.2°C | 82% | 0hPa | 2.7V | 07:58:57 | 03:13:40 | 00:00:00 | |
| IW2NTF | 2026-09-02 01:47:26 | 45.61592 | 9.95316 | 123° | 2km/h | 1316m | -5.1m/s | 17.1°C | 83.5% | 0hPa | 2.6V | 07:58:59 | 03:13:38 | 00:00:00 | |
| IW2NTF | 2026-09-02 01:47:19 | 45.61592 | 9.95314 | 83° | 4km/h | 1327m | -5.4m/s | 17.1°C | 84.4% | 0hPa | 2.7V | 07:59:01 | 03:13:36 | 00:00:00 | |
| IW2NTF | 2026-09-02 01:47:19 | 45.61593 | 9.95309 | 115° | 7km/h | 1337m | -5.1m/s | 16.9°C | 85.1% | 0hPa | 2.7V | 07:59:03 | 03:13:34 | 00:00:00 | |
| IW2NTF | 2026-09-02 01:47:19 | 45.61597 | 9.95304 | 146° | 5km/h | 1353m | -5.3m/s | 16.8°C | 89.1% | 0hPa | 2.6V | 07:59:06 | 03:13:31 | 00:00:00 | |
| IW2NTF | 2026-09-02 01:47:13 | 45.61598 | 9.95302 | 100° | 4km/h | 1364m | -5.4m/s | 16.7°C | 90.1% | 0hPa | 2.7V | 07:59:08 | 03:13:29 | 00:00:00 | |
| IW2NTF | 2026-09-02 01:47:13 | 45.61599 | 9.95298 | 101° | 7km/h | 1375m | -5.3m/s | 16.7°C | 90.9% | 0hPa | 2.7V | 07:59:10 | 03:13:27 | 00:00:00 | |
| IW2NTF | 2026-09-02 01:47:13 | 45.61600 | 9.95293 | 121° | 7km/h | 1386m | -5.3m/s | 16.6°C | 91% | 0hPa | 2.7V | 07:59:12 | 03:13:25 | 00:00:00 | |
| IW2NTF | 2026-09-02 01:47:07 | 45.61601 | 9.95290 | 108° | 4km/h | 1397m | -5.4m/s | 16.5°C | 91% | 0hPa | 2.7V | 07:59:14 | 03:13:23 | 00:00:00 | |
| IW2NTF | 2026-09-02 01:47:07 | 45.61603 | 9.95280 | 116° | 9km/h | 1418m | -5.4m/s | 16.4°C | 90.8% | 0hPa | 2.7V | 07:59:18 | 03:13:19 | 00:00:00 | |
| IW2NTF | 2026-09-02 01:47:01 | 45.61605 | 9.95275 | 129° | 7km/h | 1429m | -5.3m/s | 16.3°C | 90.9% | 0hPa | 2.7V | 07:59:20 | 03:13:17 | 00:00:00 | |
| IW2NTF | 2026-09-02 01:47:01 | 45.61607 | 9.95271 | 101° | 5km/h | 1440m | -5.3m/s | 16.2°C | 90.9% | 0hPa | 2.7V | 07:59:22 | 03:13:15 | 00:00:00 | |
| IW2NTF | 2026-09-02 01:47:01 | 45.61608 | 9.95266 | 104° | 9km/h | 1451m | -5.4m/s | 16.1°C | 91.1% | 0hPa | 2.7V | 07:59:24 | 03:13:13 | 00:00:00 | |
| IW2NTF | 2026-09-02 01:46:56 | 45.61610 | 9.95260 | 123° | 9km/h | 1461m | -5.6m/s | 16°C | 91.5% | 0hPa | 2.6V | 07:59:26 | 03:13:11 | 00:00:00 | |
| IW2NTF | 2026-09-02 01:46:56 | 45.61612 | 9.95255 | 129° | 7km/h | 1473m | -5.2m/s | 15.9°C | 91.7% | 0hPa | 2.7V | 07:59:28 | 03:13:09 | 00:00:00 | |
| IW2NTF | 2026-09-02 01:46:56 | 45.61614 | 9.95251 | 102° | 9km/h | 1483m | -5.2m/s | 15.9°C | 91.1% | 0hPa | 2.7V | 07:59:30 | 03:13:07 | 00:00:00 | |
| IW2NTF | 2026-09-02 01:46:49 | 45.61615 | 9.95243 | 112° | 11km/h | 1494m | -5.5m/s | 15.8°C | 91.3% | 0hPa | 2.6V | 07:59:32 | 03:13:05 | 00:00:00 | |
| IW2NTF | 2026-09-02 01:46:49 | 45.61618 | 9.95236 | 127° | 11km/h | 1505m | -5.5m/s | 15.7°C | 91.4% | 0hPa | 2.7V | 07:59:34 | 03:13:03 | 00:00:00 | |
| IW2NTF | 2026-09-02 01:46:49 | 45.61621 | 9.95230 | 113° | 9km/h | 1516m | -5.2m/s | 15.6°C | 91% | 0hPa | 2.7V | 07:59:36 | 03:13:01 | 00:00:00 | |
| IW2NTF | 2026-09-02 01:46:43 | 45.61622 | 9.95224 | 105° | 11km/h | 1527m | -5.3m/s | 15.6°C | 91% | 0hPa | 2.7V | 07:59:38 | 03:12:59 | 00:00:00 | |
| IW2NTF | 2026-09-02 01:46:43 | 45.61624 | 9.95217 | 118° | 11km/h | 1538m | -5.6m/s | 15.5°C | 89.1% | 0hPa | 2.7V | 07:59:40 | 03:12:57 | 00:00:00 | |
| IW2NTF | 2026-09-02 01:46:43 | 45.61627 | 9.95210 | 120° | 9km/h | 1549m | -5.5m/s | 15.5°C | 87.3% | 0hPa | 2.7V | 07:59:42 | 03:12:55 | 00:00:00 | |
| IW2NTF | 2026-09-02 01:46:37 | 45.61629 | 9.95204 | 105° | 9km/h | 1560m | -5.3m/s | 15.4°C | 85% | 0hPa | 2.7V | 07:59:44 | 03:12:53 | 00:00:00 | |
| IW2NTF | 2026-09-02 01:46:37 | 45.61631 | 9.95197 | 116° | 13km/h | 1570m | -5.5m/s | 15.4°C | 84.3% | 0hPa | 2.6V | 07:59:46 | 03:12:51 | 00:00:00 | |
| IW2NTF | 2026-09-02 01:46:37 | 45.61634 | 9.95190 | 127° | 11km/h | 1581m | -5.6m/s | 15.4°C | 82.7% | 0hPa | 2.7V | 07:59:48 | 03:12:49 | 00:00:00 | |
| IW2NTF | 2026-09-02 01:46:31 | 45.61636 | 9.95184 | 113° | 9km/h | 1592m | -5.7m/s | 15.3°C | 80.5% | 0hPa | 2.7V | 07:59:50 | 03:12:47 | 00:00:00 | |
| IW2NTF | 2026-09-02 01:46:31 | 45.61638 | 9.95178 | 108° | 11km/h | 1603m | -5.3m/s | 15.3°C | 79.2% | 0hPa | 2.7V | 07:59:52 | 03:12:45 | 00:00:00 | |
| IW2NTF | 2026-09-02 01:46:31 | 45.61641 | 9.95169 | 122° | 13km/h | 1614m | -5.6m/s | 15.2°C | 79.3% | 0hPa | 2.7V | 07:59:54 | 03:12:43 | 00:00:00 | |
| IW2NTF | 2026-09-02 01:46:25 | 45.61644 | 9.95162 | 125° | 11km/h | 1625m | -5.4m/s | 15.1°C | 81.2% | 0hPa | 2.6V | 07:59:56 | 03:12:41 | 00:00:00 | |
| IW2NTF | 2026-09-02 01:46:25 | 45.61647 | 9.95155 | 110° | 11km/h | 1636m | -5.5m/s | 15°C | 81.8% | 0hPa | 2.7V | 07:59:58 | 03:12:39 | 00:00:00 | |
| IW2NTF | 2026-09-02 01:46:25 | 45.61649 | 9.95147 | 114° | 15km/h | 1647m | -5.7m/s | 14.9°C | 80.4% | 0hPa | 2.7V | 08:00:00 | 03:12:37 | 00:00:00 | |
| IW2NTF | 2026-09-02 01:46:19 | 45.61653 | 9.95138 | 129° | 13km/h | 1658m | -5.5m/s | 14.9°C | 79.9% | 0hPa | 2.7V | 08:00:02 | 03:12:35 | 00:00:00 | |
| IW2NTF | 2026-09-02 01:46:19 | 45.61656 | 9.95132 | 126° | 9km/h | 1669m | -5.1m/s | 14.8°C | 78.7% | 0hPa | 2.7V | 08:00:04 | 03:12:33 | 00:00:00 | |
| IW2NTF | 2026-09-02 01:46:19 | 45.61658 | 9.95127 | 110° | 9km/h | 1679m | -5.5m/s | 14.7°C | 78.9% | 0hPa | 2.7V | 08:00:06 | 03:12:31 | 00:00:00 | |
| IW2NTF | 2026-09-02 01:46:13 | 45.61661 | 9.95120 | 120° | 11km/h | 1691m | -5.5m/s | 14.6°C | 79.3% | 0hPa | 2.7V | 08:00:08 | 03:12:29 | 00:00:00 | |
| IW2NTF | 2026-09-02 01:46:13 | 45.61664 | 9.95113 | 130° | 11km/h | 1702m | -5.6m/s | 14.5°C | 79.8% | 0hPa | 2.6V | 08:00:10 | 03:12:27 | 00:00:00 | |
| IW2NTF | 2026-09-02 01:46:13 | 45.61667 | 9.95108 | 117° | 9km/h | 1713m | -5.5m/s | 14.4°C | 82.6% | 0hPa | 2.7V | 08:00:12 | 03:12:25 | 00:00:00 | |
| IW2NTF | 2026-09-02 01:46:07 | 45.61669 | 9.95101 | 118° | 13km/h | 1723m | -5.4m/s | 14.3°C | 82.7% | 0hPa | 2.7V | 08:00:14 | 03:12:23 | 00:00:00 | |
| IW2NTF | 2026-09-02 01:46:07 | 45.61673 | 9.95094 | 129° | 11km/h | 1734m | -5.6m/s | 14.2°C | 84% | 0hPa | 2.7V | 08:00:16 | 03:12:21 | 00:00:00 | |
| IW2NTF | 2026-09-02 01:46:07 | 45.61675 | 9.95088 | 116° | 9km/h | 1746m | -5.3m/s | 14.1°C | 84.8% | 0hPa | 2.6V | 08:00:18 | 03:12:19 | 00:00:00 | |
| IW2NTF | 2026-09-02 01:45:59 | 45.61681 | 9.95073 | 127° | 13km/h | 1768m | -5.6m/s | 13.9°C | 84.7% | 0hPa | 2.7V | 08:00:22 | 03:12:15 | 00:00:00 | |
| IW2NTF | 2026-09-02 01:45:59 | 45.61684 | 9.95066 | 129° | 9km/h | 1779m | -5.5m/s | 13.8°C | 84.3% | 0hPa | 2.6V | 08:00:24 | 03:12:13 | 00:00:00 | |
| IW2NTF | 2026-09-02 01:45:59 | 45.61687 | 9.95060 | 113° | 11km/h | 1790m | -5.5m/s | 13.7°C | 85.3% | 0hPa | 2.7V | 08:00:26 | 03:12:11 | 00:00:00 | |
| IW2NTF | 2026-09-02 01:45:53 | 45.61690 | 9.95052 | 120° | 13km/h | 1801m | -5.4m/s | 13.7°C | 83.1% | 0hPa | 2.7V | 08:00:28 | 03:12:09 | 00:00:00 | |
| IW2NTF | 2026-09-02 01:45:53 | 45.61694 | 9.95044 | 131° | 11km/h | 1812m | -5.5m/s | 13.6°C | 82.1% | 0hPa | 2.7V | 08:00:30 | 03:12:07 | 00:00:00 | |
| IW2NTF | 2026-09-02 01:45:53 | 45.61697 | 9.95038 | 121° | 9km/h | 1823m | -5.6m/s | 13.5°C | 81.7% | 0hPa | 2.6V | 08:00:32 | 03:12:05 | 00:00:00 | |
| IW2NTF | 2026-09-02 01:45:47 | 45.61699 | 9.95031 | 113° | 11km/h | 1834m | -5.5m/s | 13.4°C | 82.4% | 0hPa | 2.7V | 08:00:34 | 03:12:03 | 00:00:00 | |
| IW2NTF | 2026-09-02 01:45:47 | 45.61703 | 9.95024 | 127° | 13km/h | 1845m | -5.4m/s | 13.3°C | 82.9% | 0hPa | 2.7V | 08:00:36 | 03:12:01 | 00:00:00 | |
| IW2NTF | 2026-09-02 01:45:47 | 45.61707 | 9.95017 | 129° | 11km/h | 1856m | -5.7m/s | 13.2°C | 83.5% | 0hPa | 2.7V | 08:00:38 | 03:11:59 | 00:00:00 | |
| IW2NTF | 2026-09-02 01:45:41 | 45.61709 | 9.95011 | 116° | 11km/h | 1868m | -5.8m/s | 13.2°C | 83.2% | 0hPa | 2.6V | 08:00:40 | 03:11:57 | 00:00:00 | |
| IW2NTF | 2026-09-02 01:45:41 | 45.61712 | 9.95003 | 123° | 15km/h | 1879m | -5.7m/s | 13.1°C | 82.9% | 0hPa | 2.7V | 08:00:42 | 03:11:55 | 00:00:00 | |
| IW2NTF | 2026-09-02 01:45:41 | 45.61717 | 9.94995 | 131° | 13km/h | 1890m | -5.4m/s | 13°C | 82.9% | 0hPa | 2.7V | 08:00:44 | 03:11:53 | 00:00:00 | |
| IW2NTF | 2026-09-02 01:45:35 | 45.61720 | 9.94988 | 116° | 13km/h | 1900m | -5.4m/s | 12.9°C | 82.8% | 0hPa | 2.6V | 08:00:46 | 03:11:51 | 00:00:00 | |
| IW2NTF | 2026-09-02 01:45:35 | 45.61723 | 9.94980 | 115° | 15km/h | 1912m | -5.7m/s | 12.8°C | 83.1% | 0hPa | 2.7V | 08:00:48 | 03:11:49 | 00:00:00 | |
| IW2NTF | 2026-09-02 01:45:35 | 45.61726 | 9.94971 | 125° | 11km/h | 1923m | -5.2m/s | 12.8°C | 83.3% | 0hPa | 2.7V | 08:00:50 | 03:11:47 | 00:00:00 | |
| IW2NTF | 2026-09-02 01:45:29 | 45.61729 | 9.94966 | 114° | 7km/h | 1933m | -5.5m/s | 12.7°C | 82.7% | 0hPa | 2.7V | 08:00:52 | 03:11:45 | 00:00:00 | |
| IW2NTF | 2026-09-02 01:45:29 | 45.61730 | 9.94959 | 102° | 11km/h | 1945m | -5.4m/s | 12.6°C | 83.1% | 0hPa | 2.6V | 08:00:54 | 03:11:43 | 00:00:00 | |
| IW2NTF | 2026-09-02 01:45:29 | 45.61732 | 9.94950 | 113° | 15km/h | 1955m | -5.4m/s | 12.5°C | 82.8% | 0hPa | 2.7V | 08:00:56 | 03:11:41 | 00:00:00 | |
| IW2NTF | 2026-09-02 01:45:23 | 45.61736 | 9.94942 | 123° | 13km/h | 1965m | -5.2m/s | 12.5°C | 82% | 0hPa | 2.7V | 08:00:58 | 03:11:39 | 00:00:00 | |
| IW2NTF | 2026-09-02 01:45:23 | 45.61738 | 9.94934 | 108° | 11km/h | 1976m | -5.4m/s | 12.4°C | 79.3% | 0hPa | 2.7V | 08:01:00 | 03:11:37 | 00:00:00 | |
| IW2NTF | 2026-09-02 01:45:23 | 45.61740 | 9.94925 | 111° | 15km/h | 1987m | -5.6m/s | 12.5°C | 74.7% | 0hPa | 2.7V | 08:01:02 | 03:11:35 | 00:00:00 | |
| IW2NTF | 2026-09-02 01:45:17 | 45.61744 | 9.94916 | 121° | 13km/h | 1998m | -5.2m/s | 12.4°C | 73.8% | 0hPa | 2.7V | 08:01:04 | 03:11:33 | 00:00:00 | |
| IW2NTF | 2026-09-02 01:45:17 | 45.61749 | 9.94899 | 109° | 15km/h | 2019m | -5.5m/s | 12.3°C | 72% | 0hPa | 2.7V | 08:01:08 | 03:11:29 | 00:00:00 | |
| IW2NTF | 2026-09-02 01:45:11 | 45.61756 | 9.94873 | 99° | 13km/h | 2051m | -5.5m/s | 12.1°C | 71.5% | 0hPa | 2.6V | 08:01:14 | 03:11:23 | 00:00:00 | |
| IW2NTF | 2026-09-02 01:45:05 | 45.61764 | 9.94846 | 106° | 13km/h | 2084m | -5.3m/s | 12.1°C | 62% | 0hPa | 2.7V | 08:01:20 | 03:11:17 | 00:00:00 | |
| IW2NTF | 2026-09-02 01:44:59 | 45.61770 | 9.94815 | 99° | 15km/h | 2116m | -5.3m/s | 12.1°C | 57.4% | 0hPa | 2.7V | 08:01:26 | 03:11:11 | 00:00:00 | |
| IW2NTF | 2026-09-02 01:44:53 | 45.61777 | 9.94783 | 107° | 13km/h | 2148m | -5.1m/s | 11.8°C | 62.3% | 0hPa | 2.7V | 08:01:32 | 03:11:05 | 00:00:00 | |
| IW2NTF | 2026-09-02 01:44:48 | 45.61784 | 9.94749 | 116° | 16km/h | 2179m | -5.1m/s | 11.7°C | 64.6% | 0hPa | 2.6V | 08:01:38 | 03:10:59 | 00:00:00 | |
| IW2NTF | 2026-09-02 01:44:39 | 45.61795 | 9.94700 | 101° | 16km/h | 2221m | -5m/s | 11.7°C | 45.7% | 0hPa | 2.6V | 08:01:46 | 03:10:51 | 00:00:00 | |
| IW2NTF | 2026-09-02 01:44:33 | 45.61800 | 9.94662 | 97° | 16km/h | 2252m | -5.3m/s | 11.4°C | 56.1% | 0hPa | 2.7V | 08:01:52 | 03:10:45 | 00:00:00 | |
| IW2NTF | 2026-09-02 01:44:27 | 45.61803 | 9.94621 | 97° | 16km/h | 2283m | -5.2m/s | 11.2°C | 59.8% | 0hPa | 2.7V | 08:01:58 | 03:10:39 | 00:00:00 | |
| IW2NTF | 2026-09-02 01:44:21 | 45.61805 | 9.94585 | 100° | 15km/h | 2315m | -5.5m/s | 11.2°C | 58.6% | 0hPa | 2.7V | 08:02:04 | 03:10:33 | 00:00:00 | |
| IW2NTF | 2026-09-02 01:44:15 | 45.61808 | 9.94550 | 100° | 15km/h | 2347m | -5.6m/s | 11.1°C | 58.3% | 0hPa | 2.7V | 08:02:10 | 03:10:27 | 00:00:00 | |
| IW2NTF | 2026-09-02 01:44:09 | 45.61809 | 9.94517 | 99° | 16km/h | 2379m | -5.2m/s | 10.9°C | 60.5% | 0hPa | 2.6V | 08:02:16 | 03:10:21 | 00:00:00 | |
| IW2NTF | 2026-09-02 01:44:03 | 45.61812 | 9.94485 | 97° | 18km/h | 2411m | -5.4m/s | 10.6°C | 62% | 0hPa | 2.7V | 08:02:22 | 03:10:15 | 00:00:00 | |
| IW2NTF | 2026-09-02 01:43:57 | 45.61817 | 9.94452 | 88° | 15km/h | 2443m | -5.4m/s | 10.3°C | 62.6% | 0hPa | 2.7V | 08:02:28 | 03:10:09 | 00:00:00 | |
| IW2NTF | 2026-09-02 01:43:52 | 45.61821 | 9.94417 | 102° | 15km/h | 2475m | -5.5m/s | 10.1°C | 63.5% | 0hPa | 2.7V | 08:02:34 | 03:10:03 | 00:00:00 | |
| IW2NTF | 2026-09-02 01:43:45 | 45.61825 | 9.94383 | 107° | 16km/h | 2508m | -5.5m/s | 9.8°C | 64% | 0hPa | 2.7V | 08:02:40 | 03:09:57 | 00:00:00 | |
| IW2NTF | 2026-09-02 01:43:39 | 45.61828 | 9.94349 | 101° | 18km/h | 2540m | -5.3m/s | 9.7°C | 60.1% | 0hPa | 2.7V | 08:02:46 | 03:09:51 | 00:00:00 | |
| IW2NTF | 2026-09-02 01:43:33 | 45.61831 | 9.94316 | 98° | 16km/h | 2573m | -5.4m/s | 9.6°C | 52.2% | 0hPa | 2.6V | 08:02:52 | 03:09:45 | 00:00:00 | |
| IW2NTF | 2026-09-02 01:43:27 | 45.61835 | 9.94284 | 95° | 16km/h | 2605m | -5.4m/s | 9.3°C | 52.5% | 0hPa | 2.6V | 08:02:58 | 03:09:39 | 00:00:00 | |
| IW2NTF | 2026-09-02 01:43:21 | 45.61840 | 9.94250 | 90° | 15km/h | 2637m | -5.5m/s | 8.9°C | 63.7% | 0hPa | 2.6V | 08:03:04 | 03:09:33 | 00:00:00 | |
| IW2NTF | 2026-09-02 01:43:15 | 45.61843 | 9.94218 | 88° | 13km/h | 2670m | -5.5m/s | 8.6°C | 62.3% | 0hPa | 2.7V | 08:03:10 | 03:09:27 | 00:00:00 | |
| IW2NTF | 2026-09-02 01:43:09 | 45.61844 | 9.94184 | 96° | 13km/h | 2702m | -5.4m/s | 8.5°C | 57.2% | 0hPa | 2.7V | 08:03:16 | 03:09:21 | 00:00:00 | |
| IW2NTF | 2026-09-02 01:43:03 | 45.61843 | 9.94151 | 93° | 16km/h | 2735m | -5.6m/s | 8.3°C | 58.1% | 0hPa | 2.7V | 08:03:22 | 03:09:15 | 00:00:00 | |
| IW2NTF | 2026-09-02 01:42:57 | 45.61843 | 9.94116 | 95° | 20km/h | 2767m | -5.4m/s | 8.1°C | 57.3% | 0hPa | 2.7V | 08:03:28 | 03:09:09 | 00:00:00 | |
| IW2NTF | 2026-09-02 01:42:51 | 45.61844 | 9.94079 | 86° | 20km/h | 2799m | -5.3m/s | 7.8°C | 61.1% | 0hPa | 2.7V | 08:03:34 | 03:09:03 | 00:00:00 | |
| IW2NTF | 2026-09-02 01:42:45 | 45.61845 | 9.94040 | 82° | 16km/h | 2833m | -5.8m/s | 7.6°C | 57.2% | 0hPa | 2.7V | 08:03:40 | 03:08:57 | 00:00:00 | |
| IW2NTF | 2026-09-02 01:42:40 | 45.61844 | 9.94001 | 91° | 15km/h | 2866m | -5.9m/s | 7.5°C | 48.6% | 0hPa | 2.7V | 08:03:46 | 03:08:51 | 00:00:00 | |
| IW2NTF | 2026-09-02 01:42:33 | 45.61846 | 9.93963 | 97° | 15km/h | 2900m | -5.5m/s | 7.3°C | 47.3% | 0hPa | 2.6V | 08:03:52 | 03:08:45 | 00:00:00 | |
| IW2NTF | 2026-09-02 01:42:27 | 45.61843 | 9.93926 | 93° | 20km/h | 2932m | -5.5m/s | 7°C | 45% | 0hPa | 2.5V | 08:03:58 | 03:08:39 | 00:00:00 | |
| IW2NTF | 2026-09-02 01:42:21 | 45.61846 | 9.93890 | 90° | 18km/h | 2965m | -5.4m/s | 6.8°C | 45.1% | 0hPa | 2.5V | 08:04:04 | 03:08:33 | 00:00:00 | |
| IW2NTF | 2026-09-02 01:42:15 | 45.61846 | 9.93853 | 86° | 18km/h | 2998m | -5.7m/s | 6.5°C | 45% | 0hPa | 2.5V | 08:04:10 | 03:08:27 | 00:00:00 | |
| IW2NTF | 2026-09-02 01:42:09 | 45.61849 | 9.93816 | 92° | 15km/h | 3032m | -5.5m/s | 6.2°C | 45.1% | 0hPa | 2.5V | 08:04:16 | 03:08:21 | 00:00:00 | |
| IW2NTF | 2026-09-02 01:42:03 | 45.61852 | 9.93782 | 94° | 15km/h | 3065m | -5.7m/s | 5.8°C | 45.8% | 0hPa | 2.5V | 08:04:22 | 03:08:15 | 00:00:00 | |
| IW2NTF | 2026-09-02 01:41:57 | 45.61855 | 9.93745 | 108° | 16km/h | 3099m | -5.6m/s | 5.5°C | 46.5% | 0hPa | 2.5V | 08:04:28 | 03:08:09 | 00:00:00 | |
| IW2NTF | 2026-09-02 01:41:51 | 45.61860 | 9.93707 | 106° | 20km/h | 3131m | -5.8m/s | 5.2°C | 47.4% | 0hPa | 2.5V | 08:04:34 | 03:08:03 | 00:00:00 | |
| IW2NTF | 2026-09-02 01:41:45 | 45.61864 | 9.93669 | 97° | 22km/h | 3164m | -6m/s | 4.9°C | 45.2% | 0hPa | 2.5V | 08:04:40 | 03:07:57 | 00:00:00 | |
| IW2NTF | 2026-09-02 01:41:39 | 45.61872 | 9.93626 | 97° | 16km/h | 3198m | -5.4m/s | 4.6°C | 44.6% | 0hPa | 2.6V | 08:04:46 | 03:07:51 | 00:00:00 | |
| IW2NTF | 2026-09-02 01:41:33 | 45.61875 | 9.93585 | 101° | 20km/h | 3231m | -6m/s | 4.4°C | 42.1% | 0hPa | 2.6V | 08:04:52 | 03:07:45 | 00:00:00 | |
| IW2NTF | 2026-09-02 01:41:27 | 45.61880 | 9.93536 | 100° | 24km/h | 3266m | -6.3m/s | 4.2°C | 41.6% | 0hPa | 2.6V | 08:04:58 | 03:07:39 | 00:00:00 | |
| IW2NTF | 2026-09-02 01:41:21 | 45.61889 | 9.93484 | 103° | 24km/h | 3300m | -6.1m/s | 4.1°C | 35.8% | 0hPa | 2.6V | 08:05:04 | 03:07:33 | 00:00:00 | |
| IW2NTF | 2026-09-02 01:41:15 | 45.61897 | 9.93435 | 104° | 24km/h | 3334m | -5.2m/s | 3.9°C | 32.8% | 0hPa | 2.6V | 08:05:10 | 03:07:27 | 00:00:00 | |
| IW2NTF | 2026-09-02 01:41:10 | 45.61903 | 9.93379 | 95° | 26km/h | 3368m | -5.6m/s | 3.7°C | 36.3% | 0hPa | 2.6V | 08:05:16 | 03:07:21 | 00:00:00 | |
| IW2NTF | 2026-09-02 01:41:03 | 45.61910 | 9.93325 | 101° | 26km/h | 3401m | -5.5m/s | 3.4°C | 40.2% | 0hPa | 2.6V | 08:05:22 | 03:07:15 | 00:00:00 | |
| IW2NTF | 2026-09-02 01:40:57 | 45.61914 | 9.93263 | 91° | 27km/h | 3433m | -5m/s | 3°C | 43.3% | 0hPa | 2.6V | 08:05:28 | 03:07:09 | 00:00:00 | |
| IW2NTF | 2026-09-02 01:40:51 | 45.61919 | 9.93205 | 96° | 27km/h | 3466m | -5.5m/s | 2.7°C | 46.1% | 0hPa | 2.5V | 08:05:34 | 03:07:03 | 00:00:00 | |
| IW2NTF | 2026-09-02 01:40:45 | 45.61927 | 9.93146 | 100° | 29km/h | 3498m | -5.3m/s | 2.6°C | 45.7% | 0hPa | 2.5V | 08:05:40 | 03:06:57 | 00:00:00 | |
| IW2NTF | 2026-09-02 01:40:39 | 45.61936 | 9.93085 | 102° | 29km/h | 3531m | -5.8m/s | 2.5°C | 37.2% | 0hPa | 2.5V | 08:05:46 | 03:06:51 | 00:00:00 | |
| IW2NTF | 2026-09-02 01:40:33 | 45.61947 | 9.93024 | 108° | 29km/h | 3567m | -6.3m/s | 2.2°C | 31.2% | 0hPa | 2.6V | 08:05:52 | 03:06:45 | 00:00:00 | |
| IW2NTF | 2026-09-02 01:40:27 | 45.61964 | 9.92961 | 112° | 31km/h | 3603m | -6.2m/s | 1.9°C | 30% | 0hPa | 2.5V | 08:05:58 | 03:06:39 | 00:00:00 | |
| IW2NTF | 2026-09-02 01:40:21 | 45.61983 | 9.92901 | 117° | 29km/h | 3638m | -6.3m/s | 1.8°C | 22% | 0hPa | 2.5V | 08:06:04 | 03:06:33 | 00:00:00 | |
| IW2NTF | 2026-09-02 01:40:15 | 45.62007 | 9.92845 | 122° | 31km/h | 3673m | -6.4m/s | 1.5°C | 16.8% | 0hPa | 2.6V | 08:06:10 | 03:06:27 | 00:00:00 | |
| IW2NTF | 2026-09-02 01:40:10 | 45.62033 | 9.92792 | 126° | 27km/h | 3709m | -6.3m/s | 1.5°C | 14.9% | 0hPa | 2.6V | 08:06:16 | 03:06:21 | 00:00:00 | |
| IW2NTF | 2026-09-02 01:40:03 | 45.62060 | 9.92743 | 127° | 29km/h | 3744m | -6.9m/s | 1.7°C | 19.7% | 0hPa | 2.6V | 08:06:22 | 03:06:15 | 00:00:00 | |
| IW2NTF | 2026-09-02 01:39:57 | 45.62085 | 9.92692 | 124° | 29km/h | 3805m | -15m/s | 1.4°C | 19.4% | 0hPa | 2.5V | 08:06:28 | 03:06:09 | 00:00:00 | |
| IW2NTF | 2026-09-02 01:39:51 | 45.62107 | 9.92640 | 115° | 29km/h | 3890m | -14.5m/s | 0.9°C | 18.3% | 0hPa | 2.5V | 08:06:34 | 03:06:03 | 00:00:00 | |
| IW2NTF | 2026-09-02 01:39:45 | 45.62126 | 9.92587 | 113° | 29km/h | 3971m | -14.2m/s | 0.3°C | 18.7% | 0hPa | 2.5V | 08:06:40 | 03:05:57 | 00:00:00 | |
| IW2NTF | 2026-09-02 01:39:39 | 45.62146 | 9.92531 | 118° | 26km/h | 4052m | -12.8m/s | -0.3°C | 20.3% | 0hPa | 2.5V | 08:06:46 | 03:05:51 | 00:00:00 | |
| IW2NTF | 2026-09-02 01:39:34 | 45.62162 | 9.92489 | 123° | 29km/h | 4118m | -14.2m/s | -0.7°C | 29.3% | 0hPa | 2.6V | 08:06:51 | 03:05:46 | 00:00:00 | |
| IW2NTF | 2026-09-02 01:39:28 | 45.62183 | 9.92439 | 124° | 29km/h | 4196m | -14.3m/s | -1.3°C | 31.3% | 0hPa | 2.6V | 08:06:57 | 03:05:40 | 00:00:00 | |
| IW2NTF | 2026-09-02 01:39:22 | 45.62205 | 9.92391 | 115° | 24km/h | 4272m | -13.8m/s | -2°C | 32.9% | 0hPa | 2.6V | 08:07:03 | 03:05:34 | 00:00:00 | |
| IW2NTF | 2026-09-02 01:39:16 | 45.62223 | 9.92343 | 111° | 24km/h | 4350m | -13m/s | -2.6°C | 27.1% | 0hPa | 2.5V | 08:07:09 | 03:05:28 | 00:00:00 | |
| IW2NTF | 2026-09-02 01:39:11 | 45.62240 | 9.92292 | 108° | 27km/h | 4428m | -12.7m/s | -3°C | 17.6% | 0hPa | 2.6V | 08:07:15 | 03:05:22 | 00:00:00 | |
| IW2NTF | 2026-09-02 01:39:04 | 45.62257 | 9.92236 | 115° | 31km/h | 4508m | -13.7m/s | -3.4°C | 12.6% | 0hPa | 2.6V | 08:07:21 | 03:05:16 | 00:00:00 | |
| IW2NTF | 2026-09-02 01:38:58 | 45.62271 | 9.92172 | 101° | 29km/h | 4586m | -13.8m/s | -3.8°C | 7.9% | 0hPa | 2.5V | 08:07:27 | 03:05:10 | 00:00:00 | |
| IW2NTF | 2026-09-02 01:38:52 | 45.62281 | 9.92103 | 97° | 33km/h | 4666m | -12.3m/s | -4.3°C | 8% | 0hPa | 2.6V | 08:07:33 | 03:05:04 | 00:00:00 | |
| IW2NTF | 2026-09-02 01:38:46 | 45.62289 | 9.92025 | 101° | 37km/h | 4742m | -14m/s | -4.8°C | 9.4% | 0hPa | 2.6V | 08:07:39 | 03:04:58 | 00:00:00 | |
| IW2NTF | 2026-09-02 01:38:40 | 45.62296 | 9.91945 | 93° | 38km/h | 4819m | -13.3m/s | -5.3°C | 9.1% | 0hPa | 2.6V | 08:07:45 | 03:04:52 | 00:00:00 | |
| IW2NTF | 2026-09-02 01:38:34 | 45.62302 | 9.91863 | 97° | 37km/h | 4898m | -12.8m/s | -5.8°C | 7.6% | 0hPa | 2.6V | 08:07:51 | 03:04:46 | 00:00:00 | |
| IW2NTF | 2026-09-02 01:38:28 | 45.62310 | 9.91780 | 96° | 40km/h | 4975m | -13.9m/s | -6.4°C | 7.8% | 0hPa | 2.5V | 08:07:57 | 03:04:40 | 00:00:00 | |
| IW2NTF | 2026-09-02 01:38:22 | 45.62315 | 9.91695 | 89° | 38km/h | 5054m | -13.4m/s | -6.9°C | 7.7% | 0hPa | 2.5V | 08:08:03 | 03:04:34 | 00:00:00 | |
| IW2NTF | 2026-09-02 01:38:12 | 45.62322 | 9.91541 | 90° | 42km/h | 5182m | -13.3m/s | -7.9°C | 7.8% | 0hPa | 2.5V | 08:08:13 | 03:04:24 | 00:00:00 | |
| IW2NTF | 2026-09-02 01:38:02 | 45.62328 | 9.91374 | 92° | 47km/h | 5309m | -13.3m/s | -8.6°C | 6.2% | 0hPa | 2.5V | 08:08:23 | 03:04:14 | 00:00:00 | |
| IW2NTF | 2026-09-02 01:37:53 | 45.62328 | 9.91192 | 88° | 49km/h | 5435m | -12.2m/s | -9.6°C | 26.4% | 0hPa | 2.6V | 08:08:33 | 03:04:04 | 00:00:00 | |
| IW2NTF | 2026-09-02 01:37:42 | 45.62327 | 9.91002 | 90° | 51km/h | 5555m | -11.8m/s | -10.5°C | 21.6% | 0hPa | 2.5V | 08:08:43 | 03:03:54 | 00:00:00 | |
| IW2NTF | 2026-09-02 01:37:32 | 45.62325 | 9.90811 | 88° | 51km/h | 5679m | -12m/s | -11.6°C | 21.4% | 0hPa | 2.6V | 08:08:53 | 03:03:44 | 00:00:00 | |
| IW2NTF | 2026-09-02 01:37:22 | 45.62323 | 9.90619 | 89° | 51km/h | 5801m | -12.4m/s | -12.8°C | 23% | 0hPa | 2.5V | 08:09:03 | 03:03:34 | 00:00:00 | |
| IW2NTF | 2026-09-02 01:37:12 | 45.62319 | 9.90425 | 87° | 53km/h | 5920m | -11.7m/s | -13.9°C | 24.7% | 0hPa | 2.6V | 08:09:13 | 03:03:24 | 00:00:00 | |
| IW2NTF | 2026-09-02 01:37:02 | 45.62321 | 9.90223 | 92° | 60km/h | 6044m | -12.9m/s | -15°C | 29.8% | 0hPa | 2.5V | 08:09:23 | 03:03:14 | 00:00:00 | |
| IW2NTF | 2026-09-02 01:36:52 | 45.62329 | 9.90002 | 93° | 64km/h | 6165m | -13.4m/s | -16.2°C | 35% | 0hPa | 2.6V | 08:09:33 | 03:03:04 | 00:00:00 | |
| IW2NTF | 2026-09-02 01:36:42 | 45.62325 | 9.89769 | 85° | 64km/h | 6293m | -12.8m/s | -17.5°C | 55% | 0hPa | 2.5V | 08:09:43 | 03:02:54 | 00:00:00 | |
| IW2NTF | 2026-09-02 01:36:32 | 45.62312 | 9.89536 | 86° | 66km/h | 6421m | -13.6m/s | -18.7°C | 60.3% | 0hPa | 2.5V | 08:09:53 | 03:02:44 | 00:00:00 | |
| IW2NTF | 2026-09-02 01:36:22 | 45.62294 | 9.89305 | 83° | 64km/h | 6549m | -13.2m/s | -19.9°C | 62.8% | 0hPa | 2.5V | 08:10:03 | 03:02:34 | 00:00:00 | |
| IW2NTF | 2026-09-02 01:36:12 | 45.62271 | 9.89071 | 79° | 64km/h | 6673m | -12.4m/s | -21.1°C | 69.4% | 0hPa | 2.5V | 08:10:13 | 03:02:24 | 00:00:00 | |
| IW2NTF | 2026-09-02 01:36:02 | 45.62249 | 9.88833 | 83° | 68km/h | 6792m | -12.8m/s | -22.3°C | 76.4% | 0hPa | 2.6V | 08:10:23 | 03:02:14 | 00:00:00 | |
| IW2NTF | 2026-09-02 01:35:52 | 45.62224 | 9.88592 | 79° | 69km/h | 6914m | -13m/s | -23.2°C | 84.8% | 0hPa | 2.6V | 08:10:33 | 03:02:04 | 00:00:00 | |
| IW2NTF | 2026-09-02 01:35:42 | 45.62192 | 9.88346 | 81° | 69km/h | 7037m | -12.7m/s | -23.8°C | 83% | 0hPa | 2.6V | 08:10:43 | 03:01:54 | 00:00:00 | |
| IW2NTF | 2026-09-02 01:35:33 | 45.62159 | 9.88098 | 78° | 69km/h | 7159m | -11.6m/s | -24.7°C | 84.8% | 0hPa | 2.4V | 08:10:53 | 03:01:44 | 00:00:00 | |
| IW2NTF | 2026-09-02 01:35:22 | 45.62132 | 9.87843 | 84° | 73km/h | 7272m | -11.6m/s | -25.3°C | 81.2% | 0hPa | 2.6V | 08:11:03 | 03:01:34 | 00:00:00 | |
| IW2NTF | 2026-09-02 01:35:12 | 45.62125 | 9.87578 | 91° | 73km/h | 7390m | -13.5m/s | -25.7°C | 85.1% | 0hPa | 2.4V | 08:11:13 | 03:01:24 | 00:00:00 | |
| IW2NTF | 2026-09-02 01:35:00 | 45.62128 | 9.87260 | 90° | 75km/h | 7534m | -13.3m/s | -26.4°C | 85.1% | 0hPa | 2.4V | 08:11:25 | 03:01:12 | 00:00:00 | |
| IW2NTF | 2026-09-02 01:34:50 | 45.62131 | 9.86991 | 88° | 73km/h | 7654m | -13.3m/s | -27.2°C | 85.5% | 0hPa | 2.5V | 08:11:35 | 03:01:02 | 00:00:00 | |
| IW2NTF | 2026-09-02 01:34:40 | 45.62127 | 9.86714 | 85° | 80km/h | 7781m | -13.2m/s | -28.3°C | 86% | 0hPa | 2.6V | 08:11:45 | 03:00:52 | 00:00:00 | |
| IW2NTF | 2026-09-02 01:34:30 | 45.62108 | 9.86435 | 84° | 77km/h | 7916m | -14.3m/s | -29.1°C | 79.4% | 0hPa | 2.6V | 08:11:55 | 03:00:42 | 00:00:00 | |
| IW2NTF | 2026-09-02 01:34:20 | 45.62082 | 9.86160 | 82° | 78km/h | 8060m | -14.9m/s | -30.1°C | 78.1% | 0hPa | 2.4V | 08:12:05 | 03:00:32 | 00:00:00 | |
| IW2NTF | 2026-09-02 01:34:10 | 45.62061 | 9.85885 | 84° | 75km/h | 8208m | -15.3m/s | -31.1°C | 72.2% | 0hPa | 2.4V | 08:12:15 | 03:00:22 | 00:00:00 | |
| IW2NTF | 2026-09-02 01:34:00 | 45.62041 | 9.85605 | 86° | 80km/h | 8356m | -14.4m/s | -31.8°C | 72.1% | 0hPa | 2.5V | 08:12:25 | 03:00:12 | 00:00:00 | |
| IW2NTF | 2026-09-02 01:33:50 | 45.62029 | 9.85307 | 89° | 82km/h | 8494m | -14.8m/s | -32.5°C | 81.8% | 0hPa | 2.4V | 08:12:35 | 03:00:02 | 00:00:00 | |
| IW2NTF | 2026-09-02 01:33:40 | 45.62024 | 9.85021 | 85° | 78km/h | 8637m | -17.2m/s | -33°C | 70% | 0hPa | 2.5V | 08:12:45 | 02:59:52 | 00:00:00 | |
| IW2NTF | 2026-09-02 01:33:30 | 45.62013 | 9.84741 | 85° | 77km/h | 8774m | -13.1m/s | -34.2°C | 72.2% | 0hPa | 2.5V | 08:12:55 | 02:59:42 | 00:00:00 | |
| IW2NTF | 2026-09-02 01:33:20 | 45.61997 | 9.84456 | 86° | 78km/h | 8916m | -15.4m/s | -35.2°C | 70.9% | 0hPa | 2.5V | 08:13:05 | 02:59:32 | 00:00:00 | |
| IW2NTF | 2026-09-02 01:33:10 | 45.61978 | 9.84155 | 83° | 86km/h | 9051m | -13.6m/s | -36.2°C | 74.9% | 0hPa | 2.5V | 08:13:15 | 02:59:22 | 00:00:00 | |
| IW2NTF | 2026-09-02 01:33:00 | 45.61959 | 9.83838 | 86° | 91km/h | 9179m | -13.8m/s | -37.2°C | 72.4% | 0hPa | 2.6V | 08:13:25 | 02:59:12 | 00:00:00 | |
| IW2NTF | 2026-09-02 01:32:50 | 45.61940 | 9.83513 | 85° | 91km/h | 9309m | -13.2m/s | -38.1°C | 69.1% | 0hPa | 2.6V | 08:13:35 | 02:59:02 | 00:00:00 | |
| IW2NTF | 2026-09-02 01:32:40 | 45.61916 | 9.83179 | 82° | 95km/h | 9434m | -12.7m/s | -39.1°C | 68.6% | 0hPa | 2.5V | 08:13:45 | 02:58:52 | 00:00:00 | |
| IW2NTF | 2026-09-02 01:32:30 | 45.61892 | 9.82830 | 84° | 100km/h | 9561m | -13.8m/s | -39.8°C | 79.4% | 0hPa | 2.6V | 08:13:55 | 02:58:42 | 00:00:00 | |
| IW2NTF | 2026-09-02 01:32:20 | 45.61873 | 9.82467 | 85° | 102km/h | 9694m | -13.4m/s | -40.6°C | 71.1% | 0hPa | 2.6V | 08:14:05 | 02:58:32 | 00:00:00 | |
| IW2NTF | 2026-09-02 01:32:10 | 45.61854 | 9.82097 | 85° | 104km/h | 9819m | -13.2m/s | -41.5°C | 63.8% | 0hPa | 2.5V | 08:14:15 | 02:58:22 | 00:00:00 | |
| IW2NTF | 2026-09-02 01:32:00 | 45.61828 | 9.81718 | 82° | 106km/h | 9948m | -12.4m/s | -42.2°C | 48% | 0hPa | 2.5V | 08:14:25 | 02:58:12 | 00:00:00 | |
| IW2NTF | 2026-09-02 01:31:50 | 45.61787 | 9.81336 | 79° | 108km/h | 10074m | -13.2m/s | -43.1°C | 49.1% | 0hPa | 2.5V | 08:14:35 | 02:58:02 | 00:00:00 | |
| IW2NTF | 2026-09-02 01:31:40 | 45.61745 | 9.80950 | 80° | 110km/h | 10218m | -16.2m/s | -44.5°C | 49.2% | 0hPa | 2.5V | 08:14:45 | 02:57:52 | 00:00:00 | |
| DO3MHA-11 | 2026-09-02 01:31:36 | 45.61749 | 9.80988 | 83° | 110km/h | 10203m | -16.4m/s | -44.3°C | 49.3% | 0hPa | 2.6V | 00:00:00 | 02:57:53 | 00:00:00 | |
| IW2NTF | 2026-09-02 01:31:30 | 45.61705 | 9.80557 | 80° | 111km/h | 10377m | -16.8m/s | -45.9°C | 50.6% | 0hPa | 2.5V | 08:14:55 | 02:57:42 | 00:00:00 | |
| DO3MHA-11 | 2026-09-02 01:31:26 | 45.61710 | 9.80597 | 81° | 111km/h | 10362m | -16.1m/s | -45.7°C | 50.6% | 0hPa | 2.6V | 00:00:00 | 02:57:43 | 00:00:00 | |
| IW2NTF | 2026-09-02 01:31:20 | 45.61653 | 9.80162 | 76° | 113km/h | 10536m | -16.5m/s | -47.1°C | 57.9% | 0hPa | 2.6V | 08:15:05 | 02:57:32 | 00:00:00 | |
| DO3MHA-11 | 2026-09-02 01:31:16 | 45.61660 | 9.80201 | 78° | 111km/h | 10520m | -16.4m/s | -46.9°C | 57.2% | 0hPa | 2.6V | 00:00:00 | 02:57:33 | 00:00:00 | |
| IW2NTF | 2026-09-02 01:31:10 | 45.61586 | 9.79771 | 77° | 110km/h | 10702m | -17.5m/s | -48.4°C | 57% | 0hPa | 2.6V | 08:15:15 | 02:57:22 | 00:00:00 | |
| DO3MHA-11 | 2026-09-02 01:31:06 | 45.61592 | 9.79810 | 76° | 111km/h | 10685m | -16.6m/s | -48.2°C | 57.3% | 0hPa | 2.6V | 00:00:00 | 02:57:23 | 00:00:00 | |
| IW2NTF | 2026-09-02 01:31:00 | 45.61520 | 9.79380 | 77° | 113km/h | 10864m | -15.7m/s | -49.9°C | 55.2% | 0hPa | 2.5V | 08:15:25 | 02:57:12 | 00:00:00 | |
| DO3MHA-11 | 2026-09-02 01:30:56 | 45.61526 | 9.79419 | 77° | 113km/h | 10849m | -15.0m/s | -49.7°C | 55.6% | 0hPa | 2.5V | 00:00:00 | 02:57:13 | 00:00:00 | |
| IW2NTF | 2026-09-02 01:30:50 | 45.61459 | 9.78977 | 77° | 117km/h | 11009m | -13.1m/s | -51.2°C | 50.1% | 0hPa | 2.5V | 08:15:35 | 02:57:02 | 00:00:00 | |
| DO3MHA-11 | 2026-09-02 01:30:45 | 45.61458 | 9.78977 | 78° | 117km/h | 11009m | -13.1m/s | -51.1°C | 50.1% | 0hPa | 2.5V | 00:00:00 | 02:57:02 | 00:00:00 | |
| IW2NTF | 2026-09-02 01:30:40 | 45.61399 | 9.78565 | 78° | 117km/h | 11145m | -13.7m/s | -52.2°C | 50.8% | 0hPa | 2.5V | 08:15:45 | 02:56:52 | 00:00:00 | |
| DO3MHA-11 | 2026-09-02 01:30:35 | 45.61399 | 9.78565 | 79° | 117km/h | 11146m | -13.7m/s | -52.1°C | 50.8% | 0hPa | 2.5V | 08:15:00 | 02:56:52 | 00:00:00 | |
| IW2NTF | 2026-09-02 01:30:31 | 45.61345 | 9.78147 | 81° | 119km/h | 11288m | -13.8m/s | -53.5°C | 54% | 0hPa | 2.5V | 08:15:55 | 02:56:42 | 00:00:00 | |
| DO3MHA-11 | 2026-09-02 01:30:25 | 45.61345 | 9.78147 | 82° | 119km/h | 11288m | -13.8m/s | -53.5°C | 54.0% | 0hPa | 2.4V | 00:00:00 | 02:56:42 | 00:00:00 | |
| IW2NTF | 2026-09-02 01:30:20 | 45.61300 | 9.77727 | 81° | 117km/h | 11424m | -15.3m/s | -54.8°C | 50.7% | 0hPa | 2.4V | 08:16:05 | 02:56:32 | 00:00:00 | |
| DO3MHA-11 | 2026-09-02 01:30:17 | 45.61300 | 9.77727 | 82° | 117km/h | 11425m | -15.3m/s | -54.7°C | 50.7% | 0hPa | 2.4V | 00:00:00 | 02:56:32 | 00:00:00 | |
| IW2NTF | 2026-09-02 01:30:10 | 45.61246 | 9.77315 | 77° | 117km/h | 11567m | -14m/s | -55.6°C | 46.8% | 0hPa | 2.4V | 08:16:15 | 02:56:22 | 00:00:00 | |
| DO3MHA-11 | 2026-09-02 01:30:05 | 45.61246 | 9.77314 | 78° | 120km/h | 11567m | -13.9m/s | -55.5°C | 46.8% | 0hPa | 2.4V | 00:00:00 | 02:56:22 | 00:00:00 | |
| IW2NTF | 2026-09-02 01:30:00 | 45.61177 | 9.76890 | 75° | 124km/h | 11707m | -13.6m/s | -56.8°C | 42.5% | 0hPa | 2.6V | 08:16:25 | 02:56:12 | 00:00:00 | |
| DO3MHA-11 | 2026-09-02 01:29:55 | 45.61177 | 9.76890 | 76° | 124km/h | 11707m | -13.5m/s | -56.7°C | 42.5% | 0hPa | 2.6V | 00:00:00 | 02:56:12 | 00:00:00 | |
| IW2NTF | 2026-09-02 01:29:50 | 45.61104 | 9.76456 | 78° | 122km/h | 11845m | -13.9m/s | -57.2°C | 32% | 0hPa | 2.6V | 08:16:35 | 02:56:02 | 00:00:00 | |
| DO3MHA-11 | 2026-09-02 01:29:45 | 45.61103 | 9.76456 | 79° | 120km/h | 11846m | -13.9m/s | -57.2°C | 32.0% | 0hPa | 2.5V | 00:00:00 | 02:56:02 | 00:00:00 | |
| IW2NTF | 2026-09-02 01:29:40 | 45.61055 | 9.76031 | 81° | 115km/h | 11987m | -14.8m/s | -56.9°C | 23.5% | 0hPa | 2.5V | 08:16:45 | 02:55:52 | 00:00:00 | |
| DO3MHA-11 | 2026-09-02 01:29:35 | 45.61055 | 9.76031 | 82° | 111km/h | 11987m | -14.7m/s | -56.9°C | 23.5% | 0hPa | 2.5V | 00:00:00 | 02:55:52 | 00:00:00 | |
| IW2NTF | 2026-09-02 01:29:30 | 45.61010 | 9.75640 | 79° | 108km/h | 12138m | -15.2m/s | -57.6°C | 18.4% | 0hPa | 2.6V | 08:16:55 | 02:55:42 | 00:00:00 | |
| DB0UT-7 | 2026-09-02 01:29:29 | 45.61030 | 9.75793 | 81° | 97km/h | 12077m | -15.7m/s | -57.5°C | 20.7% | 0hPa | 2.5V | 00:00:00 | 00:00:00 | 00:00:00 | |
| DO3MHA-11 | 2026-09-02 01:29:25 | 45.61010 | 9.75640 | 80° | 108km/h | 12138m | -15.2m/s | -57.6°C | 18.4% | 0hPa | 2.5V | 00:00:00 | 02:55:42 | 00:00:00 | |
| IW2NTF | 2026-09-02 01:29:20 | 45.60966 | 9.75258 | 83° | 108km/h | 12291m | -15.8m/s | -56.3°C | 11.2% | 0hPa | 2.5V | 08:17:05 | 02:55:32 | 00:00:00 | |
| DO3MHA-11 | 2026-09-02 01:29:15 | 45.60966 | 9.75258 | 84° | 102km/h | 12291m | -15.8m/s | -56.2°C | 11.2% | 0hPa | 2.6V | 00:00:00 | 02:55:32 | 00:00:00 | |
| IW2NTF | 2026-09-02 01:29:10 | 45.60945 | 9.74891 | 85° | 95km/h | 12447m | -15.9m/s | -55.8°C | 9.6% | 0hPa | 2.6V | 08:17:15 | 02:55:22 | 00:00:00 | |
| DO3MHA-11 | 2026-09-02 01:29:05 | 45.60945 | 9.74891 | 86° | 91km/h | 12447m | -15.8m/s | -55.7°C | 9.6% | 0hPa | 2.6V | 08:17:00 | 02:55:22 | 00:00:00 | |
| IW2NTF | 2026-09-02 01:28:58 | 45.60919 | 9.74497 | 84° | 88km/h | 12636m | -15.8m/s | -55°C | 7.8% | 0hPa | 2.5V | 08:17:27 | 02:55:10 | 00:00:00 | |
| DB0UT-7 | 2026-09-02 01:28:57 | 45.60929 | 9.74625 | 85° | 86km/h | 12573m | -16.2m/s | -55.5°C | 8.4% | 0hPa | 2.4V | 00:00:00 | 02:55:14 | 00:00:00 | |
| DO3MHA-11 | 2026-09-02 01:28:55 | 45.60924 | 9.74560 | 84° | 88km/h | 12605m | -15.5m/s | -55.4°C | 8.2% | 0hPa | 2.4V | 00:00:00 | 02:55:12 | 00:00:00 | |
| IW2NTF | 2026-09-02 01:28:48 | 45.60899 | 9.74184 | 82° | 84km/h | 12799m | -16.1m/s | -55.5°C | 7.6% | 0hPa | 2.4V | 08:17:37 | 02:55:00 | 00:00:00 | |
| DO3MHA-11 | 2026-09-02 01:28:45 | 45.60904 | 9.74244 | 84° | 82km/h | 12767m | -16.1m/s | -55.3°C | 7.7% | 0hPa | 2.5V | 00:00:00 | 02:55:02 | 00:00:00 | |
| IW2NTF | 2026-09-02 01:28:38 | 45.60859 | 9.73894 | 75° | 84km/h | 12960m | -16.3m/s | -55.4°C | 7.1% | 0hPa | 2.5V | 08:17:47 | 02:54:50 | 00:00:00 | |
| DO3MHA-11 | 2026-09-02 01:28:35 | 45.60869 | 9.73952 | 78° | 86km/h | 12927m | -16.9m/s | -55.7°C | 7.4% | 0hPa | 2.5V | 00:00:00 | 02:54:52 | 00:00:00 | |
| IW2NTF | 2026-09-02 01:28:28 | 45.60800 | 9.73590 | 74° | 89km/h | 13122m | -15.8m/s | -55.2°C | 6.5% | 0hPa | 2.6V | 08:17:57 | 02:54:40 | 00:00:00 | |
| DO3MHA-11 | 2026-09-02 01:28:25 | 45.60812 | 9.73653 | 74° | 91km/h | 13089m | -16.5m/s | -55.1°C | 6.6% | 0hPa | 2.6V | 00:00:00 | 02:54:42 | 00:00:00 | |
| DB0UT-7 | 2026-09-02 01:28:23 | 45.60799 | 9.73590 | 75° | 88km/h | 13122m | -15.7m/s | -55.1°C | 6.5% | 0hPa | 2.6V | 00:00:00 | 00:00:00 | 00:00:00 | |
| IW2NTF | 2026-09-02 01:28:18 | 45.60748 | 9.73270 | 78° | 88km/h | 13282m | -16.3m/s | -55°C | 5.9% | 0hPa | 2.5V | 08:18:07 | 02:54:30 | 00:00:00 | |
| DO3MHA-11 | 2026-09-02 01:28:15 | 45.60757 | 9.73334 | 79° | 88km/h | 13249m | -16.6m/s | -55.0°C | 6.1% | 0hPa | 2.6V | 00:00:00 | 02:54:32 | 00:00:00 | |
| NBG1-10 | 2026-09-02 01:28:14 | 45.60752 | 9.73301 | 78° | 93km/h | 13266m | -16.6m/s | -55.0°C | 6.0% | 0hPa | 2.6V | 00:00:00 | 02:54:31 | 00:00:00 | |
| IW2NTF | 2026-09-02 01:28:08 | 45.60701 | 9.72970 | 76° | 82km/h | 13457m | -18m/s | -54.9°C | 5.6% | 0hPa | 2.6V | 08:18:17 | 02:54:20 | 00:00:00 | |
| DO3MHA-11 | 2026-09-02 01:28:05 | 45.60710 | 9.73027 | 77° | 84km/h | 13421m | -18.0m/s | -54.6°C | 5.6% | 0hPa | 2.6V | 00:00:00 | 02:54:22 | 00:00:00 | |
| IW2NTF | 2026-09-02 01:27:58 | 45.60646 | 9.72670 | 76° | 91km/h | 13638m | -17.9m/s | -56°C | 5.8% | 0hPa | 2.5V | 08:18:27 | 02:54:10 | 00:00:00 | |
| DO3MHA-11 | 2026-09-02 01:27:55 | 45.60657 | 9.72733 | 77° | 93km/h | 13602m | -18.2m/s | -55.9°C | 5.8% | 0hPa | 2.5V | 00:00:00 | 02:54:12 | 00:00:00 | |
| DB0UT-7 | 2026-09-02 01:27:53 | 45.60646 | 9.72669 | 77° | 99km/h | 13638m | -17.9m/s | -55.9°C | 5.8% | 0hPa | 2.5V | 00:00:00 | 02:54:10 | 00:00:00 | |
| IW2NTF | 2026-09-02 01:27:48 | 45.60589 | 9.72335 | 74° | 99km/h | 13814m | -17.2m/s | -55°C | 5.2% | 0hPa | 2.5V | 08:18:37 | 02:54:00 | 00:00:00 | |
| DO3MHA-11 | 2026-09-02 01:27:45 | 45.60601 | 9.72403 | 76° | 99km/h | 13782m | -16.8m/s | -55.1°C | 5.3% | 0hPa | 2.5V | 00:00:00 | 02:54:02 | 00:00:00 | |
| NBG1-10 | 2026-09-02 01:27:41 | 45.60575 | 9.72267 | 74° | 95km/h | 13848m | -17.0m/s | -54.9°C | 5.2% | 0hPa | 2.5V | 08:18:00 | 02:53:58 | 00:00:00 | |
| IW2NTF | 2026-09-02 01:27:38 | 45.60526 | 9.71989 | 77° | 102km/h | 13979m | -17m/s | -55°C | 5.2% | 0hPa | 2.5V | 08:18:47 | 02:53:50 | 00:00:00 | |
| DO3MHA-11 | 2026-09-02 01:27:35 | 45.60538 | 9.72060 | 77° | 102km/h | 13947m | -16.6m/s | -55.2°C | 5.4% | 0hPa | 2.5V | 08:18:00 | 02:53:52 | 00:00:00 | |
| IW2NTF | 2026-09-02 01:27:28 | 45.60484 | 9.71623 | 82° | 100km/h | 14162m | -21.3m/s | -55.3°C | 5.3% | 0hPa | 2.5V | 08:18:57 | 02:53:40 | 00:00:00 | |
| DO3MHA-11 | 2026-09-02 01:27:25 | 45.60490 | 9.71696 | 82° | 97km/h | 14121m | -20.6m/s | -55.1°C | 5.3% | 0hPa | 2.6V | 00:00:00 | 02:53:42 | 00:00:00 | |
| DB0UT-7 | 2026-09-02 01:27:23 | 45.60484 | 9.71623 | 83° | 78km/h | 14162m | -21.2m/s | -55.2°C | 5.3% | 0hPa | 2.6V | 00:00:00 | 00:00:00 | 00:00:00 | |
| IW2NTF | 2026-09-02 01:27:18 | 45.60472 | 9.71289 | 93° | 82km/h | 14378m | -23.1m/s | -55.5°C | 5.2% | 0hPa | 2.6V | 08:19:07 | 02:53:30 | 00:00:00 | |
| DO3MHA-11 | 2026-09-02 01:27:15 | 45.60471 | 9.71351 | 90° | 78km/h | 14334m | -22.6m/s | -55.5°C | 5.2% | 0hPa | 2.5V | 00:00:00 | 02:53:32 | 00:00:00 | |
| NBG1-10 | 2026-09-02 01:27:08 | 45.60482 | 9.71148 | 97° | 71km/h | 14490m | -23.3m/s | -54.9°C | 4.9% | 0hPa | 2.5V | 00:00:00 | 02:53:25 | 00:00:00 | |
| IW2NTF | 2026-09-02 01:27:07 | 45.60489 | 9.70999 | 91° | 64km/h | 14626m | -21.8m/s | -55.3°C | 5% | 0hPa | 2.5V | 08:19:18 | 02:53:19 | 00:00:00 | |
| DF1GD-15 | 2026-09-02 01:27:06 | 45.60484 | 9.71122 | 95° | 73km/h | 14514m | -23.0m/s | -54.9°C | 2.4% | 0hPa | 2.5V | 08:19:00 | 00:00:00 | 00:00:00 | |
| DO3MHA-11 | 2026-09-02 01:27:05 | 45.60487 | 9.71071 | 96° | 66km/h | 14559m | -22.9m/s | -55.0°C | 4.9% | 0hPa | 2.5V | 00:00:00 | 02:53:22 | 00:00:00 | |
| IW2NTF | 2026-09-02 01:26:55 | 45.60471 | 9.70714 | 81° | 71km/h | 14856m | -18.3m/s | -55.6°C | 5.1% | 0hPa | 2.6V | 08:19:30 | 02:53:07 | 00:00:00 | |
| DO3MHA-11 | 2026-09-02 01:26:55 | 45.60482 | 9.70835 | 83° | 69km/h | 14766m | -18.6m/s | -55.5°C | 5.0% | 0hPa | 2.5V | 00:00:00 | 02:53:12 | 00:00:00 | |
| DB0UT-7 | 2026-09-02 01:26:53 | 45.60478 | 9.70787 | 83° | 73km/h | 14802m | -18.6m/s | -55.7°C | 5.1% | 0hPa | 2.5V | 08:19:00 | 02:53:10 | 00:00:00 | |
| IW2NTF | 2026-09-02 01:26:45 | 45.60445 | 9.70455 | 82° | 71km/h | 15040m | -18.8m/s | -56.2°C | 5.4% | 0hPa | 2.5V | 08:19:40 | 02:52:57 | 00:00:00 | |
| DO3MHA-11 | 2026-09-02 01:26:45 | 45.60456 | 9.70584 | 82° | 73km/h | 14948m | -18.0m/s | -55.4°C | 5.1% | 0hPa | 2.5V | 00:00:00 | 02:53:02 | 00:00:00 | |
| IW2NTF | 2026-09-02 01:26:35 | 45.60439 | 9.70188 | 91° | 77km/h | 15219m | -17.6m/s | -56°C | 5.3% | 0hPa | 2.5V | 08:19:50 | 02:52:47 | 00:00:00 | |
| DO3MHA-11 | 2026-09-02 01:26:35 | 45.60438 | 9.70324 | 90° | 75km/h | 15130m | -17.9m/s | -55.9°C | 5.4% | 0hPa | 2.5V | 00:00:00 | 02:52:52 | 00:00:00 | |
| IW2NTF | 2026-09-02 01:26:25 | 45.60447 | 9.69929 | 89° | 64km/h | 15399m | -18.3m/s | -54.6°C | 4.8% | 0hPa | 2.6V | 08:20:00 | 02:52:37 | 00:00:00 | |
| DO3MHA-11 | 2026-09-02 01:26:25 | 45.60444 | 9.70052 | 94° | 66km/h | 15309m | -18.3m/s | -55.1°C | 5.0% | 0hPa | 2.6V | 00:00:00 | 02:52:42 | 00:00:00 | |
| DB0UT-7 | 2026-09-02 01:26:23 | 45.60445 | 9.70000 | 93° | 62km/h | 15345m | -18.2m/s | -54.5°C | 4.7% | 0hPa | 2.6V | 00:00:00 | 00:00:00 | 00:00:00 | |
| IW2NTF | 2026-09-02 01:26:15 | 45.60431 | 9.69707 | 84° | 62km/h | 15578m | -18.7m/s | -55.4°C | 5.1% | 0hPa | 2.6V | 08:20:10 | 02:52:27 | 00:00:00 | |
| DO3MHA-11 | 2026-09-02 01:26:15 | 45.60440 | 9.69817 | 83° | 64km/h | 15488m | -17.5m/s | -55.0°C | 4.9% | 0hPa | 2.5V | 00:00:00 | 02:52:32 | 00:00:00 | |
| IW2NTF | 2026-09-02 01:26:05 | 45.60437 | 9.69479 | 96° | 62km/h | 15761m | -18.3m/s | -56°C | 5.1% | 0hPa | 2.5V | 08:20:20 | 02:52:17 | 00:00:00 | |
| DF1GD-15 | 2026-09-02 01:26:04 | 45.60430 | 9.69592 | 94° | 64km/h | 15670m | -18.4m/s | -55.5°C | 2.3% | 0hPa | 2.5V | 08:20:00 | 00:00:00 | 00:00:00 | |
| DO3MHA-11 | 2026-09-02 01:26:01 | 45.60435 | 9.69501 | 96° | 58km/h | 15743m | -18.3m/s | -55.9°C | 5.1% | 0hPa | 2.5V | 08:20:00 | 02:52:18 | 00:00:00 | |
| IW2NTF | 2026-09-02 01:25:55 | 45.60445 | 9.69270 | 89° | 57km/h | 15941m | -19.1m/s | -55.4°C | 4.7% | 0hPa | 2.5V | 08:20:30 | 02:52:07 | 00:00:00 | |
| OE5DXL-15 | 2026-09-02 01:25:53 | 45.60445 | 9.69331 | 92° | 26km/h | 15887m | -18.0m/s | -55.3°C | 4.8% | 0hPa | 2.5V | 00:00:00 | 00:00:00 | 00:00:00 | |
| DB0UT-7 | 2026-09-02 01:25:52 | 45.60445 | 9.69310 | 91° | 57km/h | 15904m | -18.4m/s | -55.3°C | 4.7% | 0hPa | 2.5V | 00:00:00 | 02:52:09 | 00:00:00 | |
| DO3MHA-11 | 2026-09-02 01:25:51 | 45.60445 | 9.69290 | 91° | 57km/h | 15923m | -18.5m/s | -55.3°C | 4.7% | 0hPa | 2.5V | 00:00:00 | 02:52:08 | 00:00:00 | |
| IW2NTF | 2026-09-02 01:25:45 | 45.60445 | 9.69070 | 91° | 53km/h | 16128m | -19.5m/s | -56.4°C | 4.9% | 0hPa | 2.5V | 08:20:40 | 02:51:57 | 00:00:00 | |
| DF1GD-15 | 2026-09-02 01:25:43 | 45.60444 | 9.69148 | 90° | 55km/h | 16053m | -18.5m/s | -56.2°C | 2.2% | 0hPa | 2.5V | 08:20:00 | 00:00:00 | 00:00:00 | |
| DO3MHA-11 | 2026-09-02 01:25:41 | 45.60445 | 9.69089 | 89° | 53km/h | 16110m | -18.9m/s | -56.3°C | 5.0% | 0hPa | 2.5V | 00:00:00 | 02:51:58 | 00:00:00 | |
| NBG1-10 | 2026-09-02 01:25:39 | 45.60444 | 9.69051 | 88° | 57km/h | 16147m | -19.2m/s | -56.4°C | 5.0% | 0hPa | 2.5V | 00:00:00 | 02:51:56 | 00:00:00 | |
| IW2NTF | 2026-09-02 01:25:35 | 45.60441 | 9.68874 | 91° | 58km/h | 16318m | -19.1m/s | -57.2°C | 5.3% | 0hPa | 2.5V | 08:20:50 | 02:51:47 | 00:00:00 | |
| DO3MHA-11 | 2026-09-02 01:25:31 | 45.60441 | 9.68895 | 90° | 60km/h | 16299m | -19.2m/s | -57.2°C | 5.4% | 0hPa | 2.6V | 00:00:00 | 02:51:48 | 00:00:00 | |
| IW2NTF | 2026-09-02 01:25:25 | 45.60450 | 9.68654 | 99° | 58km/h | 16507m | -19.7m/s | -57.4°C | 5.4% | 0hPa | 2.5V | 08:21:00 | 02:51:37 | 00:00:00 | |
| DB0UT-7 | 2026-09-02 01:25:22 | 45.60446 | 9.68697 | 97° | 53km/h | 16469m | -19.2m/s | -57.8°C | 5.6% | 0hPa | 2.6V | 00:00:00 | 00:00:00 | 00:00:00 | |
| DO3MHA-11 | 2026-09-02 01:25:21 | 45.60448 | 9.68675 | 100° | 57km/h | 16488m | -19.5m/s | -57.7°C | 5.5% | 0hPa | 2.5V | 00:00:00 | 02:51:38 | 00:00:00 | |
| IW2NTF | 2026-09-02 01:25:15 | 45.60480 | 9.68457 | 98° | 51km/h | 16702m | -19.7m/s | -56.9°C | 5.1% | 0hPa | 2.5V | 08:21:10 | 02:51:27 | 00:00:00 | |
| DO3MHA-11 | 2026-09-02 01:25:11 | 45.60477 | 9.68475 | 104° | 49km/h | 16683m | -20.2m/s | -57.0°C | 5.2% | 0hPa | 2.5V | 00:00:00 | 02:51:28 | 00:00:00 | |
| NBG1-10 | 2026-09-02 01:25:06 | 45.60487 | 9.68387 | 93° | 44km/h | 16780m | -20.5m/s | -56.8°C | 5.1% | 0hPa | 2.5V | 00:00:00 | 02:51:23 | 00:00:00 | |
| IW2NTF | 2026-09-02 01:25:05 | 45.60492 | 9.68280 | 96° | 53km/h | 16903m | -21m/s | -56.4°C | 4.9% | 0hPa | 2.5V | 08:21:20 | 02:51:17 | 00:00:00 | |
| DO3MHA-11 | 2026-09-02 01:25:01 | 45.60492 | 9.68298 | 92° | 51km/h | 16883m | -20.6m/s | -56.5°C | 5.0% | 0hPa | 2.6V | 00:00:00 | 02:51:18 | 00:00:00 | |
| IW2NTF | 2026-09-02 01:24:55 | 45.60507 | 9.68101 | 97° | 42km/h | 17107m | -21m/s | -56.9°C | 5.1% | 0hPa | 2.5V | 08:21:30 | 02:51:07 | 00:00:00 | |
| DB0UT-7 | 2026-09-02 01:24:52 | 45.60503 | 9.68134 | 97° | 40km/h | 17066m | -21.0m/s | -56.7°C | 5.1% | 0hPa | 2.5V | 00:00:00 | 02:51:09 | 00:00:00 | |
| DO3MHA-11 | 2026-09-02 01:24:51 | 45.60505 | 9.68117 | 99° | 40km/h | 17087m | -20.9m/s | -56.7°C | 5.0% | 0hPa | 2.5V | 00:00:00 | 02:51:08 | 00:00:00 | |
| IW2NTF | 2026-09-02 01:24:45 | 45.60514 | 9.67962 | 87° | 37km/h | 17317m | -21.9m/s | -56.3°C | 4.7% | 0hPa | 2.5V | 08:21:40 | 02:50:57 | 00:00:00 | |
| DO3MHA-11 | 2026-09-02 01:24:41 | 45.60515 | 9.67975 | 83° | 38km/h | 17296m | -21.0m/s | -56.3°C | 4.8% | 0hPa | 2.5V | 00:00:00 | 02:50:58 | 00:00:00 | |
| DF1GD-15 | 2026-09-02 01:24:40 | 45.60515 | 9.67975 | 84° | 35km/h | 17296m | -21.1m/s | -56.3°C | 2.0% | 0hPa | 2.5V | 08:21:00 | 00:00:00 | 00:00:00 | |
| IW2NTF | 2026-09-02 01:24:35 | 45.60504 | 9.67825 | 86° | 42km/h | 17530m | -22.2m/s | -56.2°C | 4.8% | 0hPa | 2.5V | 08:21:50 | 02:50:47 | 00:00:00 | |
| NBG1-10 | 2026-09-02 01:24:33 | 45.60506 | 9.67869 | 82° | 42km/h | 17466m | -21.2m/s | -56.2°C | 4.8% | 0hPa | 2.6V | 00:00:00 | 02:50:50 | 00:00:00 | |
| DO3MHA-11 | 2026-09-02 01:24:31 | 45.60504 | 9.67840 | 83° | 44km/h | 17508m | -21.8m/s | -56.1°C | 4.7% | 0hPa | 2.6V | 08:21:00 | 02:50:48 | 00:00:00 | |
| IW2NTF | 2026-09-02 01:24:25 | 45.60477 | 9.67675 | 61° | 46km/h | 17761m | -26.9m/s | -56.2°C | 4.7% | 0hPa | 2.5V | 08:22:00 | 02:50:37 | 00:00:00 | |
| DB0UT-7 | 2026-09-02 01:24:22 | 45.60486 | 9.67704 | 71° | 38km/h | 17709m | -27.2m/s | -56.5°C | 4.8% | 0hPa | 2.5V | 00:00:00 | 00:00:00 | 00:00:00 | |
| DO3MHA-11 | 2026-09-02 01:24:21 | 45.60482 | 9.67690 | 66° | 44km/h | 17735m | -26.5m/s | -56.1°C | 4.7% | 0hPa | 2.5V | 00:00:00 | 02:50:38 | 00:00:00 | |
| DF1GD-15 | 2026-09-02 01:24:19 | 45.60477 | 9.67675 | 62° | 46km/h | 17762m | -26.9m/s | -56.2°C | 1.9% | 0hPa | 2.5V | 00:00:00 | 00:00:00 | 00:00:00 | |
| IW2NTF | 2026-09-02 01:24:15 | 45.60453 | 9.67524 | 98° | 42km/h | 18046m | -30m/s | -56.8°C | 5% | 0hPa | 2.5V | 08:22:10 | 02:50:27 | 00:00:00 | |
| DO3MHA-11 | 2026-09-02 01:24:11 | 45.60452 | 9.67540 | 90° | 44km/h | 18017m | -30.9m/s | -56.6°C | 4.9% | 0hPa | 2.5V | 00:00:00 | 02:50:28 | 00:00:00 | |
| IW2NTF | 2026-09-02 01:24:05 | 45.60480 | 9.67379 | 106° | 33km/h | 18302m | -25.6m/s | -57.2°C | 5.4% | 0hPa | 2.5V | 08:22:20 | 02:50:17 | 00:00:00 | |
| DO3MHA-11 | 2026-09-02 01:24:01 | 45.60477 | 9.67390 | 110° | 26km/h | 18277m | -25.0m/s | -57.4°C | 5.5% | 0hPa | 2.6V | 00:00:00 | 02:50:18 | 00:00:00 | |
| NBG1-10 | 2026-09-02 01:24:00 | 45.60480 | 9.67379 | 107° | 24km/h | 18302m | -25.6m/s | -57.1°C | 5.4% | 0hPa | 2.5V | 00:00:00 | 02:50:17 | 00:00:00 | |
| DF1GD-15 | 2026-09-02 01:23:58 | 45.60483 | 9.67368 | 115° | 33km/h | 18327m | -25.6m/s | -57.1°C | 2.1% | 0hPa | 2.5V | 00:00:00 | 00:00:00 | 00:00:00 | |
| IW2NTF | 2026-09-02 01:23:55 | 45.60489 | 9.67301 | 63° | 20km/h | 18558m | -25.5m/s | -54.9°C | 4.5% | 0hPa | 2.5V | 08:22:30 | 02:50:07 | 00:00:00 | |
| DB0UT-7 | 2026-09-02 01:23:52 | 45.60491 | 9.67314 | 71° | 22km/h | 18506m | -26.7m/s | -55.2°C | 4.6% | 0hPa | 2.6V | 00:00:00 | 02:50:09 | 00:00:00 | |
| DO3MHA-11 | 2026-09-02 01:23:51 | 45.60490 | 9.67308 | 79° | 29km/h | 18532m | -26.3m/s | -54.9°C | 4.5% | 0hPa | 2.6V | 00:00:00 | 02:50:08 | 00:00:00 | |
| IW2NTF | 2026-09-02 01:23:45 | 45.60470 | 9.67194 | 87° | 37km/h | 18812m | -25.8m/s | -55.1°C | 4.4% | 0hPa | 2.6V | 08:22:40 | 02:49:57 | 00:00:00 | |
| DO3MHA-11 | 2026-09-02 01:23:41 | 45.60470 | 9.67207 | 91° | 27km/h | 18787m | -26.5m/s | -55.0°C | 4.4% | 0hPa | 2.6V | 00:00:00 | 02:49:58 | 00:00:00 | |
| DF1GD-15 | 2026-09-02 01:23:38 | 45.60471 | 9.67182 | 98° | 31km/h | 18837m | -24.6m/s | -55.2°C | 1.7% | 0hPa | 2.6V | 08:23:00 | 00:00:00 | 00:00:00 | |
| IW2NTF | 2026-09-02 01:23:35 | 45.60483 | 9.67109 | 117° | 13km/h | 19049m | -25m/s | -54.9°C | 4.4% | 0hPa | 2.6V | 08:22:50 | 02:49:47 | 00:00:00 | |
| DO3MHA-11 | 2026-09-02 01:23:31 | 45.60482 | 9.67113 | 101° | 9km/h | 19025m | -24.4m/s | -55.0°C | 4.5% | 0hPa | 2.5V | 00:00:00 | 02:49:48 | 00:00:00 | |
| IW2NTF | 2026-09-02 01:23:25 | 45.60479 | 9.67083 | 63° | 13km/h | 19290m | -24m/s | -56.2°C | 5% | 0hPa | 2.5V | 08:23:00 | 02:49:37 | 00:00:00 | |
| NBG1-10 | 2026-09-02 01:23:24 | 45.60483 | 9.67093 | 50° | 16km/h | 19195m | -25.2m/s | -55.6°C | 4.7% | 0hPa | 2.5V | 00:00:00 | 02:49:41 | 00:00:00 | |
| DB0UT-7 | 2026-09-02 01:23:22 | 45.60481 | 9.67088 | 79° | 18km/h | 19244m | -24.2m/s | -56.0°C | 4.9% | 0hPa | 2.5V | 00:00:00 | 00:00:00 | 00:00:00 | |
| DO3MHA-11 | 2026-09-02 01:23:21 | 45.60480 | 9.67086 | 46° | 16km/h | 19267m | -23.8m/s | -56.1°C | 5.0% | 0hPa | 2.5V | 00:00:00 | 02:49:38 | 00:00:00 | |
| DF1GD-15 | 2026-09-02 01:23:17 | 45.60477 | 9.67074 | 66° | 13km/h | 19338m | -24.0m/s | -56.0°C | 1.9% | 0hPa | 2.5V | 08:23:00 | 00:00:00 | 00:00:00 | |
| DO3MHA-11 | 2026-09-02 01:23:11 | 45.60468 | 9.67028 | 79° | 22km/h | 19504m | -24.9m/s | -55.2°C | 4.5% | 0hPa | 2.5V | 00:00:00 | 02:49:28 | 00:00:00 | |
| IW2NTF | 2026-09-02 01:23:01 | 45.60495 | 9.66920 | 124° | 18km/h | 19888m | -31m/s | -54.9°C | 4.5% | 0hPa | 2.5V | 08:23:24 | 02:49:13 | 00:00:00 | |
| DO3MHA-11 | 2026-09-02 01:23:01 | 45.60477 | 9.66950 | 121° | 16km/h | 19747m | -26.2m/s | -54.8°C | 4.5% | 0hPa | 2.5V | 08:23:00 | 02:49:18 | 00:00:00 | |
| DF1GD-15 | 2026-09-02 01:22:56 | 45.60492 | 9.66925 | 129° | 16km/h | 19858m | -29.9m/s | -54.9°C | 1.7% | 0hPa | 2.6V | 08:23:00 | 00:00:00 | 00:00:00 | |
| DB0UT-7 | 2026-09-02 01:22:52 | 45.60503 | 9.66911 | 172° | 9km/h | 20006m | -28.8m/s | -55.2°C | 4.6% | 0hPa | 2.6V | 00:00:00 | 02:49:09 | 00:00:00 | |
| IW2NTF | 2026-09-02 01:22:51 | 45.60506 | 9.66911 | 24° | 2km/h | 20195m | -34.1m/s | -55.5°C | 4.6% | 0hPa | 2.6V | 08:23:34 | 02:49:03 | 00:00:00 | |
| DO3MHA-11 | 2026-09-02 01:22:51 | 45.60504 | 9.66911 | 198° | 2km/h | 20035m | -30.2m/s | -55.3°C | 4.6% | 0hPa | 2.5V | 00:00:00 | 02:49:08 | 00:00:00 | |
| OE5DRO-10 | 2026-09-02 01:22:49 | 45.60506 | 9.66911 | 153° | 7km/h | 20098m | -33.1m/s | -55.3°C | 4.6% | 0hPa | 2.5V | 00:00:00 | 00:00:00 | 00:00:00 | |
| IW2NTF | 2026-09-02 01:22:41 | 45.60498 | 9.66905 | 29° | 13km/h | 20488m | -26.4m/s | -54.9°C | 4.5% | 0hPa | 2.6V | 08:23:44 | 02:48:53 | 00:00:00 | |
| DO3MHA-11 | 2026-09-02 01:22:41 | 45.60505 | 9.66912 | 26° | 11km/h | 20349m | -29.5m/s | -55.2°C | 4.7% | 0hPa | 2.5V | 00:00:00 | 02:48:58 | 00:00:00 | |
| DF1GD-15 | 2026-09-02 01:22:36 | 45.60500 | 9.66907 | 30° | 11km/h | 20462m | -26.6m/s | -54.9°C | 1.7% | 0hPa | 2.5V | 08:24:00 | 00:00:00 | 00:00:00 | |
| IW2NTF | 2026-09-02 01:22:31 | 45.60473 | 9.66869 | 55° | 15km/h | 20768m | -27.7m/s | -55.1°C | 4.8% | 0hPa | 2.5V | 08:23:54 | 02:48:43 | 00:00:00 | |
| DO3MHA-11 | 2026-09-02 01:22:31 | 45.60484 | 9.66889 | 37° | 16km/h | 20632m | -28.3m/s | -55.5°C | 4.8% | 0hPa | 2.5V | 00:00:00 | 02:48:48 | 00:00:00 | |
| OE5DRO-10 | 2026-09-02 01:22:30 | 45.60482 | 9.66885 | 51° | 15km/h | 20659m | -28.0m/s | -55.5°C | 4.9% | 0hPa | 2.6V | 00:00:00 | 00:00:00 | 00:00:00 | |
| DB0UT-7 | 2026-09-02 01:22:22 | 45.60468 | 9.66845 | 87° | 15km/h | 20873m | -26.4m/s | -54.5°C | 4.6% | 0hPa | 2.6V | 08:23:00 | 00:00:00 | 00:00:00 | |
| IW2NTF | 2026-09-02 01:22:21 | 45.60467 | 9.66808 | 91° | 13km/h | 21036m | -29.1m/s | -54.6°C | 4.5% | 0hPa | 2.6V | 08:24:04 | 02:48:33 | 00:00:00 | |
| DO3MHA-11 | 2026-09-02 01:22:21 | 45.60468 | 9.66838 | 81° | 13km/h | 20900m | -26.0m/s | -54.3°C | 4.4% | 0hPa | 2.5V | 00:00:00 | 02:48:38 | 00:00:00 | |
| NBG1-10 | 2026-09-02 01:22:18 | 45.60467 | 9.66818 | 93° | 15km/h | 20980m | -28.4m/s | -54.5°C | 4.5% | 0hPa | 2.5V | 08:24:00 | 02:48:35 | 00:00:00 | |
| DF1GD-15 | 2026-09-02 01:22:15 | 45.60467 | 9.66808 | 93° | 13km/h | 21036m | -29.1m/s | -54.6°C | 1.7% | 0hPa | 2.5V | 08:24:00 | 00:00:00 | 00:00:00 | |
| IW2NTF | 2026-09-02 01:22:11 | 45.60467 | 9.66806 | 338° | 7km/h | 21331m | -26.6m/s | -54.6°C | 4.7% | 0hPa | 2.5V | 08:24:14 | 02:48:23 | 00:00:00 | |
| DO3MHA-11 | 2026-09-02 01:22:11 | 45.60471 | 9.66801 | 273° | 9km/h | 21185m | -31.4m/s | -54.5°C | 4.5% | 0hPa | 2.6V | 00:00:00 | 02:48:28 | 00:00:00 | |
| RDZBGO | 2026-09-02 01:22:08 | 45.60471 | 9.66802 | 311° | 5km/h | 21247m | -30.6m/s | -54.4°C | 1.6% | 0hPa | 2.6V | 08:24:00 | 00:00:00 | 00:00:00 | |
| IW2NTF | 2026-09-02 01:22:01 | 45.60426 | 9.66786 | 39° | 24km/h | 21591m | -29.5m/s | -53.8°C | 4.5% | 0hPa | 2.6V | 08:24:24 | 02:48:13 | 00:00:00 | |
| DO3MHA-11 | 2026-09-02 01:22:01 | 45.60449 | 9.66805 | 21° | 22km/h | 21459m | -25.4m/s | -54.8°C | 4.8% | 0hPa | 2.6V | 00:00:00 | 02:48:18 | 00:00:00 | |
| DF1GD-15 | 2026-09-02 01:21:54 | 45.60421 | 9.66780 | 56° | 26km/h | 21621m | -31.1m/s | -53.8°C | 1.6% | 0hPa | 2.5V | 00:00:00 | 00:00:00 | 00:00:00 | |
| DB0UT-7 | 2026-09-02 01:21:52 | 45.60410 | 9.66756 | 66° | 18km/h | 21707m | -29.0m/s | -53.9°C | 4.5% | 0hPa | 2.5V | 00:00:00 | 02:48:09 | 00:00:00 | |
| IW2NTF | 2026-09-02 01:21:51 | 45.60408 | 9.66709 | 115° | 20km/h | 21887m | -31.1m/s | -53.3°C | 4.3% | 0hPa | 2.5V | 08:24:34 | 02:48:03 | 00:00:00 | |
| RDZBGO | 2026-09-02 01:21:46 | 45.60405 | 9.66717 | 111° | 24km/h | 21856m | -31.7m/s | -53.4°C | 1.6% | 0hPa | 2.5V | 08:25:00 | 00:00:00 | 00:00:00 | |
| NBG1-10 | 2026-09-02 01:21:45 | 45.60410 | 9.66703 | 117° | 15km/h | 21918m | -30.1m/s | -53.3°C | 4.3% | 0hPa | 2.5V | 00:00:00 | 02:48:02 | 00:00:00 | |
| IW2NTF | 2026-09-02 01:21:41 | 45.60448 | 9.66675 | 208° | 15km/h | 22186m | -31.3m/s | -52.7°C | 4% | 0hPa | 2.5V | 08:24:44 | 02:47:53 | 00:00:00 | |
| IN3HCDX | 2026-09-02 01:21:35 | 45.60448 | 9.66675 | 210° | 15km/h | 22186m | -31.3m/s | -52.7°C | 1.4% | 0hPa | 2.5V | 08:25:00 | 00:00:00 | 00:00:00 | |
| OE5DRO-10 | 2026-09-02 01:21:33 | 45.60458 | 9.66685 | 232° | 11km/h | 22277m | -29.9m/s | -53.2°C | 4.3% | 0hPa | 2.5V | 00:00:00 | 00:00:00 | 00:00:00 | |
| IW2NTF | 2026-09-02 01:21:29 | 45.60466 | 9.66723 | 276° | 9km/h | 22542m | -30.6m/s | -53°C | 4.2% | 0hPa | 2.5V | 08:24:56 | 02:47:41 | 00:00:00 | |
| RDZBGO | 2026-09-02 01:21:25 | 45.60468 | 9.66716 | 281° | 13km/h | 22484m | -29.8m/s | -53.1°C | 1.5% | 0hPa | 2.5V | 08:25:00 | 00:00:00 | 00:00:00 | |
| BAUMI2-15 | 2026-09-02 01:21:24 | 45.60466 | 9.66723 | 277° | 9km/h | 22542m | -30.5m/s | -53.0°C | 4.2% | 0hPa | 2.5V | 00:00:00 | 02:47:41 | 00:00:00 | |
| DB0UT-7 | 2026-09-02 01:21:22 | 45.60465 | 9.66731 | 290° | 9km/h | 22601m | -30.0m/s | -53.0°C | 4.3% | 0hPa | 2.6V | 00:00:00 | 00:00:00 | 00:00:00 | |
| IW2NTF | 2026-09-02 01:21:19 | 45.60463 | 9.66750 | 329° | 5km/h | 22862m | -36m/s | -53.2°C | 4.4% | 0hPa | 2.6V | 08:25:06 | 02:47:31 | 00:00:00 | |
| BAUMI2-15 | 2026-09-02 01:21:19 | 45.60463 | 9.66739 | 269° | 7km/h | 22693m | -32.6m/s | -53.1°C | 4.3% | 0hPa | 2.5V | 00:00:00 | 02:47:36 | 00:00:00 | |
| OE3JTB-15 | 2026-09-02 01:21:16 | 45.60464 | 9.66745 | 272° | 16km/h | 22793m | -34.5m/s | -53.2°C | 4.4% | 0hPa | 2.5V | 00:00:00 | 02:47:33 | 00:00:00 | |
| BAUMI2-15 | 2026-09-02 01:21:14 | 45.60463 | 9.66749 | 330° | 9km/h | 22862m | -35.9m/s | -53.2°C | 4.4% | 0hPa | 2.5V | 00:00:00 | 02:47:31 | 00:00:00 | |
| DF1GD-15 | 2026-09-02 01:21:12 | 45.60461 | 9.66751 | 304° | 7km/h | 22897m | -35.6m/s | -53.2°C | 1.6% | 0hPa | 2.5V | 00:00:00 | 00:00:00 | 00:00:00 | |
| NBG1-10 | 2026-09-02 01:21:11 | 45.60458 | 9.66754 | 327° | 9km/h | 22965m | -33.4m/s | -53.1°C | 4.5% | 0hPa | 2.5V | 00:00:00 | 02:47:28 | 00:00:00 | |
| IW2NTF | 2026-09-02 01:21:10 | 45.60444 | 9.66747 | 64° | 11km/h | 23188m | -32.4m/s | -53.1°C | 4.5% | 0hPa | 2.5V | 08:25:16 | 02:47:21 | 00:00:00 | |
| BAUMI2-15 | 2026-09-02 01:21:10 | 45.60453 | 9.66756 | 4° | 9km/h | 23030m | -32.8m/s | -53.0°C | 4.4% | 0hPa | 2.5V | 08:25:00 | 02:47:26 | 00:00:00 | |
| BAUMI2-15 | 2026-09-02 01:21:04 | 45.60444 | 9.66747 | 65° | 13km/h | 23188m | -32.3m/s | -53.0°C | 4.5% | 0hPa | 2.5V | 00:00:00 | 02:47:21 | 00:00:00 | |
| RDZBGO | 2026-09-02 01:21:03 | 45.60444 | 9.66747 | 65° | 11km/h | 23188m | -32.4m/s | -53.1°C | 1.6% | 0hPa | 2.5V | 08:26:00 | 00:00:00 | 00:00:00 | |
| IW2NTF | 2026-09-02 01:20:59 | 45.60459 | 9.66711 | 150° | 4km/h | 23512m | -33.3m/s | -51.7°C | 4.1% | 0hPa | 2.5V | 08:25:26 | 02:47:11 | 00:00:00 | |
| BAUMI2-15 | 2026-09-02 01:20:59 | 45.60449 | 9.66725 | 126° | 11km/h | 23346m | -32.8m/s | -52.4°C | 4.3% | 0hPa | 2.5V | 00:00:00 | 02:47:16 | 00:00:00 | |
| OE5DRO-10 | 2026-09-02 01:20:55 | 45.60458 | 9.66712 | 133° | 5km/h | 23479m | -34.0m/s | -51.7°C | 4.1% | 0hPa | 2.5V | 08:25:00 | 00:00:00 | 00:00:00 | |
| BAUMI2-15 | 2026-09-02 01:20:54 | 45.60459 | 9.66710 | 151° | 4km/h | 23512m | -33.3m/s | -51.7°C | 4.1% | 0hPa | 2.5V | 00:00:00 | 02:47:11 | 00:00:00 | |
| IN3HCDX | 2026-09-02 01:20:53 | 45.60459 | 9.66710 | 151° | 4km/h | 23512m | -33.3m/s | -51.7°C | 1.4% | 0hPa | 2.6V | 00:00:00 | 00:00:00 | 00:00:00 | |
| DB0UT-7 | 2026-09-02 01:20:52 | 45.60460 | 9.66708 | 132° | 9km/h | 23576m | -31.2m/s | -51.5°C | 4.0% | 0hPa | 2.6V | 00:00:00 | 02:47:09 | 00:00:00 | |
| DF1GD-15 | 2026-09-02 01:20:51 | 45.60460 | 9.66708 | 0° | 0km/h | 23576m | -31.2m/s | -51.5°C | 1.4% | 0hPa | 2.6V | 08:26:00 | 00:00:00 | 00:00:00 | |
| IW2NTF | 2026-09-02 01:20:49 | 45.60470 | 9.66703 | 160° | 9km/h | 23823m | -31m/s | -51.9°C | 4.2% | 0hPa | 2.6V | 08:25:36 | 02:47:01 | 00:00:00 | |
| BAUMI2-15 | 2026-09-02 01:20:49 | 45.60462 | 9.66708 | 194° | 5km/h | 23671m | -31.2m/s | 0°C | 0% | 0hPa | 2.5V | 00:00:00 | 02:47:06 | 00:00:00 | |
| BAUMI2-15 | 2026-09-02 01:20:44 | 45.60469 | 9.66703 | 161° | 9km/h | 23824m | -31.0m/s | 0°C | 0% | 0hPa | 2.5V | 00:00:00 | 02:47:01 | 00:00:00 | |
| RDZBGO | 2026-09-02 01:20:43 | 45.60470 | 9.66703 | 162° | 9km/h | 23824m | -31.0m/s | -51.9°C | 1.5% | 0hPa | 2.5V | 08:26:00 | 00:00:00 | 00:00:00 | |
| IW2NTF | 2026-09-02 01:20:39 | 45.60477 | 9.66678 | 75° | 11km/h | 24136m | -32.6m/s | -50.5°C | 3.7% | 0hPa | 2.5V | 08:25:46 | 02:46:51 | 00:00:00 | |
| NBG1-10 | 2026-09-02 01:20:38 | 45.60477 | 9.66692 | 113° | 15km/h | 24008m | -32.4m/s | -51.0°C | 4.0% | 0hPa | 2.6V | 00:00:00 | 02:46:55 | 00:00:00 | |
| OE5DRO-10 | 2026-09-02 01:20:36 | 45.60477 | 9.66686 | 94° | 13km/h | 24071m | -32.3m/s | -50.5°C | 3.8% | 0hPa | 2.5V | 00:00:00 | 00:00:00 | 00:00:00 | |
| BAUMI2-15 | 2026-09-02 01:20:33 | 45.60477 | 9.66674 | 92° | 11km/h | 24168m | -33.0m/s | 0°C | 0% | 0hPa | 2.5V | 00:00:00 | 02:46:50 | 00:00:00 | |
| DO3MHA-11 | 2026-09-02 01:20:32 | 45.60477 | 9.66671 | 86° | 11km/h | 24201m | -32.4m/s | -50.7°C | 3.8% | 0hPa | 2.5V | 00:00:00 | 02:46:49 | 00:00:00 | |
| DF1GD-15 | 2026-09-02 01:20:30 | 45.60477 | 9.66667 | 90° | 13km/h | 24233m | -31.8m/s | -50.9°C | 1.4% | 0hPa | 2.5V | 08:26:00 | 00:00:00 | 00:00:00 | |
| IW2NTF | 2026-09-02 01:20:29 | 45.60486 | 9.66645 | 153° | 13km/h | 24454m | -33.1m/s | -50.3°C | 3.7% | 0hPa | 2.5V | 08:25:56 | 02:46:41 | 00:00:00 | |
| BAUMI2-15 | 2026-09-02 01:20:27 | 45.60480 | 9.66653 | 115° | 13km/h | 24358m | -32.3m/s | 0°C | 0% | 0hPa | 2.5V | 00:00:00 | 02:46:44 | 00:00:00 | |
| DB0UT-7 | 2026-09-02 01:20:22 | 45.60493 | 9.66644 | 190° | 15km/h | 24519m | -32.7m/s | -50.3°C | 3.7% | 0hPa | 2.5V | 00:00:00 | 00:00:00 | 00:00:00 | |
| DO3MHA-11 | 2026-09-02 01:20:21 | 45.60497 | 9.66645 | 185° | 20km/h | 24551m | -32.7m/s | -50.3°C | 3.7% | 0hPa | 2.5V | 00:00:00 | 02:46:38 | 00:00:00 | |
| RDZBGO | 2026-09-02 01:20:20 | 45.60497 | 9.66645 | 186° | 15km/h | 24551m | -32.7m/s | -50.4°C | 1.3% | 0hPa | 2.5V | 08:26:00 | 00:00:00 | 00:00:00 | |
| OE5DRO-10 | 2026-09-02 01:20:17 | 45.60514 | 9.66658 | 218° | 15km/h | 24679m | -33.1m/s | -50.3°C | 3.7% | 0hPa | 2.5V | 00:00:00 | 00:00:00 | 00:00:00 | |
| DO3MHA-11 | 2026-09-02 01:20:11 | 45.60523 | 9.66698 | 287° | 13km/h | 24875m | -33.3m/s | -50.4°C | 3.7% | 0hPa | 2.5V | 08:26:00 | 02:46:28 | 00:00:00 | |
| NBG1-10 | 2026-09-02 01:20:05 | 45.60505 | 9.66712 | 14° | 13km/h | 25070m | -33.3m/s | -50.9°C | 4.0% | 0hPa | 2.6V | 00:00:00 | 02:46:22 | 00:00:00 | |
| DO3MHA-11 | 2026-09-02 01:20:01 | 45.60501 | 9.66706 | 136° | 15km/h | 25200m | -33.0m/s | -50.6°C | 3.9% | 0hPa | 2.6V | 00:00:00 | 02:46:18 | 00:00:00 | |
| RDZBGO | 2026-09-02 01:20:00 | 45.60501 | 9.66706 | 136° | 5km/h | 25200m | -33.1m/s | -50.7°C | 1.3% | 0hPa | 2.6V | 00:00:00 | 00:00:00 | 00:00:00 | |
| IW2NTF | 2026-09-02 01:19:58 | 45.60515 | 9.66737 | 275° | 16km/h | 25466m | -33.5m/s | -50.1°C | 3.7% | 0hPa | 2.6V | 08:26:27 | 02:46:10 | 00:00:00 | |
| OE5DRO-10 | 2026-09-02 01:19:58 | 45.60508 | 9.66710 | 216° | 13km/h | 25300m | -34.8m/s | -50.3°C | 3.9% | 0hPa | 2.6V | 00:00:00 | 00:00:00 | 00:00:00 | |
| DB0UT-7 | 2026-09-02 01:19:52 | 45.60515 | 9.66743 | 278° | 13km/h | 25500m | -34.0m/s | -50.1°C | 3.7% | 0hPa | 2.5V | 00:00:00 | 02:46:09 | 00:00:00 | |
| DO3MHA-11 | 2026-09-02 01:19:51 | 45.60514 | 9.66750 | 288° | 11km/h | 25533m | -33.8m/s | -49.9°C | 3.7% | 0hPa | 2.5V | 00:00:00 | 02:46:08 | 00:00:00 | |
| IN3HCDX | 2026-09-02 01:19:50 | 45.60514 | 9.66750 | 288° | 18km/h | 25533m | -33.8m/s | -50.0°C | 1.2% | 0hPa | 2.5V | 08:26:00 | 00:00:00 | 00:00:00 | |
| IW2NTF | 2026-09-02 01:19:48 | 45.60501 | 9.66772 | 253° | 5km/h | 25808m | -34.9m/s | -49.9°C | 3.7% | 0hPa | 2.5V | 08:26:37 | 02:46:00 | 00:00:00 | |
| DO3MHA-11 | 2026-09-02 01:19:41 | 45.60503 | 9.66775 | 218° | 15km/h | 25878m | -35.7m/s | -49.8°C | 3.7% | 0hPa | 2.5V | 00:00:00 | 02:45:58 | 00:00:00 | |
| DF1GD-15 | 2026-09-02 01:19:40 | 45.60503 | 9.66775 | 219° | 9km/h | 25878m | -35.8m/s | -49.8°C | 1.3% | 0hPa | 2.6V | 08:26:00 | 00:00:00 | 00:00:00 | |
| OE5DRO-10 | 2026-09-02 01:19:39 | 45.60506 | 9.66782 | 244° | 15km/h | 25949m | -36.5m/s | -49.7°C | 3.6% | 0hPa | 2.6V | 00:00:00 | 00:00:00 | 00:00:00 | |
| IW2NTF | 2026-09-02 01:19:38 | 45.60509 | 9.66816 | 284° | 18km/h | 26158m | -34.2m/s | -49.9°C | 3.7% | 0hPa | 2.6V | 08:26:47 | 02:45:50 | 00:00:00 | |
| NBG1-10 | 2026-09-02 01:19:32 | 45.60508 | 9.66823 | 297° | 11km/h | 26192m | -33.8m/s | -49.9°C | 3.7% | 0hPa | 2.5V | 00:00:00 | 02:45:49 | 00:00:00 | |
| DO3MHA-11 | 2026-09-02 01:19:31 | 45.60506 | 9.66828 | 300° | 11km/h | 26225m | -34.3m/s | -50.0°C | 3.8% | 0hPa | 2.5V | 00:00:00 | 02:45:48 | 00:00:00 | |
| IN3HCDX | 2026-09-02 01:19:29 | 45.60503 | 9.66833 | 312° | 18km/h | 26260m | -34.7m/s | -50.2°C | 1.3% | 0hPa | 2.5V | 08:26:00 | 00:00:00 | 00:00:00 | |
| IW2NTF | 2026-09-02 01:19:28 | 45.60488 | 9.66848 | 337° | 7km/h | 26499m | -35.8m/s | -50.3°C | 4% | 0hPa | 2.5V | 08:26:57 | 02:45:40 | 00:00:00 | |
| PG1ADW-2 | 2026-09-02 01:19:24 | 45.60490 | 9.66847 | 338° | 9km/h | 26465m | -34.3m/s | -50.2°C | 3.9% | 0hPa | 2.5V | 00:00:00 | 00:00:00 | 00:00:00 | |
| DB0UT-7 | 2026-09-02 01:19:22 | 45.60486 | 9.66850 | 326° | 13km/h | 26534m | -35.3m/s | -50.3°C | 4.0% | 0hPa | 2.5V | 00:00:00 | 00:00:00 | 00:00:00 | |
| DO3MHA-11 | 2026-09-02 01:19:21 | 45.60484 | 9.66852 | 337° | 9km/h | 26569m | -35.3m/s | -50.3°C | 4.0% | 0hPa | 2.6V | 00:00:00 | 02:45:38 | 00:00:00 | |
| OE5DRO-10 | 2026-09-02 01:19:20 | 45.60482 | 9.66854 | 325° | 9km/h | 26603m | -34.7m/s | -50.2°C | 4.0% | 0hPa | 2.6V | 00:00:00 | 00:00:00 | 00:00:00 | |
| DF1GD-15 | 2026-09-02 01:19:19 | 45.60482 | 9.66854 | 325° | 11km/h | 26603m | -34.8m/s | -50.3°C | 1.4% | 0hPa | 2.6V | 08:27:00 | 00:00:00 | 00:00:00 | |
| IW2NTF | 2026-09-02 01:19:18 | 45.60467 | 9.66855 | 13° | 5km/h | 26843m | -35.3m/s | -49.4°C | 3.9% | 0hPa | 2.6V | 08:27:07 | 02:45:30 | 00:00:00 | |
| RDZBGO | 2026-09-02 01:19:16 | 45.60474 | 9.66857 | 346° | 11km/h | 26705m | -34.6m/s | -50.1°C | 1.4% | 0hPa | 2.5V | 08:27:00 | 00:00:00 | 00:00:00 | |
| DO3MHA-11 | 2026-09-02 01:19:11 | 45.60465 | 9.66853 | 115° | 7km/h | 26913m | -36.0m/s | -49.2°C | 3.9% | 0hPa | 2.5V | 00:00:00 | 02:45:28 | 00:00:00 | |
| IW2NTF | 2026-09-02 01:19:08 | 45.60458 | 9.66868 | 325° | 15km/h | 27189m | -37.6m/s | -48.6°C | 3.8% | 0hPa | 2.6V | 08:27:17 | 02:45:20 | 00:00:00 | |
| OE5DRO-10 | 2026-09-02 01:19:01 | 45.60452 | 9.66874 | 323° | 20km/h | 27267m | -40.8m/s | -48.3°C | 3.7% | 0hPa | 2.6V | 00:00:00 | 00:00:00 | 00:00:00 | |
| PG1ADW-2 | 2026-09-02 01:19:00 | 45.60447 | 9.66878 | 331° | 20km/h | 27307m | -40.9m/s | -48.1°C | 3.6% | 0hPa | 2.5V | 00:00:00 | 02:45:17 | 00:00:00 | |
| NBG1-10 | 2026-09-02 01:18:59 | 45.60442 | 9.66882 | 342° | 20km/h | 27347m | -41.3m/s | -47.9°C | 3.6% | 0hPa | 2.5V | 00:00:00 | 02:45:16 | 00:00:00 | |
| IW2NTF | 2026-09-02 01:18:58 | 45.60413 | 9.66890 | 4° | 20km/h | 27581m | -39.5m/s | -47.5°C | 3.6% | 0hPa | 2.5V | 08:27:27 | 02:45:10 | 00:00:00 | |
| RDZBGO | 2026-09-02 01:18:55 | 45.60427 | 9.66888 | 344° | 22km/h | 27468m | -39.3m/s | -47.8°C | 1.2% | 0hPa | 2.6V | 08:27:00 | 00:00:00 | 00:00:00 | |
| DB0UT-7 | 2026-09-02 01:18:52 | 45.60408 | 9.66890 | 5° | 18km/h | 27620m | -37.7m/s | -47.4°C | 3.6% | 0hPa | 2.6V | 00:00:00 | 02:45:09 | 00:00:00 | |
| DO3MHA-11 | 2026-09-02 01:18:51 | 45.60404 | 9.66889 | 17° | 18km/h | 27657m | -37.7m/s | -47.4°C | 3.6% | 0hPa | 2.6V | 00:00:00 | 02:45:08 | 00:00:00 | |
| IW2NTF | 2026-09-02 01:18:49 | 45.60375 | 9.66859 | 68° | 18km/h | 27948m | -37m/s | -46.1°C | 3.4% | 0hPa | 2.6V | 08:27:37 | 02:45:00 | 00:00:00 | |
| IN3HCDX | 2026-09-02 01:18:48 | 45.60395 | 9.66885 | 16° | 20km/h | 27729m | -36.5m/s | -47.2°C | 1.2% | 0hPa | 2.5V | 00:00:00 | 00:00:00 | 00:00:00 | |
| OE5DRO-10 | 2026-09-02 01:18:42 | 45.60373 | 9.66852 | 64° | 18km/h | 27985m | -36.9m/s | -45.9°C | 3.3% | 0hPa | 2.5V | 00:00:00 | 00:00:00 | 00:00:00 | |
| DO3MHA-11 | 2026-09-02 01:18:41 | 45.60372 | 9.66846 | 71° | 20km/h | 28021m | -36.9m/s | -45.8°C | 3.3% | 0hPa | 2.5V | 08:27:00 | 02:44:58 | 00:00:00 | |
| DF1GD-15 | 2026-09-02 01:18:38 | 45.60369 | 9.66833 | 66° | 20km/h | 28094m | -36.0m/s | -45.7°C | 1.1% | 0hPa | 2.6V | 08:27:00 | 00:00:00 | 00:00:00 | |
| PG1ADW-2 | 2026-09-02 01:18:36 | 45.60363 | 9.66815 | 74° | 18km/h | 28193m | -33.9m/s | -45.2°C | 3.3% | 0hPa | 2.6V | 00:00:00 | 00:00:00 | 00:00:00 | |
| RDZBGO | 2026-09-02 01:18:33 | 45.60361 | 9.66801 | 84° | 18km/h | 28263m | -38.0m/s | -44.8°C | 1.0% | 0hPa | 2.6V | 08:28:00 | 00:00:00 | 00:00:00 | |
| IW2NTF | 2026-09-02 01:18:31 | 45.60366 | 9.66763 | 114° | 22km/h | 28455m | -37.2m/s | -44°C | 2.9% | 0hPa | 2.6V | 08:27:51 | 02:44:46 | 00:00:00 | |
| DO3MHA-11 | 2026-09-02 01:18:31 | 45.60362 | 9.66777 | 102° | 13km/h | 28380m | -39.4m/s | -43.9°C | 2.9% | 0hPa | 2.6V | 00:00:00 | 02:44:48 | 00:00:00 | |
| IN3HCDX | 2026-09-02 01:18:27 | 45.60369 | 9.66756 | 124° | 18km/h | 28493m | -39.5m/s | -44.0°C | 1.0% | 0hPa | 2.6V | 08:28:00 | 00:00:00 | 00:00:00 | |
| NBG1-10 | 2026-09-02 01:18:26 | 45.60375 | 9.66748 | 154° | 15km/h | 28573m | -42.0m/s | -43.9°C | 2.9% | 0hPa | 2.6V | 00:00:00 | 02:44:43 | 00:00:00 | |
| DK5PH-5 | 2026-09-02 01:18:23 | 45.60381 | 9.66747 | 187° | 15km/h | 28694m | -39.3m/s | -44.0°C | 3.0% | 0hPa | 2.6V | 00:00:00 | 02:44:40 | 00:00:00 | |
| DB0UT-7 | 2026-09-02 01:18:22 | 45.60381 | 9.66747 | 333° | 15km/h | 28733m | -39.4m/s | -44.0°C | 3.1% | 0hPa | 2.5V | 00:00:00 | 00:00:00 | 00:00:00 | |
| IW2NTF | 2026-09-02 01:18:21 | 45.60374 | 9.66744 | 21° | 15km/h | 28848m | -37.3m/s | -44°C | 3% | 0hPa | 2.5V | 08:28:01 | 02:44:36 | 00:00:00 | |
| DO3MHA-11 | 2026-09-02 01:18:21 | 45.60379 | 9.66747 | 28° | 13km/h | 28772m | -39.4m/s | -44.0°C | 3.0% | 0hPa | 2.5V | 00:00:00 | 02:44:38 | 00:00:00 | |
| DF1GD-15 | 2026-09-02 01:18:17 | 45.60371 | 9.66740 | 45° | 18km/h | 28886m | -37.8m/s | -43.9°C | 1.0% | 0hPa | 2.5V | 08:28:00 | 00:00:00 | 00:00:00 | |
| RDZBGO | 2026-09-02 01:18:13 | 45.60362 | 9.66721 | 69° | 11km/h | 29037m | -37.8m/s | -43.8°C | 1.0% | 0hPa | 2.5V | 08:28:00 | 00:00:00 | 00:00:00 | |
| IW2NTF | 2026-09-02 01:18:11 | 45.60360 | 9.66703 | 90° | 13km/h | 29233m | -40.9m/s | -43.1°C | 2.9% | 0hPa | 2.5V | 08:28:11 | 02:44:26 | 00:00:00 | |
| DO3MHA-11 | 2026-09-02 01:18:11 | 45.60360 | 9.66710 | 95° | 16km/h | 29154m | -41.0m/s | -43.7°C | 3.0% | 0hPa | 2.6V | 00:00:00 | 02:44:28 | 00:00:00 | |
| DF7PN | 2026-09-02 01:18:09 | 45.60360 | 9.66703 | 90° | 11km/h | 29233m | -40.9m/s | -43.2°C | 0.9% | -1.0hPa | 2.6V | 00:00:00 | 00:00:00 | 00:00:00 | |
| IN3HCDX | 2026-09-02 01:18:07 | 45.60362 | 9.66694 | 103° | 16km/h | 29314m | -41.0m/s | -42.6°C | 0.9% | 0hPa | 2.6V | 08:28:00 | 00:00:00 | 00:00:00 | |
| OE5DRO-10 | 2026-09-02 01:18:04 | 45.60369 | 9.66674 | 128° | 15km/h | 29431m | -38.1m/s | -42.3°C | 2.7% | 0hPa | 2.6V | 08:28:00 | 00:00:00 | 00:00:00 | |
| IW2NTF | 2026-09-02 01:18:01 | 45.60394 | 9.66646 | 153° | 22km/h | 29614m | -35.9m/s | -42.3°C | 2.7% | 0hPa | 2.6V | 08:28:21 | 02:44:16 | 00:00:00 | |
| DO3MHA-11 | 2026-09-02 01:18:01 | 45.60383 | 9.66654 | 142° | 15km/h | 29543m | -37.3m/s | -42.1°C | 2.7% | 0hPa | 2.5V | 00:00:00 | 02:44:18 | 00:00:00 | |
| DF1GD-15 | 2026-09-02 01:17:56 | 45.60403 | 9.66641 | 172° | 15km/h | 29686m | -37.1m/s | -42.4°C | 0.9% | 0hPa | 2.5V | 08:28:00 | 00:00:00 | 00:00:00 | |
| DK5PH-5 | 2026-09-02 01:17:53 | 45.60407 | 9.66647 | 308° | 15km/h | 29849m | -47.4m/s | -41.8°C | 2.6% | 0hPa | 2.5V | 00:00:00 | 02:44:10 | 00:00:00 | |
| RDZBGO | 2026-09-02 01:17:52 | 45.60405 | 9.66649 | 327° | 9km/h | 29897m | -50.0m/s | -41.6°C | 0.8% | 0hPa | 2.5V | 08:28:00 | 00:00:00 | 00:00:00 | |
| IW2NTF | 2026-09-02 01:17:51 | 45.60397 | 9.66651 | 8° | 15km/h | 30047m | -50m/s | -41.8°C | 2.6% | 0hPa | 2.5V | 08:28:31 | 02:44:06 | 00:00:00 | |
| DO3MHA-11 | 2026-09-02 01:17:51 | 45.60403 | 9.66651 | 348° | 13km/h | 29947m | -51.1m/s | -41.5°C | 2.5% | 0hPa | 2.6V | 00:00:00 | 02:44:08 | 00:00:00 | |
| OE5DRO-10 | 2026-09-02 01:17:45 | 45.60388 | 9.66640 | 52° | 16km/h | 30234m | -44.8m/s | -41.9°C | 2.7% | 0hPa | 2.6V | 00:00:00 | 00:00:00 | 00:00:00 | |
| DO3MHA-11 | 2026-09-02 01:17:41 | 45.60386 | 9.66617 | 93° | 18km/h | 30411m | -44.1m/s | -41.5°C | 2.6% | 0hPa | 2.6V | 00:00:00 | 02:43:58 | 00:00:00 | |
| DF7PN | 2026-09-02 01:17:38 | 45.60388 | 9.66597 | 102° | 16km/h | 30544m | -44.5m/s | -41.8°C | 0.8% | -1.0hPa | 2.5V | 00:00:00 | 00:00:00 | 00:00:00 | |
| IW2NTF | 2026-09-02 01:17:36 | 45.60400 | 9.66551 | 129° | 18km/h | 30860m | -46.5m/s | -42.3°C | 2.8% | 0hPa | 2.5V | 08:28:49 | 02:43:48 | 00:00:00 | |
| DF1GD-15 | 2026-09-02 01:17:36 | 45.60389 | 9.66590 | 99° | 18km/h | 30588m | -44.8m/s | -41.8°C | 0.9% | 0hPa | 2.6V | 08:29:00 | 00:00:00 | 00:00:00 | |
| DO3MHA-11 | 2026-09-02 01:17:31 | 45.60399 | 9.66551 | 130° | 15km/h | 30860m | -46.5m/s | -42.2°C | 2.8% | 0hPa | 2.6V | 00:00:00 | 02:43:48 | 00:00:00 | |
| RDZBGO | 2026-09-02 01:17:30 | 45.60399 | 9.66551 | 130° | 18km/h | 30860m | -46.5m/s | -42.3°C | 0.9% | 0hPa | 2.6V | 08:29:00 | 00:00:00 | 00:00:00 | |
| IW2NTF | 2026-09-02 01:17:26 | 45.60426 | 9.66553 | 297° | 9km/h | 31317m | -47m/s | -41.3°C | 2.7% | 0hPa | 2.6V | 08:28:59 | 02:43:38 | 00:00:00 | |
| OE5DRO-10 | 2026-09-02 01:17:26 | 45.60416 | 9.66539 | 185° | 15km/h | 31089m | -46.1m/s | -42.1°C | 2.9% | 0hPa | 2.5V | 00:00:00 | 00:00:00 | 00:00:00 | |
| IN3HCDX | 2026-09-02 01:17:24 | 45.60420 | 9.66540 | 195° | 15km/h | 31134m | -46.1m/s | -41.7°C | 0.9% | 0hPa | 2.5V | 08:29:00 | 00:00:00 | 00:00:00 | |
| DK5PH-5 | 2026-09-02 01:17:23 | 45.60426 | 9.66545 | 240° | 11km/h | 31226m | -45.9m/s | -41.3°C | 2.7% | 0hPa | 2.5V | 00:00:00 | 02:43:40 | 00:00:00 | |
| IW2NTF | 2026-09-02 01:17:16 | 45.60390 | 9.66556 | 42° | 7km/h | 31785m | -47.8m/s | -40.5°C | 2.7% | 0hPa | 2.5V | 08:29:09 | 02:43:28 | 00:00:00 | |
| OE5DXL-15 | 2026-09-02 01:17:15 | 45.60403 | 9.66563 | 360° | 15km/h | 31598m | -47.1m/s | -41.5°C | 2.8% | 0hPa | 2.6V | 00:00:00 | 00:00:00 | 00:00:00 | |
| DO3MHA-11 | 2026-09-02 01:17:11 | 45.60390 | 9.66556 | 43° | 22km/h | 31786m | -47.8m/s | -40.5°C | 2.7% | 0hPa | 2.5V | 00:00:00 | 02:43:28 | 08:30:00 | |
| RDZBGO | 2026-09-02 01:17:10 | 45.60390 | 9.66556 | 44° | 7km/h | 31786m | -47.8m/s | -40.5°C | 0.9% | 0hPa | 2.6V | 08:29:00 | 00:00:00 | 00:00:00 | |
| OE5DRO-10 | 2026-09-02 01:17:07 | 45.60393 | 9.66546 | 148° | 13km/h | 31974m | -47.5m/s | -40.1°C | 2.6% | 0hPa | 2.6V | 00:00:00 | 00:00:00 | 00:00:00 | |
| IW2NTF | 2026-09-02 01:17:06 | 45.60403 | 9.66532 | 109° | 7km/h | 32256m | -48.3m/s | -39.9°C | 2.6% | 0hPa | 2.5V | 08:29:19 | 02:43:18 | 00:00:00 | |
| IN3HCDX | 2026-09-02 01:17:03 | 45.60400 | 9.66539 | 159° | 9km/h | 32115m | -47.6m/s | -40.0°C | 0.8% | 0hPa | 2.6V | 08:29:00 | 00:00:00 | 00:00:00 | |
| IW2NTF | 2026-09-02 01:16:56 | 45.60416 | 9.66501 | 152° | 27km/h | 32728m | -47.8m/s | -38.3°C | 2.5% | 0hPa | 2.6V | 08:30:00 | 02:43:08 | 00:00:00 | |
| DF1GD-15 | 2026-09-02 01:16:54 | 45.60402 | 9.66516 | 110° | 11km/h | 32540m | -48.6m/s | -39.9°C | 0.9% | 0hPa | 2.5V | 08:29:00 | 00:00:00 | 00:00:00 | |
| DK5PH-5 | 2026-09-02 01:16:53 | 45.60407 | 9.66509 | 150° | 20km/h | 32634m | -47.9m/s | -39.2°C | 2.6% | 0hPa | 2.5V | 00:00:00 | 02:43:10 | 08:30:00 | |
| DB0UT-7 | 2026-09-02 01:16:52 | 45.60411 | 9.66506 | 146° | 20km/h | 32682m | -47.5m/s | -38.8°C | 2.6% | 0hPa | 2.5V | 00:00:00 | 02:43:09 | 00:00:00 | |
| RDZBGO | 2026-09-02 01:16:49 | 45.60423 | 9.66497 | 166° | 29km/h | 32776m | -47.8m/s | -37.8°C | 0.7% | 0hPa | 2.5V | 00:00:00 | 00:00:00 | 00:00:00 | |
| OE5DRO-10 | 2026-09-02 01:16:48 | 45.60438 | 9.66492 | 170° | 18km/h | 32872m | -49.2m/s | -37.2°C | 2.2% | 0hPa | 2.5V | 00:00:00 | 00:00:00 | 00:00:00 | |
| NBG1-10 | 2026-09-02 01:16:47 | 45.60445 | 9.66492 | 184° | 20km/h | 32920m | -48.9m/s | -37.1°C | 2.2% | 0hPa | 2.5V | 00:00:00 | 02:43:04 | 00:00:00 | |
| IW2NTF | 2026-09-02 01:16:46 | 45.60472 | 9.66514 | 250° | 15km/h | 33225m | -56.2m/s | -36.4°C | 2.1% | 0hPa | 2.5V | 08:30:00 | 02:42:58 | 00:00:00 | |
| DO3MHA-11 | 2026-09-02 01:16:45 | 45.60458 | 9.66495 | 198° | 16km/h | 33017m | -50.0m/s | -36.9°C | 2.2% | 0hPa | 2.5V | 00:00:00 | 02:43:02 | 00:00:00 | |
| IN3HCDX | 2026-09-02 01:16:42 | 45.60467 | 9.66503 | 223° | 20km/h | 33119m | -52.1m/s | -36.7°C | 0.7% | 0hPa | 2.5V | 00:00:00 | 00:00:00 | 00:00:00 | |
| DF7PN | 2026-09-02 01:16:36 | 45.60481 | 9.66530 | 198° | 13km/h | 33534m | -62.4m/s | -36.9°C | 0.7% | -1.0hPa | 2.5V | 00:00:00 | 00:00:00 | 00:00:00 | |
| DO3MHA-11 | 2026-09-02 01:16:35 | 45.60484 | 9.66532 | 206° | 20km/h | 33595m | -60.0m/s | -36.9°C | 2.2% | 0hPa | 2.5V | 00:00:00 | 02:42:52 | 00:00:00 | |
| DF1GD-15 | 2026-09-02 01:16:34 | 45.60484 | 9.66532 | 207° | 15km/h | 33595m | -60.0m/s | -37.0°C | 0.7% | 0hPa | 2.5V | 00:00:00 | 00:00:00 | 00:00:00 | |
| IW2NTF | 2026-09-02 01:16:31 | 45.60502 | 9.66542 | 209° | 20km/h | 33823m | -55.5m/s | -36.9°C | 2.3% | 0hPa | 2.5V | 08:30:00 | 02:42:48 | 00:00:00 | |
| OE5DRO-10 | 2026-09-02 01:16:29 | 45.60509 | 9.66552 | 240° | 22km/h | 33936m | -57.3m/s | -36.6°C | 2.3% | 0hPa | 2.5V | 00:00:00 | 00:00:00 | 00:00:00 | |
| DO3MHA-11 | 2026-09-02 01:16:25 | 45.60509 | 9.66580 | 302° | 22km/h | 34149m | -52.5m/s | -35.6°C | 2.2% | 0hPa | 2.5V | 00:00:00 | 02:42:42 | 00:00:00 | |
| DK5PH-5 | 2026-09-02 01:16:23 | 45.60501 | 9.66595 | 318° | 29km/h | 34256m | -55.1m/s | -35.1°C | 2.1% | 0hPa | 2.6V | 00:00:00 | 02:42:40 | 00:00:00 | |
| IW2NTF | 2026-09-02 01:16:21 | 45.60492 | 9.66608 | 306° | 24km/h | 34368m | -56.5m/s | -35°C | 2.1% | 0hPa | 2.6V | 08:30:00 | 02:42:38 | 00:00:00 | |
| IN3HCDX | 2026-09-02 01:16:21 | 45.60496 | 9.66601 | 314° | 26km/h | 34312m | -55.8m/s | -35.1°C | 0.6% | 0hPa | 2.6V | 00:00:00 | 00:00:00 | 00:00:00 | |
| IW2NTF | 2026-09-02 01:16:16 | 45.60498 | 9.66673 | 300° | 24km/h | 34972m | -64.1m/s | -33.9°C | 1.9% | 0hPa | 2.6V | 08:30:00 | 02:42:28 | 00:00:00 | |
| DO3MHA-11 | 2026-09-02 01:16:15 | 45.60495 | 9.66645 | 239° | 29km/h | 34723m | -63.3m/s | -35.7°C | 2.2% | 0hPa | 2.6V | 00:00:00 | 02:42:32 | 00:00:00 | |
| NBG1-10 | 2026-09-02 01:16:14 | 45.60497 | 9.66652 | 246° | 31km/h | 34786m | -62.4m/s | -35.3°C | 2.2% | 0hPa | 2.6V | 00:00:00 | 02:42:31 | 00:00:00 | |
| DF1GD-15 | 2026-09-02 01:16:13 | 45.60497 | 9.66652 | 247° | 22km/h | 34786m | -62.5m/s | -35.4°C | 0.7% | 0hPa | 2.6V | 00:00:00 | 00:00:00 | 00:00:00 | |
| OE5DRO-10 | 2026-09-02 01:16:10 | 45.60494 | 9.66681 | 306° | 33km/h | 35037m | -64.4m/s | -33.4°C | 1.9% | 0hPa | 2.6V | 00:00:00 | 00:00:00 | 00:00:00 | |
| RDZBGO | 2026-09-02 01:16:08 | 45.60490 | 9.66689 | 311° | 31km/h | 35101m | -63.8m/s | -33.2°C | 0.6% | 0hPa | 2.5V | 00:00:00 | 00:00:00 | 00:00:00 | |
| DO3MHA-11 | 2026-09-02 01:16:05 | 45.60474 | 9.66727 | 291° | 35km/h | 35351m | -57.4m/s | -33.3°C | 1.8% | 0hPa | 2.5V | 00:00:00 | 02:42:22 | 00:00:00 | |
| IN3HCDX | 2026-09-02 01:16:00 | 45.60481 | 9.66766 | 223° | 38km/h | 35559m | -48.9m/s | -33.0°C | 0.5% | 0hPa | 2.5V | 00:00:00 | 00:00:00 | 00:00:00 | |
| DO3MHA-11 | 2026-09-02 01:15:55 | 45.60508 | 9.66819 | 312° | 44km/h | 35834m | -40.6m/s | -32.8°C | 1.8% | 0hPa | 2.5V | 00:00:00 | 02:42:12 | 00:00:00 | |
| DK5PH-5 | 2026-09-02 01:15:53 | 45.60496 | 9.66836 | 317° | 29km/h | 35899m | -24.5m/s | -33.1°C | 1.8% | 0hPa | 2.6V | 00:00:00 | 02:42:10 | 00:00:00 | |
| DF1GD-15 | 2026-09-02 01:15:52 | 45.60496 | 9.66836 | 317° | 37km/h | 35899m | -24.5m/s | -33.1°C | 0.6% | 0hPa | 2.6V | 00:00:00 | 00:00:00 | 00:00:00 | |
| IW2NTF | 2026-09-02 01:15:51 | 45.60482 | 9.66855 | 318° | 38km/h | 35929m | -6m/s | -33.2°C | 1.8% | 0hPa | 2.6V | 08:30:00 | 02:42:08 | 00:00:00 | |
| RDZBGO | 2026-09-02 01:15:47 | 45.60458 | 9.66885 | 319° | 60km/h | 35913m | 5.7m/s | -33.2°C | 0.5% | 0hPa | 2.5V | 00:00:00 | 00:00:00 | 00:00:00 | |
| DO3MHA-11 | 2026-09-02 01:15:45 | 45.60425 | 9.66928 | 317° | 18km/h | 35905m | 0.9m/s | -33.2°C | 1.8% | 0hPa | 2.5V | 00:00:00 | 02:42:02 | 00:00:00 | |
| IW2NTF | 2026-09-02 01:15:41 | 45.60416 | 9.66939 | 131° | 24km/h | 35881m | 4.5m/s | -33.2°C | 1.8% | 0hPa | 2.5V | 08:30:00 | 02:41:57 | 00:00:00 | |
| NBG1-10 | 2026-09-02 01:15:41 | 45.60412 | 9.66944 | 133° | 24km/h | 35887m | 6.4m/s | -33.2°C | 1.8% | 0hPa | 2.5V | 00:00:00 | 02:41:58 | 00:00:00 | |
| IN3HCDX | 2026-09-02 01:15:39 | 45.60416 | 9.66939 | 133° | 24km/h | 35882m | 4.5m/s | -33.2°C | 0.5% | 0hPa | 2.5V | 00:00:00 | 00:00:00 | 00:00:00 | |
| DO3MHA-11 | 2026-09-02 01:15:35 | 45.60416 | 9.66931 | 319° | 35km/h | 35869m | 5.6m/s | -33.2°C | 1.8% | 0hPa | 2.5V | 00:00:00 | 02:41:52 | 00:00:00 | |
| IW2NTF | 2026-09-02 01:15:31 | 45.60371 | 9.67017 | 268° | 13km/h | 35843m | 5m/s | -33.5°C | 1.8% | 0hPa | 2.5V | 08:30:00 | 02:41:45 | 00:00:00 | |
| OE5DRO-10 | 2026-09-02 01:15:31 | 45.60382 | 9.66986 | 307° | 31km/h | 35851m | 1.2m/s | -33.2°C | 1.8% | 0hPa | 2.6V | 00:00:00 | 00:00:00 | 00:00:00 | |
| DF1GD-15 | 2026-09-02 01:15:29 | 45.60375 | 9.66999 | 302° | 40km/h | 35850m | 1.6m/s | -33.3°C | 0.6% | 0hPa | 2.6V | 00:00:00 | 00:00:00 | 00:00:00 | |
| RDZBGO | 2026-09-02 01:15:27 | 45.60371 | 9.67017 | 269° | 13km/h | 35843m | 5.0m/s | -33.5°C | 0.5% | 0hPa | 2.6V | 00:00:00 | 00:00:00 | 00:00:00 | |
| DO3MHA-11 | 2026-09-02 01:15:25 | 45.60379 | 9.67014 | 143° | 35km/h | 35829m | 2.8m/s | -33.6°C | 1.8% | 0hPa | 2.6V | 00:00:00 | 02:41:42 | 08:30:00 | |
| DK5PH-5 | 2026-09-02 01:15:22 | 45.60382 | 9.67011 | 320° | 31km/h | 35823m | 2.9m/s | -33.8°C | 1.8% | 0hPa | 2.5V | 00:00:00 | 02:41:39 | 00:00:00 | |
| IW2NTF | 2026-09-02 01:15:21 | 45.60352 | 9.67057 | 307° | 62km/h | 35804m | 2.9m/s | -34°C | 1.8% | 0hPa | 2.6V | 08:30:00 | 02:41:35 | 00:00:00 | |
| IN3HCDX | 2026-09-02 01:15:20 | 45.60371 | 9.67026 | 314° | 46km/h | 35814m | 5.9m/s | -33.9°C | 0.5% | 0hPa | 2.6V | 00:00:00 | 00:00:00 | 00:00:00 | |
| DO3MHA-11 | 2026-09-02 01:15:15 | 45.60331 | 9.67103 | 294° | 20km/h | 35799m | 2.7m/s | -33.9°C | 1.9% | 0hPa | 2.6V | 00:00:00 | 02:41:32 | 00:00:00 | |
| OE5DRO-10 | 2026-09-02 01:15:12 | 45.60332 | 9.67119 | 174° | 27km/h | 35784m | 5.4m/s | -34.0°C | 1.9% | 0hPa | 2.6V | 00:00:00 | 00:00:00 | 08:30:00 | |
| IW2NTF | 2026-09-02 01:15:11 | 45.60344 | 9.67115 | 291° | 11km/h | 35774m | 2.4m/s | -34.1°C | 1.9% | 0hPa | 2.6V | 08:30:00 | 02:41:25 | 00:00:00 | |
| NBG1-10 | 2026-09-02 01:15:08 | 45.60344 | 9.67115 | 292° | 31km/h | 35774m | 2.3m/s | -34.1°C | 1.9% | 0hPa | 2.5V | 00:00:00 | 02:41:25 | 00:00:00 | |
| RDZBGO | 2026-09-02 01:15:06 | 45.60342 | 9.67120 | 305° | 26km/h | 35771m | 4.5m/s | -34.1°C | 0.6% | 0hPa | 2.5V | 00:00:00 | 00:00:00 | 00:00:00 | |
| DO3MHA-11 | 2026-09-02 01:15:05 | 45.60330 | 9.67144 | 306° | 37km/h | 35760m | 5.4m/s | -34.0°C | 1.9% | 0hPa | 2.5V | 00:00:00 | 02:41:22 | 00:00:00 | |
| IW2NTF | 2026-09-02 01:15:01 | 45.60308 | 9.67233 | 193° | 18km/h | 35735m | 5.3m/s | -33.9°C | 1.9% | 0hPa | 2.5V | 08:30:00 | 02:41:15 | 00:00:00 | |
| OE5DXL-15 | 2026-09-02 01:14:58 | 45.60308 | 9.67232 | 194° | 37km/h | 35736m | 5.2m/s | -33.9°C | 1.9% | 0hPa | 2.5V | 00:00:00 | 00:00:00 | 00:00:00 | |
| DO3MHA-11 | 2026-09-02 01:14:55 | 45.60321 | 9.67233 | 216° | 44km/h | 35728m | 0.8m/s | -33.9°C | 1.9% | 0hPa | 2.6V | 00:00:00 | 02:41:12 | 00:00:00 | |
| OE5DRO-10 | 2026-09-02 01:14:53 | 45.60319 | 9.67245 | 298° | 44km/h | 35723m | 4.4m/s | -34.0°C | 1.9% | 0hPa | 2.5V | 00:00:00 | 00:00:00 | 00:00:00 | |
| DB0UT-7 | 2026-09-02 01:14:52 | 45.60314 | 9.67256 | 302° | 40km/h | 35718m | 6.0m/s | -34.0°C | 1.9% | 0hPa | 2.5V | 00:00:00 | 02:41:09 | 00:00:00 | |
| IW2NTF | 2026-09-02 01:14:51 | 45.60283 | 9.67335 | 292° | 58km/h | 35703m | 0.8m/s | -34.1°C | 1.9% | 0hPa | 2.6V | 08:30:00 | 02:41:05 | 00:00:00 | |
| DK5PH-5 | 2026-09-02 01:14:50 | 45.60298 | 9.67293 | 301° | 38km/h | 35707m | 3.6m/s | -34.0°C | 1.9% | 0hPa | 2.5V | 00:00:00 | 02:41:07 | 00:00:00 | |
| RDZBGO | 2026-09-02 01:14:47 | 45.60279 | 9.67353 | 286° | 46km/h | 35702m | 2.1m/s | -34.1°C | 0.6% | 0hPa | 2.5V | 00:00:00 | 00:00:00 | 00:00:00 | |
| DO3MHA-11 | 2026-09-02 01:14:45 | 45.60278 | 9.67377 | 246° | 33km/h | 35695m | 5.3m/s | -34.1°C | 1.9% | 0hPa | 2.5V | 00:00:00 | 02:41:02 | 00:00:00 | |
| IW2NTF | 2026-09-02 01:14:41 | 45.60289 | 9.67413 | 298° | 49km/h | 35673m | 6.3m/s | -34.1°C | 1.9% | 0hPa | 2.5V | 08:30:00 | 02:40:55 | 00:00:00 | |
| IN3HCDX | 2026-09-02 01:14:37 | 45.60289 | 9.67413 | 299° | 49km/h | 35673m | 6.3m/s | -34.2°C | 0.6% | 0hPa | 2.6V | 00:00:00 | 00:00:00 | 00:00:00 | |
| DO3MHA-11 | 2026-09-02 01:14:35 | 45.60264 | 9.67477 | 297° | 37km/h | 35658m | 1.5m/s | -34.1°C | 1.9% | 0hPa | 2.6V | 00:00:00 | 02:40:52 | 00:00:00 | |
| OE5DRO-10 | 2026-09-02 01:14:34 | 45.60257 | 9.67501 | 293° | 44km/h | 35657m | 0.2m/s | -34.1°C | 1.9% | 0hPa | 2.6V | 00:00:00 | 00:00:00 | 00:00:00 | |
| IW2NTF | 2026-09-02 01:14:31 | 45.60260 | 9.67567 | 189° | 18km/h | 35634m | 2.3m/s | -34.1°C | 1.9% | 0hPa | 2.6V | 08:30:00 | 02:40:45 | 00:00:00 | |
| OE5DXL-15 | 2026-09-02 01:14:28 | 45.60260 | 9.67567 | 190° | 20km/h | 35635m | 2.3m/s | -34.1°C | 1.9% | 0hPa | 2.5V | 00:00:00 | 00:00:00 | 00:00:00 | |
| DO3MHA-11 | 2026-09-02 01:14:25 | 45.60265 | 9.67582 | 287° | 49km/h | 35631m | 2.6m/s | -34.1°C | 1.9% | 0hPa | 2.5V | 00:00:00 | 02:40:42 | 00:00:00 | |
| DB0UT-7 | 2026-09-02 01:14:22 | 45.60248 | 9.67634 | 298° | 40km/h | 35616m | 5.0m/s | -34.2°C | 1.9% | 0hPa | 2.6V | 00:00:00 | 00:00:00 | 00:00:00 | |
| IW2NTF | 2026-09-02 01:14:21 | 45.60221 | 9.67725 | 283° | 47km/h | 35607m | 2.5m/s | -34.4°C | 1.9% | 0hPa | 2.6V | 08:30:00 | 02:40:35 | 00:00:00 | |
| DK5PH-5 | 2026-09-02 01:14:20 | 45.60231 | 9.67684 | 294° | 47km/h | 35611m | 0.9m/s | -34.3°C | 1.9% | 0hPa | 2.5V | 00:00:00 | 02:40:37 | 00:00:00 | |
| IN3HCDX | 2026-09-02 01:14:16 | 45.60219 | 9.67739 | 273° | 33km/h | 35604m | 4.6m/s | -34.4°C | 0% | 0hPa | 2.5V | 00:00:00 | 00:00:00 | 00:00:00 | |
| OE5DRO-10 | 2026-09-02 01:14:15 | 45.60223 | 9.67753 | 208° | 33km/h | 35593m | 5.4m/s | -34.4°C | 1.9% | 0hPa | 2.5V | 00:00:00 | 00:00:00 | 00:00:00 | |
| DO3MHA-11 | 2026-09-02 01:14:14 | 45.60226 | 9.67755 | 182° | 44km/h | 35589m | 2.8m/s | -34.4°C | 1.9% | 0hPa | 2.5V | 00:00:00 | 02:40:31 | 00:00:00 | |
| IW2NTF | 2026-09-02 01:14:11 | 45.60210 | 9.67808 | 302° | 71km/h | 35569m | 5.8m/s | -34.7°C | 1.9% | 0hPa | 2.5V | 08:30:00 | 02:40:25 | 00:00:00 | |
| DO3MHA-11 | 2026-09-02 01:14:04 | 45.60177 | 9.67895 | 289° | 24km/h | 35560m | 2.0m/s | -34.8°C | 2.0% | 0hPa | 2.5V | 00:00:00 | 02:40:21 | 00:00:00 | |
| DF1GD-15 | 2026-09-02 01:14:03 | 45.60177 | 9.67896 | 290° | 49km/h | 35560m | 2.1m/s | -34.8°C | 0.6% | 0hPa | 2.5V | 00:00:00 | 00:00:00 | 00:00:00 | |
| NBG1-10 | 2026-09-02 01:14:02 | 45.60174 | 9.67920 | 260° | 35km/h | 35552m | 6.1m/s | -34.8°C | 2.0% | 0hPa | 2.5V | 00:00:00 | 02:40:19 | 00:00:00 | |
| IW2NTF | 2026-09-02 01:14:01 | 45.60185 | 9.67926 | 212° | 4km/h | 35535m | 0.9m/s | -34.8°C | 2% | 0hPa | 2.6V | 08:30:00 | 02:40:15 | 00:00:00 | |
| DF7PN | 2026-09-02 01:14:01 | 45.60150 | 9.68001 | 301° | 69km/h | 35512m | 2.7m/s | -34.9°C | 0.6% | -1.0hPa | 2.5V | 00:00:00 | 00:00:00 | 00:00:00 | |
| OE5DRO-10 | 2026-09-02 01:13:56 | 45.60182 | 9.67935 | 307° | 42km/h | 35531m | 3.3m/s | -34.8°C | 2.0% | 0hPa | 2.5V | 00:00:00 | 00:00:00 | 00:00:00 | |
| IN3HCDX | 2026-09-02 01:13:55 | 45.60182 | 9.67935 | 308° | 29km/h | 35531m | 3.4m/s | -34.8°C | 0% | 0hPa | 2.5V | 00:00:00 | 00:00:00 | 00:00:00 | |
| DO3MHA-11 | 2026-09-02 01:13:54 | 45.60168 | 9.67961 | 306° | 44km/h | 35521m | 5.9m/s | -34.8°C | 2.0% | 0hPa | 2.5V | 00:00:00 | 02:40:11 | 08:30:00 | |
| DB0UT-7 | 2026-09-02 01:13:52 | 45.60149 | 9.68001 | 302° | 38km/h | 35513m | 2.6m/s | -34.8°C | 2.0% | 0hPa | 2.5V | 00:00:00 | 02:40:09 | 00:00:00 | |
| IW2NTF | 2026-09-02 01:13:51 | 45.60131 | 9.68068 | 266° | 27km/h | 35501m | 5.3m/s | -34.9°C | 2% | 0hPa | 2.5V | 08:30:00 | 02:40:05 | 00:00:00 | |
| DK5PH-5 | 2026-09-02 01:13:50 | 45.60135 | 9.68041 | 292° | 33km/h | 35509m | 1.9m/s | -34.8°C | 2.0% | 0hPa | 2.6V | 00:00:00 | 02:40:07 | 00:00:00 | |
| DO3MHA-11 | 2026-09-02 01:13:44 | 45.60143 | 9.68082 | 208° | 42km/h | 35484m | 1.4m/s | -34.8°C | 1.9% | 0hPa | 2.6V | 00:00:00 | 02:40:01 | 00:00:00 | |
| DF1GD-15 | 2026-09-02 01:13:43 | 45.60143 | 9.68082 | 209° | 11km/h | 35484m | 1.4m/s | -34.9°C | 0.6% | 0hPa | 2.6V | 00:00:00 | 00:00:00 | 00:00:00 | |
| IW2NTF | 2026-09-02 01:13:41 | 45.60102 | 9.68170 | 306° | 64km/h | 35456m | 1.4m/s | -35°C | 1.9% | 0hPa | 2.6V | 08:30:00 | 02:39:54 | 00:00:00 | |
| OE5DRO-10 | 2026-09-02 01:13:37 | 45.60101 | 9.68170 | 307° | 37km/h | 35456m | 1.3m/s | -34.9°C | 1.9% | 0hPa | 2.5V | 00:00:00 | 00:00:00 | 00:00:00 | |
| DO3MHA-11 | 2026-09-02 01:13:34 | 45.60086 | 9.68211 | 273° | 29km/h | 35449m | 5.0m/s | -35.1°C | 2.0% | 0hPa | 2.5V | 00:00:00 | 02:39:51 | 00:00:00 | |
| DF7PN | 2026-09-02 01:13:30 | 45.60111 | 9.68230 | 216° | 22km/h | 35427m | 1.8m/s | -35.2°C | 0.6% | -1.0hPa | 2.5V | 00:00:00 | 00:00:00 | 00:00:00 | |
| NBG1-10 | 2026-09-02 01:13:29 | 45.60111 | 9.68230 | 217° | 38km/h | 35427m | 1.7m/s | -35.1°C | 2.0% | 0hPa | 2.5V | 00:00:00 | 02:39:46 | 00:00:00 | |
| DO3MHA-11 | 2026-09-02 01:13:24 | 45.60097 | 9.68289 | 308° | 37km/h | 35404m | 3.6m/s | -35.2°C | 2.0% | 0hPa | 2.5V | 00:00:00 | 02:39:41 | 00:00:00 | |
| RDZBGO | 2026-09-02 01:13:23 | 45.60097 | 9.68289 | 308° | 58km/h | 35404m | 3.6m/s | -35.3°C | 0.6% | 0hPa | 2.6V | 00:00:00 | 00:00:00 | 00:00:00 | |
| DB0UT-7 | 2026-09-02 01:13:22 | 45.60081 | 9.68319 | 303° | 35km/h | 35400m | 1.2m/s | -35.2°C | 2.0% | 0hPa | 2.6V | 00:00:00 | 00:00:00 | 08:30:00 | |
| DF1GD-15 | 2026-09-02 01:13:21 | 45.60081 | 9.68319 | 303° | 44km/h | 35400m | 1.2m/s | -35.3°C | 0.6% | 0hPa | 2.5V | 00:00:00 | 00:00:00 | 00:00:00 | |
| IW2NTF | 2026-09-02 01:13:21 | 45.60093 | 9.68352 | 185° | 38km/h | 35376m | 4.2m/s | -35.3°C | 2% | 0hPa | 2.5V | 08:30:00 | 02:39:34 | 00:00:00 | |
| DK5PH-5 | 2026-09-02 01:13:20 | 45.60076 | 9.68340 | 262° | 33km/h | 35394m | 5.1m/s | -35.2°C | 2.0% | 0hPa | 2.5V | 00:00:00 | 02:39:37 | 00:00:00 | |
| OE5DRO-10 | 2026-09-02 01:13:18 | 45.60084 | 9.68350 | 193° | 35km/h | 35382m | 6.1m/s | -35.2°C | 2.0% | 0hPa | 2.5V | 00:00:00 | 00:00:00 | 00:00:00 | |
| DO3MHA-11 | 2026-09-02 01:13:14 | 45.60116 | 9.68362 | 233° | 35km/h | 35369m | 2.9m/s | -35.3°C | 2.0% | 0hPa | 2.6V | 00:00:00 | 02:39:31 | 00:00:00 | |
| IW2NTF | 2026-09-02 01:13:11 | 45.60086 | 9.68446 | 285° | 27km/h | 35341m | 2.9m/s | -35.3°C | 2% | 0hPa | 2.6V | 08:30:00 | 02:39:24 | 00:00:00 | |
| DO3MHA-11 | 2026-09-02 01:13:04 | 45.60097 | 9.68465 | 194° | 40km/h | 35325m | 6.6m/s | -35.3°C | 2.0% | 0hPa | 2.5V | 00:00:00 | 02:39:21 | 00:00:00 | |
| RDZBGO | 2026-09-02 01:13:02 | 45.60107 | 9.68468 | 189° | 44km/h | 35319m | 4.5m/s | -35.3°C | 0.6% | 0hPa | 2.5V | 00:00:00 | 00:00:00 | 00:00:00 | |
| IW2NTF | 2026-09-02 01:13:01 | 45.60137 | 9.68513 | 296° | 42km/h | 35296m | 6.3m/s | -35.3°C | 2% | 0hPa | 2.5V | 08:30:00 | 02:39:14 | 00:00:00 | |
| DF7PN | 2026-09-02 01:12:59 | 45.60119 | 9.68553 | 298° | 37km/h | 35285m | 1.8m/s | -35.2°C | 0.6% | -1.0hPa | 2.6V | 00:00:00 | 00:00:00 | 00:00:00 | |
| DO3MHA-11 | 2026-09-02 01:12:54 | 45.60119 | 9.68553 | 299° | 33km/h | 35285m | 1.8m/s | -35.2°C | 2.0% | 0hPa | 2.6V | 00:00:00 | 02:39:11 | 00:00:00 | |
| NBG1-10 | 2026-09-02 01:12:53 | 45.60116 | 9.68564 | 284° | 31km/h | 35283m | 2.6m/s | -35.1°C | 2.0% | 0hPa | 2.6V | 00:00:00 | 02:39:10 | 00:00:00 | |
| DB0UT-7 | 2026-09-02 01:12:52 | 45.60116 | 9.68573 | 251° | 31km/h | 35279m | 4.4m/s | -35.1°C | 2.0% | 0hPa | 2.6V | 00:00:00 | 02:39:09 | 00:00:00 | |
| IW2NTF | 2026-09-02 01:12:51 | 45.60158 | 9.68593 | 197° | 38km/h | 35256m | 1.6m/s | -35.1°C | 2% | 0hPa | 2.6V | 08:30:00 | 02:39:04 | 00:00:00 | |
| DK5PH-5 | 2026-09-02 01:12:50 | 45.60127 | 9.68583 | 196° | 38km/h | 35267m | 6.4m/s | -35.1°C | 2.0% | 0hPa | 2.5V | 00:00:00 | 02:39:07 | 00:00:00 | |
| DO3MHA-11 | 2026-09-02 01:12:44 | 45.60172 | 9.68613 | 275° | 33km/h | 35245m | 5.9m/s | -35.1°C | 2.0% | 0hPa | 2.5V | 00:00:00 | 02:39:01 | 00:00:00 | |
| IW2NTF | 2026-09-02 01:12:41 | 45.60156 | 9.68679 | 208° | 27km/h | 35216m | 6.1m/s | -35.3°C | 2% | 0hPa | 2.5V | 08:30:00 | 02:38:54 | 00:00:00 | |
| OE5DRO-10 | 2026-09-02 01:12:40 | 45.60154 | 9.68658 | 301° | 31km/h | 35228m | 1.7m/s | -35.2°C | 2.0% | 0hPa | 2.6V | 00:00:00 | 00:00:00 | 00:00:00 | |
| DO3MHA-11 | 2026-09-02 01:12:34 | 45.60185 | 9.68690 | 193° | 31km/h | 35202m | 2.7m/s | -35.3°C | 2.0% | 0hPa | 2.6V | 00:00:00 | 02:38:51 | 00:00:00 | |
| IW2NTF | 2026-09-02 01:12:31 | 45.60198 | 9.68745 | 313° | 33km/h | 35175m | 2.2m/s | -35.4°C | 1.9% | 0hPa | 2.6V | 08:30:00 | 02:38:44 | 00:00:00 | |
| DF7PN | 2026-09-02 01:12:28 | 45.60193 | 9.68752 | 309° | 24km/h | 35173m | 1.8m/s | -35.5°C | 0.6% | -1.0hPa | 2.5V | 00:00:00 | 00:00:00 | 00:00:00 | |
| DO3MHA-11 | 2026-09-02 01:12:24 | 45.60192 | 9.68762 | 220° | 33km/h | 35167m | 4.5m/s | -35.5°C | 2.0% | 0hPa | 2.5V | 00:00:00 | 02:38:41 | 08:30:00 | |
| DB0UT-7 | 2026-09-02 01:12:22 | 45.60204 | 9.68766 | 186° | 31km/h | 35156m | 6.1m/s | -35.6°C | 2.0% | 0hPa | 2.5V | 00:00:00 | 00:00:00 | 00:00:00 | |
| IW2NTF | 2026-09-02 01:12:21 | 45.60253 | 9.68788 | 236° | 27km/h | 35138m | 4.7m/s | -36°C | 2% | 0hPa | 2.5V | 08:30:00 | 02:38:34 | 00:00:00 | |
| NBG1-10 | 2026-09-02 01:12:20 | 45.60227 | 9.68770 | 191° | 31km/h | 35147m | 2.3m/s | -35.8°C | 2.0% | 0hPa | 2.6V | 00:00:00 | 02:38:37 | 08:30:00 | |
| DF1GD-15 | 2026-09-02 01:12:19 | 45.60227 | 9.68770 | 191° | 49km/h | 35147m | 2.3m/s | -35.8°C | 0.6% | 0hPa | 2.5V | 00:00:00 | 00:00:00 | 00:00:00 | |
| DO3MHA-11 | 2026-09-02 01:12:14 | 45.60249 | 9.68816 | 307° | 35km/h | 35123m | 3.8m/s | -36.1°C | 2.0% | 0hPa | 2.5V | 00:00:00 | 02:38:31 | 00:00:00 | |
| IW2NTF | 2026-09-02 01:12:10 | 45.60271 | 9.68845 | 182° | 53km/h | 35095m | 3.9m/s | -36.3°C | 2% | 0hPa | 2.5V | 08:30:00 | 02:38:24 | 00:00:00 | |
| DO3MHA-11 | 2026-09-02 01:12:04 | 45.60306 | 9.68853 | 207° | 24km/h | 35089m | 2.5m/s | -36.2°C | 2.1% | 0hPa | 2.6V | 00:00:00 | 02:38:21 | 00:00:00 | |
| OE5DRO-10 | 2026-09-02 01:12:02 | 45.60314 | 9.68867 | 268° | 27km/h | 35080m | 6.0m/s | -36.3°C | 2.1% | 0hPa | 2.6V | 00:00:00 | 00:00:00 | 00:00:00 | |
| IW2NTF | 2026-09-02 01:12:00 | 45.60297 | 9.68902 | 285° | 11km/h | 35059m | 3.2m/s | -36.5°C | 2.1% | 0hPa | 2.6V | 08:30:00 | 02:38:14 | 00:00:00 | |
| RDZBGO | 2026-09-02 01:11:59 | 45.60308 | 9.68884 | 313° | 31km/h | 35069m | 4.6m/s | -36.4°C | 0.6% | 0hPa | 2.5V | 00:00:00 | 00:00:00 | 00:00:00 | |
| DF1GD-15 | 2026-09-02 01:11:58 | 45.60303 | 9.68892 | 319° | 29km/h | 35065m | 3.0m/s | -36.4°C | 0.7% | 0hPa | 2.5V | 00:00:00 | 00:00:00 | 00:00:00 | |
| DO3MHA-11 | 2026-09-02 01:11:54 | 45.60309 | 9.68910 | 188° | 31km/h | 35045m | 5.2m/s | -36.5°C | 2.1% | 0hPa | 2.5V | 00:00:00 | 02:38:11 | 00:00:00 | |
| DB0UT-7 | 2026-09-02 01:11:52 | 45.60329 | 9.68915 | 195° | 20km/h | 35037m | 2.5m/s | -36.6°C | 2.0% | 0hPa | 2.6V | 00:00:00 | 02:38:09 | 00:00:00 | |
| IW2NTF | 2026-09-02 01:11:50 | 45.60341 | 9.68958 | 318° | 31km/h | 35012m | 4.2m/s | -36.7°C | 2.1% | 0hPa | 2.5V | 08:30:00 | 02:38:03 | 00:00:00 | |
| NBG1-10 | 2026-09-02 01:11:47 | 45.60346 | 9.68950 | 307° | 22km/h | 35017m | 5.3m/s | -36.7°C | 2.1% | 0hPa | 2.6V | 00:00:00 | 02:38:04 | 00:00:00 | |
| DO3MHA-11 | 2026-09-02 01:11:44 | 45.60330 | 9.68969 | 323° | 18km/h | 35005m | 3.3m/s | -36.7°C | 2.1% | 0hPa | 2.6V | 00:00:00 | 02:38:01 | 00:00:00 | |
| OE5DRO-10 | 2026-09-02 01:11:43 | 45.60327 | 9.68973 | 306° | 18km/h | 35001m | 4.0m/s | -36.8°C | 2.1% | 0hPa | 2.6V | 00:00:00 | 00:00:00 | 00:00:00 | |
| IW2NTF | 2026-09-02 01:11:41 | 45.60355 | 9.68990 | 251° | 16km/h | 34971m | 4.3m/s | -37.1°C | 2.1% | 0hPa | 2.6V | 08:30:00 | 02:37:53 | 00:00:00 | |
| RDZBGO | 2026-09-02 01:11:38 | 45.60342 | 9.68980 | 192° | 27km/h | 34982m | 3.8m/s | -36.9°C | 0.6% | 0hPa | 2.5V | 00:00:00 | 00:00:00 | 00:00:00 | |
| DF1GD-15 | 2026-09-02 01:11:37 | 45.60348 | 9.68982 | 200° | 24km/h | 34979m | 3.2m/s | -37.0°C | 0.7% | 0hPa | 2.5V | 00:00:00 | 00:00:00 | 00:00:00 | |
| DO3MHA-11 | 2026-09-02 01:11:34 | 45.60352 | 9.69003 | 311° | 18km/h | 34962m | 5.0m/s | -37.1°C | 2.1% | 0hPa | 2.5V | 00:00:00 | 02:37:51 | 00:00:00 | |
| IW2NTF | 2026-09-02 01:11:30 | 45.60332 | 9.69036 | 179° | 13km/h | 34925m | 4.1m/s | -37.5°C | 2.1% | 0hPa | 2.5V | 08:30:00 | 02:37:43 | 00:00:00 | |
| DO3MHA-11 | 2026-09-02 01:11:24 | 45.60336 | 9.69036 | 184° | 24km/h | 34919m | 3.2m/s | -37.5°C | 2.1% | 0hPa | 2.6V | 00:00:00 | 02:37:41 | 00:00:00 | |
| DB0UT-7 | 2026-09-02 01:11:22 | 45.60334 | 9.69038 | 334° | 27km/h | 34910m | 5.0m/s | -37.6°C | 2.2% | 0hPa | 2.6V | 00:00:00 | 00:00:00 | 00:00:00 | |
| IW2NTF | 2026-09-02 01:11:21 | 45.60297 | 9.69078 | 298° | 24km/h | 34884m | 4.7m/s | -38.1°C | 2.3% | 0hPa | 2.6V | 08:30:00 | 02:37:33 | 00:00:00 | |
| RDZBGO | 2026-09-02 01:11:18 | 45.60314 | 9.69054 | 327° | 38km/h | 34896m | 3.9m/s | -37.9°C | 0.7% | 0hPa | 2.5V | 00:00:00 | 00:00:00 | 00:00:00 | |
| DF1GD-15 | 2026-09-02 01:11:17 | 45.60307 | 9.69062 | 321° | 37km/h | 34892m | 3.3m/s | -37.9°C | 0.7% | 0hPa | 2.5V | 00:00:00 | 00:00:00 | 00:00:00 | |
| DO3MHA-11 | 2026-09-02 01:11:14 | 45.60295 | 9.69090 | 249° | 26km/h | 34875m | 4.9m/s | -38.2°C | 2.3% | 0hPa | 2.5V | 00:00:00 | 02:37:31 | 00:00:00 | |
| IW2NTF | 2026-09-02 01:11:10 | 45.60262 | 9.69108 | 342° | 49km/h | 34838m | 4m/s | -38.4°C | 2.3% | 0hPa | 2.5V | 08:30:00 | 02:37:23 | 00:00:00 | |
| OE5DRO-10 | 2026-09-02 01:11:05 | 45.60251 | 9.69114 | 338° | 31km/h | 34835m | 2.8m/s | -38.3°C | 2.3% | 0hPa | 2.6V | 00:00:00 | 00:00:00 | 00:00:00 | |
| DO3MHA-11 | 2026-09-02 01:11:04 | 45.60241 | 9.69121 | 330° | 24km/h | 34832m | 3.1m/s | -38.3°C | 2.3% | 0hPa | 2.6V | 00:00:00 | 02:37:21 | 00:00:00 | |
| IW2NTF | 2026-09-02 01:11:00 | 45.60220 | 9.69162 | 343° | 29km/h | 34796m | 5.7m/s | -38°C | 2.3% | 0hPa | 2.6V | 08:30:00 | 02:37:13 | 00:00:00 | |
| RDZBGO | 2026-09-02 01:10:58 | 45.60228 | 9.69152 | 261° | 11km/h | 34808m | 3.0m/s | -38.1°C | 0.7% | 0hPa | 2.6V | 00:00:00 | 00:00:00 | 00:00:00 | |
| DF1GD-15 | 2026-09-02 01:10:56 | 45.60225 | 9.69159 | 335° | 18km/h | 34801m | 4.4m/s | -38.1°C | 0.7% | 0hPa | 2.6V | 00:00:00 | 00:00:00 | 00:00:00 | |
| DO3MHA-11 | 2026-09-02 01:10:54 | 45.60200 | 9.69169 | 347° | 33km/h | 34785m | 5.0m/s | -37.9°C | 2.2% | 0hPa | 2.6V | 00:00:00 | 02:37:11 | 08:30:00 | |
| DB0UT-7 | 2026-09-02 01:10:52 | 45.60175 | 9.69179 | 339° | 31km/h | 34778m | 2.3m/s | -37.9°C | 2.3% | 0hPa | 2.5V | 00:00:00 | 02:37:09 | 00:00:00 | |
| IW2NTF | 2026-09-02 01:10:50 | 45.60158 | 9.69221 | 224° | 18km/h | 34749m | 2.8m/s | -37.8°C | 2.2% | 0hPa | 2.5V | 08:30:00 | 02:37:03 | 00:00:00 | |
| OE5DRO-10 | 2026-09-02 01:10:46 | 45.60158 | 9.69221 | 225° | 29km/h | 34749m | 2.8m/s | -37.8°C | 2.2% | 0hPa | 2.6V | 00:00:00 | 00:00:00 | 00:00:00 | |
| DO3MHA-11 | 2026-09-02 01:10:44 | 45.60160 | 9.69228 | 308° | 35km/h | 34744m | 3.1m/s | -37.8°C | 2.3% | 0hPa | 2.6V | 00:00:00 | 02:37:01 | 00:00:00 | |
| NBG1-10 | 2026-09-02 01:10:41 | 45.60141 | 9.69235 | 350° | 33km/h | 34728m | 6.1m/s | -37.8°C | 2.3% | 0hPa | 2.6V | 00:00:00 | 02:36:58 | 00:00:00 | |
| IW2NTF | 2026-09-02 01:10:40 | 45.60090 | 9.69268 | 293° | 27km/h | 34710m | 5.7m/s | -37.8°C | 2.3% | 0hPa | 2.5V | 08:30:00 | 02:36:53 | 00:00:00 | |
| RDZBGO | 2026-09-02 01:10:38 | 45.60103 | 9.69251 | 333° | 46km/h | 34718m | 2.0m/s | -37.8°C | 0.7% | 0hPa | 2.6V | 00:00:00 | 00:00:00 | 00:00:00 | |
| DO3MHA-11 | 2026-09-02 01:10:34 | 45.60092 | 9.69286 | 232° | 31km/h | 34698m | 6.4m/s | -37.6°C | 2.2% | 0hPa | 2.6V | 00:00:00 | 02:36:51 | 00:00:00 | |
| DF1GD-15 | 2026-09-02 01:10:33 | 45.60092 | 9.69286 | 233° | 29km/h | 34698m | 6.4m/s | -37.7°C | 0.7% | 0hPa | 2.6V | 00:00:00 | 00:00:00 | 00:00:00 | |
| IW2NTF | 2026-09-02 01:10:31 | 45.60080 | 9.69320 | 343° | 49km/h | 34661m | 3.3m/s | -37.4°C | 2.3% | 0hPa | 2.6V | 08:30:00 | 02:36:43 | 00:00:00 | |
| OE5DRO-10 | 2026-09-02 01:10:27 | 45.60092 | 9.69316 | 349° | 35km/h | 34666m | 5.4m/s | -37.4°C | 2.2% | 0hPa | 2.6V | 00:00:00 | 00:00:00 | 00:00:00 | |
| DO3MHA-11 | 2026-09-02 01:10:24 | 45.60060 | 9.69335 | 320° | 29km/h | 34657m | 2.5m/s | -37.3°C | 2.2% | 0hPa | 2.5V | 00:00:00 | 02:36:41 | 00:00:00 | |
| DB0UT-7 | 2026-09-02 01:10:22 | 45.60053 | 9.69356 | 269° | 29km/h | 34648m | 6.1m/s | -37.3°C | 2.2% | 0hPa | 2.5V | 00:00:00 | 00:00:00 | 00:00:00 | |
| IW2NTF | 2026-09-02 01:10:20 | 45.60083 | 9.69408 | 244° | 9km/h | 34620m | 4.4m/s | -37.1°C | 2.2% | 0hPa | 2.5V | 08:30:00 | 02:36:33 | 00:00:00 | |
| RDZBGO | 2026-09-02 01:10:15 | 45.60083 | 9.69408 | 246° | 9km/h | 34621m | 4.4m/s | -37.1°C | 0.7% | 0hPa | 2.5V | 00:00:00 | 00:00:00 | 00:00:00 | |
| DO3MHA-11 | 2026-09-02 01:10:14 | 45.60078 | 9.69411 | 352° | 38km/h | 34610m | 6.1m/s | -37.0°C | 2.2% | 0hPa | 2.5V | 00:00:00 | 02:36:31 | 00:00:00 | |
| DF1GD-15 | 2026-09-02 01:10:12 | 45.60071 | 9.69413 | 351° | 35km/h | 34604m | 5.4m/s | -37.0°C | 0.7% | 0hPa | 2.5V | 00:00:00 | 00:00:00 | 00:00:00 | |
| IW2NTF | 2026-09-02 01:10:10 | 45.60046 | 9.69480 | 241° | 46km/h | 34572m | 5.8m/s | -36.8°C | 2.1% | 0hPa | 2.5V | 08:30:00 | 02:36:23 | 00:00:00 | |
| OE5DRO-10 | 2026-09-02 01:10:08 | 45.60040 | 9.69453 | 270° | 31km/h | 34584m | 5.4m/s | -36.8°C | 2.2% | 0hPa | 2.5V | 00:00:00 | 00:00:00 | 00:00:00 | |
| DO3MHA-11 | 2026-09-02 01:10:04 | 45.60058 | 9.69506 | 233° | 24km/h | 34562m | 4.2m/s | -36.7°C | 2.1% | 0hPa | 2.5V | 00:00:00 | 02:36:21 | 00:00:00 | |
| IW2NTF | 2026-09-02 01:10:00 | 45.60053 | 9.69557 | 298° | 22km/h | 34524m | 3.9m/s | -36.7°C | 2.1% | 0hPa | 2.5V | 08:30:00 | 02:36:13 | 00:00:00 | |
| RDZBGO | 2026-09-02 01:09:55 | 45.60053 | 9.69557 | 300° | 22km/h | 34525m | 3.9m/s | -36.7°C | 0.7% | 0hPa | 2.6V | 00:00:00 | 00:00:00 | 00:00:00 | |
| DO3MHA-11 | 2026-09-02 01:09:54 | 45.60051 | 9.69574 | 261° | 33km/h | 34516m | 4.9m/s | -36.7°C | 2.1% | 0hPa | 2.6V | 00:00:00 | 02:36:11 | 00:00:00 | |
| DB0UT-7 | 2026-09-02 01:09:52 | 45.60057 | 9.69596 | 245° | 38km/h | 34505m | 5.4m/s | -36.7°C | 2.1% | 0hPa | 2.6V | 00:00:00 | 02:36:09 | 00:00:00 | |
| IW2NTF | 2026-09-02 01:09:50 | 45.60072 | 9.69668 | 275° | 29km/h | 34475m | 4.7m/s | -36.9°C | 2.2% | 0hPa | 2.6V | 08:30:00 | 02:36:03 | 00:00:00 | |
| OE5DRO-10 | 2026-09-02 01:09:49 | 45.60069 | 9.69634 | 252° | 33km/h | 34490m | 4.9m/s | -36.7°C | 2.1% | 0hPa | 2.5V | 00:00:00 | 00:00:00 | 00:00:00 | |
| DO3MHA-11 | 2026-09-02 01:09:44 | 45.60071 | 9.69688 | 270° | 35km/h | 34466m | 4.2m/s | -36.9°C | 2.2% | 0hPa | 2.5V | 00:00:00 | 02:36:01 | 00:00:00 | |
| IW2NTF | 2026-09-02 01:09:40 | 45.60112 | 9.69770 | 238° | 33km/h | 34425m | 4.5m/s | -37°C | 2.2% | 0hPa | 2.5V | 08:30:00 | 02:35:53 | 00:00:00 | |
| NBG1-10 | 2026-09-02 01:09:35 | 45.60115 | 9.69780 | 254° | 37km/h | 34421m | 5.8m/s | -36.9°C | 2.2% | 0hPa | 2.5V | 00:00:00 | 02:35:52 | 00:00:00 | |
| DO3MHA-11 | 2026-09-02 01:09:34 | 45.60116 | 9.69790 | 269° | 42km/h | 34415m | 5.6m/s | -36.9°C | 2.2% | 0hPa | 2.5V | 00:00:00 | 02:35:51 | 00:00:00 | |
| OE5DRO-10 | 2026-09-02 01:09:30 | 45.60117 | 9.69837 | 254° | 42km/h | 34398m | 4.7m/s | -36.9°C | 2.2% | 0hPa | 2.5V | 00:00:00 | 00:00:00 | 08:30:00 | |
| IW2NTF | 2026-09-02 01:09:28 | 45.60146 | 9.69894 | 223° | 57km/h | 34375m | 4.6m/s | -37°C | 2.2% | 0hPa | 2.6V | 08:30:00 | 02:35:43 | 00:00:00 | |
| DO3MHA-11 | 2026-09-02 01:09:24 | 45.60165 | 9.69921 | 229° | 35km/h | 34367m | 4.5m/s | -37.0°C | 2.1% | 0hPa | 2.5V | 00:00:00 | 02:35:41 | 08:30:00 | |
| DB0UT-7 | 2026-09-02 01:09:22 | 45.60176 | 9.69944 | 249° | 31km/h | 34356m | 5.5m/s | -36.9°C | 2.1% | 0hPa | 2.5V | 00:00:00 | 00:00:00 | 00:00:00 | |
| DF7PN | 2026-09-02 01:09:21 | 45.60178 | 9.69955 | 261° | 27km/h | 34350m | 5.3m/s | -37.0°C | 0.6% | -1.0hPa | 2.5V | 00:00:00 | 00:00:00 | 00:00:00 | |
| IW2NTF | 2026-09-02 01:09:19 | 45.60188 | 9.70004 | 230° | 38km/h | 34324m | 5.8m/s | -37.1°C | 2.1% | 0hPa | 2.5V | 08:30:00 | 02:35:33 | 00:00:00 | |
| DO3MHA-11 | 2026-09-02 01:09:14 | 45.60204 | 9.70025 | 221° | 33km/h | 34313m | 5.3m/s | -37.1°C | 2.2% | 0hPa | 2.6V | 00:00:00 | 02:35:31 | 00:00:00 | |
| OE5DRO-10 | 2026-09-02 01:09:11 | 45.60231 | 9.70060 | 228° | 29km/h | 34300m | 4.6m/s | -37.1°C | 2.2% | 0hPa | 2.6V | 00:00:00 | 00:00:00 | 00:00:00 | |
| DF1GD-15 | 2026-09-02 01:09:09 | 45.60237 | 9.70071 | 238° | 37km/h | 34295m | 5.5m/s | -37.2°C | 0.7% | 0hPa | 2.6V | 00:00:00 | 00:00:00 | 00:00:00 | |
| IW2NTF | 2026-09-02 01:09:08 | 45.60244 | 9.70104 | 255° | 16km/h | 34273m | 4.2m/s | -37.3°C | 2.2% | 0hPa | 2.6V | 08:30:00 | 02:35:23 | 00:00:00 | |
| DO3MHA-11 | 2026-09-02 01:09:04 | 45.60249 | 9.70113 | 209° | 33km/h | 34264m | 5.3m/s | -37.3°C | 2.2% | 0hPa | 2.5V | 00:00:00 | 02:35:21 | 00:00:00 | |
| NBG1-10 | 2026-09-02 01:09:02 | 45.60264 | 9.70120 | 195° | 26km/h | 34252m | 6.0m/s | -37.3°C | 2.2% | 0hPa | 2.5V | 00:00:00 | 02:35:19 | 00:00:00 | |
| IW2NTF | 2026-09-02 01:09:01 | 45.60308 | 9.70159 | 265° | 24km/h | 34222m | 6.6m/s | -37.3°C | 2.2% | 0hPa | 2.5V | 08:30:00 | 02:35:13 | 00:00:00 | |
| DO3MHA-11 | 2026-09-02 01:08:54 | 45.60305 | 9.70175 | 296° | 26km/h | 34211m | 4.3m/s | -37.2°C | 2.2% | 0hPa | 2.6V | 00:00:00 | 02:35:11 | 00:00:00 | |
| RDZBGO | 2026-09-02 01:08:53 | 45.60305 | 9.70175 | 297° | 22km/h | 34211m | 4.4m/s | -37.3°C | 0.7% | 0hPa | 2.5V | 00:00:00 | 00:00:00 | 00:00:00 | |
| OE5DRO-10 | 2026-09-02 01:08:52 | 45.60303 | 9.70186 | 260° | 22km/h | 34203m | 4.7m/s | -37.2°C | 2.2% | 0hPa | 2.5V | 00:00:00 | 00:00:00 | 00:00:00 | |
| IW2NTF | 2026-09-02 01:08:51 | 45.60342 | 9.70203 | 205° | 35km/h | 34170m | 4.9m/s | -37.2°C | 2.2% | 0hPa | 2.5V | 08:30:00 | 02:35:03 | 00:00:00 | |
| DF7PN | 2026-09-02 01:08:50 | 45.60309 | 9.70192 | 192° | 22km/h | 34192m | 6.0m/s | -37.3°C | 0.7% | -1.0hPa | 2.5V | 00:00:00 | 00:00:00 | 00:00:00 | |
| DF1GD-15 | 2026-09-02 01:08:48 | 45.60316 | 9.70193 | 190° | 33km/h | 34186m | 5.7m/s | -37.3°C | 0.7% | 0hPa | 2.5V | 00:00:00 | 00:00:00 | 00:00:00 | |
| DO3MHA-11 | 2026-09-02 01:08:44 | 45.60353 | 9.70217 | 238° | 18km/h | 34160m | 5.2m/s | -37.2°C | 2.2% | 0hPa | 2.5V | 00:00:00 | 02:35:01 | 00:00:00 | |
| IW2NTF | 2026-09-02 01:08:41 | 45.60364 | 9.70252 | 172° | 22km/h | 34118m | 5.2m/s | -37.2°C | 2.1% | 0hPa | 2.5V | 08:30:00 | 02:34:53 | 00:00:00 | |
| DO3MHA-11 | 2026-09-02 01:08:34 | 45.60376 | 9.70251 | 184° | 18km/h | 34109m | 4.2m/s | -37.2°C | 2.1% | 0hPa | 2.6V | 00:00:00 | 02:34:51 | 00:00:00 | |
| RDZBGO | 2026-09-02 01:08:33 | 45.60382 | 9.70252 | 199° | 20km/h | 34104m | 4.8m/s | -37.3°C | 0.7% | 0hPa | 2.6V | 00:00:00 | 00:00:00 | 00:00:00 | |
| NBG1-10 | 2026-09-02 01:08:29 | 45.60390 | 9.70275 | 270° | 20km/h | 34083m | 4.3m/s | -37.5°C | 2.2% | 0hPa | 2.6V | 00:00:00 | 02:34:46 | 00:00:00 | |
| DF1GD-15 | 2026-09-02 01:08:27 | 45.60390 | 9.70282 | 267° | 18km/h | 34078m | 4.3m/s | -37.7°C | 0.7% | 0hPa | 2.6V | 00:00:00 | 00:00:00 | 00:00:00 | |
| IW2NTF | 2026-09-02 01:08:26 | 45.60413 | 9.70289 | 159° | 22km/h | 34047m | 4.1m/s | -38.1°C | 2.3% | 0hPa | 2.6V | 08:30:00 | 02:34:39 | 00:00:00 | |
| DO3MHA-11 | 2026-09-02 01:08:24 | 45.60401 | 9.70293 | 171° | 16km/h | 34057m | 5.7m/s | -38.0°C | 2.3% | 0hPa | 2.5V | 00:00:00 | 02:34:41 | 00:00:00 | |
| DB0UT-7 | 2026-09-02 01:08:22 | 45.60412 | 9.70288 | 160° | 20km/h | 34047m | 4.1m/s | -38.0°C | 2.3% | 0hPa | 2.5V | 00:00:00 | 00:00:00 | 00:00:00 | |
| DF7PN | 2026-09-02 01:08:19 | 45.60422 | 9.70285 | 241° | 4km/h | 34032m | 6.1m/s | -38.1°C | 0.7% | -1.0hPa | 2.5V | 00:00:00 | 00:00:00 | 00:00:00 | |
| DO3MHA-11 | 2026-09-02 01:08:14 | 45.60420 | 9.70308 | 231° | 22km/h | 34009m | 4.8m/s | -38.1°C | 2.3% | 0hPa | 2.5V | 00:00:00 | 02:34:31 | 00:00:00 | |
| RDZBGO | 2026-09-02 01:08:12 | 45.60423 | 9.70311 | 199° | 20km/h | 34003m | 6.2m/s | -38.1°C | 0.7% | 0hPa | 2.5V | 00:00:00 | 00:00:00 | 00:00:00 | |
| DF1GD-15 | 2026-09-02 01:08:06 | 45.60459 | 9.70291 | 117° | 9km/h | 33974m | 5.3m/s | -38.1°C | 0.7% | 0hPa | 2.5V | 00:00:00 | 00:00:00 | 00:00:00 | |
| DO3MHA-11 | 2026-09-02 01:08:04 | 45.60452 | 9.70296 | 312° | 26km/h | 33957m | 5.0m/s | -38.1°C | 2.2% | 0hPa | 2.5V | 00:00:00 | 02:34:21 | 00:00:00 | |
| NBG1-10 | 2026-09-02 01:07:56 | 45.60474 | 9.70338 | 159° | 26km/h | 33918m | 4.3m/s | -38.0°C | 2.2% | 0hPa | 2.5V | 00:00:00 | 02:34:13 | 00:00:00 | |
| OE5DRO-10 | 2026-09-02 01:07:55 | 45.60478 | 9.70335 | 143° | 22km/h | 33913m | 4.8m/s | -38.1°C | 2.3% | 0hPa | 2.5V | 00:00:00 | 00:00:00 | 00:00:00 | |
| DO3MHA-11 | 2026-09-02 01:07:54 | 45.60480 | 9.70333 | 96° | 24km/h | 33908m | 5.1m/s | -38.1°C | 2.2% | 0hPa | 2.5V | 00:00:00 | 02:34:11 | 08:30:00 | |
| DB0UT-7 | 2026-09-02 01:07:52 | 45.60476 | 9.70334 | 323° | 26km/h | 33897m | 5.0m/s | -38.1°C | 2.3% | 0hPa | 2.6V | 00:00:00 | 02:34:09 | 00:00:00 | |
| IW2NTF | 2026-09-02 01:07:49 | 45.60493 | 9.70388 | 170° | 27km/h | 33857m | 4.6m/s | -38.2°C | 2.3% | 0hPa | 2.6V | 08:30:00 | 02:34:01 | 00:00:00 | |
| DF7PN | 2026-09-02 01:07:48 | 45.60469 | 9.70369 | 250° | 29km/h | 33878m | 4.8m/s | -38.2°C | 0.7% | -1.0hPa | 2.5V | 00:00:00 | 00:00:00 | 00:00:00 | |
| DO3MHA-11 | 2026-09-02 01:07:44 | 45.60493 | 9.70388 | 171° | 24km/h | 33858m | 4.5m/s | -38.2°C | 2.3% | 0hPa | 2.5V | 00:00:00 | 02:34:01 | 00:00:00 | |
| IW2NTF | 2026-09-02 01:07:39 | 45.60504 | 9.70434 | 223° | 37km/h | 33811m | 4.7m/s | -38.3°C | 2.3% | 0hPa | 2.5V | 08:30:00 | 02:33:51 | 00:00:00 | |
| OE5DRO-10 | 2026-09-02 01:07:36 | 45.60496 | 9.70412 | 261° | 29km/h | 33821m | 4.5m/s | -38.2°C | 2.3% | 0hPa | 2.6V | 00:00:00 | 00:00:00 | 00:00:00 | |
| DO3MHA-11 | 2026-09-02 01:07:34 | 45.60504 | 9.70434 | 224° | 24km/h | 33811m | 4.7m/s | -38.2°C | 2.3% | 0hPa | 2.6V | 00:00:00 | 02:33:51 | 00:00:00 | |
| RDZBGO | 2026-09-02 01:07:30 | 45.60527 | 9.70443 | 165° | 27km/h | 33797m | 4.9m/s | -38.2°C | 0.7% | 0hPa | 2.6V | 00:00:00 | 00:00:00 | 00:00:00 | |
| IW2NTF | 2026-09-02 01:07:29 | 45.60529 | 9.70451 | 269° | 35km/h | 33763m | 5m/s | -38.1°C | 2.3% | 0hPa | 2.6V | 08:30:00 | 02:33:41 | 00:00:00 | |
| DO3MHA-11 | 2026-09-02 01:07:24 | 45.60528 | 9.70451 | 270° | 31km/h | 33763m | 5.0m/s | -38.1°C | 2.3% | 0hPa | 2.6V | 00:00:00 | 02:33:41 | 00:00:00 | |
| DF1GD-15 | 2026-09-02 01:07:23 | 45.60529 | 9.70451 | 271° | 35km/h | 33763m | 5.0m/s | -38.1°C | 0.7% | 0hPa | 2.5V | 00:00:00 | 00:00:00 | 00:00:00 | |
| NBG1-10 | 2026-09-02 01:07:22 | 45.60534 | 9.70477 | 238° | 27km/h | 33753m | 4.7m/s | -38.1°C | 2.3% | 0hPa | 2.5V | 00:00:00 | 02:33:39 | 08:30:00 | |
| IW2NTF | 2026-09-02 01:07:19 | 45.60575 | 9.70487 | 343° | 7km/h | 33715m | 4.3m/s | -38.2°C | 2.3% | 0hPa | 2.6V | 08:30:00 | 02:33:31 | 00:00:00 | |
| OE5DRO-10 | 2026-09-02 01:07:17 | 45.60571 | 9.70496 | 147° | 22km/h | 33729m | 4.8m/s | -38.1°C | 2.3% | 0hPa | 2.5V | 00:00:00 | 00:00:00 | 00:00:00 | |
| DO3MHA-11 | 2026-09-02 01:07:14 | 45.60575 | 9.70487 | 344° | 29km/h | 33716m | 4.3m/s | -38.1°C | 2.3% | 0hPa | 2.5V | 00:00:00 | 02:33:31 | 00:00:00 | |
| IW2NTF | 2026-09-02 01:07:09 | 45.60617 | 9.70557 | 159° | 18km/h | 33666m | 5.7m/s | -38.3°C | 2.3% | 0hPa | 2.5V | 08:30:00 | 02:33:21 | 00:00:00 | |
| DF1GD-15 | 2026-09-02 01:07:04 | 45.60617 | 9.70557 | 161° | 18km/h | 33666m | 5.7m/s | -38.3°C | 0.8% | 0hPa | 2.6V | 00:00:00 | 00:00:00 | 00:00:00 | |
| IW2NTF | 2026-09-02 01:06:59 | 45.60654 | 9.70608 | 215° | 40km/h | 33616m | 4.4m/s | -38°C | 2.3% | 0hPa | 2.6V | 08:30:00 | 02:33:11 | 00:00:00 | |
| OE5DRO-10 | 2026-09-02 01:06:58 | 45.60627 | 9.70566 | 240° | 27km/h | 33637m | 5.5m/s | -38.1°C | 2.3% | 0hPa | 2.6V | 00:00:00 | 00:00:00 | 00:00:00 | |
| DO3MHA-11 | 2026-09-02 01:06:54 | 45.60654 | 9.70608 | 216° | 20km/h | 33617m | 4.3m/s | -38.0°C | 2.3% | 0hPa | 2.6V | 00:00:00 | 02:33:11 | 00:00:00 | |
| DB0UT-7 | 2026-09-02 01:06:52 | 45.60669 | 9.70620 | 205° | 20km/h | 33608m | 4.9m/s | -37.9°C | 2.2% | 0hPa | 2.5V | 00:00:00 | 02:33:09 | 00:00:00 | |
| IW2NTF | 2026-09-02 01:06:49 | 45.60698 | 9.70640 | 205° | 31km/h | 33566m | 5.2m/s | -37.9°C | 2.2% | 0hPa | 2.5V | 08:30:00 | 02:33:01 | 00:00:00 | |
| DF7PN | 2026-09-02 01:06:46 | 45.60687 | 9.70632 | 209° | 18km/h | 33577m | 5.2m/s | -37.9°C | 0.7% | -1.0hPa | 2.5V | 00:00:00 | 00:00:00 | 00:00:00 | |
| DO3MHA-11 | 2026-09-02 01:06:44 | 45.60698 | 9.70640 | 206° | 22km/h | 33567m | 5.2m/s | -37.9°C | 2.2% | 0hPa | 2.5V | 00:00:00 | 02:33:01 | 00:00:00 | |
| DF1GD-15 | 2026-09-02 01:06:43 | 45.60706 | 9.70645 | 205° | 35km/h | 33562m | 4.7m/s | -37.9°C | 0.7% | 0hPa | 2.5V | 00:00:00 | 00:00:00 | 00:00:00 | |
| IW2NTF | 2026-09-02 01:06:40 | 45.60737 | 9.70687 | 222° | 18km/h | 33521m | 3.8m/s | -38°C | 2.3% | 0hPa | 2.5V | 08:30:00 | 02:32:51 | 00:00:00 | |
| OE5DRO-10 | 2026-09-02 01:06:39 | 45.60730 | 9.70665 | 228° | 20km/h | 33544m | 5.3m/s | -37.9°C | 2.3% | 0hPa | 2.5V | 00:00:00 | 00:00:00 | 08:30:00 | |
| DO3MHA-11 | 2026-09-02 01:06:34 | 45.60737 | 9.70687 | 223° | 24km/h | 33521m | 3.8m/s | -38.0°C | 2.3% | 0hPa | 2.5V | 00:00:00 | 02:32:51 | 00:00:00 | |
| DK5PH-5 | 2026-09-02 01:06:32 | 45.60747 | 9.70696 | 201° | 35km/h | 33510m | 6.1m/s | -38.0°C | 2.3% | 0hPa | 2.5V | 00:00:00 | 02:32:49 | 08:30:00 | |
| IW2NTF | 2026-09-02 01:06:29 | 45.60788 | 9.70700 | 345° | 11km/h | 33471m | 3.6m/s | -38.2°C | 2.3% | 0hPa | 2.6V | 08:30:00 | 02:32:41 | 00:00:00 | |
| RDZBGO | 2026-09-02 01:06:28 | 45.60775 | 9.70703 | 185° | 35km/h | 33496m | 3.6m/s | -38.0°C | 0.7% | 0hPa | 2.6V | 00:00:00 | 00:00:00 | 00:00:00 | |
| DO3MHA-11 | 2026-09-02 01:06:24 | 45.60788 | 9.70700 | 346° | 33km/h | 33472m | 3.5m/s | -38.1°C | 2.3% | 0hPa | 2.6V | 00:00:00 | 02:32:41 | 08:30:00 | |
| DB0UT-7 | 2026-09-02 01:06:22 | 45.60785 | 9.70707 | 271° | 27km/h | 33466m | 3.5m/s | -38.1°C | 2.3% | 0hPa | 2.5V | 00:00:00 | 00:00:00 | 00:00:00 | |
| OE5DRO-10 | 2026-09-02 01:06:20 | 45.60791 | 9.70721 | 225° | 33km/h | 33456m | 6.0m/s | -38.1°C | 2.3% | 0hPa | 2.5V | 00:00:00 | 00:00:00 | 00:00:00 | |
| IW2NTF | 2026-09-02 01:06:19 | 45.60852 | 9.70733 | 143° | 29km/h | 33428m | 5.9m/s | -37.9°C | 2.3% | 0hPa | 2.5V | 08:30:00 | 02:32:31 | 00:00:00 | |
| DF7PN | 2026-09-02 01:06:15 | 45.60852 | 9.70733 | 143° | 29km/h | 33428m | 5.9m/s | -37.9°C | 0.7% | -1.0hPa | 2.5V | 00:00:00 | 00:00:00 | 00:00:00 | |
| DO3MHA-11 | 2026-09-02 01:06:14 | 45.60852 | 9.70733 | 144° | 33km/h | 33428m | 5.9m/s | -37.8°C | 2.3% | 0hPa | 2.5V | 00:00:00 | 02:32:31 | 00:00:00 | |
| NBG1-10 | 2026-09-02 01:06:13 | 45.60856 | 9.70726 | 114° | 24km/h | 33422m | 6.0m/s | -37.8°C | 2.3% | 0hPa | 2.5V | 00:00:00 | 02:32:30 | 00:00:00 | |
| IW2NTF | 2026-09-02 01:06:09 | 45.60879 | 9.70748 | 193° | 44km/h | 33379m | 4.5m/s | -37.8°C | 2.2% | 0hPa | 2.5V | 08:30:00 | 02:32:21 | 00:00:00 | |
| RDZBGO | 2026-09-02 01:06:08 | 45.60851 | 9.70714 | 295° | 11km/h | 33404m | 4.7m/s | -37.8°C | 0.7% | 0hPa | 2.6V | 00:00:00 | 00:00:00 | 00:00:00 | |
| DF1GD-15 | 2026-09-02 01:06:02 | 45.60899 | 9.70747 | 161° | 37km/h | 33370m | 5.0m/s | -37.8°C | 0.7% | 0hPa | 2.6V | 00:00:00 | 00:00:00 | 00:00:00 | |
| OE5DRO-10 | 2026-09-02 01:06:01 | 45.60906 | 9.70741 | 141° | 22km/h | 33365m | 4.9m/s | -37.8°C | 2.2% | 0hPa | 2.6V | 00:00:00 | 00:00:00 | 00:00:00 | |
| IW2NTF | 2026-09-02 01:05:59 | 45.60916 | 9.70718 | 236° | 16km/h | 33330m | 5m/s | -37.8°C | 2.3% | 0hPa | 2.6V | 08:30:00 | 02:32:11 | 00:00:00 | |
| DK5PH-5 | 2026-09-02 01:05:53 | 45.60919 | 9.70724 | 226° | 27km/h | 33325m | 4.7m/s | -37.7°C | 2.2% | 0hPa | 2.5V | 00:00:00 | 02:32:10 | 00:00:00 | |
| DO3MHA-11 | 2026-09-02 01:05:52 | 45.60923 | 9.70729 | 214° | 24km/h | 33320m | 4.6m/s | -37.7°C | 2.2% | 0hPa | 2.5V | 00:00:00 | 02:32:09 | 00:00:00 | |
| IW2NTF | 2026-09-02 01:05:49 | 45.60971 | 9.70702 | 164° | 26km/h | 33276m | 5.2m/s | -37.6°C | 2.2% | 0hPa | 2.6V | 08:30:00 | 02:32:00 | 00:00:00 | |
| RDZBGO | 2026-09-02 01:05:48 | 45.60945 | 9.70729 | 147° | 24km/h | 33300m | 5.0m/s | -37.7°C | 0.7% | 0hPa | 2.5V | 00:00:00 | 00:00:00 | 00:00:00 | |
| DF7PN | 2026-09-02 01:05:44 | 45.60971 | 9.70702 | 164° | 24km/h | 33276m | 5.2m/s | -37.7°C | 0.7% | -1.0hPa | 2.5V | 00:00:00 | 00:00:00 | 00:00:00 | |
| DO3MHA-11 | 2026-09-02 01:05:42 | 45.60977 | 9.70701 | 177° | 15km/h | 33271m | 5.1m/s | -37.6°C | 2.2% | 0hPa | 2.5V | 00:00:00 | 02:31:59 | 00:00:00 | |
| DF1GD-15 | 2026-09-02 01:05:41 | 45.60977 | 9.70701 | 178° | 26km/h | 33271m | 5.1m/s | -37.6°C | 0.7% | 0hPa | 2.5V | 00:00:00 | 00:00:00 | 00:00:00 | |
| IW2NTF | 2026-09-02 01:05:39 | 45.61004 | 9.70695 | 152° | 18km/h | 33227m | 4.1m/s | -37.5°C | 2.2% | 0hPa | 2.5V | 08:30:00 | 02:31:50 | 00:00:00 | |
| NBG1-10 | 2026-09-02 01:05:38 | 45.60996 | 9.70705 | 195° | 22km/h | 33252m | 4.9m/s | -37.5°C | 2.2% | 0hPa | 2.5V | 00:00:00 | 02:31:55 | 00:00:00 | |
| DO3MHA-11 | 2026-09-02 01:05:32 | 45.61009 | 9.70692 | 168° | 24km/h | 33223m | 5.4m/s | -37.5°C | 2.2% | 0hPa | 2.5V | 00:00:00 | 02:31:49 | 00:00:00 | |
| IW2NTF | 2026-09-02 01:05:28 | 45.61063 | 9.70690 | 80° | 5km/h | 33177m | 4.3m/s | -37.4°C | 2.2% | 0hPa | 2.5V | 08:30:00 | 02:31:40 | 00:00:00 | |
| RDZBGO | 2026-09-02 01:05:27 | 45.61051 | 9.70695 | 184° | 27km/h | 33199m | 4.7m/s | -37.4°C | 0.7% | 0hPa | 2.5V | 00:00:00 | 00:00:00 | 00:00:00 | |
| OE5DRO-10 | 2026-09-02 01:05:23 | 45.61063 | 9.70690 | 81° | 20km/h | 33177m | 4.3m/s | -37.3°C | 2.2% | 0hPa | 2.5V | 00:00:00 | 00:00:00 | 00:00:00 | |
| DO3MHA-11 | 2026-09-02 01:05:22 | 45.61063 | 9.70688 | 93° | 24km/h | 33173m | 3.9m/s | -37.4°C | 2.2% | 0hPa | 2.5V | 00:00:00 | 02:31:39 | 00:00:00 | |
| IW2NTF | 2026-09-02 01:05:18 | 45.61114 | 9.70691 | 140° | 26km/h | 33129m | 5.3m/s | -37.4°C | 2.2% | 0hPa | 2.6V | 08:30:00 | 02:31:30 | 00:00:00 | |
| DF7PN | 2026-09-02 01:05:13 | 45.61119 | 9.70685 | 126° | 22km/h | 33124m | 4.6m/s | -37.4°C | 0.7% | -1.0hPa | 2.6V | 00:00:00 | 00:00:00 | 00:00:00 | |
| DO3MHA-11 | 2026-09-02 01:05:12 | 45.61119 | 9.70684 | 127° | 22km/h | 33124m | 4.6m/s | -37.3°C | 2.2% | 0hPa | 2.6V | 00:00:00 | 02:31:29 | 00:00:00 | |
| IW2NTF | 2026-09-02 01:05:09 | 45.61159 | 9.70677 | 171° | 26km/h | 33081m | 4.9m/s | -37.6°C | 2.2% | 0hPa | 2.6V | 08:30:00 | 02:31:20 | 00:00:00 | |
| RDZBGO | 2026-09-02 01:05:06 | 45.61134 | 9.70670 | 198° | 20km/h | 33100m | 5.5m/s | -37.6°C | 0.7% | 0hPa | 2.5V | 00:00:00 | 00:00:00 | 00:00:00 | |
| NBG1-10 | 2026-09-02 01:05:05 | 45.61146 | 9.70675 | 194° | 20km/h | 33090m | 4.3m/s | -37.6°C | 2.2% | 0hPa | 2.5V | 00:00:00 | 02:31:22 | 00:00:00 | |
| OE5DRO-10 | 2026-09-02 01:05:04 | 45.61153 | 9.70677 | 185° | 24km/h | 33086m | 4.3m/s | -37.6°C | 2.2% | 0hPa | 2.5V | 00:00:00 | 00:00:00 | 00:00:00 | |
| DO3MHA-11 | 2026-09-02 01:05:02 | 45.61165 | 9.70675 | 155° | 27km/h | 33076m | 5.4m/s | -37.6°C | 2.2% | 0hPa | 2.5V | 00:00:00 | 02:31:19 | 00:00:00 | |
| DF1GD-15 | 2026-09-02 01:04:59 | 45.61173 | 9.70663 | 125° | 26km/h | 33065m | 4.8m/s | -37.6°C | 0.7% | 0hPa | 2.5V | 00:00:00 | 00:00:00 | 00:00:00 | |
| IW2NTF | 2026-09-02 01:04:58 | 45.61214 | 9.70629 | 174° | 31km/h | 33031m | 3.9m/s | -37.7°C | 2.2% | 0hPa | 2.5V | 08:30:00 | 02:31:10 | 00:00:00 | |
| DB0UT-7 | 2026-09-02 01:04:52 | 45.61221 | 9.70627 | 172° | 15km/h | 33028m | 3.9m/s | -37.6°C | 2.2% | 0hPa | 2.5V | 00:00:00 | 02:31:09 | 00:00:00 | |
| IW2NTF | 2026-09-02 01:04:49 | 45.61245 | 9.70588 | 161° | 24km/h | 32981m | 4.8m/s | -37.8°C | 2.2% | 0hPa | 2.5V | 08:30:00 | 02:31:00 | 00:00:00 | |
| RDZBGO | 2026-09-02 01:04:46 | 45.61234 | 9.70607 | 98° | 18km/h | 33002m | 4.4m/s | -37.7°C | 0.7% | 0hPa | 2.6V | 00:00:00 | 00:00:00 | 00:00:00 | |
| OE5DRO-10 | 2026-09-02 01:04:45 | 45.61237 | 9.70596 | 129° | 15km/h | 32992m | 5.2m/s | -37.7°C | 2.2% | 0hPa | 2.6V | 00:00:00 | 00:00:00 | 00:00:00 | |
| DF7PN | 2026-09-02 01:04:42 | 45.61257 | 9.70584 | 169° | 22km/h | 32973m | 4.0m/s | -37.9°C | 0.7% | -1.0hPa | 2.5V | 00:00:00 | 00:00:00 | 00:00:00 | |
| DK5PH-5 | 2026-09-02 01:04:41 | 45.61257 | 9.70584 | 170° | 15km/h | 32974m | 3.9m/s | -37.8°C | 2.2% | 0hPa | 2.5V | 00:00:00 | 02:30:58 | 00:00:00 | |
| IW2NTF | 2026-09-02 01:04:39 | 45.61266 | 9.70559 | 123° | 11km/h | 32933m | 5.4m/s | -37.9°C | 2.2% | 0hPa | 2.6V | 08:30:00 | 02:30:50 | 00:00:00 | |
| DO3MHA-11 | 2026-09-02 01:04:32 | 45.61268 | 9.70556 | 148° | 11km/h | 32928m | 5.0m/s | -37.9°C | 2.2% | 0hPa | 2.6V | 00:00:00 | 02:30:49 | 00:00:00 | |
| IW2NTF | 2026-09-02 01:04:28 | 45.61281 | 9.70547 | 289° | 4km/h | 32885m | 5.3m/s | -38.2°C | 2.2% | 0hPa | 2.6V | 08:30:00 | 02:30:40 | 00:00:00 | |
| OE5DRO-10 | 2026-09-02 01:04:26 | 45.61284 | 9.70545 | 25° | 13km/h | 32900m | 4.8m/s | -38.1°C | 2.2% | 0hPa | 2.6V | 00:00:00 | 00:00:00 | 00:00:00 | |
| DB0UT-7 | 2026-09-02 01:04:22 | 45.61281 | 9.70547 | 211° | 16km/h | 32880m | 5.1m/s | -38.1°C | 2.2% | 0hPa | 2.6V | 00:00:00 | 00:00:00 | 08:30:00 | |
| IW2NTF | 2026-09-02 01:04:19 | 45.61301 | 9.70506 | 144° | 15km/h | 32836m | 5m/s | -38.5°C | 2.2% | 0hPa | 2.5V | 08:30:00 | 02:30:30 | 00:00:00 | |
| DF1GD-15 | 2026-09-02 01:04:17 | 45.61290 | 9.70538 | 121° | 20km/h | 32860m | 5.9m/s | -38.2°C | 0.7% | 0hPa | 2.5V | 00:00:00 | 00:00:00 | 00:00:00 | |
| DO3MHA-11 | 2026-09-02 01:04:12 | 45.61304 | 9.70504 | 175° | 16km/h | 32831m | 6.1m/s | -38.5°C | 2.2% | 0hPa | 2.5V | 00:00:00 | 02:30:29 | 00:00:00 | |
| DF7PN | 2026-09-02 01:04:11 | 45.61311 | 9.70508 | 220° | 16km/h | 32820m | 4.4m/s | -38.8°C | 0.7% | -1.0hPa | 2.5V | 00:00:00 | 00:00:00 | 00:00:00 | |
| IW2NTF | 2026-09-02 01:04:09 | 45.61314 | 9.70502 | 104° | 24km/h | 32787m | 5.1m/s | -39.1°C | 2.3% | 0hPa | 2.5V | 08:30:00 | 02:30:20 | 00:00:00 | |
| OE5DRO-10 | 2026-09-02 01:04:07 | 45.61316 | 9.70518 | 285° | 16km/h | 32807m | 5.2m/s | -38.8°C | 2.2% | 0hPa | 2.6V | 00:00:00 | 00:00:00 | 00:00:00 | |
| RDZBGO | 2026-09-02 01:04:05 | 45.61315 | 9.70518 | 47° | 5km/h | 32802m | 5.3m/s | -38.9°C | 0.7% | 0hPa | 2.6V | 00:00:00 | 00:00:00 | 00:00:00 | |
| DO3MHA-11 | 2026-09-02 01:04:01 | 45.61321 | 9.70486 | 134° | 20km/h | 32776m | 5.5m/s | -39.2°C | 2.3% | 0hPa | 2.6V | 00:00:00 | 02:30:18 | 00:00:00 | |
| NBG1-10 | 2026-09-02 01:03:59 | 45.61332 | 9.70473 | 148° | 20km/h | 32766m | 4.3m/s | -39.3°C | 2.3% | 0hPa | 2.6V | 00:00:00 | 02:30:16 | 00:00:00 | |
| IW2NTF | 2026-09-02 01:03:58 | 45.61343 | 9.70449 | 48° | 13km/h | 32736m | 4.4m/s | -39.7°C | 2.3% | 0hPa | 2.5V | 08:30:00 | 02:30:10 | 00:00:00 | |
| DF1GD-15 | 2026-09-02 01:03:57 | 45.61338 | 9.70468 | 148° | 24km/h | 32762m | 4.5m/s | -39.4°C | 0.8% | 0hPa | 2.5V | 00:00:00 | 00:00:00 | 00:00:00 | |
| DB0UT-7 | 2026-09-02 01:03:52 | 45.61341 | 9.70446 | 50° | 20km/h | 32731m | 4.5m/s | -39.7°C | 2.3% | 0hPa | 2.5V | 00:00:00 | 02:30:09 | 00:00:00 | |
| DO3MHA-11 | 2026-09-02 01:03:51 | 45.61340 | 9.70443 | 69° | 18km/h | 32726m | 5.1m/s | -39.8°C | 2.4% | 0hPa | 2.5V | 00:00:00 | 02:30:08 | 00:00:00 | |
| OE5DRO-10 | 2026-09-02 01:03:48 | 45.61343 | 9.70435 | 132° | 22km/h | 32712m | 4.1m/s | -39.9°C | 2.4% | 0hPa | 2.6V | 00:00:00 | 00:00:00 | 08:30:00 | |
| IW2NTF | 2026-09-02 01:03:47 | 45.61347 | 9.70372 | 84° | 26km/h | 32677m | 4.1m/s | -40.4°C | 2.5% | 0hPa | 2.5V | 08:30:00 | 02:29:58 | 00:00:00 | |
| RDZBGO | 2026-09-02 01:03:45 | 45.61348 | 9.70423 | 110° | 22km/h | 32703m | 5.4m/s | -40.1°C | 0.8% | 0hPa | 2.6V | 00:00:00 | 00:00:00 | 00:00:00 | |
| DF7PN | 2026-09-02 01:03:39 | 45.61348 | 9.70357 | 112° | 16km/h | 32666m | 6.1m/s | -40.5°C | 0.7% | -1.0hPa | 2.6V | 00:00:00 | 00:00:00 | 00:00:00 | |
| DF1GD-15 | 2026-09-02 01:03:37 | 45.61353 | 9.70349 | 148° | 13km/h | 32656m | 4.5m/s | -40.5°C | 0.8% | 0hPa | 2.6V | 00:00:00 | 00:00:00 | 00:00:00 | |
| DK5PH-5 | 2026-09-02 01:03:36 | 45.61355 | 9.70347 | 136° | 18km/h | 32651m | 4.0m/s | -40.5°C | 2.5% | 0hPa | 2.6V | 00:00:00 | 02:29:53 | 00:00:00 | |
| IW2NTF | 2026-09-02 01:03:34 | 45.61346 | 9.70313 | 65° | 37km/h | 32626m | 4.3m/s | -40.8°C | 2.5% | 0hPa | 2.6V | 08:30:00 | 02:29:48 | 00:00:00 | |
| DO3MHA-11 | 2026-09-02 01:03:34 | 45.61355 | 9.70340 | 71° | 26km/h | 32642m | 5.5m/s | -40.6°C | 2.5% | 0hPa | 2.6V | 00:00:00 | 02:29:51 | 00:00:00 | |
| OE5DRO-10 | 2026-09-02 01:03:29 | 45.61340 | 9.70289 | 81° | 18km/h | 32617m | 5.0m/s | -40.8°C | 2.5% | 0hPa | 2.6V | 00:00:00 | 00:00:00 | 00:00:00 | |
| NBG1-10 | 2026-09-02 01:03:26 | 45.61342 | 9.70260 | 117° | 20km/h | 32601m | 5.1m/s | -40.9°C | 2.6% | 0hPa | 2.6V | 00:00:00 | 02:29:43 | 00:00:00 | |
| IW2NTF | 2026-09-02 01:03:24 | 45.61341 | 9.70240 | 44° | 22km/h | 32577m | 5.1m/s | -40.9°C | 2.5% | 0hPa | 2.6V | 08:30:00 | 02:29:38 | 00:00:00 | |
| DO3MHA-11 | 2026-09-02 01:03:24 | 45.61346 | 9.70251 | 109° | 22km/h | 32592m | 4.3m/s | -40.9°C | 2.6% | 0hPa | 2.5V | 00:00:00 | 02:29:41 | 00:00:00 | |
| DB0UT-7 | 2026-09-02 01:03:22 | 45.61344 | 9.70245 | 47° | 20km/h | 32583m | 5.0m/s | -40.8°C | 2.6% | 0hPa | 2.5V | 00:00:00 | 00:00:00 | 00:00:00 | |
| IW2NTF | 2026-09-02 01:03:15 | 45.61335 | 9.70188 | 333° | 9km/h | 32529m | 4.9m/s | -40.9°C | 2.6% | 0hPa | 2.5V | 08:30:00 | 02:29:28 | 00:00:00 | |
| DO3MHA-11 | 2026-09-02 01:03:13 | 45.61334 | 9.70186 | 181° | 16km/h | 32539m | 4.5m/s | -40.8°C | 2.6% | 0hPa | 2.6V | 00:00:00 | 02:29:30 | 08:30:00 | |
| OE5DRO-10 | 2026-09-02 01:03:10 | 45.61331 | 9.70189 | 359° | 22km/h | 32525m | 4.9m/s | -40.9°C | 2.6% | 0hPa | 2.5V | 00:00:00 | 00:00:00 | 00:00:00 | |
| DF7PN | 2026-09-02 01:03:08 | 45.61320 | 9.70184 | 30° | 27km/h | 32515m | 4.7m/s | -40.9°C | 0% | -1.0hPa | 2.5V | 00:00:00 | 00:00:00 | 00:00:00 | |
| DK5PH-5 | 2026-09-02 01:03:06 | 45.61310 | 9.70169 | 59° | 18km/h | 32506m | 4.0m/s | -40.9°C | 2.6% | 0hPa | 2.5V | 00:00:00 | 02:29:23 | 00:00:00 | |
| RDZBGO | 2026-09-02 01:03:04 | 45.61307 | 9.70161 | 75° | 24km/h | 32502m | 4.5m/s | -40.9°C | 0.8% | 0hPa | 2.6V | 00:00:00 | 00:00:00 | 00:00:00 | |
| IW2NTF | 2026-09-02 01:03:04 | 45.61314 | 9.70149 | 220° | 16km/h | 32480m | 5.4m/s | -40.9°C | 2.6% | 0hPa | 2.5V | 08:30:00 | 02:29:18 | 00:00:00 | |
| DO3MHA-11 | 2026-09-02 01:03:03 | 45.61308 | 9.70148 | 135° | 16km/h | 32492m | 5.6m/s | -40.9°C | 2.6% | 0hPa | 2.6V | 00:00:00 | 02:29:20 | 00:00:00 | |
| DF1GD-15 | 2026-09-02 01:02:54 | 45.61303 | 9.70162 | 45° | 26km/h | 32452m | 5.5m/s | -40.9°C | 0.9% | 0hPa | 2.6V | 00:00:00 | 00:00:00 | 00:00:00 | |
| IW2NTF | 2026-09-02 01:02:54 | 45.61298 | 9.70131 | 125° | 16km/h | 32432m | 4.5m/s | -40.9°C | 2.6% | 0hPa | 2.6V | 08:30:00 | 02:29:08 | 00:00:00 | |
| NBG1-10 | 2026-09-02 01:02:53 | 45.61297 | 9.70146 | 78° | 13km/h | 32442m | 4.5m/s | -40.8°C | 2.6% | 0hPa | 2.6V | 00:00:00 | 02:29:10 | 00:00:00 | |
| DB0UT-7 | 2026-09-02 01:02:52 | 45.61297 | 9.70138 | 98° | 15km/h | 32437m | 4.3m/s | -40.8°C | 2.6% | 0hPa | 2.6V | 00:00:00 | 02:29:09 | 00:00:00 | |
| OE5DRO-10 | 2026-09-02 01:02:51 | 45.61298 | 9.70131 | 126° | 15km/h | 32433m | 4.5m/s | -40.8°C | 2.6% | 0hPa | 2.6V | 00:00:00 | 00:00:00 | 00:00:00 | |
| IW2NTF | 2026-09-02 01:02:45 | 45.61311 | 9.70144 | 90° | 22km/h | 32381m | 5.3m/s | -40.7°C | 2.5% | 0hPa | 2.6V | 08:30:00 | 02:28:58 | 00:00:00 | |
| RDZBGO | 2026-09-02 01:02:44 | 45.61313 | 9.70153 | 275° | 13km/h | 32403m | 4.4m/s | -40.8°C | 0.8% | 0hPa | 2.6V | 00:00:00 | 00:00:00 | 00:00:00 | |
| DO3MHA-11 | 2026-09-02 01:02:40 | 45.61311 | 9.70136 | 98° | 15km/h | 32377m | 4.7m/s | -40.7°C | 2.5% | 0hPa | 2.6V | 00:00:00 | 02:28:57 | 00:00:00 | |
| DF7PN | 2026-09-02 01:02:37 | 45.61316 | 9.70120 | 152° | 9km/h | 32362m | 5.2m/s | -40.8°C | 0.8% | -1.0hPa | 2.6V | 00:00:00 | 00:00:00 | 00:00:00 | |
| DK5PH-5 | 2026-09-02 01:02:36 | 45.61318 | 9.70120 | 192° | 15km/h | 32357m | 4.7m/s | -40.8°C | 2.6% | 0hPa | 2.6V | 00:00:00 | 02:28:53 | 00:00:00 | |
| IW2NTF | 2026-09-02 01:02:34 | 45.61330 | 9.70123 | 146° | 11km/h | 32331m | 5.4m/s | -40.8°C | 2.5% | 0hPa | 2.6V | 08:30:00 | 02:28:48 | 00:00:00 | |
| DF1GD-15 | 2026-09-02 01:02:34 | 45.61320 | 9.70121 | 211° | 11km/h | 32352m | 4.6m/s | -40.8°C | 0.8% | 0hPa | 2.5V | 00:00:00 | 00:00:00 | 00:00:00 | |
| OE5DRO-10 | 2026-09-02 01:02:32 | 45.61327 | 9.70125 | 172° | 15km/h | 32337m | 5.4m/s | -40.7°C | 2.5% | 0hPa | 2.5V | 00:00:00 | 00:00:00 | 00:00:00 | |
| DO3MHA-11 | 2026-09-02 01:02:30 | 45.61332 | 9.70120 | 132° | 11km/h | 32326m | 5.2m/s | -40.7°C | 2.5% | 0hPa | 2.5V | 00:00:00 | 02:28:47 | 00:00:00 | |
| RDZBGO | 2026-09-02 01:02:24 | 45.61342 | 9.70103 | 164° | 7km/h | 32301m | 5.2m/s | -40.8°C | 0.8% | 0hPa | 2.6V | 00:00:00 | 00:00:00 | 00:00:00 | |
| IW2NTF | 2026-09-02 01:02:24 | 45.61351 | 9.70097 | 141° | 18km/h | 32280m | 5.5m/s | -41°C | 2.5% | 0hPa | 2.5V | 08:30:00 | 02:28:38 | 00:00:00 | |
| DB0UT-7 | 2026-09-02 01:02:22 | 45.61348 | 9.70100 | 152° | 18km/h | 32286m | 5.6m/s | -40.9°C | 2.5% | 0hPa | 2.6V | 00:00:00 | 00:00:00 | 00:00:00 | |
| DO3MHA-11 | 2026-09-02 01:02:20 | 45.61355 | 9.70092 | 138° | 22km/h | 32275m | 4.6m/s | -40.9°C | 2.6% | 0hPa | 2.6V | 00:00:00 | 02:28:37 | 00:00:00 | |
| NBG1-10 | 2026-09-02 01:02:19 | 45.61359 | 9.70087 | 137° | 18km/h | 32270m | 4.4m/s | -41.0°C | 2.6% | 0hPa | 2.6V | 00:00:00 | 02:28:36 | 08:30:00 | |
| IW2NTF | 2026-09-02 01:02:15 | 45.61382 | 9.70033 | 106° | 27km/h | 32219m | 4.6m/s | -41.1°C | 2.6% | 0hPa | 2.6V | 08:30:00 | 02:28:26 | 00:00:00 | |
| OE5DRO-10 | 2026-09-02 01:02:13 | 45.61375 | 9.70064 | 113° | 20km/h | 32241m | 4.4m/s | -41.0°C | 2.6% | 0hPa | 2.6V | 00:00:00 | 00:00:00 | 00:00:00 | |
| DK5PH-5 | 2026-09-02 01:02:06 | 45.61388 | 9.70010 | 117° | 15km/h | 32204m | 5.9m/s | -41.1°C | 2.6% | 0hPa | 2.6V | 00:00:00 | 02:28:23 | 00:00:00 | |
| RDZBGO | 2026-09-02 01:02:05 | 45.61390 | 9.70006 | 130° | 11km/h | 32199m | 5.3m/s | -41.1°C | 0.8% | 0hPa | 2.6V | 00:00:00 | 00:00:00 | 00:00:00 | |
| IW2NTF | 2026-09-02 01:02:03 | 45.61409 | 9.69965 | 107° | 27km/h | 32164m | 4.4m/s | -41.1°C | 2.5% | 0hPa | 2.6V | 08:30:00 | 02:28:15 | 00:00:00 | |
| DO3MHA-11 | 2026-09-02 01:01:59 | 45.61406 | 9.69974 | 115° | 18km/h | 32169m | 4.5m/s | -41.1°C | 2.6% | 0hPa | 2.5V | 00:00:00 | 02:28:16 | 00:00:00 | |
| OE5DRO-10 | 2026-09-02 01:01:54 | 45.61409 | 9.69940 | 56° | 13km/h | 32144m | 4.9m/s | -41.0°C | 2.5% | 0hPa | 2.5V | 00:00:00 | 00:00:00 | 00:00:00 | |
| DB0UT-7 | 2026-09-02 01:01:52 | 45.61406 | 9.69934 | 65° | 13km/h | 32134m | 5.3m/s | -40.9°C | 2.6% | 0hPa | 2.5V | 00:00:00 | 02:28:09 | 00:00:00 | |
| DO3MHA-11 | 2026-09-02 01:01:49 | 45.61406 | 9.69919 | 104° | 15km/h | 32118m | 4.6m/s | -41.0°C | 2.6% | 0hPa | 2.5V | 00:00:00 | 02:28:06 | 00:00:00 | |
| RDZBGO | 2026-09-02 01:01:44 | 45.61410 | 9.69901 | 100° | 9km/h | 32097m | 5.1m/s | -41.0°C | 0.8% | 0hPa | 2.6V | 00:00:00 | 00:00:00 | 00:00:00 | |
| DO3MHA-11 | 2026-09-02 01:01:39 | 45.61403 | 9.69870 | 68° | 11km/h | 32067m | 4.2m/s | -41.0°C | 2.5% | 0hPa | 2.6V | 00:00:00 | 02:27:56 | 00:00:00 | |
| DF7PN | 2026-09-02 01:01:36 | 45.61396 | 9.69856 | 350° | 4km/h | 32046m | 5.3m/s | -41.3°C | 0.8% | -1.0hPa | 2.6V | 00:00:00 | 00:00:00 | 00:00:00 | |
| OE5DRO-10 | 2026-09-02 01:01:35 | 45.61396 | 9.69856 | 351° | 13km/h | 32046m | 5.2m/s | -41.2°C | 2.6% | 0hPa | 2.6V | 00:00:00 | 00:00:00 | 00:00:00 | |
| DF1GD-15 | 2026-09-02 01:01:32 | 45.61395 | 9.69856 | 0° | 0km/h | 32036m | 4.5m/s | -41.4°C | 0.9% | 0hPa | 2.6V | 00:00:00 | 00:00:00 | 00:00:00 | |
| DO3MHA-11 | 2026-09-02 01:01:28 | 45.61393 | 9.69831 | 73° | 11km/h | 32011m | 4.5m/s | -41.3°C | 2.6% | 0hPa | 2.6V | 00:00:00 | 02:27:45 | 00:00:00 | |
| RDZBGO | 2026-09-02 01:01:23 | 45.61383 | 9.69821 | 338° | 11km/h | 31991m | 4.4m/s | -41.4°C | 0.8% | 0hPa | 2.6V | 00:00:00 | 00:00:00 | 00:00:00 | |
| DB0UT-7 | 2026-09-02 01:01:22 | 45.61379 | 9.69824 | 333° | 18km/h | 31982m | 4.7m/s | -41.3°C | 2.6% | 0hPa | 2.6V | 00:00:00 | 00:00:00 | 00:00:00 | |
| DO3MHA-11 | 2026-09-02 01:01:18 | 45.61373 | 9.69813 | 60° | 15km/h | 31961m | 4.9m/s | -41.2°C | 2.6% | 0hPa | 2.6V | 00:00:00 | 02:27:35 | 08:30:00 | |
| OE5DRO-10 | 2026-09-02 01:01:16 | 45.61366 | 9.69803 | 33° | 20km/h | 31951m | 5.0m/s | -41.2°C | 2.6% | 0hPa | 2.5V | 00:00:00 | 00:00:00 | 00:00:00 | |
| NBG1-10 | 2026-09-02 01:01:13 | 45.61351 | 9.69799 | 347° | 22km/h | 31936m | 4.7m/s | -41.2°C | 2.6% | 0hPa | 2.5V | 00:00:00 | 02:27:30 | 00:00:00 | |
| DF1GD-15 | 2026-09-02 01:01:11 | 45.61346 | 9.69801 | 338° | 16km/h | 31931m | 4.6m/s | -41.3°C | 0.9% | 0hPa | 2.5V | 00:00:00 | 00:00:00 | 00:00:00 | |
| DO3MHA-11 | 2026-09-02 01:01:08 | 45.61338 | 9.69800 | 61° | 20km/h | 31910m | 4.5m/s | -41.2°C | 2.6% | 0hPa | 2.5V | 00:00:00 | 02:27:25 | 00:00:00 | |
| DK5PH-5 | 2026-09-02 01:01:06 | 45.61333 | 9.69791 | 42° | 24km/h | 31901m | 5.2m/s | -41.2°C | 2.6% | 0hPa | 2.5V | 00:00:00 | 02:27:23 | 00:00:00 | |
| DF7PN | 2026-09-02 01:01:04 | 45.61322 | 9.69782 | 22° | 29km/h | 31890m | 5.1m/s | -41.3°C | 0.8% | -1.0hPa | 2.5V | 00:00:00 | 00:00:00 | 00:00:00 | |
| RDZBGO | 2026-09-02 01:01:02 | 45.61315 | 9.69777 | 20° | 31km/h | 31885m | 4.5m/s | -41.3°C | 0.8% | 0hPa | 2.5V | 00:00:00 | 00:00:00 | 00:00:00 | |
| OE5DRO-10 | 2026-09-02 01:00:57 | 45.61283 | 9.69758 | 29° | 24km/h | 31856m | 4.3m/s | -41.2°C | 2.5% | 0hPa | 2.5V | 00:00:00 | 00:00:00 | 08:30:00 | |
| DO3MHA-11 | 2026-09-02 01:00:55 | 45.61275 | 9.69754 | 8° | 26km/h | 31846m | 5.8m/s | -41.2°C | 2.5% | 0hPa | 2.6V | 00:00:00 | 02:27:12 | 00:00:00 | |
| PG1ADW-2 | 2026-09-02 01:00:52 | 45.61255 | 9.69751 | 10° | 29km/h | 31830m | 4.9m/s | -41.2°C | 2.5% | 0hPa | 2.6V | 00:00:00 | 00:00:00 | 00:00:00 | |
| DF1GD-15 | 2026-09-02 01:00:51 | 45.61255 | 9.69751 | 10° | 29km/h | 31830m | 5.0m/s | -41.3°C | 0.8% | 0hPa | 2.6V | 00:00:00 | 00:00:00 | 00:00:00 | |
| DO3MHA-11 | 2026-09-02 01:00:45 | 45.61210 | 9.69732 | 358° | 20km/h | 31795m | 5.4m/s | -41.5°C | 2.5% | 0hPa | 2.6V | 00:00:00 | 02:27:02 | 00:00:00 | |
| NBG1-10 | 2026-09-02 01:00:40 | 45.61182 | 9.69740 | 1° | 22km/h | 31770m | 5.6m/s | -41.9°C | 2.6% | 0hPa | 2.6V | 00:00:00 | 02:26:57 | 00:00:00 | |
| OE5DRO-10 | 2026-09-02 01:00:38 | 45.61176 | 9.69738 | 23° | 24km/h | 31760m | 4.1m/s | -42.0°C | 2.7% | 0hPa | 2.6V | 00:00:00 | 00:00:00 | 00:00:00 | |
| DK5PH-5 | 2026-09-02 01:00:36 | 45.61166 | 9.69734 | 10° | 22km/h | 31751m | 5.5m/s | -42.1°C | 2.7% | 0hPa | 2.6V | 00:00:00 | 02:26:53 | 00:00:00 | |
| DO3MHA-11 | 2026-09-02 01:00:35 | 45.61160 | 9.69734 | 2° | 24km/h | 31746m | 5.6m/s | -42.2°C | 2.7% | 0hPa | 2.6V | 00:00:00 | 02:26:52 | 00:00:00 | |
| DF7PN | 2026-09-02 01:00:33 | 45.61143 | 9.69736 | 351° | 33km/h | 31735m | 4.4m/s | -42.3°C | 0.8% | -1.0hPa | 2.6V | 00:00:00 | 00:00:00 | 00:00:00 | |
| DF1GD-15 | 2026-09-02 01:00:30 | 45.61127 | 9.69740 | 346° | 27km/h | 31725m | 5.3m/s | -42.3°C | 0.9% | 0hPa | 2.6V | 00:00:00 | 00:00:00 | 00:00:00 | |
| PG1ADW-2 | 2026-09-02 01:00:29 | 45.61117 | 9.69745 | 337° | 24km/h | 31715m | 4.5m/s | -42.2°C | 2.7% | 0hPa | 2.6V | 00:00:00 | 00:00:00 | 00:00:00 | |
| DO3MHA-11 | 2026-09-02 01:00:24 | 45.61093 | 9.69764 | 333° | 22km/h | 31691m | 4.7m/s | -42.3°C | 2.7% | 0hPa | 2.6V | 00:00:00 | 02:26:41 | 00:00:00 | |
| DB0UT-7 | 2026-09-02 01:00:22 | 45.61080 | 9.69772 | 341° | 18km/h | 31682m | 4.6m/s | -42.4°C | 2.7% | 0hPa | 2.6V | 00:00:00 | 00:00:00 | 00:00:00 | |
| RDZBGO | 2026-09-02 01:00:20 | 45.61074 | 9.69775 | 347° | 24km/h | 31676m | 5.8m/s | -42.4°C | 0.9% | 0hPa | 2.6V | 00:00:00 | 00:00:00 | 00:00:00 | |
| OE5DRO-10 | 2026-09-02 01:00:19 | 45.61064 | 9.69777 | 358° | 20km/h | 31666m | 4.5m/s | -42.4°C | 2.7% | 0hPa | 2.6V | 00:00:00 | 00:00:00 | 00:00:00 | |
| DO3MHA-11 | 2026-09-02 01:00:14 | 45.61040 | 9.69788 | 329° | 18km/h | 31640m | 4.6m/s | -42.4°C | 2.7% | 0hPa | 2.6V | 00:00:00 | 02:26:31 | 00:00:00 | |
| DF1GD-15 | 2026-09-02 01:00:10 | 45.61026 | 9.69802 | 323° | 16km/h | 31626m | 5.8m/s | -42.4°C | 0% | 0hPa | 2.5V | 00:00:00 | 00:00:00 | 00:00:00 | |
| NBG1-10 | 2026-09-02 01:00:07 | 45.61017 | 9.69811 | 331° | 15km/h | 31607m | 5.2m/s | -42.3°C | 2.7% | 0hPa | 2.5V | 00:00:00 | 02:26:24 | 00:00:00 | |
| DK5PH-5 | 2026-09-02 01:00:06 | 45.61013 | 9.69814 | 331° | 15km/h | 31602m | 5.7m/s | -42.3°C | 2.7% | 0hPa | 2.5V | 00:00:00 | 02:26:23 | 00:00:00 | |
| DO3MHA-11 | 2026-09-02 01:00:04 | 45.61001 | 9.69823 | 330° | 18km/h | 31591m | 4.6m/s | -42.3°C | 2.7% | 0hPa | 2.5V | 00:00:00 | 02:26:21 | 00:00:00 | |
| DF7PN | 2026-09-02 01:00:02 | 45.60990 | 9.69834 | 325° | 22km/h | 31582m | 5.1m/s | -42.3°C | 0.9% | -1.0hPa | 2.5V | 00:00:00 | 00:00:00 | 00:00:00 | |
| OE5DRO-10 | 2026-09-02 01:00:00 | 45.60983 | 9.69842 | 313° | 11km/h | 31571m | 4.7m/s | -42.2°C | 2.7% | 0hPa | 2.5V | 00:00:00 | 00:00:00 | 00:00:00 | |
| RDZBGO | 2026-09-02 00:59:59 | 45.60983 | 9.69842 | 313° | 13km/h | 31571m | 4.7m/s | -42.3°C | 0.9% | 0hPa | 2.5V | 00:00:00 | 00:00:00 | 00:00:00 | |
| DO3MHA-11 | 2026-09-02 00:59:54 | 45.60973 | 9.69866 | 302° | 9km/h | 31542m | 4.3m/s | -42.2°C | 2.7% | 0hPa | 2.5V | 00:00:00 | 02:26:11 | 00:00:00 | |
| DB0UT-7 | 2026-09-02 00:59:52 | 45.60970 | 9.69875 | 293° | 11km/h | 31533m | 4.8m/s | -42.2°C | 2.7% | 0hPa | 2.5V | 00:00:00 | 02:26:09 | 08:30:00 | |
| DF1GD-15 | 2026-09-02 00:59:49 | 45.60969 | 9.69880 | 242° | 5km/h | 31522m | 5.6m/s | 0°C | 0% | 0hPa | 2.6V | 00:00:00 | 00:00:00 | 00:00:00 | |
| DO3MHA-11 | 2026-09-02 00:59:44 | 45.60966 | 9.69896 | 303° | 15km/h | 31491m | 4.2m/s | -42.1°C | 2.7% | 0hPa | 2.6V | 00:00:00 | 02:26:01 | 08:30:00 | |
| OE5DRO-10 | 2026-09-02 00:59:41 | 45.60963 | 9.69911 | 253° | 11km/h | 31477m | 5.4m/s | -42.1°C | 2.7% | 0hPa | 2.6V | 00:00:00 | 00:00:00 | 00:00:00 | |
| RDZBGO | 2026-09-02 00:59:39 | 45.60964 | 9.69915 | 230° | 13km/h | 31472m | 4.8m/s | -42.1°C | 0.9% | 0hPa | 2.6V | 00:00:00 | 00:00:00 | 00:00:00 | |
| IW2NTF | 2026-09-02 00:59:38 | 45.60977 | 9.69941 | 239° | 11km/h | 31437m | 5m/s | -42°C | 2.7% | 0hPa | 2.6V | 08:30:00 | 02:25:50 | 00:00:00 | |
| DK5PH-5 | 2026-09-02 00:59:36 | 45.60973 | 9.69929 | 243° | 13km/h | 31451m | 5.1m/s | -42.0°C | 2.7% | 0hPa | 2.5V | 00:00:00 | 02:25:53 | 00:00:00 | |
| DO3MHA-11 | 2026-09-02 00:59:34 | 45.60976 | 9.69937 | 250° | 11km/h | 31442m | 4.3m/s | -41.9°C | 2.7% | 0hPa | 2.5V | 00:00:00 | 02:25:51 | 00:00:00 | |
| DF7PN | 2026-09-02 00:59:31 | 45.60983 | 9.69947 | 204° | 11km/h | 31421m | 4.9m/s | -42.0°C | 0.8% | -1.0hPa | 2.5V | 00:00:00 | 00:00:00 | 00:00:00 | |
| DF1GD-15 | 2026-09-02 00:59:28 | 45.60986 | 9.69949 | 215° | 9km/h | 31416m | 4.9m/s | 0°C | 0% | 0hPa | 2.5V | 00:00:00 | 00:00:00 | 00:00:00 | |
| IW2NTF | 2026-09-02 00:59:27 | 45.60997 | 9.69969 | 192° | 15km/h | 31380m | 5.2m/s | -42.1°C | 2.7% | 0hPa | 2.5V | 08:30:00 | 02:25:39 | 00:00:00 | |
| DO3MHA-11 | 2026-09-02 00:59:24 | 45.60991 | 9.69965 | 228° | 11km/h | 31391m | 5.2m/s | -42.0°C | 2.7% | 0hPa | 2.5V | 00:00:00 | 02:25:41 | 00:00:00 | |
| DB0UT-7 | 2026-09-02 00:59:23 | 45.60997 | 9.69969 | 193° | 15km/h | 31380m | 5.1m/s | -42.1°C | 2.7% | 0hPa | 2.5V | 00:00:00 | 00:00:00 | 00:00:00 | |
| OE5DRO-10 | 2026-09-02 00:59:22 | 45.60997 | 9.69969 | 193° | 13km/h | 31380m | 5.1m/s | -42.1°C | 2.7% | 0hPa | 2.5V | 00:00:00 | 00:00:00 | 00:00:00 | |
| RDZBGO | 2026-09-02 00:59:19 | 45.61006 | 9.69972 | 205° | 11km/h | 31365m | 5.8m/s | -42.1°C | 0.9% | 0hPa | 2.5V | 00:00:00 | 00:00:00 | 00:00:00 | |
| IW2NTF | 2026-09-02 00:59:14 | 45.61025 | 9.69989 | 195° | 22km/h | 31329m | 5m/s | -42°C | 2.6% | 0hPa | 2.5V | 08:30:00 | 02:25:29 | 00:00:00 | |
| DO3MHA-11 | 2026-09-02 00:59:14 | 45.61015 | 9.69984 | 207° | 15km/h | 31340m | 6.0m/s | -42.0°C | 2.6% | 0hPa | 2.6V | 00:00:00 | 02:25:31 | 00:00:00 | |
| DK5PH-5 | 2026-09-02 00:59:06 | 45.61046 | 9.70003 | 203° | 22km/h | 31301m | 4.0m/s | -42.1°C | 2.6% | 0hPa | 2.5V | 00:00:00 | 02:25:23 | 00:00:00 | |
| IW2NTF | 2026-09-02 00:59:04 | 45.61060 | 9.70000 | 173° | 22km/h | 31279m | 5.1m/s | -42.3°C | 2.7% | 0hPa | 2.5V | 08:30:00 | 02:25:19 | 00:00:00 | |
| DO3MHA-11 | 2026-09-02 00:59:04 | 45.61051 | 9.70002 | 169° | 18km/h | 31290m | 5.7m/s | -42.2°C | 2.7% | 0hPa | 2.6V | 00:00:00 | 02:25:21 | 00:00:00 | |
| OE5DRO-10 | 2026-09-02 00:59:03 | 45.61055 | 9.70001 | 168° | 20km/h | 31285m | 5.6m/s | -42.2°C | 2.7% | 0hPa | 2.6V | 00:00:00 | 00:00:00 | 00:00:00 | |
| DF7PN | 2026-09-02 00:59:00 | 45.61077 | 9.70002 | 204° | 20km/h | 31265m | 4.8m/s | -42.3°C | 0.8% | -1.0hPa | 2.5V | 00:00:00 | 00:00:00 | 00:00:00 | |
| RDZBGO | 2026-09-02 00:58:57 | 45.61081 | 9.70006 | 225° | 18km/h | 31260m | 6.0m/s | -42.3°C | 0.9% | 0hPa | 2.5V | 00:00:00 | 00:00:00 | 00:00:00 | |
| IW2NTF | 2026-09-02 00:58:54 | 45.61096 | 9.70023 | 157° | 24km/h | 31231m | 5.8m/s | -42.3°C | 2.7% | 0hPa | 2.5V | 08:30:00 | 02:25:09 | 00:00:00 | |
| DO3MHA-11 | 2026-09-02 00:58:54 | 45.61088 | 9.70024 | 211° | 22km/h | 31242m | 4.3m/s | -42.3°C | 2.7% | 0hPa | 2.5V | 00:00:00 | 02:25:11 | 00:00:00 | |
| DB0UT-7 | 2026-09-02 00:58:52 | 45.61096 | 9.70023 | 158° | 26km/h | 31231m | 5.7m/s | -42.2°C | 2.7% | 0hPa | 2.5V | 00:00:00 | 02:25:09 | 00:00:00 | |
| IW2NTF | 2026-09-02 00:58:44 | 45.61148 | 9.70012 | 195° | 24km/h | 31182m | 5.1m/s | -42.5°C | 2.7% | 0hPa | 2.5V | 08:30:00 | 02:24:59 | 00:00:00 | |
| DO3MHA-11 | 2026-09-02 00:58:44 | 45.61138 | 9.70005 | 215° | 26km/h | 31192m | 4.2m/s | -42.3°C | 2.6% | 0hPa | 2.6V | 00:00:00 | 02:25:01 | 00:00:00 | |
| DK5PH-5 | 2026-09-02 00:58:36 | 45.61186 | 9.69994 | 144° | 24km/h | 31153m | 5.0m/s | -42.6°C | 2.7% | 0hPa | 2.5V | 00:00:00 | 02:24:53 | 00:00:00 | |
| DO3MHA-11 | 2026-09-02 00:58:34 | 45.61195 | 9.69986 | 156° | 26km/h | 31144m | 4.5m/s | -42.7°C | 2.7% | 0hPa | 2.5V | 00:00:00 | 02:24:51 | 00:00:00 | |
| IW2NTF | 2026-09-02 00:58:33 | 45.61206 | 9.69982 | 169° | 27km/h | 31132m | 5.6m/s | -42.9°C | 2.7% | 0hPa | 2.5V | 08:30:00 | 02:24:49 | 00:00:00 | |
| DF7PN | 2026-09-02 00:58:29 | 45.61236 | 9.69976 | 170° | 26km/h | 31113m | 5.6m/s | -43.0°C | 0.9% | -1.0hPa | 2.5V | 00:00:00 | 00:00:00 | 00:00:00 | |
| NBG1-10 | 2026-09-02 00:58:28 | 45.61236 | 9.69975 | 171° | 22km/h | 31114m | 5.6m/s | -43.0°C | 2.8% | 0hPa | 2.5V | 00:00:00 | 02:24:45 | 00:00:00 | |
| IW2NTF | 2026-09-02 00:58:27 | 45.61266 | 9.69944 | 136° | 33km/h | 31082m | 4.9m/s | -43.2°C | 2.8% | 0hPa | 2.5V | 08:30:00 | 02:24:39 | 00:00:00 | |
| OE5DRO-10 | 2026-09-02 00:58:25 | 45.61251 | 9.69966 | 138° | 26km/h | 31098m | 4.5m/s | -43.1°C | 2.8% | 0hPa | 2.5V | 00:00:00 | 00:00:00 | 00:00:00 | |
| DO3MHA-11 | 2026-09-02 00:58:24 | 45.61255 | 9.69959 | 134° | 24km/h | 31094m | 5.2m/s | -43.2°C | 2.8% | 0hPa | 2.5V | 00:00:00 | 02:24:41 | 00:00:00 | |
| DB0UT-7 | 2026-09-02 00:58:22 | 45.61266 | 9.69944 | 137° | 22km/h | 31083m | 4.9m/s | -43.2°C | 2.8% | 0hPa | 2.5V | 00:00:00 | 00:00:00 | 00:00:00 | |
| IW2NTF | 2026-09-02 00:58:17 | 45.61314 | 9.69917 | 147° | 29km/h | 31032m | 5.6m/s | -43.2°C | 2.8% | 0hPa | 2.5V | 08:30:00 | 02:24:29 | 00:00:00 | |
| RDZBGO | 2026-09-02 00:58:15 | 45.61296 | 9.69922 | 197° | 13km/h | 31052m | 5.0m/s | -43.2°C | 0.9% | 0hPa | 2.6V | 00:00:00 | 00:00:00 | 00:00:00 | |
| DO3MHA-11 | 2026-09-02 00:58:14 | 45.61303 | 9.69923 | 172° | 24km/h | 31043m | 4.4m/s | -43.1°C | 2.8% | 0hPa | 2.6V | 00:00:00 | 02:24:31 | 08:30:00 | |
| IW2NTF | 2026-09-02 00:58:07 | 45.61359 | 9.69864 | 135° | 20km/h | 30982m | 5.2m/s | -43.3°C | 2.9% | 0hPa | 2.5V | 08:30:00 | 02:24:19 | 00:00:00 | |
| DK5PH-5 | 2026-09-02 00:58:06 | 45.61346 | 9.69880 | 143° | 16km/h | 31003m | 4.7m/s | -43.1°C | 2.8% | 0hPa | 2.5V | 00:00:00 | 02:24:23 | 00:00:00 | |
| DO3MHA-11 | 2026-09-02 00:58:04 | 45.61352 | 9.69873 | 139° | 16km/h | 30993m | 5.2m/s | -43.2°C | 2.8% | 0hPa | 2.5V | 00:00:00 | 02:24:21 | 00:00:00 | |
| DF7PN | 2026-09-02 00:57:58 | 45.61376 | 9.69843 | 136° | 11km/h | 30957m | 4.7m/s | -43.3°C | 0.9% | -1.0hPa | 2.5V | 00:00:00 | 00:00:00 | 00:00:00 | |
| IW2NTF | 2026-09-02 00:57:56 | 45.61380 | 9.69811 | 93° | 29km/h | 30930m | 4.8m/s | -43.3°C | 2.8% | 0hPa | 2.5V | 08:30:00 | 02:24:09 | 00:00:00 | |
| NBG1-10 | 2026-09-02 00:57:55 | 45.61379 | 9.69836 | 102° | 22km/h | 30947m | 5.1m/s | -43.3°C | 2.8% | 0hPa | 2.5V | 00:00:00 | 02:24:12 | 00:00:00 | |
| DO3MHA-11 | 2026-09-02 00:57:54 | 45.61380 | 9.69829 | 95° | 20km/h | 30941m | 6.2m/s | -43.2°C | 2.9% | 0hPa | 2.5V | 00:00:00 | 02:24:11 | 00:00:00 | |
| DB0UT-7 | 2026-09-02 00:57:52 | 45.61380 | 9.69811 | 94° | 18km/h | 30930m | 4.7m/s | -43.2°C | 2.8% | 0hPa | 2.5V | 00:00:00 | 02:24:09 | 00:00:00 | |
| OE5DRO-10 | 2026-09-02 00:57:47 | 45.61387 | 9.69774 | 150° | 18km/h | 30905m | 5.0m/s | -43.1°C | 2.9% | 0hPa | 2.5V | 00:00:00 | 00:00:00 | 00:00:00 | |
| IW2NTF | 2026-09-02 00:57:46 | 45.61404 | 9.69761 | 132° | 18km/h | 30879m | 4.5m/s | -42.9°C | 2.8% | 0hPa | 2.5V | 08:30:00 | 02:23:59 | 00:00:00 | |
| DO3MHA-11 | 2026-09-02 00:57:44 | 45.61397 | 9.69769 | 153° | 15km/h | 30889m | 5.3m/s | -42.9°C | 2.9% | 0hPa | 2.6V | 00:00:00 | 02:24:01 | 00:00:00 | |
| IW2NTF | 2026-09-02 00:57:36 | 45.61415 | 9.69704 | 122° | 29km/h | 30827m | 4.2m/s | -42.5°C | 2.8% | 0hPa | 2.5V | 08:30:00 | 02:23:49 | 00:00:00 | |
| DK5PH-5 | 2026-09-02 00:57:36 | 45.61408 | 9.69735 | 89° | 22km/h | 30849m | 4.6m/s | -42.6°C | 2.8% | 0hPa | 2.5V | 00:00:00 | 02:23:53 | 00:00:00 | |
| RDZBGO | 2026-09-02 00:57:34 | 45.61408 | 9.69729 | 99° | 20km/h | 30844m | 5.5m/s | -42.6°C | 0.9% | 0hPa | 2.5V | 00:00:00 | 00:00:00 | 00:00:00 | |
| OE5DRO-10 | 2026-09-02 00:57:28 | 45.61429 | 9.69682 | 145° | 20km/h | 30808m | 5.8m/s | -42.4°C | 2.7% | 0hPa | 2.5V | 00:00:00 | 00:00:00 | 00:00:00 | |
| DF7PN | 2026-09-02 00:57:27 | 45.61429 | 9.69680 | 51° | 4km/h | 30798m | 4.3m/s | -42.4°C | 0.8% | -1.0hPa | 2.5V | 00:00:00 | 00:00:00 | 00:00:00 | |
| IW2NTF | 2026-09-02 00:57:26 | 45.61426 | 9.69654 | 94° | 33km/h | 30776m | 5.2m/s | -42.4°C | 2.7% | 0hPa | 2.5V | 08:30:00 | 02:23:39 | 00:00:00 | |
| DO3MHA-11 | 2026-09-02 00:57:24 | 45.61427 | 9.69672 | 75° | 24km/h | 30788m | 6.1m/s | -42.3°C | 2.7% | 0hPa | 2.5V | 00:00:00 | 02:23:41 | 00:00:00 | |
| NBG1-10 | 2026-09-02 00:57:22 | 45.61426 | 9.69654 | 95° | 24km/h | 30777m | 5.1m/s | -42.4°C | 2.7% | 0hPa | 2.5V | 00:00:00 | 02:23:39 | 08:30:00 | |
| PG1ADW-2 | 2026-09-02 00:57:18 | 45.61436 | 9.69613 | 130° | 16km/h | 30755m | 5.5m/s | -42.6°C | 2.8% | 0hPa | 2.5V | 00:00:00 | 00:00:00 | 00:00:00 | |
| IW2NTF | 2026-09-02 00:57:17 | 45.61450 | 9.69581 | 97° | 26km/h | 30723m | 5.8m/s | -42.8°C | 2.8% | 0hPa | 2.5V | 08:30:00 | 02:23:29 | 00:00:00 | |
| DO3MHA-11 | 2026-09-02 00:57:14 | 45.61448 | 9.69595 | 116° | 22km/h | 30735m | 5.5m/s | -42.7°C | 2.7% | 0hPa | 2.6V | 00:00:00 | 02:23:31 | 00:00:00 | |
| RDZBGO | 2026-09-02 00:57:13 | 45.61448 | 9.69595 | 116° | 16km/h | 30735m | 5.6m/s | -42.7°C | 0.9% | 0hPa | 2.6V | 00:00:00 | 00:00:00 | 00:00:00 | |
| OE5DRO-10 | 2026-09-02 00:57:09 | 45.61452 | 9.69550 | 90° | 20km/h | 30708m | 4.9m/s | -42.8°C | 2.7% | 0hPa | 2.6V | 00:00:00 | 00:00:00 | 00:00:00 | |
| IW2NTF | 2026-09-02 00:57:07 | 45.61449 | 9.69508 | 88° | 18km/h | 30667m | 5.2m/s | -43°C | 2.8% | 0hPa | 2.5V | 08:30:00 | 02:23:19 | 00:00:00 | |
| DK5PH-5 | 2026-09-02 00:57:06 | 45.61450 | 9.69528 | 80° | 18km/h | 30691m | 5.4m/s | 0°C | 0% | 0hPa | 2.5V | 00:00:00 | 02:23:23 | 08:30:00 | |
| DO3MHA-11 | 2026-09-02 00:57:04 | 45.61449 | 9.69519 | 84° | 18km/h | 30679m | 6.1m/s | -42.9°C | 2.8% | 0hPa | 2.5V | 00:00:00 | 02:23:21 | 00:00:00 | |
| PG1ADW-2 | 2026-09-02 00:56:57 | 45.61445 | 9.69477 | 74° | 15km/h | 30640m | 4.9m/s | -42.9°C | 2.9% | 0hPa | 2.5V | 00:00:00 | 00:00:00 | 08:30:00 | |
| IW2NTF | 2026-09-02 00:56:56 | 45.61441 | 9.69434 | 82° | 22km/h | 30613m | 4.5m/s | -42.8°C | 2.8% | 0hPa | 2.5V | 08:30:00 | 02:23:09 | 00:00:00 | |
| DF7PN | 2026-09-02 00:56:56 | 45.61443 | 9.69462 | 80° | 26km/h | 30628m | 6.3m/s | -42.9°C | 0.9% | -1.0hPa | 2.5V | 00:00:00 | 00:00:00 | 00:00:00 | |
| DO3MHA-11 | 2026-09-02 00:56:54 | 45.61442 | 9.69453 | 84° | 18km/h | 30623m | 5.3m/s | -42.8°C | 2.9% | 0hPa | 2.5V | 00:00:00 | 02:23:11 | 00:00:00 | |
| RDZBGO | 2026-09-02 00:56:53 | 45.61442 | 9.69453 | 85° | 27km/h | 30623m | 5.4m/s | -42.9°C | 1.0% | 0hPa | 2.5V | 00:00:00 | 00:00:00 | 00:00:00 | |
| DB0UT-7 | 2026-09-02 00:56:52 | 45.61441 | 9.69434 | 83° | 16km/h | 30614m | 4.4m/s | -42.8°C | 2.8% | 0hPa | 2.5V | 00:00:00 | 02:23:09 | 00:00:00 | |
| OE5DRO-10 | 2026-09-02 00:56:50 | 45.61438 | 9.69423 | 49° | 16km/h | 30603m | 6.4m/s | -42.7°C | 2.8% | 0hPa | 2.5V | 00:00:00 | 00:00:00 | 00:00:00 | |
| IW2NTF | 2026-09-02 00:56:47 | 45.61421 | 9.69382 | 97° | 35km/h | 30559m | 4.6m/s | -42.5°C | 2.7% | 0hPa | 2.5V | 08:30:00 | 02:22:59 | 00:00:00 | |
| DO3MHA-11 | 2026-09-02 00:56:44 | 45.61421 | 9.69405 | 77° | 20km/h | 30571m | 6.1m/s | -42.5°C | 2.8% | 0hPa | 2.6V | 00:00:00 | 02:23:01 | 08:30:00 | |
| IW2NTF | 2026-09-02 00:56:36 | 45.61429 | 9.69347 | 77° | 18km/h | 30505m | 5.6m/s | -42.5°C | 2.7% | 0hPa | 2.5V | 08:30:00 | 02:22:49 | 00:00:00 | |
| DK5PH-5 | 2026-09-02 00:56:36 | 45.61433 | 9.69352 | 260° | 11km/h | 30527m | 4.9m/s | 0°C | 0% | 0hPa | 2.5V | 00:00:00 | 02:22:53 | 00:00:00 | |
| DO3MHA-11 | 2026-09-02 00:56:34 | 45.61432 | 9.69354 | 29° | 15km/h | 30517m | 5.7m/s | -42.4°C | 2.7% | 0hPa | 2.5V | 00:00:00 | 02:22:51 | 00:00:00 | |
| RDZBGO | 2026-09-02 00:56:32 | 45.61430 | 9.69352 | 64° | 13km/h | 30511m | 5.9m/s | -42.4°C | 0.9% | 0hPa | 2.5V | 00:00:00 | 00:00:00 | 00:00:00 | |
| OE5DRO-10 | 2026-09-02 00:56:31 | 45.61428 | 9.69339 | 86° | 11km/h | 30500m | 5.4m/s | -42.4°C | 2.7% | 0hPa | 2.5V | 00:00:00 | 00:00:00 | 00:00:00 | |
| IW2NTF | 2026-09-02 00:56:26 | 45.61432 | 9.69302 | 45° | 9km/h | 30446m | 5.5m/s | -42.7°C | 2.8% | 0hPa | 2.5V | 08:30:00 | 02:22:39 | 00:00:00 | |
| DO3MHA-11 | 2026-09-02 00:56:24 | 45.61434 | 9.69304 | 87° | 7km/h | 30458m | 5.3m/s | -42.6°C | 2.8% | 0hPa | 2.5V | 00:00:00 | 02:22:41 | 00:00:00 | |
| DB0UT-7 | 2026-09-02 00:56:22 | 45.61432 | 9.69301 | 46° | 15km/h | 30447m | 5.5m/s | -42.7°C | 2.8% | 0hPa | 2.5V | 00:00:00 | 00:00:00 | 00:00:00 | |
| IW2NTF | 2026-09-02 00:56:16 | 45.61420 | 9.69276 | 6° | 18km/h | 30392m | 5.5m/s | -42.8°C | 2.8% | 0hPa | 2.5V | 08:30:00 | 02:22:29 | 00:00:00 | |
| NBG1-10 | 2026-09-02 00:56:15 | 45.61427 | 9.69280 | 65° | 18km/h | 30409m | 4.6m/s | -42.7°C | 2.8% | 0hPa | 2.6V | 00:00:00 | 02:22:32 | 00:00:00 | |
| DO3MHA-11 | 2026-09-02 00:56:14 | 45.61426 | 9.69278 | 30° | 9km/h | 30404m | 5.9m/s | -42.7°C | 2.8% | 0hPa | 2.6V | 00:00:00 | 02:22:31 | 00:00:00 | |
| OE5DRO-10 | 2026-09-02 00:56:12 | 45.61419 | 9.69276 | 7° | 16km/h | 30392m | 5.5m/s | -42.7°C | 2.8% | 0hPa | 2.5V | 00:00:00 | 00:00:00 | 00:00:00 | |
| RDZBGO | 2026-09-02 00:56:11 | 45.61420 | 9.69276 | 8° | 18km/h | 30392m | 5.5m/s | -42.8°C | 0.9% | 0hPa | 2.5V | 00:00:00 | 00:00:00 | 00:00:00 | |
| DK5PH-5 | 2026-09-02 00:56:06 | 45.61397 | 9.69280 | 15° | 18km/h | 30361m | 4.5m/s | 0°C | 0% | 0hPa | 2.5V | 00:00:00 | 02:22:23 | 00:00:00 | |
| IW2NTF | 2026-09-02 00:56:05 | 45.61374 | 9.69272 | 354° | 24km/h | 30329m | 5m/s | -42.6°C | 2.8% | 0hPa | 2.5V | 08:30:00 | 02:22:17 | 00:00:00 | |
| DO3MHA-11 | 2026-09-02 00:56:03 | 45.61390 | 9.69275 | 23° | 20km/h | 30345m | 6.0m/s | -42.6°C | 2.8% | 0hPa | 2.5V | 00:00:00 | 02:22:20 | 00:00:00 | |
| PG1ADW-2 | 2026-09-02 00:55:58 | 45.61363 | 9.69276 | 334° | 22km/h | 30318m | 6.0m/s | -42.5°C | 2.8% | 0hPa | 2.5V | 00:00:00 | 00:00:00 | 00:00:00 | |
| IW2NTF | 2026-09-02 00:55:57 | 45.61323 | 9.69299 | 359° | 26km/h | 30275m | 5m/s | -42.3°C | 2.7% | 0hPa | 2.5V | 08:30:00 | 02:22:07 | 00:00:00 | |
| DO3MHA-11 | 2026-09-02 00:55:53 | 45.61343 | 9.69294 | 341° | 22km/h | 30290m | 6.0m/s | -42.3°C | 2.7% | 0hPa | 2.6V | 00:00:00 | 02:22:10 | 00:00:00 | |
| DB0UT-7 | 2026-09-02 00:55:52 | 45.61337 | 9.69297 | 349° | 22km/h | 30285m | 5.2m/s | -42.3°C | 2.7% | 0hPa | 2.6V | 00:00:00 | 02:22:09 | 00:00:00 | |
| RDZBGO | 2026-09-02 00:55:50 | 45.61330 | 9.69298 | 356° | 27km/h | 30280m | 4.8m/s | -42.3°C | 0.9% | 0hPa | 2.6V | 00:00:00 | 00:00:00 | 00:00:00 | |
| IW2NTF | 2026-09-02 00:55:43 | 45.61258 | 9.69340 | 321° | 18km/h | 30211m | 6.2m/s | -42.5°C | 2.7% | 0hPa | 2.6V | 08:30:00 | 02:21:55 | 00:00:00 | |
| DO3MHA-11 | 2026-09-02 00:55:43 | 45.61291 | 9.69312 | 330° | 22km/h | 30237m | 6.0m/s | -42.4°C | 2.7% | 0hPa | 2.6V | 00:00:00 | 02:22:00 | 00:00:00 | |
| NBG1-10 | 2026-09-02 00:55:42 | 45.61284 | 9.69318 | 331° | 18km/h | 30232m | 5.0m/s | -42.4°C | 2.7% | 0hPa | 2.5V | 00:00:00 | 02:21:59 | 00:00:00 | |
| PG1ADW-2 | 2026-09-02 00:55:38 | 45.61258 | 9.69340 | 322° | 22km/h | 30212m | 6.2m/s | -42.4°C | 2.7% | 0hPa | 2.6V | 00:00:00 | 02:21:55 | 00:00:00 | |
| DK5PH-5 | 2026-09-02 00:55:36 | 45.61253 | 9.69347 | 305° | 11km/h | 30200m | 5.1m/s | 0°C | 0% | 0hPa | 2.6V | 00:00:00 | 02:21:53 | 00:00:00 | |
| OE5DRO-10 | 2026-09-02 00:55:34 | 45.61250 | 9.69351 | 324° | 18km/h | 30190m | 5.9m/s | -42.5°C | 2.7% | 0hPa | 2.6V | 00:00:00 | 00:00:00 | 00:00:00 | |
| IW2NTF | 2026-09-02 00:55:33 | 45.61226 | 9.69382 | 297° | 24km/h | 30156m | 5.7m/s | -42.7°C | 2.7% | 0hPa | 2.6V | 08:30:00 | 02:21:45 | 00:00:00 | |
| DO3MHA-11 | 2026-09-02 00:55:33 | 45.61247 | 9.69354 | 329° | 22km/h | 30184m | 5.5m/s | -42.5°C | 2.7% | 0hPa | 2.6V | 00:00:00 | 02:21:50 | 00:00:00 | |
| RDZBGO | 2026-09-02 00:55:29 | 45.61234 | 9.69368 | 316° | 26km/h | 30169m | 5.6m/s | -42.6°C | 0.9% | 0hPa | 2.6V | 00:00:00 | 00:00:00 | 00:00:00 | |
| IW2NTF | 2026-09-02 00:55:23 | 45.61205 | 9.69428 | 251° | 13km/h | 30103m | 6.2m/s | -42.8°C | 2.8% | 0hPa | 2.6V | 08:30:00 | 02:21:35 | 00:00:00 | |
| DO3MHA-11 | 2026-09-02 00:55:23 | 45.61214 | 9.69412 | 325° | 13km/h | 30130m | 5.7m/s | -42.8°C | 2.8% | 0hPa | 2.5V | 00:00:00 | 02:21:40 | 00:00:00 | |
| DB0UT-7 | 2026-09-02 00:55:22 | 45.61211 | 9.69415 | 333° | 13km/h | 30125m | 4.9m/s | -42.8°C | 2.8% | 0hPa | 2.5V | 00:00:00 | 00:00:00 | 08:30:00 | |
| PG1ADW-2 | 2026-09-02 00:55:17 | 45.61206 | 9.69433 | 241° | 11km/h | 30098m | 5.2m/s | -42.8°C | 2.8% | 0hPa | 2.5V | 00:00:00 | 00:00:00 | 00:00:00 | |
| OE5DRO-10 | 2026-09-02 00:55:15 | 45.61210 | 9.69442 | 253° | 11km/h | 30088m | 4.7m/s | -42.7°C | 2.8% | 0hPa | 2.5V | 00:00:00 | 00:00:00 | 08:30:00 | |
| IW2NTF | 2026-09-02 00:55:13 | 45.61189 | 9.69456 | 322° | 11km/h | 30050m | 4.6m/s | -42.7°C | 2.8% | 0hPa | 2.6V | 08:30:00 | 02:21:25 | 00:00:00 | |
| DO3MHA-11 | 2026-09-02 00:55:13 | 45.61208 | 9.69448 | 335° | 11km/h | 30077m | 5.7m/s | -42.7°C | 2.8% | 0hPa | 2.6V | 00:00:00 | 02:21:30 | 08:30:00 | |
| NBG1-10 | 2026-09-02 00:55:09 | 45.61192 | 9.69454 | 337° | 16km/h | 30055m | 5.0m/s | -42.7°C | 2.8% | 0hPa | 2.6V | 00:00:00 | 02:21:26 | 00:00:00 | |
| RDZBGO | 2026-09-02 00:55:08 | 45.61192 | 9.69454 | 337° | 15km/h | 30055m | 5.1m/s | -42.7°C | 0.9% | 0hPa | 2.6V | 00:00:00 | 00:00:00 | 00:00:00 | |
| IW2NTF | 2026-09-02 00:55:03 | 45.61198 | 9.69480 | 265° | 13km/h | 29998m | 4m/s | -42.6°C | 2.7% | 0hPa | 2.6V | 08:30:00 | 02:21:15 | 00:00:00 | |
| DO3MHA-11 | 2026-09-02 00:55:03 | 45.61189 | 9.69464 | 203° | 13km/h | 30024m | 4.9m/s | -42.6°C | 2.7% | 0hPa | 2.6V | 00:00:00 | 02:21:20 | 00:00:00 | |
| DK5PH-5 | 2026-09-02 00:55:00 | 45.61195 | 9.69471 | 235° | 20km/h | 30008m | 5.9m/s | 0°C | 0% | 0hPa | 2.6V | 00:00:00 | 02:21:17 | 00:00:00 | |
| OE5DRO-10 | 2026-09-02 00:54:56 | 45.61195 | 9.69486 | 336° | 18km/h | 29988m | 6.6m/s | -42.6°C | 2.7% | 0hPa | 2.6V | 00:00:00 | 00:00:00 | 00:00:00 | |
| IW2NTF | 2026-09-02 00:54:54 | 45.61206 | 9.69483 | 207° | 35km/h | 29945m | 4.3m/s | -43.1°C | 2.8% | 0hPa | 2.6V | 08:30:00 | 02:21:05 | 00:00:00 | |
| DF7PN | 2026-09-02 00:54:51 | 45.61187 | 9.69477 | 157° | 11km/h | 29962m | 6.2m/s | -42.9°C | 0.8% | -1.0hPa | 2.6V | 00:00:00 | 00:00:00 | 00:00:00 | |
| RDZBGO | 2026-09-02 00:54:47 | 45.61206 | 9.69483 | 209° | 35km/h | 29945m | 4.3m/s | -43.1°C | 0.9% | 0hPa | 2.6V | 00:00:00 | 00:00:00 | 00:00:00 | |
| IW2NTF | 2026-09-02 00:54:43 | 45.61224 | 9.69490 | 149° | 24km/h | 29894m | 4.7m/s | -43.4°C | 2.8% | 0hPa | 2.6V | 08:30:00 | 02:20:55 | 00:00:00 | |
| DO3MHA-11 | 2026-09-02 00:54:43 | 45.61221 | 9.69510 | 346° | 20km/h | 29920m | 5.3m/s | -43.2°C | 2.8% | 0hPa | 2.6V | 00:00:00 | 02:21:00 | 00:00:00 | |
| OE5DRO-10 | 2026-09-02 00:54:37 | 45.61230 | 9.69486 | 167° | 22km/h | 29890m | 5.5m/s | -43.4°C | 2.8% | 0hPa | 2.5V | 00:00:00 | 00:00:00 | 00:00:00 | |
| NBG1-10 | 2026-09-02 00:54:35 | 45.61243 | 9.69487 | 196° | 20km/h | 29878m | 6.0m/s | -43.6°C | 2.8% | 0hPa | 2.5V | 00:00:00 | 02:20:52 | 00:00:00 | |
| IW2NTF | 2026-09-02 00:54:34 | 45.61279 | 9.69501 | 131° | 16km/h | 29842m | 5m/s | -43.7°C | 2.9% | 0hPa | 2.5V | 08:30:00 | 02:20:45 | 00:00:00 | |
| DO3MHA-11 | 2026-09-02 00:54:33 | 45.61256 | 9.69495 | 211° | 18km/h | 29867m | 4.5m/s | -43.6°C | 2.8% | 0hPa | 2.5V | 00:00:00 | 02:20:50 | 00:00:00 | |
| RDZBGO | 2026-09-02 00:54:27 | 45.61279 | 9.69501 | 133° | 16km/h | 29843m | 5.0m/s | -43.7°C | 0.9% | 0hPa | 2.5V | 00:00:00 | 00:00:00 | 00:00:00 | |
| IW2NTF | 2026-09-02 00:54:23 | 45.61304 | 9.69449 | 164° | 24km/h | 29790m | 5.2m/s | -43.8°C | 2.9% | 0hPa | 2.5V | 08:30:00 | 02:20:35 | 00:00:00 | |
| DB0UT-7 | 2026-09-02 00:54:23 | 45.61284 | 9.69467 | 123° | 18km/h | 29812m | 5.6m/s | -43.8°C | 2.9% | 0hPa | 2.5V | 00:00:00 | 00:00:00 | 00:00:00 | |
| DF7PN | 2026-09-02 00:54:20 | 45.61292 | 9.69456 | 149° | 26km/h | 29800m | 5.2m/s | -43.9°C | 0.9% | -1.0hPa | 2.5V | 00:00:00 | 00:00:00 | 00:00:00 | |
| OE5DRO-10 | 2026-09-02 00:54:18 | 45.61304 | 9.69449 | 165° | 18km/h | 29790m | 5.1m/s | -43.8°C | 2.9% | 0hPa | 2.5V | 00:00:00 | 00:00:00 | 00:00:00 | |
| IW2NTF | 2026-09-02 00:54:13 | 45.61332 | 9.69401 | 114° | 18km/h | 29740m | 5.1m/s | -43.8°C | 2.9% | 0hPa | 2.5V | 08:30:00 | 02:20:25 | 00:00:00 | |
| DO3MHA-11 | 2026-09-02 00:54:13 | 45.61320 | 9.69437 | 117° | 20km/h | 29765m | 5.5m/s | -43.8°C | 2.9% | 0hPa | 2.5V | 00:00:00 | 02:20:30 | 00:00:00 | |
| PG1ADW-2 | 2026-09-02 00:54:10 | 45.61327 | 9.69415 | 115° | 16km/h | 29750m | 4.5m/s | -43.7°C | 2.9% | 0hPa | 2.6V | 00:00:00 | 02:20:27 | 00:00:00 | |
| RDZBGO | 2026-09-02 00:54:06 | 45.61334 | 9.69395 | 116° | 15km/h | 29735m | 4.7m/s | -43.8°C | 1.0% | 0hPa | 2.5V | 00:00:00 | 00:00:00 | 00:00:00 | |
| IW2NTF | 2026-09-02 00:54:03 | 45.61364 | 9.69359 | 174° | 15km/h | 29690m | 4.9m/s | -43.7°C | 2.9% | 0hPa | 2.5V | 08:30:00 | 02:20:15 | 00:00:00 | |
| DO3MHA-11 | 2026-09-02 00:54:03 | 45.61343 | 9.69375 | 134° | 18km/h | 29715m | 4.8m/s | -43.6°C | 2.9% | 0hPa | 2.5V | 00:00:00 | 02:20:20 | 00:00:00 | |
| NBG1-10 | 2026-09-02 00:54:02 | 45.61347 | 9.69370 | 139° | 16km/h | 29711m | 4.1m/s | -43.6°C | 2.8% | 0hPa | 2.5V | 00:00:00 | 02:20:19 | 00:00:00 | |
| OE5DRO-10 | 2026-09-02 00:53:59 | 45.61361 | 9.69360 | 169° | 16km/h | 29695m | 5.6m/s | -43.7°C | 2.9% | 0hPa | 2.5V | 00:00:00 | 00:00:00 | 00:00:00 | |
| IW2NTF | 2026-09-02 00:53:53 | 45.61392 | 9.69328 | 169° | 16km/h | 29641m | 4.2m/s | -43.9°C | 2.9% | 0hPa | 2.5V | 08:30:00 | 02:20:05 | 00:00:00 | |
| DF7PN | 2026-09-02 00:53:49 | 45.61388 | 9.69329 | 167° | 13km/h | 29645m | 4.3m/s | -43.9°C | 0.9% | -1.0hPa | 2.5V | 00:00:00 | 00:00:00 | 00:00:00 | |
| RDZBGO | 2026-09-02 00:53:46 | 45.61396 | 9.69326 | 164° | 20km/h | 29636m | 5.1m/s | -43.9°C | 0.9% | 0hPa | 2.5V | 00:00:00 | 00:00:00 | 00:00:00 | |
| DO3MHA-11 | 2026-09-02 00:53:43 | 45.61415 | 9.69311 | 149° | 11km/h | 29617m | 4.9m/s | -43.9°C | 2.9% | 0hPa | 2.5V | 00:00:00 | 02:20:00 | 08:30:00 | |
| IW2NTF | 2026-09-02 00:53:42 | 45.61425 | 9.69293 | 93° | 13km/h | 29581m | 4.6m/s | -43.9°C | 2.9% | 0hPa | 2.6V | 08:30:00 | 02:19:53 | 00:00:00 | |
| OE5DRO-10 | 2026-09-02 00:53:40 | 45.61423 | 9.69305 | 146° | 13km/h | 29602m | 3.9m/s | -43.9°C | 2.9% | 0hPa | 2.5V | 00:00:00 | 00:00:00 | 00:00:00 | |
| BAUMI2-15 | 2026-09-02 00:53:38 | 45.61425 | 9.69301 | 95° | 11km/h | 29592m | 5.8m/s | 0°C | 0% | 0hPa | 2.5V | 00:00:00 | 02:19:55 | 00:00:00 | |
| DO3MHA-11 | 2026-09-02 00:53:33 | 45.61428 | 9.69282 | 146° | 16km/h | 29566m | 4.7m/s | -43.9°C | 2.8% | 0hPa | 2.5V | 00:00:00 | 02:19:50 | 00:00:00 | |
| IW2NTF | 2026-09-02 00:53:31 | 45.61452 | 9.69250 | 128° | 15km/h | 29532m | 5.7m/s | -44.1°C | 2.9% | 0hPa | 2.5V | 08:30:00 | 02:19:43 | 00:00:00 | |
| NBG1-10 | 2026-09-02 00:53:29 | 45.61443 | 9.69267 | 134° | 15km/h | 29547m | 4.8m/s | -44.0°C | 2.8% | 0hPa | 2.5V | 00:00:00 | 02:19:46 | 00:00:00 | |
| PG1ADW-2 | 2026-09-02 00:53:28 | 45.61447 | 9.69260 | 131° | 15km/h | 29542m | 4.0m/s | -44.0°C | 2.9% | 0hPa | 2.5V | 00:00:00 | 00:00:00 | 00:00:00 | |
| DK5PH-5 | 2026-09-02 00:53:27 | 45.61450 | 9.69255 | 130° | 13km/h | 29538m | 4.7m/s | 0°C | 0% | 0hPa | 2.5V | 00:00:00 | 02:19:44 | 00:00:00 | |
| RDZBGO | 2026-09-02 00:53:26 | 45.61452 | 9.69250 | 130° | 15km/h | 29532m | 5.7m/s | -44.1°C | 0.9% | 0hPa | 2.5V | 00:00:00 | 00:00:00 | 00:00:00 | |
| DO3MHA-11 | 2026-09-02 00:53:23 | 45.61455 | 9.69243 | 72° | 13km/h | 29517m | 4.8m/s | -44.2°C | 2.9% | 0hPa | 2.5V | 00:00:00 | 02:19:40 | 00:00:00 | |
| DB0UT-7 | 2026-09-02 00:53:22 | 45.61454 | 9.69240 | 68° | 15km/h | 29512m | 5.6m/s | -44.3°C | 2.9% | 0hPa | 2.5V | 00:00:00 | 00:00:00 | 00:00:00 | |
| OE5DRO-10 | 2026-09-02 00:53:21 | 45.61453 | 9.69236 | 73° | 15km/h | 29506m | 5.2m/s | -44.3°C | 2.9% | 0hPa | 2.5V | 00:00:00 | 00:00:00 | 00:00:00 | |
| BAUMI2-15 | 2026-09-02 00:53:20 | 45.61452 | 9.69232 | 80° | 13km/h | 29502m | 4.2m/s | 0°C | 0% | 0hPa | 2.5V | 00:00:00 | 02:19:37 | 00:00:00 | |
| DF7PN | 2026-09-02 00:53:18 | 45.61452 | 9.69222 | 96° | 11km/h | 29492m | 5.8m/s | -44.4°C | 0.9% | -1.0hPa | 2.5V | 00:00:00 | 00:00:00 | 00:00:00 | |
| IW2NTF | 2026-09-02 00:53:15 | 45.61456 | 9.69205 | 103° | 15km/h | 29472m | 5.6m/s | -44.3°C | 2.9% | 0hPa | 2.5V | 08:30:00 | 02:19:31 | 00:00:00 | |
| BAUMI2-15 | 2026-09-02 00:53:15 | 45.61455 | 9.69210 | 111° | 16km/h | 29478m | 4.4m/s | 0°C | 0% | 0hPa | 2.5V | 00:00:00 | 02:19:32 | 00:00:00 | |
| OE5DXL-15 | 2026-09-02 00:53:13 | 45.61456 | 9.69199 | 96° | 16km/h | 29467m | 5.4m/s | -44.3°C | 2.9% | 0hPa | 2.5V | 00:00:00 | 00:00:00 | 00:00:00 | |
| IW2NTF | 2026-09-02 00:53:09 | 45.61450 | 9.69154 | 83° | 20km/h | 29421m | 5m/s | -44.6°C | 2.9% | 0hPa | 2.5V | 08:30:00 | 02:19:21 | 00:00:00 | |
| PG1ADW-2 | 2026-09-02 00:53:08 | 45.61453 | 9.69172 | 64° | 16km/h | 29442m | 5.1m/s | -44.3°C | 2.9% | 0hPa | 2.6V | 00:00:00 | 00:00:00 | 08:30:00 | |
| RDZBGO | 2026-09-02 00:53:05 | 45.61451 | 9.69165 | 72° | 13km/h | 29432m | 5.2m/s | -44.4°C | 1.0% | 0hPa | 2.5V | 00:00:00 | 00:00:00 | 00:00:00 | |
| DO3MHA-11 | 2026-09-02 00:53:03 | 45.61449 | 9.69146 | 87° | 18km/h | 29416m | 4.2m/s | -44.6°C | 2.9% | 0hPa | 2.5V | 00:00:00 | 02:19:20 | 00:00:00 | |
| OE5DRO-10 | 2026-09-02 00:53:02 | 45.61449 | 9.69138 | 89° | 18km/h | 29412m | 4.5m/s | -44.6°C | 3.0% | 0hPa | 2.5V | 00:00:00 | 00:00:00 | 00:00:00 | |
| IW2NTF | 2026-09-02 00:52:59 | 45.61433 | 9.69100 | 46° | 24km/h | 29369m | 4.5m/s | -44.9°C | 3% | 0hPa | 2.5V | 08:30:00 | 02:19:11 | 00:00:00 | |
| DK5PH-5 | 2026-09-02 00:52:57 | 45.61445 | 9.69116 | 45° | 20km/h | 29386m | 5.6m/s | 0°C | 0% | 0hPa | 2.5V | 00:00:00 | 02:19:14 | 00:00:00 | |
| NBG1-10 | 2026-09-02 00:52:56 | 45.61441 | 9.69112 | 44° | 20km/h | 29380m | 6.0m/s | -44.8°C | 3.0% | 0hPa | 2.5V | 00:00:00 | 02:19:13 | 00:00:00 | |
| DO3MHA-11 | 2026-09-02 00:52:53 | 45.61429 | 9.69094 | 49° | 18km/h | 29365m | 4.8m/s | -44.9°C | 3.0% | 0hPa | 2.5V | 00:00:00 | 02:19:10 | 00:00:00 | |
| DB0UT-7 | 2026-09-02 00:52:52 | 45.61426 | 9.69088 | 54° | 20km/h | 29360m | 5.6m/s | -44.9°C | 3.0% | 0hPa | 2.5V | 00:00:00 | 02:19:09 | 00:00:00 | |
| BAUMI2-15 | 2026-09-02 00:52:50 | 45.61423 | 9.69078 | 79° | 20km/h | 29350m | 4.7m/s | 0°C | 0% | 0hPa | 2.5V | 00:00:00 | 02:19:07 | 00:00:00 | |
| IW2NTF | 2026-09-02 00:52:49 | 45.61414 | 9.69039 | 39° | 16km/h | 29320m | 5.7m/s | -45.2°C | 3.1% | 0hPa | 2.5V | 08:30:00 | 02:19:01 | 00:00:00 | |
| PG1ADW-2 | 2026-09-02 00:52:47 | 45.61421 | 9.69058 | 77° | 20km/h | 29334m | 4.3m/s | -45.1°C | 3.0% | 0hPa | 2.5V | 00:00:00 | 02:19:04 | 00:00:00 | |
| RDZBGO | 2026-09-02 00:52:44 | 45.61417 | 9.69044 | 57° | 18km/h | 29326m | 5.0m/s | -45.1°C | 1.0% | 0hPa | 2.5V | 00:00:00 | 00:00:00 | 00:00:00 | |
| DO3MHA-11 | 2026-09-02 00:52:43 | 45.61410 | 9.69036 | 24° | 22km/h | 29315m | 5.5m/s | -45.2°C | 3.1% | 0hPa | 2.5V | 00:00:00 | 02:19:00 | 00:00:00 | |
| OE5DXL-15 | 2026-09-02 00:52:42 | 45.61406 | 9.69034 | 18° | 18km/h | 29310m | 4.7m/s | -45.2°C | 3.1% | 0hPa | 2.5V | 00:00:00 | 00:00:00 | 08:30:00 | |
| IW2NTF | 2026-09-02 00:52:39 | 45.61377 | 9.68987 | 55° | 18km/h | 29268m | 5.2m/s | -45.4°C | 3.1% | 0hPa | 2.6V | 08:30:00 | 02:18:51 | 00:00:00 | |
| BAUMI2-15 | 2026-09-02 00:52:35 | 45.61380 | 9.68992 | 60° | 20km/h | 29274m | 5.5m/s | 0°C | 0% | 0hPa | 2.6V | 00:00:00 | 02:18:52 | 00:00:00 | |
| DO3MHA-11 | 2026-09-02 00:52:33 | 45.61374 | 9.68981 | 54° | 18km/h | 29264m | 5.1m/s | -45.3°C | 3.2% | 0hPa | 2.6V | 00:00:00 | 02:18:50 | 00:00:00 | |
| IW2NTF | 2026-09-02 00:52:29 | 45.61340 | 9.68955 | 21° | 15km/h | 29215m | 5.9m/s | -45.2°C | 3.1% | 0hPa | 2.6V | 08:30:00 | 02:18:41 | 00:00:00 | |
| BAUMI2-15 | 2026-09-02 00:52:29 | 45.61361 | 9.68961 | 32° | 16km/h | 29243m | 4.5m/s | 0°C | 0% | 0hPa | 2.6V | 00:00:00 | 02:18:46 | 00:00:00 | |
| PG1ADW-2 | 2026-09-02 00:52:27 | 45.61353 | 9.68957 | 7° | 15km/h | 29232m | 6.0m/s | -45.2°C | 3.1% | 0hPa | 2.6V | 00:00:00 | 00:00:00 | 00:00:00 | |
| OE5DRO-10 | 2026-09-02 00:52:24 | 45.61340 | 9.68955 | 22° | 13km/h | 29216m | 5.9m/s | -45.1°C | 3.1% | 0hPa | 2.6V | 00:00:00 | 00:00:00 | 08:30:00 | |
| DO3MHA-11 | 2026-09-02 00:52:23 | 45.61338 | 9.68952 | 46° | 15km/h | 29210m | 5.6m/s | -45.1°C | 3.1% | 0hPa | 2.5V | 00:00:00 | 02:18:40 | 00:00:00 | |
| DB0UT-7 | 2026-09-02 00:52:22 | 45.61335 | 9.68948 | 61° | 13km/h | 29205m | 4.5m/s | -45.1°C | 3.1% | 0hPa | 2.5V | 00:00:00 | 00:00:00 | 00:00:00 | |
| IW2NTF | 2026-09-02 00:52:19 | 45.61313 | 9.68935 | 8° | 16km/h | 29162m | 6m/s | -45.1°C | 3.1% | 0hPa | 2.6V | 08:30:00 | 02:18:31 | 00:00:00 | |
| DF7PN | 2026-09-02 00:52:16 | 45.61317 | 9.68935 | 359° | 15km/h | 29168m | 5.6m/s | 0°C | -1.0% | -1.0hPa | 2.6V | 00:00:00 | 00:00:00 | 00:00:00 | |
| DO3MHA-11 | 2026-09-02 00:52:13 | 45.61309 | 9.68934 | 19° | 13km/h | 29157m | 5.2m/s | -45.1°C | 3.1% | 0hPa | 2.6V | 00:00:00 | 02:18:30 | 08:30:00 | |
| OE5DXL-15 | 2026-09-02 00:52:12 | 45.61306 | 9.68932 | 22° | 15km/h | 29152m | 4.4m/s | -45.1°C | 3.1% | 0hPa | 2.5V | 00:00:00 | 00:00:00 | 00:00:00 | |
| IW2NTF | 2026-09-02 00:52:09 | 45.61285 | 9.68949 | 357° | 18km/h | 29108m | 5.2m/s | -45.1°C | 3% | 0hPa | 2.5V | 08:30:00 | 02:18:21 | 00:00:00 | |
| PG1ADW-2 | 2026-09-02 00:52:07 | 45.61295 | 9.68941 | 312° | 15km/h | 29125m | 4.7m/s | -45.0°C | 3.1% | 0hPa | 2.6V | 00:00:00 | 00:00:00 | 00:00:00 | |
| OE5DRO-10 | 2026-09-02 00:52:05 | 45.61288 | 9.68947 | 342° | 15km/h | 29114m | 5.7m/s | -45.0°C | 3.0% | 0hPa | 2.5V | 00:00:00 | 00:00:00 | 00:00:00 | |
| RDZBGO | 2026-09-02 00:52:03 | 45.61280 | 9.68949 | 4° | 20km/h | 29104m | 4.9m/s | -45.1°C | 1.0% | 0hPa | 2.5V | 00:00:00 | 00:00:00 | 00:00:00 | |
| DF7PN | 2026-09-02 00:51:45 | 45.61221 | 9.68962 | 346° | 5km/h | 29002m | 5.8m/s | 0°C | -1.0% | -1.0hPa | 2.5V | 00:00:00 | 00:00:00 | 00:00:00 | |
| DO3MHA-11 | 2026-09-02 00:51:43 | 45.61220 | 9.68964 | 295° | 7km/h | 28997m | 5.5m/s | -45.0°C | 3.0% | 0hPa | 2.5V | 00:00:00 | 02:18:00 | 00:00:00 | |
| OE5DXL-15 | 2026-09-02 00:51:42 | 45.61220 | 9.68967 | 266° | 11km/h | 28991m | 5.0m/s | -45.0°C | 3.0% | 0hPa | 2.6V | 00:00:00 | 00:00:00 | 00:00:00 | |
| RDZBGO | 2026-09-02 00:51:41 | 45.61220 | 9.68967 | 266° | 9km/h | 28991m | 5.0m/s | -45.1°C | 1.0% | 0hPa | 2.6V | 00:00:00 | 00:00:00 | 00:00:00 | |
| IW2NTF | 2026-09-02 00:51:34 | 45.61216 | 9.68957 | 131° | 7km/h | 28919m | 5.1m/s | -45.1°C | 3.1% | 0hPa | 2.6V | 08:30:00 | 02:17:46 | 00:00:00 | |
| DO3MHA-11 | 2026-09-02 00:51:33 | 45.61218 | 9.68965 | 19° | 9km/h | 28941m | 4.6m/s | -45.0°C | 3.1% | 0hPa | 2.5V | 00:00:00 | 02:17:50 | 00:00:00 | |
| OE5DRO-10 | 2026-09-02 00:51:27 | 45.61220 | 9.68955 | 194° | 11km/h | 28907m | 6.3m/s | -45.0°C | 3.1% | 0hPa | 2.5V | 00:00:00 | 00:00:00 | 00:00:00 | |
| PG1ADW-2 | 2026-09-02 00:51:26 | 45.61222 | 9.68956 | 213° | 11km/h | 28901m | 5.3m/s | -45.1°C | 3.1% | 0hPa | 2.5V | 00:00:00 | 02:17:43 | 00:00:00 | |
| DO3MHA-11 | 2026-09-02 00:51:23 | 45.61229 | 9.68960 | 170° | 11km/h | 28886m | 6.2m/s | -45.1°C | 3.1% | 0hPa | 2.5V | 00:00:00 | 02:17:40 | 00:00:00 | |
| IW2NTF | 2026-09-02 00:51:22 | 45.61238 | 9.68942 | 130° | 7km/h | 28852m | 5.1m/s | -45.2°C | 3.1% | 0hPa | 2.5V | 08:30:00 | 02:17:34 | 00:00:00 | |
| DB0UT-7 | 2026-09-02 00:51:22 | 45.61231 | 9.68958 | 141° | 11km/h | 28880m | 5.9m/s | -45.1°C | 3.1% | 0hPa | 2.5V | 00:00:00 | 00:00:00 | 00:00:00 | |
| RDZBGO | 2026-09-02 00:51:21 | 45.61231 | 9.68958 | 141° | 11km/h | 28880m | 5.9m/s | -45.1°C | 1.0% | 0hPa | 2.5V | 00:00:00 | 00:00:00 | 00:00:00 | |
| NBG1-10 | 2026-09-02 00:51:16 | 45.61240 | 9.68940 | 137° | 11km/h | 28847m | 5.0m/s | -45.1°C | 3.1% | 0hPa | 2.5V | 00:00:00 | 02:17:33 | 00:00:00 | |
| DF7PN | 2026-09-02 00:51:14 | 45.61248 | 9.68929 | 138° | 18km/h | 28830m | 5.3m/s | 0°C | -1.0% | -1.0hPa | 2.5V | 00:00:00 | 00:00:00 | 00:00:00 | |
| IW2NTF | 2026-09-02 00:51:13 | 45.61263 | 9.68919 | 164° | 4km/h | 28797m | 5.7m/s | -45.1°C | 3.1% | 0hPa | 2.5V | 08:30:00 | 02:17:24 | 00:00:00 | |
| OE5DXL-15 | 2026-09-02 00:51:08 | 45.61262 | 9.68919 | 189° | 11km/h | 28802m | 5.0m/s | -45.1°C | 3.1% | 0hPa | 2.5V | 00:00:00 | 00:00:00 | 00:00:00 | |
| PG1ADW-2 | 2026-09-02 00:51:06 | 45.61264 | 9.68918 | 122° | 11km/h | 28791m | 6.2m/s | -45.1°C | 3.1% | 0hPa | 2.6V | 00:00:00 | 00:00:00 | 00:00:00 | |
| DO3MHA-11 | 2026-09-02 00:51:03 | 45.61268 | 9.68908 | 120° | 15km/h | 28776m | 5.0m/s | -45.1°C | 3.1% | 0hPa | 2.5V | 00:00:00 | 02:17:20 | 00:00:00 | |
| IW2NTF | 2026-09-02 00:51:02 | 45.61282 | 9.68890 | 135° | 16km/h | 28741m | 6.5m/s | -45.1°C | 3.1% | 0hPa | 2.5V | 08:30:00 | 02:17:14 | 00:00:00 | |
| RDZBGO | 2026-09-02 00:51:00 | 45.61272 | 9.68901 | 142° | 11km/h | 28764m | 6.0m/s | -45.1°C | 1.0% | 0hPa | 2.5V | 00:00:00 | 00:00:00 | 00:00:00 | |
| DO3MHA-11 | 2026-09-02 00:50:53 | 45.61292 | 9.68875 | 148° | 7km/h | 28719m | 6.4m/s | -45.0°C | 3.1% | 0hPa | 2.5V | 00:00:00 | 02:17:10 | 00:00:00 | |
| IW2NTF | 2026-09-02 00:50:52 | 45.61296 | 9.68868 | 103° | 13km/h | 28684m | 5.4m/s | -44.9°C | 3% | 0hPa | 2.5V | 08:30:00 | 02:17:04 | 00:00:00 | |
| DB0UT-7 | 2026-09-02 00:50:52 | 45.61293 | 9.68875 | 181° | 13km/h | 28713m | 5.3m/s | -45.0°C | 3.1% | 0hPa | 2.5V | 00:00:00 | 02:17:09 | 08:30:00 | |
| OE5DRO-10 | 2026-09-02 00:50:49 | 45.61295 | 9.68874 | 109° | 11km/h | 28696m | 6.2m/s | -44.9°C | 3.1% | 0hPa | 2.6V | 00:00:00 | 00:00:00 | 00:00:00 | |
| PG1ADW-2 | 2026-09-02 00:50:46 | 45.61297 | 9.68863 | 107° | 13km/h | 28679m | 5.3m/s | -44.8°C | 3.1% | 0hPa | 2.6V | 00:00:00 | 00:00:00 | 00:00:00 | |
| IW2NTF | 2026-09-02 00:50:43 | 45.61307 | 9.68824 | 105° | 11km/h | 28628m | 6m/s | -44.8°C | 3% | 0hPa | 2.6V | 08:30:00 | 02:16:54 | 00:00:00 | |
| DO3MHA-11 | 2026-09-02 00:50:43 | 45.61300 | 9.68852 | 118° | 11km/h | 28662m | 4.6m/s | -44.8°C | 3.0% | 0hPa | 2.6V | 00:00:00 | 02:17:00 | 08:30:00 | |
| RDZBGO | 2026-09-02 00:50:39 | 45.61304 | 9.68839 | 111° | 16km/h | 28645m | 5.8m/s | -44.8°C | 1.0% | 0hPa | 2.6V | 00:00:00 | 00:00:00 | 00:00:00 | |
| OE5DXL-15 | 2026-09-02 00:50:38 | 45.61306 | 9.68828 | 106° | 16km/h | 28634m | 5.1m/s | -44.8°C | 3.0% | 0hPa | 2.6V | 00:00:00 | 00:00:00 | 00:00:00 | |
| IW2NTF | 2026-09-02 00:50:33 | 45.61321 | 9.68774 | 101° | 22km/h | 28573m | 6m/s | -44.7°C | 3.1% | 0hPa | 2.6V | 08:30:00 | 02:16:44 | 00:00:00 | |
| OE5DRO-10 | 2026-09-02 00:50:30 | 45.61315 | 9.68802 | 111° | 20km/h | 28589m | 5.4m/s | -44.7°C | 3.0% | 0hPa | 2.5V | 00:00:00 | 00:00:00 | 00:00:00 | |
| PG1ADW-2 | 2026-09-02 00:50:26 | 45.61322 | 9.68767 | 98° | 16km/h | 28567m | 5.5m/s | -44.6°C | 3.1% | 0hPa | 2.5V | 00:00:00 | 00:00:00 | 00:00:00 | |
| DO3MHA-11 | 2026-09-02 00:50:23 | 45.61323 | 9.68753 | 102° | 16km/h | 28550m | 6.3m/s | -44.6°C | 3.1% | 0hPa | 2.5V | 00:00:00 | 02:16:40 | 00:00:00 | |
| IW2NTF | 2026-09-02 00:50:22 | 45.61322 | 9.68729 | 73° | 18km/h | 28516m | 4.8m/s | -44.5°C | 3% | 0hPa | 2.5V | 08:30:00 | 02:16:34 | 00:00:00 | |
| DB0UT-7 | 2026-09-02 00:50:22 | 45.61323 | 9.68749 | 102° | 16km/h | 28544m | 5.5m/s | -44.6°C | 3.0% | 0hPa | 2.5V | 00:00:00 | 00:00:00 | 00:00:00 | |
| IW2NTF | 2026-09-02 00:50:13 | 45.61326 | 9.68660 | 151° | 5km/h | 28461m | 5.8m/s | -44.4°C | 2.9% | 0hPa | 2.5V | 08:30:00 | 02:16:24 | 00:00:00 | |
| DO3MHA-11 | 2026-09-02 00:50:13 | 45.61319 | 9.68689 | 95° | 15km/h | 28494m | 4.1m/s | -44.4°C | 3.0% | 0hPa | 2.5V | 00:00:00 | 02:16:30 | 00:00:00 | |
| OE5DRO-10 | 2026-09-02 00:50:11 | 45.61321 | 9.68670 | 102° | 15km/h | 28484m | 6.3m/s | -44.4°C | 2.9% | 0hPa | 2.5V | 00:00:00 | 00:00:00 | 00:00:00 | |
| NBG1-10 | 2026-09-02 00:50:10 | 45.61322 | 9.68665 | 117° | 16km/h | 28478m | 5.8m/s | -44.4°C | 2.9% | 0hPa | 2.5V | 00:00:00 | 02:16:27 | 00:00:00 | |
| OE5DXL-15 | 2026-09-02 00:50:08 | 45.61325 | 9.68661 | 165° | 16km/h | 28467m | 5.0m/s | -44.4°C | 2.9% | 0hPa | 2.5V | 00:00:00 | 00:00:00 | 00:00:00 | |
| PG1ADW-2 | 2026-09-02 00:50:06 | 45.61327 | 9.68659 | 119° | 15km/h | 28456m | 5.5m/s | -44.4°C | 2.9% | 0hPa | 2.5V | 00:00:00 | 02:16:23 | 08:30:00 | |
| DO3MHA-11 | 2026-09-02 00:50:03 | 45.61328 | 9.68643 | 85° | 18km/h | 28440m | 5.0m/s | -44.5°C | 2.9% | 0hPa | 2.6V | 00:00:00 | 02:16:20 | 00:00:00 | |
| IW2NTF | 2026-09-02 00:50:02 | 45.61322 | 9.68602 | 78° | 22km/h | 28406m | 5.8m/s | -44.6°C | 2.9% | 0hPa | 2.6V | 08:30:00 | 02:16:14 | 00:00:00 | |
| RDZBGO | 2026-09-02 00:49:57 | 45.61321 | 9.68601 | 79° | 22km/h | 28406m | 5.8m/s | -44.6°C | 1.0% | 0hPa | 2.5V | 00:00:00 | 00:00:00 | 00:00:00 | |
| DO3MHA-11 | 2026-09-02 00:49:53 | 45.61319 | 9.68580 | 67° | 16km/h | 28386m | 6.4m/s | -44.7°C | 2.9% | 0hPa | 2.5V | 00:00:00 | 02:16:10 | 00:00:00 | |
| IW2NTF | 2026-09-02 00:49:52 | 45.61311 | 9.68565 | 64° | 26km/h | 28353m | 5.5m/s | -45.2°C | 3.1% | 0hPa | 2.5V | 08:30:00 | 02:16:04 | 00:00:00 | |
| DB0UT-7 | 2026-09-02 00:49:52 | 45.61318 | 9.68580 | 343° | 22km/h | 28380m | 5.6m/s | -44.8°C | 3.0% | 0hPa | 2.5V | 00:00:00 | 02:16:09 | 00:00:00 | |
| PG1ADW-2 | 2026-09-02 00:49:46 | 45.61308 | 9.68556 | 63° | 24km/h | 28348m | 5.2m/s | -45.2°C | 3.1% | 0hPa | 2.5V | 00:00:00 | 00:00:00 | 00:00:00 | |
| IW2NTF | 2026-09-02 00:49:43 | 45.61257 | 9.68443 | 57° | 38km/h | 28256m | 5.1m/s | -45.4°C | 3.1% | 0hPa | 2.5V | 08:30:00 | 02:15:46 | 00:00:00 | |
| DF7PN | 2026-09-02 00:49:41 | 45.61288 | 9.68505 | 69° | 16km/h | 28309m | 5.3m/s | 0°C | -1.0% | -1.0hPa | 2.6V | 00:00:00 | 00:00:00 | 00:00:00 | |
| OE5DXL-15 | 2026-09-02 00:49:38 | 45.61286 | 9.68499 | 67° | 22km/h | 28304m | 4.8m/s | -45.4°C | 3.1% | 0hPa | 2.6V | 00:00:00 | 00:00:00 | 00:00:00 | |
| IW2NTF | 2026-09-02 00:49:37 | 45.61220 | 9.68373 | 56° | 20km/h | 28203m | 6m/s | -45.5°C | 3.1% | 0hPa | 2.5V | 08:30:00 | 02:15:36 | 00:00:00 | |
| NBG1-10 | 2026-09-02 00:49:37 | 45.61284 | 9.68494 | 58° | 26km/h | 28299m | 5.3m/s | -45.4°C | 3.1% | 0hPa | 2.5V | 00:00:00 | 02:15:54 | 00:00:00 | |
| RDZBGO | 2026-09-02 00:49:35 | 45.61283 | 9.68491 | 44° | 11km/h | 28293m | 6.2m/s | -45.4°C | 1.0% | 0hPa | 2.5V | 00:00:00 | 00:00:00 | 00:00:00 | |
| DO3MHA-11 | 2026-09-02 00:49:33 | 45.61274 | 9.68481 | 47° | 31km/h | 28278m | 5.1m/s | -45.3°C | 3.1% | 0hPa | 2.5V | 00:00:00 | 02:15:50 | 00:00:00 | |
| PG1ADW-2 | 2026-09-02 00:49:26 | 45.61240 | 9.68414 | 43° | 26km/h | 28240m | 5.1m/s | -45.4°C | 3.1% | 0hPa | 2.5V | 00:00:00 | 00:00:00 | 00:00:00 | |
| IW2NTF | 2026-09-02 00:49:24 | 45.61188 | 9.68326 | 46° | 35km/h | 28171m | 4.1m/s | -45.5°C | 3.1% | 0hPa | 2.5V | 08:30:00 | 02:15:30 | 00:00:00 | |
| DO3MHA-11 | 2026-09-02 00:49:23 | 45.61227 | 9.68397 | 55° | 26km/h | 28224m | 5.9m/s | -45.4°C | 3.1% | 0hPa | 2.5V | 00:00:00 | 02:15:40 | 00:00:00 | |
| DB0UT-7 | 2026-09-02 00:49:22 | 45.61225 | 9.68392 | 68° | 26km/h | 28219m | 6.0m/s | -45.4°C | 3.1% | 0hPa | 2.5V | 00:00:00 | 00:00:00 | 00:00:00 | |
| OE3JTB-15 | 2026-09-02 00:49:15 | 45.61201 | 9.68344 | 48° | 15km/h | 28181m | 6.0m/s | -45.4°C | 3.1% | 0hPa | 2.6V | 00:00:00 | 00:00:00 | 00:00:00 | |
| OE5DRO-10 | 2026-09-02 00:49:14 | 45.61194 | 9.68335 | 48° | 27km/h | 28176m | 4.7m/s | -45.4°C | 3.1% | 0hPa | 2.5V | 00:00:00 | 00:00:00 | 00:00:00 | |
| DO3MHA-11 | 2026-09-02 00:49:13 | 45.61188 | 9.68326 | 47° | 24km/h | 28171m | 4.1m/s | -45.4°C | 3.1% | 0hPa | 2.5V | 00:00:00 | 02:15:30 | 08:30:00 | |
| IW2NTF | 2026-09-02 00:49:09 | 45.61145 | 9.68273 | 56° | 22km/h | 28120m | 5.4m/s | -45.8°C | 3.1% | 0hPa | 2.6V | 08:30:00 | 02:15:20 | 00:00:00 | |
| PG1ADW-2 | 2026-09-02 00:49:07 | 45.61153 | 9.68292 | 54° | 24km/h | 28135m | 5.7m/s | -45.6°C | 3.1% | 0hPa | 2.5V | 00:00:00 | 00:00:00 | 00:00:00 | |
| NBG1-10 | 2026-09-02 00:49:04 | 45.61148 | 9.68280 | 63° | 24km/h | 28126m | 4.5m/s | -45.7°C | 3.1% | 0hPa | 2.5V | 00:00:00 | 02:15:21 | 00:00:00 | |
| DO3MHA-11 | 2026-09-02 00:49:03 | 45.61145 | 9.68273 | 57° | 29km/h | 28121m | 5.3m/s | -45.8°C | 3.1% | 0hPa | 2.5V | 00:00:00 | 02:15:20 | 00:00:00 | |
| IW2NTF | 2026-09-02 00:48:59 | 45.61087 | 9.68217 | 7° | 22km/h | 28067m | 5.5m/s | -45.9°C | 3.1% | 0hPa | 2.5V | 08:30:00 | 02:15:10 | 00:00:00 | |
| OE5DRO-10 | 2026-09-02 00:48:55 | 45.61098 | 9.68223 | 28° | 24km/h | 28079m | 5.3m/s | -45.8°C | 3.1% | 0hPa | 2.5V | 00:00:00 | 00:00:00 | 00:00:00 | |
| DO3MHA-11 | 2026-09-02 00:48:53 | 45.61086 | 9.68217 | 8° | 22km/h | 28068m | 5.4m/s | -45.8°C | 3.1% | 0hPa | 2.5V | 00:00:00 | 02:15:10 | 00:00:00 | |
| DB0UT-7 | 2026-09-02 00:48:52 | 45.61081 | 9.68216 | 3° | 24km/h | 28063m | 4.6m/s | -45.8°C | 3.1% | 0hPa | 2.5V | 00:00:00 | 02:15:09 | 00:00:00 | |
| IW2NTF | 2026-09-02 00:48:47 | 45.61034 | 9.68190 | 18° | 31km/h | 28016m | 4.9m/s | -45.9°C | 3.2% | 0hPa | 2.5V | 08:30:00 | 02:15:00 | 00:00:00 | |
| PG1ADW-2 | 2026-09-02 00:48:46 | 45.61055 | 9.68201 | 25° | 22km/h | 28031m | 6.0m/s | -45.9°C | 3.1% | 0hPa | 2.5V | 00:00:00 | 02:15:03 | 00:00:00 | |
| DO3MHA-11 | 2026-09-02 00:48:43 | 45.61034 | 9.68190 | 19° | 22km/h | 28016m | 4.9m/s | -45.9°C | 3.2% | 0hPa | 2.5V | 00:00:00 | 02:15:00 | 00:00:00 | |
| IW2NTF | 2026-09-02 00:48:38 | 45.60984 | 9.68161 | 51° | 16km/h | 27965m | 5.6m/s | -46°C | 3.2% | 0hPa | 2.6V | 08:30:00 | 02:14:50 | 00:00:00 | |
| OE5DRO-10 | 2026-09-02 00:48:36 | 45.60994 | 9.68169 | 8° | 22km/h | 27980m | 4.0m/s | -46.0°C | 3.2% | 0hPa | 2.5V | 00:00:00 | 00:00:00 | 00:00:00 | |
| DO3MHA-11 | 2026-09-02 00:48:33 | 45.60984 | 9.68161 | 52° | 24km/h | 27966m | 5.5m/s | -46.0°C | 3.2% | 0hPa | 2.5V | 00:00:00 | 02:14:50 | 00:00:00 | |
| NBG1-10 | 2026-09-02 00:48:31 | 45.60979 | 9.68150 | 64° | 24km/h | 27956m | 4.4m/s | -46.0°C | 3.2% | 0hPa | 2.5V | 00:00:00 | 02:14:48 | 00:00:00 | |
| IW2NTF | 2026-09-02 00:48:27 | 45.60933 | 9.68122 | 31° | 33km/h | 27917m | 4.8m/s | -46.1°C | 3.2% | 0hPa | 2.5V | 08:30:00 | 02:14:40 | 00:00:00 | |
| PG1ADW-2 | 2026-09-02 00:48:26 | 45.60956 | 9.68133 | 10° | 26km/h | 27932m | 4.2m/s | -46.0°C | 3.2% | 0hPa | 2.5V | 00:00:00 | 00:00:00 | 00:00:00 | |
| DO3MHA-11 | 2026-09-02 00:48:23 | 45.60932 | 9.68121 | 32° | 22km/h | 27917m | 4.7m/s | -46.0°C | 3.2% | 0hPa | 2.5V | 00:00:00 | 02:14:40 | 00:00:00 | |
| DB0UT-7 | 2026-09-02 00:48:22 | 45.60926 | 9.68115 | 42° | 24km/h | 27912m | 4.3m/s | -46.0°C | 3.2% | 0hPa | 2.5V | 00:00:00 | 00:00:00 | 00:00:00 | |
| OE5DXL-15 | 2026-09-02 00:48:18 | 45.60914 | 9.68097 | 10° | 24km/h | 27894m | 5.1m/s | -46.1°C | 3.2% | 0hPa | 2.5V | 00:00:00 | 00:00:00 | 00:00:00 | |
| IW2NTF | 2026-09-02 00:48:17 | 45.60886 | 9.68093 | 22° | 35km/h | 27869m | 5.2m/s | -46.1°C | 3.1% | 0hPa | 2.5V | 08:30:00 | 02:14:30 | 00:00:00 | |
| OE5DRO-10 | 2026-09-02 00:48:17 | 45.60911 | 9.68097 | 349° | 24km/h | 27889m | 4.3m/s | -46.1°C | 3.2% | 0hPa | 2.5V | 00:00:00 | 00:00:00 | 00:00:00 | |
| DO3MHA-11 | 2026-09-02 00:48:13 | 45.60886 | 9.68093 | 23° | 27km/h | 27870m | 5.1m/s | -46.0°C | 3.1% | 0hPa | 2.5V | 00:00:00 | 02:14:30 | 00:00:00 | |
| RDZBGO | 2026-09-02 00:48:10 | 45.60871 | 9.68081 | 35° | 37km/h | 27860m | 4.8m/s | -46.1°C | 1.1% | 0hPa | 2.6V | 00:00:00 | 00:00:00 | 00:00:00 | |
| IW2NTF | 2026-09-02 00:48:07 | 45.60825 | 9.68058 | 7° | 24km/h | 27820m | 4.5m/s | -46.3°C | 3.2% | 0hPa | 2.6V | 08:30:00 | 02:14:20 | 00:00:00 | |
| PG1ADW-2 | 2026-09-02 00:48:06 | 45.60841 | 9.68060 | 9° | 24km/h | 27836m | 4.9m/s | -46.2°C | 3.2% | 0hPa | 2.5V | 00:00:00 | 00:00:00 | 00:00:00 | |
| DO3MHA-11 | 2026-09-02 00:48:03 | 45.60825 | 9.68058 | 8° | 22km/h | 27821m | 4.5m/s | -46.2°C | 3.2% | 0hPa | 2.5V | 00:00:00 | 02:14:20 | 00:00:00 | |
| NBG1-10 | 2026-09-02 00:47:58 | 45.60802 | 9.68053 | 11° | 27km/h | 27797m | 3.7m/s | -46.2°C | 3.1% | 0hPa | 2.5V | 00:00:00 | 02:14:15 | 00:00:00 | |
| IW2NTF | 2026-09-02 00:47:57 | 45.60768 | 9.68043 | 9° | 33km/h | 27772m | 4m/s | -46.4°C | 3.2% | 0hPa | 2.5V | 08:30:00 | 02:14:10 | 00:00:00 | |
| DO3MHA-11 | 2026-09-02 00:47:53 | 45.60768 | 9.68043 | 10° | 27km/h | 27773m | 3.9m/s | -46.4°C | 3.2% | 0hPa | 2.5V | 00:00:00 | 02:14:10 | 00:00:00 | |
| DB0UT-7 | 2026-09-02 00:47:52 | 45.60760 | 9.68041 | 8° | 27km/h | 27768m | 5.4m/s | -46.4°C | 3.2% | 0hPa | 2.5V | 00:00:00 | 02:14:09 | 00:00:00 | |
| RDZBGO | 2026-09-02 00:47:50 | 45.60753 | 9.68040 | 6° | 24km/h | 27763m | 5.5m/s | -46.4°C | 1.0% | 0hPa | 2.6V | 00:00:00 | 00:00:00 | 00:00:00 | |
| OE5DXL-15 | 2026-09-02 00:47:48 | 45.60738 | 9.68040 | 3° | 26km/h | 27749m | 4.5m/s | 0°C | 0% | 0hPa | 2.6V | 00:00:00 | 02:14:05 | 00:00:00 | |
| IW2NTF | 2026-09-02 00:47:46 | 45.60701 | 9.68034 | 7° | 33km/h | 27725m | 4.3m/s | -46.6°C | 3.2% | 0hPa | 2.6V | 08:30:00 | 02:14:00 | 00:00:00 | |
| DO3MHA-11 | 2026-09-02 00:47:43 | 45.60701 | 9.68034 | 8° | 24km/h | 27726m | 4.2m/s | -46.6°C | 3.2% | 0hPa | 2.6V | 00:00:00 | 02:14:00 | 08:30:00 | |
| OE5DRO-10 | 2026-09-02 00:47:39 | 45.60675 | 9.68032 | 4° | 26km/h | 27705m | 4.4m/s | -46.7°C | 3.1% | 0hPa | 2.5V | 00:00:00 | 00:00:00 | 00:00:00 | |
| IW2NTF | 2026-09-02 00:47:36 | 45.60643 | 9.68026 | 349° | 24km/h | 27676m | 5.4m/s | -46.9°C | 3.2% | 0hPa | 2.5V | 08:30:00 | 02:13:50 | 00:00:00 | |
| DO3MHA-11 | 2026-09-02 00:47:33 | 45.60643 | 9.68026 | 350° | 31km/h | 27676m | 5.3m/s | -46.9°C | 3.2% | 0hPa | 2.5V | 00:00:00 | 02:13:50 | 00:00:00 | |
| RDZBGO | 2026-09-02 00:47:29 | 45.60623 | 9.68035 | 345° | 31km/h | 27661m | 5.1m/s | -47.1°C | 1.1% | 0hPa | 2.5V | 00:00:00 | 00:00:00 | 00:00:00 | |
| IW2NTF | 2026-09-02 00:47:26 | 45.60570 | 9.68055 | 333° | 22km/h | 27627m | 4.1m/s | -47.4°C | 3.3% | 0hPa | 2.5V | 08:30:00 | 02:13:40 | 00:00:00 | |
| NBG1-10 | 2026-09-02 00:47:25 | 45.60581 | 9.68048 | 343° | 22km/h | 27637m | 5.6m/s | -47.3°C | 3.3% | 0hPa | 2.6V | 00:00:00 | 02:13:42 | 08:30:00 | |
| DO3MHA-11 | 2026-09-02 00:47:23 | 45.60569 | 9.68055 | 334° | 22km/h | 27627m | 4.0m/s | -47.4°C | 3.3% | 0hPa | 2.6V | 00:00:00 | 02:13:40 | 00:00:00 | |
| DB0UT-7 | 2026-09-02 00:47:22 | 45.60565 | 9.68058 | 339° | 22km/h | 27623m | 4.7m/s | -47.4°C | 3.3% | 0hPa | 2.6V | 00:00:00 | 00:00:00 | 00:00:00 | |
| IW2NTF | 2026-09-02 00:47:15 | 45.60515 | 9.68074 | 334° | 27km/h | 27577m | 5.6m/s | -47.6°C | 3.3% | 0hPa | 2.6V | 08:30:00 | 02:13:30 | 00:00:00 | |
| DO3MHA-11 | 2026-09-02 00:47:13 | 45.60515 | 9.68073 | 335° | 24km/h | 27578m | 5.5m/s | -47.6°C | 3.3% | 0hPa | 2.6V | 00:00:00 | 02:13:30 | 00:00:00 | |
| RDZBGO | 2026-09-02 00:47:09 | 45.60494 | 9.68085 | 339° | 29km/h | 27563m | 4.2m/s | -47.7°C | 1.1% | 0hPa | 2.6V | 00:00:00 | 00:00:00 | 00:00:00 | |
| PG1ADW-2 | 2026-09-02 00:47:06 | 45.60472 | 9.68101 | 337° | 18km/h | 27543m | 4.8m/s | -47.7°C | 3.4% | 0hPa | 2.6V | 00:00:00 | 00:00:00 | 08:30:00 | |
| IW2NTF | 2026-09-02 00:47:05 | 45.60460 | 9.68104 | 3° | 15km/h | 27528m | 4m/s | -47.9°C | 3.4% | 0hPa | 2.5V | 08:30:00 | 02:13:20 | 00:00:00 | |
| DO3MHA-11 | 2026-09-02 00:47:03 | 45.60460 | 9.68103 | 4° | 20km/h | 27528m | 4.0m/s | -47.8°C | 3.4% | 0hPa | 2.6V | 00:00:00 | 02:13:20 | 00:00:00 | |
| OE5DRO-10 | 2026-09-02 00:47:01 | 45.60453 | 9.68104 | 342° | 16km/h | 27518m | 5.7m/s | -47.9°C | 3.4% | 0hPa | 2.6V | 00:00:00 | 00:00:00 | 00:00:00 | |
| IW2NTF | 2026-09-02 00:46:55 | 45.60416 | 9.68137 | 316° | 22km/h | 27478m | 5.1m/s | -47.9°C | 3.4% | 0hPa | 2.6V | 08:30:00 | 02:13:10 | 00:00:00 | |
| DO3MHA-11 | 2026-09-02 00:46:53 | 45.60417 | 9.68137 | 317° | 15km/h | 27478m | 5.0m/s | -47.9°C | 3.4% | 0hPa | 2.5V | 00:00:00 | 02:13:10 | 00:00:00 | |
| NBG1-10 | 2026-09-02 00:46:52 | 45.60413 | 9.68142 | 314° | 16km/h | 27474m | 4.4m/s | -47.9°C | 3.4% | 0hPa | 2.5V | 00:00:00 | 02:13:09 | 00:00:00 | |
| RDZBGO | 2026-09-02 00:46:48 | 45.60403 | 9.68154 | 332° | 13km/h | 27459m | 5.0m/s | -47.9°C | 1.1% | 0hPa | 2.5V | 00:00:00 | 00:00:00 | 00:00:00 | |
| PG1ADW-2 | 2026-09-02 00:46:46 | 45.60397 | 9.68160 | 297° | 18km/h | 27444m | 5.6m/s | -47.9°C | 3.3% | 0hPa | 2.5V | 00:00:00 | 00:00:00 | 00:00:00 | |
| IW2NTF | 2026-09-02 00:46:45 | 45.60393 | 9.68172 | 309° | 16km/h | 27430m | 5.3m/s | -48°C | 3.4% | 0hPa | 2.5V | 08:30:00 | 02:13:00 | 00:00:00 | |
| DO3MHA-11 | 2026-09-02 00:46:43 | 45.60393 | 9.68172 | 310° | 20km/h | 27430m | 5.3m/s | -48.0°C | 3.4% | 0hPa | 2.5V | 00:00:00 | 02:13:00 | 00:00:00 | |
| OE5DRO-10 | 2026-09-02 00:46:42 | 45.60390 | 9.68177 | 323° | 20km/h | 27424m | 5.6m/s | -48.0°C | 3.4% | 0hPa | 2.5V | 00:00:00 | 00:00:00 | 08:30:00 | |
| IW2NTF | 2026-09-02 00:46:33 | 45.60350 | 9.68212 | 339° | 16km/h | 27379m | 4.9m/s | -48.2°C | 3.4% | 0hPa | 2.6V | 08:30:00 | 02:12:50 | 00:00:00 | |
| DO3MHA-11 | 2026-09-02 00:46:33 | 45.60350 | 9.68212 | 340° | 18km/h | 27379m | 4.9m/s | -48.2°C | 3.4% | 0hPa | 2.5V | 00:00:00 | 02:12:50 | 00:00:00 | |
| RDZBGO | 2026-09-02 00:46:27 | 45.60334 | 9.68230 | 308° | 18km/h | 27354m | 4.4m/s | -48.3°C | 1.2% | 0hPa | 2.5V | 00:00:00 | 00:00:00 | 00:00:00 | |
| PG1ADW-2 | 2026-09-02 00:46:26 | 45.60327 | 9.68240 | 323° | 15km/h | 27344m | 5.4m/s | -48.3°C | 3.5% | 0hPa | 2.5V | 00:00:00 | 00:00:00 | 00:00:00 | |
| IW2NTF | 2026-09-02 00:46:24 | 45.60313 | 9.68251 | 331° | 18km/h | 27330m | 4.5m/s | -48.4°C | 3.5% | 0hPa | 2.5V | 08:30:00 | 02:12:40 | 00:00:00 | |
| DO3MHA-11 | 2026-09-02 00:46:23 | 45.60313 | 9.68251 | 332° | 16km/h | 27331m | 4.5m/s | -48.4°C | 3.5% | 0hPa | 2.5V | 00:00:00 | 02:12:40 | 00:00:00 | |
| NBG1-10 | 2026-09-02 00:46:19 | 45.60305 | 9.68265 | 296° | 11km/h | 27310m | 4.2m/s | -48.4°C | 3.5% | 0hPa | 2.5V | 00:00:00 | 02:12:36 | 00:00:00 | |
| IW2NTF | 2026-09-02 00:46:13 | 45.60287 | 9.68299 | 298° | 18km/h | 27280m | 5.5m/s | -48.6°C | 3.5% | 0hPa | 2.5V | 08:30:00 | 02:12:30 | 00:00:00 | |
| DO3MHA-11 | 2026-09-02 00:46:13 | 45.60287 | 9.68299 | 299° | 7km/h | 27280m | 5.4m/s | -48.5°C | 3.5% | 0hPa | 2.5V | 00:00:00 | 02:12:30 | 08:30:00 | |
| PG1ADW-2 | 2026-09-02 00:46:06 | 45.60278 | 9.68314 | 298° | 9km/h | 27245m | 5.8m/s | 0°C | 0% | 0hPa | 2.5V | 00:00:00 | 02:12:23 | 00:00:00 | |
| IW2NTF | 2026-09-02 00:46:03 | 45.60278 | 9.68321 | 283° | 11km/h | 27229m | 5.2m/s | -48.6°C | 3.5% | 0hPa | 2.5V | 08:30:00 | 02:12:20 | 00:00:00 | |
| DO3MHA-11 | 2026-09-02 00:46:03 | 45.60278 | 9.68321 | 284° | 11km/h | 27230m | 5.1m/s | -48.6°C | 3.5% | 0hPa | 2.5V | 00:00:00 | 02:12:20 | 00:00:00 | |
| IW2NTF | 2026-09-02 00:45:53 | 45.60271 | 9.68347 | 143° | 4km/h | 27177m | 4.8m/s | -48.8°C | 3.6% | 0hPa | 2.5V | 08:30:00 | 02:12:10 | 00:00:00 | |
| DO3MHA-11 | 2026-09-02 00:45:53 | 45.60271 | 9.68347 | 144° | 11km/h | 27177m | 4.8m/s | -48.8°C | 3.6% | 0hPa | 2.5V | 00:00:00 | 02:12:10 | 00:00:00 | |
| DB0UT-7 | 2026-09-02 00:45:52 | 45.60272 | 9.68347 | 147° | 11km/h | 27173m | 4.3m/s | -48.7°C | 3.6% | 0hPa | 2.5V | 00:00:00 | 02:12:09 | 00:00:00 | |
| PG1ADW-2 | 2026-09-02 00:45:46 | 45.60265 | 9.68365 | 320° | 11km/h | 27141m | 5.4m/s | 0°C | 0% | 0hPa | 2.5V | 00:00:00 | 00:00:00 | 00:00:00 | |
| OE5DRO-10 | 2026-09-02 00:45:45 | 45.60261 | 9.68369 | 327° | 11km/h | 27136m | 4.1m/s | -48.8°C | 3.6% | 0hPa | 2.5V | 00:00:00 | 00:00:00 | 00:00:00 | |
| IW2NTF | 2026-09-02 00:45:43 | 45.60256 | 9.68374 | 319° | 5km/h | 27127m | 5.4m/s | -48.8°C | 3.5% | 0hPa | 2.6V | 08:30:00 | 02:12:00 | 00:00:00 | |
| DO3MHA-11 | 2026-09-02 00:45:43 | 45.60256 | 9.68374 | 320° | 9km/h | 27128m | 5.3m/s | -48.7°C | 3.5% | 0hPa | 2.6V | 00:00:00 | 02:12:00 | 00:00:00 | |
| IW2NTF | 2026-09-02 00:45:36 | 45.60257 | 9.68374 | 309° | 15km/h | 27075m | 5.4m/s | -48.8°C | 3.5% | 0hPa | 2.5V | 08:30:00 | 02:11:50 | 00:00:00 | |
| DO3MHA-11 | 2026-09-02 00:45:33 | 45.60257 | 9.68374 | 310° | 11km/h | 27075m | 5.4m/s | -48.8°C | 3.5% | 0hPa | 2.6V | 00:00:00 | 02:11:50 | 00:00:00 | |
| PG1ADW-2 | 2026-09-02 00:45:26 | 45.60242 | 9.68382 | 62° | 9km/h | 27041m | 4.7m/s | 0°C | 0% | 0hPa | 2.6V | 00:00:00 | 00:00:00 | 00:00:00 | |
| IW2NTF | 2026-09-02 00:45:25 | 45.60243 | 9.68376 | 169° | 5km/h | 27024m | 4.7m/s | -49°C | 3.6% | 0hPa | 2.6V | 08:30:00 | 02:11:40 | 00:00:00 | |
| DO3MHA-11 | 2026-09-02 00:45:23 | 45.60243 | 9.68376 | 170° | 11km/h | 27024m | 4.7m/s | -48.9°C | 3.6% | 0hPa | 2.5V | 00:00:00 | 02:11:40 | 00:00:00 | |
| DB0UT-7 | 2026-09-02 00:45:22 | 45.60244 | 9.68376 | 191° | 11km/h | 27020m | 4.0m/s | -49.0°C | 3.5% | 0hPa | 2.5V | 00:00:00 | 00:00:00 | 00:00:00 | |
| IW2NTF | 2026-09-02 00:45:18 | 45.60231 | 9.68351 | 112° | 7km/h | 26974m | 5.2m/s | -49.2°C | 3.7% | 0hPa | 2.5V | 08:30:00 | 02:11:30 | 00:00:00 | |
| DO3MHA-11 | 2026-09-02 00:45:13 | 45.60230 | 9.68351 | 113° | 11km/h | 26974m | 5.1m/s | -49.2°C | 3.7% | 0hPa | 2.5V | 00:00:00 | 02:11:30 | 00:00:00 | |
| NBG1-10 | 2026-09-02 00:45:12 | 45.60232 | 9.68348 | 128° | 11km/h | 26969m | 4.9m/s | -49.2°C | 3.7% | 0hPa | 2.6V | 00:00:00 | 02:11:29 | 00:00:00 | |
| OE5DRO-10 | 2026-09-02 00:45:07 | 45.60234 | 9.68327 | 65° | 9km/h | 26944m | 4.6m/s | -49.1°C | 3.7% | 0hPa | 2.6V | 00:00:00 | 00:00:00 | 00:00:00 | |
| IW2NTF | 2026-09-02 00:45:06 | 45.60226 | 9.68323 | 348° | 13km/h | 26922m | 5m/s | -49.1°C | 3.6% | 0hPa | 2.6V | 08:30:00 | 02:11:20 | 00:00:00 | |
| RDZBGO | 2026-09-02 00:45:04 | 45.60231 | 9.68322 | 10° | 9km/h | 26933m | 5.7m/s | -49.1°C | 1.2% | 0hPa | 2.5V | 00:00:00 | 00:00:00 | 00:00:00 | |
| IW2NTF | 2026-09-02 00:44:55 | 45.60207 | 9.68317 | 50° | 9km/h | 26868m | 4.2m/s | -49°C | 3.5% | 0hPa | 2.5V | 08:30:00 | 02:11:10 | 00:00:00 | |
| DO3MHA-11 | 2026-09-02 00:44:53 | 45.60206 | 9.68317 | 51° | 13km/h | 26869m | 4.2m/s | -49.0°C | 3.5% | 0hPa | 2.5V | 00:00:00 | 02:11:10 | 00:00:00 | |
| DB0UT-7 | 2026-09-02 00:44:52 | 45.60205 | 9.68315 | 29° | 11km/h | 26864m | 4.4m/s | -49.0°C | 3.5% | 0hPa | 2.5V | 00:00:00 | 02:11:09 | 00:00:00 | |
| IW2NTF | 2026-09-02 00:44:48 | 45.60176 | 9.68333 | 331° | 9km/h | 26817m | 6m/s | -49.3°C | 3.5% | 0hPa | 2.6V | 08:30:00 | 02:11:00 | 00:00:00 | |
| OE5DRO-10 | 2026-09-02 00:44:48 | 45.60193 | 9.68322 | 323° | 11km/h | 26843m | 4.8m/s | -49.1°C | 3.5% | 0hPa | 2.5V | 00:00:00 | 00:00:00 | 00:00:00 | |
| PG1ADW-2 | 2026-09-02 00:44:46 | 45.60186 | 9.68328 | 338° | 11km/h | 26832m | 5.4m/s | 0°C | 0% | 0hPa | 2.6V | 00:00:00 | 02:11:03 | 00:00:00 | |
| RDZBGO | 2026-09-02 00:44:44 | 45.60182 | 9.68330 | 345° | 15km/h | 26827m | 4.7m/s | -49.2°C | 1.2% | 0hPa | 2.6V | 00:00:00 | 00:00:00 | 00:00:00 | |
| DO3MHA-11 | 2026-09-02 00:44:43 | 45.60176 | 9.68333 | 332° | 9km/h | 26817m | 6.0m/s | -49.3°C | 3.5% | 0hPa | 2.6V | 00:00:00 | 02:11:00 | 08:30:00 | |
| IW2NTF | 2026-09-02 00:44:36 | 45.60156 | 9.68348 | 303° | 18km/h | 26767m | 4.6m/s | -49.6°C | 3.6% | 0hPa | 2.5V | 08:30:00 | 02:10:50 | 00:00:00 | |
| DO3MHA-11 | 2026-09-02 00:44:33 | 45.60156 | 9.68348 | 304° | 11km/h | 26767m | 4.6m/s | -49.6°C | 3.6% | 0hPa | 2.5V | 00:00:00 | 02:10:50 | 00:00:00 | |
| OE5DRO-10 | 2026-09-02 00:44:29 | 45.60153 | 9.68360 | 102° | 7km/h | 26748m | 5.4m/s | -49.7°C | 3.7% | 0hPa | 2.5V | 00:00:00 | 00:00:00 | 00:00:00 | |
| IW2NTF | 2026-09-02 00:44:26 | 45.60141 | 9.68347 | 343° | 13km/h | 26717m | 4.9m/s | -49.8°C | 3.7% | 0hPa | 2.5V | 08:30:00 | 02:10:40 | 00:00:00 | |
| DO3MHA-11 | 2026-09-02 00:44:23 | 45.60140 | 9.68347 | 344° | 7km/h | 26717m | 4.9m/s | -49.7°C | 3.7% | 0hPa | 2.5V | 00:00:00 | 02:10:40 | 00:00:00 | |
| DB0UT-7 | 2026-09-02 00:44:22 | 45.60138 | 9.68349 | 334° | 9km/h | 26712m | 5.7m/s | -49.7°C | 3.7% | 0hPa | 2.5V | 00:00:00 | 00:00:00 | 00:00:00 | |
| IW2NTF | 2026-09-02 00:44:16 | 45.60128 | 9.68358 | 0° | 5km/h | 26665m | 4.2m/s | -49.9°C | 3.7% | 0hPa | 2.5V | 08:30:00 | 02:10:30 | 00:00:00 | |
| DO3MHA-11 | 2026-09-02 00:44:13 | 45.60128 | 9.68358 | 1° | 7km/h | 26665m | 4.2m/s | -49.8°C | 3.7% | 0hPa | 2.5V | 00:00:00 | 02:10:30 | 00:00:00 | |
| OE5DRO-10 | 2026-09-02 00:44:10 | 45.60126 | 9.68353 | 81° | 11km/h | 26649m | 4.5m/s | -49.8°C | 3.7% | 0hPa | 2.5V | 00:00:00 | 00:00:00 | 00:00:00 | |
| IW2NTF | 2026-09-02 00:44:08 | 45.60113 | 9.68350 | 8° | 9km/h | 26615m | 5.3m/s | -49.8°C | 3.7% | 0hPa | 2.5V | 08:30:00 | 02:10:20 | 00:00:00 | |
| NBG1-10 | 2026-09-02 00:44:06 | 45.60121 | 9.68348 | 347° | 13km/h | 26629m | 4.4m/s | -49.8°C | 3.7% | 0hPa | 2.5V | 00:00:00 | 02:10:23 | 00:00:00 | |
| DO3MHA-11 | 2026-09-02 00:44:03 | 45.60113 | 9.68350 | 9° | 11km/h | 26615m | 5.3m/s | -49.7°C | 3.7% | 0hPa | 2.6V | 00:00:00 | 02:10:20 | 00:00:00 | |
| IW2NTF | 2026-09-02 00:43:53 | 45.60086 | 9.68343 | 30° | 16km/h | 26565m | 4.2m/s | -50°C | 3.8% | 0hPa | 2.6V | 08:30:00 | 02:10:10 | 00:00:00 | |
| DO3MHA-11 | 2026-09-02 00:43:53 | 45.60086 | 9.68343 | 31° | 16km/h | 26565m | 4.2m/s | -50.0°C | 3.8% | 0hPa | 2.5V | 00:00:00 | 02:10:10 | 00:00:00 | |
| DB0UT-7 | 2026-09-02 00:43:52 | 45.60082 | 9.68340 | 24° | 13km/h | 26561m | 5.0m/s | -50.0°C | 3.7% | 0hPa | 2.5V | 00:00:00 | 02:10:09 | 00:00:00 | |
| OE5DRO-10 | 2026-09-02 00:43:51 | 45.60078 | 9.68338 | 11° | 13km/h | 26555m | 5.8m/s | -50.0°C | 3.7% | 0hPa | 2.5V | 00:00:00 | 00:00:00 | 08:30:00 | |
| IW2NTF | 2026-09-02 00:43:44 | 45.60047 | 9.68338 | 358° | 15km/h | 26515m | 5.5m/s | -50°C | 3.7% | 0hPa | 2.6V | 08:30:00 | 02:10:00 | 00:00:00 | |
| DO3MHA-11 | 2026-09-02 00:43:43 | 45.60047 | 9.68338 | 359° | 11km/h | 26515m | 5.5m/s | -50.0°C | 3.7% | 0hPa | 2.6V | 00:00:00 | 02:10:00 | 00:00:00 | |
| RDZBGO | 2026-09-02 00:43:42 | 45.60047 | 9.68338 | 360° | 15km/h | 26515m | 5.5m/s | -50.0°C | 1.3% | 0hPa | 2.6V | 00:00:00 | 00:00:00 | 00:00:00 | |
| IW2NTF | 2026-09-02 00:43:38 | 45.60022 | 9.68349 | 324° | 11km/h | 26466m | 4m/s | -49.9°C | 3.7% | 0hPa | 2.6V | 08:30:00 | 02:09:50 | 00:00:00 | |
| DO3MHA-11 | 2026-09-02 00:43:33 | 45.60022 | 9.68349 | 325° | 15km/h | 26466m | 4.0m/s | -49.9°C | 3.7% | 0hPa | 2.6V | 00:00:00 | 02:09:50 | 00:00:00 | |
| OE5DRO-10 | 2026-09-02 00:43:32 | 45.60020 | 9.68351 | 338° | 13km/h | 26462m | 4.4m/s | -49.9°C | 3.7% | 0hPa | 2.6V | 00:00:00 | 00:00:00 | 00:00:00 | |
| IW2NTF | 2026-09-02 00:43:25 | 45.59989 | 9.68367 | 325° | 16km/h | 26417m | 5.7m/s | -49.9°C | 3.7% | 0hPa | 2.6V | 08:30:00 | 02:09:40 | 00:00:00 | |
| DO3MHA-11 | 2026-09-02 00:43:23 | 45.59989 | 9.68367 | 326° | 11km/h | 26418m | 5.6m/s | -49.9°C | 3.7% | 0hPa | 2.6V | 00:00:00 | 02:09:40 | 00:00:00 | |
| DB0UT-7 | 2026-09-02 00:43:22 | 45.59986 | 9.68370 | 322° | 15km/h | 26412m | 4.7m/s | -49.9°C | 3.7% | 0hPa | 2.6V | 00:00:00 | 00:00:00 | 00:00:00 | |
| RDZBGO | 2026-09-02 00:43:21 | 45.59986 | 9.68370 | 322° | 13km/h | 26412m | 4.7m/s | -49.9°C | 1.3% | 0hPa | 2.5V | 00:00:00 | 00:00:00 | 00:00:00 | |
| IW2NTF | 2026-09-02 00:43:14 | 45.59979 | 9.68400 | 305° | 13km/h | 26369m | 4.2m/s | -50.1°C | 3.7% | 0hPa | 2.5V | 08:30:00 | 02:09:30 | 00:00:00 | |
| IW2NTF | 2026-09-02 00:43:05 | 45.59952 | 9.68452 | 264° | 11km/h | 26320m | 4.7m/s | -50.2°C | 3.7% | 0hPa | 2.5V | 08:30:00 | 02:09:20 | 00:00:00 | |
| DO3MHA-11 | 2026-09-02 00:43:03 | 45.59952 | 9.68452 | 265° | 13km/h | 26320m | 4.6m/s | -50.1°C | 3.7% | 0hPa | 2.6V | 00:00:00 | 02:09:20 | 00:00:00 | |
| NBG1-10 | 2026-09-02 00:43:00 | 45.59954 | 9.68462 | 240° | 15km/h | 26306m | 5.5m/s | -50.2°C | 3.8% | 0hPa | 2.6V | 00:00:00 | 02:09:17 | 00:00:00 | |
| IW2NTF | 2026-09-02 00:42:58 | 45.59945 | 9.68497 | 299° | 22km/h | 26274m | 3.7m/s | -50.3°C | 3.8% | 0hPa | 2.6V | 08:30:00 | 02:09:10 | 00:00:00 | |
| RDZBGO | 2026-09-02 00:42:57 | 45.59956 | 9.68467 | 273° | 9km/h | 26297m | 4.0m/s | -50.3°C | 1.3% | 0hPa | 2.5V | 00:00:00 | 00:00:00 | 00:00:00 | |
| OE5DRO-10 | 2026-09-02 00:42:54 | 45.59948 | 9.68490 | 301° | 15km/h | 26278m | 3.6m/s | -50.3°C | 3.8% | 0hPa | 2.5V | 00:00:00 | 00:00:00 | 00:00:00 | |
| DO3MHA-11 | 2026-09-02 00:42:53 | 45.59945 | 9.68497 | 300° | 13km/h | 26274m | 3.6m/s | -50.3°C | 3.8% | 0hPa | 2.5V | 00:00:00 | 02:09:10 | 00:00:00 | |
| DB0UT-7 | 2026-09-02 00:42:52 | 45.59943 | 9.68503 | 292° | 15km/h | 26270m | 5.3m/s | -50.2°C | 3.9% | 0hPa | 2.5V | 00:00:00 | 02:09:09 | 00:00:00 | |
| IW2NTF | 2026-09-02 00:42:45 | 45.59955 | 9.68532 | 276° | 13km/h | 26227m | 4.9m/s | -50.1°C | 3.8% | 0hPa | 2.5V | 08:30:00 | 02:09:00 | 00:00:00 | |
| DO3MHA-11 | 2026-09-02 00:42:43 | 45.59955 | 9.68532 | 277° | 16km/h | 26227m | 4.8m/s | -50.1°C | 3.8% | 0hPa | 2.5V | 00:00:00 | 02:09:00 | 00:00:00 | |
| IW2NTF | 2026-09-02 00:42:38 | 45.59963 | 9.68578 | 191° | 15km/h | 26181m | 4.6m/s | -50.1°C | 3.7% | 0hPa | 2.6V | 08:30:00 | 02:08:50 | 00:00:00 | |
| OE5DRO-10 | 2026-09-02 00:42:35 | 45.59956 | 9.68577 | 189° | 16km/h | 26190m | 4.3m/s | -50.0°C | 3.7% | 0hPa | 2.6V | 00:00:00 | 00:00:00 | 00:00:00 | |
| DO3MHA-11 | 2026-09-02 00:42:33 | 45.59963 | 9.68578 | 192° | 13km/h | 26181m | 4.6m/s | -50.0°C | 3.7% | 0hPa | 2.6V | 00:00:00 | 02:08:50 | 00:00:00 | |
| NBG1-10 | 2026-09-02 00:42:27 | 45.59971 | 9.68604 | 292° | 13km/h | 26152m | 4.9m/s | -50.1°C | 3.8% | 0hPa | 2.6V | 00:00:00 | 02:08:44 | 08:30:00 | |
| IW2NTF | 2026-09-02 00:42:25 | 45.59970 | 9.68618 | 232° | 11km/h | 26134m | 4.2m/s | -50.2°C | 3.8% | 0hPa | 2.5V | 08:30:00 | 02:08:40 | 00:00:00 | |
| DO3MHA-11 | 2026-09-02 00:42:23 | 45.59970 | 9.68618 | 233° | 18km/h | 26134m | 4.2m/s | -50.1°C | 3.8% | 0hPa | 2.5V | 00:00:00 | 02:08:40 | 00:00:00 | |
| DB0UT-7 | 2026-09-02 00:42:22 | 45.59972 | 9.68621 | 207° | 13km/h | 26130m | 4.2m/s | -50.1°C | 3.8% | 0hPa | 2.5V | 00:00:00 | 00:00:00 | 00:00:00 | |
| OE5DRO-10 | 2026-09-02 00:42:16 | 45.60005 | 9.68623 | 204° | 13km/h | 26103m | 5.4m/s | -50.1°C | 3.7% | 0hPa | 2.5V | 00:00:00 | 00:00:00 | 00:00:00 | |
| IW2NTF | 2026-09-02 00:42:14 | 45.60009 | 9.68636 | 287° | 15km/h | 26088m | 4.6m/s | -50.2°C | 3.8% | 0hPa | 2.5V | 08:30:00 | 02:08:30 | 00:00:00 | |
| RDZBGO | 2026-09-02 00:42:14 | 45.60008 | 9.68626 | 238° | 15km/h | 26097m | 5.2m/s | -50.2°C | 1.3% | 0hPa | 2.5V | 00:00:00 | 00:00:00 | 00:00:00 | |
| DO3MHA-11 | 2026-09-02 00:42:13 | 45.60008 | 9.68636 | 288° | 15km/h | 26088m | 4.6m/s | -50.1°C | 3.8% | 0hPa | 2.5V | 00:00:00 | 02:08:30 | 00:00:00 | |
| IW2NTF | 2026-09-02 00:42:04 | 45.60036 | 9.68640 | 156° | 13km/h | 26043m | 5m/s | -50.3°C | 3.8% | 0hPa | 2.5V | 08:30:00 | 02:08:20 | 00:00:00 | |
| DO3MHA-11 | 2026-09-02 00:42:03 | 45.60036 | 9.68640 | 157° | 7km/h | 26044m | 4.9m/s | -50.2°C | 3.8% | 0hPa | 2.5V | 00:00:00 | 02:08:20 | 00:00:00 | |
| OE5DRO-10 | 2026-09-02 00:41:57 | 45.60041 | 9.68640 | 239° | 7km/h | 26016m | 3.7m/s | -50.2°C | 3.8% | 0hPa | 2.5V | 00:00:00 | 00:00:00 | 00:00:00 | |
| IW2NTF | 2026-09-02 00:41:54 | 45.60052 | 9.68640 | 127° | 5km/h | 25988m | 4.7m/s | -50.2°C | 3.8% | 0hPa | 2.6V | 08:30:00 | 02:08:08 | 00:00:00 | |
| NBG1-10 | 2026-09-02 00:41:54 | 45.60047 | 9.68645 | 171° | 9km/h | 26002m | 5.3m/s | -50.2°C | 3.8% | 0hPa | 2.6V | 00:00:00 | 02:08:11 | 00:00:00 | |
| DO3MHA-11 | 2026-09-02 00:41:53 | 45.60049 | 9.68644 | 144° | 5km/h | 25997m | 4.5m/s | -50.2°C | 3.7% | 0hPa | 2.6V | 00:00:00 | 02:08:10 | 00:00:00 | |
| DB0UT-7 | 2026-09-02 00:41:52 | 45.60051 | 9.68642 | 133° | 9km/h | 25993m | 4.3m/s | -50.2°C | 3.8% | 0hPa | 2.6V | 00:00:00 | 02:08:09 | 08:30:00 | |
| DO3MHA-11 | 2026-09-02 00:41:43 | 45.60052 | 9.68647 | 345° | 9km/h | 25950m | 5.1m/s | -50.2°C | 3.8% | 0hPa | 2.6V | 00:00:00 | 02:08:00 | 08:30:00 | |
| OE5DRO-10 | 2026-09-02 00:41:38 | 45.60038 | 9.68646 | 36° | 11km/h | 25925m | 4.9m/s | -50.2°C | 3.8% | 0hPa | 2.6V | 00:00:00 | 00:00:00 | 00:00:00 | |
| DO3MHA-11 | 2026-09-02 00:41:33 | 45.60033 | 9.68647 | 283° | 13km/h | 25901m | 4.9m/s | -50.2°C | 3.8% | 0hPa | 2.6V | 00:00:00 | 02:07:50 | 00:00:00 | |
| DO3MHA-11 | 2026-09-02 00:41:23 | 45.60012 | 9.68674 | 355° | 11km/h | 25852m | 5.6m/s | -50.1°C | 3.8% | 0hPa | 2.6V | 00:00:00 | 02:07:40 | 00:00:00 | |
| DB0UT-7 | 2026-09-02 00:41:22 | 45.60008 | 9.68674 | 3° | 11km/h | 25846m | 5.2m/s | -50.1°C | 3.8% | 0hPa | 2.6V | 00:00:00 | 00:00:00 | 00:00:00 | |
| NBG1-10 | 2026-09-02 00:41:21 | 45.60006 | 9.68674 | 357° | 9km/h | 25841m | 4.6m/s | -50.1°C | 3.8% | 0hPa | 2.6V | 00:00:00 | 02:07:38 | 00:00:00 | |
| OE5DRO-10 | 2026-09-02 00:41:19 | 45.60004 | 9.68677 | 285° | 9km/h | 25831m | 5.8m/s | -50.2°C | 3.8% | 0hPa | 2.6V | 00:00:00 | 00:00:00 | 00:00:00 | |
| BAUMI2-15 | 2026-09-02 00:41:18 | 45.60004 | 9.68681 | 278° | 13km/h | 25825m | 5.1m/s | 0°C | 0% | 0hPa | 2.6V | 00:00:00 | 02:07:35 | 08:30:00 | |
| IW2NTF | 2026-09-02 00:41:15 | 45.59993 | 9.68704 | 339° | 7km/h | 25780m | 4.3m/s | -50°C | 3.8% | 0hPa | 2.6V | 08:30:00 | 02:07:26 | 00:00:00 | |
| DO3MHA-11 | 2026-09-02 00:41:13 | 45.60001 | 9.68699 | 327° | 7km/h | 25801m | 4.5m/s | -50.1°C | 3.8% | 0hPa | 2.5V | 00:00:00 | 02:07:30 | 00:00:00 | |
| DO3MHA-11 | 2026-09-02 00:41:03 | 45.59999 | 9.68711 | 242° | 15km/h | 25750m | 5.5m/s | -49.9°C | 3.7% | 0hPa | 2.5V | 00:00:00 | 02:07:20 | 00:00:00 | |
| OE5DRO-10 | 2026-09-02 00:41:00 | 45.60003 | 9.68727 | 267° | 13km/h | 25733m | 5.3m/s | -49.8°C | 3.7% | 0hPa | 2.5V | 00:00:00 | 00:00:00 | 08:30:00 | |
| IW2NTF | 2026-09-02 00:40:58 | 45.59996 | 9.68745 | 311° | 16km/h | 25712m | 5m/s | -50°C | 3.7% | 0hPa | 2.5V | 08:30:00 | 02:07:13 | 00:00:00 | |
| DO3MHA-11 | 2026-09-02 00:40:53 | 45.59990 | 9.68754 | 325° | 11km/h | 25697m | 5.8m/s | -50.0°C | 3.8% | 0hPa | 2.5V | 00:00:00 | 02:07:10 | 00:00:00 | |
| RDZBGO | 2026-09-02 00:40:52 | 45.59990 | 9.68754 | 326° | 5km/h | 25697m | 5.9m/s | -50.0°C | 1.3% | 0hPa | 2.5V | 00:00:00 | 00:00:00 | 00:00:00 | |
| IW2NTF | 2026-09-02 00:40:50 | 45.59987 | 9.68783 | 277° | 18km/h | 25656m | 5.6m/s | -50°C | 3.8% | 0hPa | 2.5V | 08:30:00 | 02:07:02 | 00:00:00 | |
| OE3JTB-15 | 2026-09-02 00:40:50 | 45.59990 | 9.68756 | 250° | 15km/h | 25682m | 4.6m/s | 0°C | 0% | 0hPa | 2.6V | 00:00:00 | 02:07:07 | 00:00:00 | |
| NBG1-10 | 2026-09-02 00:40:48 | 45.59990 | 9.68762 | 278° | 16km/h | 25672m | 5.3m/s | -49.9°C | 3.8% | 0hPa | 2.6V | 00:00:00 | 02:07:05 | 00:00:00 | |
| DO3MHA-11 | 2026-09-02 00:40:43 | 45.59986 | 9.68795 | 274° | 11km/h | 25646m | 4.9m/s | -49.9°C | 3.7% | 0hPa | 2.5V | 00:00:00 | 02:07:00 | 00:00:00 | |
| OE5DRO-10 | 2026-09-02 00:40:41 | 45.59986 | 9.68805 | 280° | 16km/h | 25635m | 5.8m/s | -49.9°C | 3.8% | 0hPa | 2.6V | 00:00:00 | 00:00:00 | 00:00:00 | |
| IW2NTF | 2026-09-02 00:40:33 | 45.59986 | 9.68837 | 278° | 22km/h | 25593m | 5.2m/s | -49.9°C | 3.7% | 0hPa | 2.6V | 08:30:00 | 02:06:50 | 00:00:00 | |
| RDZBGO | 2026-09-02 00:40:33 | 45.59986 | 9.68837 | 280° | 22km/h | 25594m | 5.2m/s | -49.9°C | 1.2% | 0hPa | 2.6V | 00:00:00 | 00:00:00 | 00:00:00 | |
| DO3MHA-11 | 2026-09-02 00:40:23 | 45.59985 | 9.68906 | 255° | 18km/h | 25541m | 6.2m/s | -50.1°C | 3.9% | 0hPa | 2.6V | 00:00:00 | 02:06:40 | 00:00:00 | |
| OE3JTB-15 | 2026-09-02 00:40:22 | 45.59988 | 9.68914 | 241° | 16km/h | 25530m | 4.3m/s | 0°C | 0% | 0hPa | 2.6V | 00:00:00 | 00:00:00 | 00:00:00 | |
| NBG1-10 | 2026-09-02 00:40:15 | 45.59995 | 9.68955 | 252° | 15km/h | 25500m | 5.7m/s | -50.0°C | 3.8% | 0hPa | 2.6V | 00:00:00 | 02:06:32 | 00:00:00 | |
| IW2NTF | 2026-09-02 00:40:13 | 45.60004 | 9.68975 | 228° | 15km/h | 25477m | 5.8m/s | -50°C | 3.8% | 0hPa | 2.6V | 08:30:00 | 02:06:28 | 00:00:00 | |
| DO3MHA-11 | 2026-09-02 00:40:13 | 45.59999 | 9.68966 | 233° | 16km/h | 25489m | 5.1m/s | -50.0°C | 3.8% | 0hPa | 2.5V | 00:00:00 | 02:06:30 | 08:30:00 | |
| RDZBGO | 2026-09-02 00:40:12 | 45.59999 | 9.68966 | 234° | 16km/h | 25489m | 5.2m/s | -50.0°C | 1.3% | 0hPa | 2.6V | 00:00:00 | 00:00:00 | 00:00:00 | |
| IW2NTF | 2026-09-02 00:40:05 | 45.60037 | 9.69021 | 235° | 22km/h | 25424m | 5.9m/s | -49.9°C | 3.7% | 0hPa | 2.6V | 08:30:00 | 02:06:18 | 00:00:00 | |
| OE5DRO-10 | 2026-09-02 00:40:03 | 45.60031 | 9.69006 | 241° | 15km/h | 25434m | 4.8m/s | -49.8°C | 3.7% | 0hPa | 2.5V | 00:00:00 | 00:00:00 | 00:00:00 | |
| DO3MHA-11 | 2026-09-02 00:39:53 | 45.60061 | 9.69035 | 174° | 13km/h | 25382m | 5.6m/s | -49.8°C | 3.7% | 0hPa | 2.5V | 00:00:00 | 02:06:10 | 00:00:00 | |
| IW2NTF | 2026-09-02 00:39:52 | 45.60070 | 9.69033 | 174° | 20km/h | 25371m | 4.3m/s | -49.9°C | 3.6% | 0hPa | 2.5V | 08:30:00 | 02:06:08 | 00:00:00 | |
| DB0UT-7 | 2026-09-02 00:39:52 | 45.60065 | 9.69034 | 171° | 11km/h | 25376m | 5.7m/s | -49.8°C | 3.6% | 0hPa | 2.5V | 00:00:00 | 02:06:09 | 00:00:00 | |
| RDZBGO | 2026-09-02 00:39:50 | 45.60069 | 9.69033 | 176° | 20km/h | 25371m | 4.3m/s | -49.9°C | 1.2% | 0hPa | 2.5V | 00:00:00 | 00:00:00 | 00:00:00 | |
| IW2NTF | 2026-09-02 00:39:45 | 45.60092 | 9.69035 | 142° | 16km/h | 25319m | 5.1m/s | -50.1°C | 3.7% | 0hPa | 2.5V | 08:30:00 | 02:05:58 | 00:00:00 | |
| OE5DRO-10 | 2026-09-02 00:39:44 | 45.60086 | 9.69044 | 131° | 11km/h | 25335m | 5.7m/s | -50.1°C | 3.7% | 0hPa | 2.5V | 00:00:00 | 00:00:00 | 00:00:00 | |
| DO3MHA-11 | 2026-09-02 00:39:43 | 45.60087 | 9.69042 | 127° | 11km/h | 25329m | 5.1m/s | -50.1°C | 3.8% | 0hPa | 2.5V | 00:00:00 | 02:06:00 | 00:00:00 | |
| NBG1-10 | 2026-09-02 00:39:42 | 45.60089 | 9.69039 | 135° | 11km/h | 25325m | 4.6m/s | -50.1°C | 3.7% | 0hPa | 2.5V | 00:00:00 | 02:05:59 | 00:00:00 | |
| DO3MHA-11 | 2026-09-02 00:39:33 | 45.60110 | 9.69019 | 95° | 11km/h | 25276m | 5.0m/s | -50.0°C | 3.7% | 0hPa | 2.5V | 00:00:00 | 02:05:50 | 00:00:00 | |
| IW2NTF | 2026-09-02 00:39:32 | 45.60109 | 9.69014 | 73° | 7km/h | 25264m | 5.5m/s | -50°C | 3.7% | 0hPa | 2.5V | 08:30:00 | 02:05:48 | 00:00:00 | |
| RDZBGO | 2026-09-02 00:39:30 | 45.60109 | 9.69014 | 74° | 7km/h | 25264m | 5.5m/s | -50.0°C | 1.3% | 0hPa | 2.5V | 00:00:00 | 00:00:00 | 00:00:00 | |
| IW2NTF | 2026-09-02 00:39:25 | 45.60099 | 9.68978 | 47° | 5km/h | 25211m | 5.8m/s | -50.1°C | 3.7% | 0hPa | 2.5V | 08:30:00 | 02:05:38 | 00:00:00 | |
| DO3MHA-11 | 2026-09-02 00:39:23 | 45.60101 | 9.68981 | 56° | 7km/h | 25221m | 4.9m/s | -50.0°C | 3.7% | 0hPa | 2.6V | 00:00:00 | 02:05:40 | 00:00:00 | |
| DB0UT-7 | 2026-09-02 00:39:22 | 45.60099 | 9.68980 | 47° | 15km/h | 25216m | 4.8m/s | -50.0°C | 3.7% | 0hPa | 2.6V | 00:00:00 | 00:00:00 | 00:00:00 | |
| DO3MHA-11 | 2026-09-02 00:39:13 | 45.60084 | 9.68965 | 7° | 15km/h | 25169m | 4.9m/s | -50.2°C | 3.8% | 0hPa | 2.6V | 00:00:00 | 02:05:30 | 00:00:00 | |
| IW2NTF | 2026-09-02 00:39:12 | 45.60078 | 9.68962 | 31° | 16km/h | 25157m | 5.4m/s | -50.3°C | 3.8% | 0hPa | 2.5V | 08:30:00 | 02:05:28 | 00:00:00 | |
| NBG1-10 | 2026-09-02 00:39:09 | 45.60071 | 9.68956 | 25° | 16km/h | 25148m | 4.5m/s | -50.3°C | 3.8% | 0hPa | 2.5V | 00:00:00 | 02:05:26 | 00:00:00 | |
| OE5DRO-10 | 2026-09-02 00:39:06 | 45.60061 | 9.68955 | 337° | 16km/h | 25132m | 4.6m/s | -50.3°C | 3.8% | 0hPa | 2.6V | 00:00:00 | 00:00:00 | 00:00:00 | |
| IW2NTF | 2026-09-02 00:39:05 | 45.60043 | 9.68968 | 327° | 20km/h | 25104m | 6.1m/s | -50.4°C | 3.8% | 0hPa | 2.6V | 08:30:00 | 02:05:18 | 00:00:00 | |
| DO3MHA-11 | 2026-09-02 00:39:03 | 45.60051 | 9.68962 | 336° | 18km/h | 25116m | 4.9m/s | -50.3°C | 3.8% | 0hPa | 2.6V | 00:00:00 | 02:05:20 | 00:00:00 | |
| DO3MHA-11 | 2026-09-02 00:38:53 | 45.60008 | 9.68980 | 337° | 18km/h | 25062m | 5.1m/s | -50.4°C | 3.8% | 0hPa | 2.6V | 00:00:00 | 02:05:10 | 00:00:00 | |
| IW2NTF | 2026-09-02 00:38:52 | 45.60001 | 9.68987 | 314° | 16km/h | 25052m | 5.2m/s | -50.4°C | 3.8% | 0hPa | 2.6V | 08:30:00 | 02:05:08 | 00:00:00 | |
| DB0UT-7 | 2026-09-02 00:38:52 | 45.60004 | 9.68983 | 323° | 15km/h | 25058m | 4.7m/s | -50.4°C | 3.8% | 0hPa | 2.5V | 00:00:00 | 02:05:09 | 00:00:00 | |
| RDZBGO | 2026-09-02 00:38:48 | 45.59995 | 9.68996 | 305° | 15km/h | 25042m | 5.2m/s | -50.4°C | 1.3% | 0hPa | 2.6V | 00:00:00 | 00:00:00 | 00:00:00 | |
| OE5DRO-10 | 2026-09-02 00:38:47 | 45.59991 | 9.69006 | 303° | 16km/h | 25031m | 5.9m/s | -50.4°C | 3.8% | 0hPa | 2.6V | 00:00:00 | 00:00:00 | 00:00:00 | |
| IW2NTF | 2026-09-02 00:38:45 | 45.59968 | 9.69029 | 1° | 16km/h | 25000m | 4.5m/s | -50.4°C | 3.8% | 0hPa | 2.6V | 08:30:00 | 02:04:58 | 00:00:00 | |
| DO3MHA-11 | 2026-09-02 00:38:43 | 45.59977 | 9.69027 | 338° | 15km/h | 25011m | 5.7m/s | -50.4°C | 3.8% | 0hPa | 2.5V | 00:00:00 | 02:05:00 | 08:30:00 | |
| NBG1-10 | 2026-09-02 00:38:36 | 45.59952 | 9.69039 | 294° | 16km/h | 24977m | 5.4m/s | -50.5°C | 3.8% | 0hPa | 2.6V | 00:00:00 | 02:04:53 | 00:00:00 | |
| DO3MHA-11 | 2026-09-02 00:38:33 | 45.59951 | 9.69052 | 274° | 13km/h | 24962m | 4.7m/s | -50.6°C | 3.8% | 0hPa | 2.6V | 00:00:00 | 02:04:50 | 00:00:00 | |
| IW2NTF | 2026-09-02 00:38:32 | 45.59947 | 9.69070 | 296° | 18km/h | 24947m | 4.2m/s | -50.7°C | 3.9% | 0hPa | 2.6V | 08:30:00 | 02:04:47 | 00:00:00 | |
| OE5DRO-10 | 2026-09-02 00:38:28 | 45.59943 | 9.69080 | 303° | 15km/h | 24938m | 5.7m/s | -50.6°C | 3.9% | 0hPa | 2.5V | 00:00:00 | 00:00:00 | 00:00:00 | |
| IW2NTF | 2026-09-02 00:38:25 | 45.59936 | 9.69106 | 255° | 13km/h | 24898m | 5m/s | -50.4°C | 3.8% | 0hPa | 2.5V | 08:30:00 | 02:04:37 | 00:00:00 | |
| DO3MHA-11 | 2026-09-02 00:38:23 | 45.59937 | 9.69094 | 297° | 15km/h | 24913m | 4.3m/s | -50.5°C | 3.9% | 0hPa | 2.6V | 00:00:00 | 02:04:40 | 00:00:00 | |
| DB0UT-7 | 2026-09-02 00:38:22 | 45.59936 | 9.69097 | 286° | 16km/h | 24909m | 4.4m/s | -50.4°C | 3.8% | 0hPa | 2.6V | 00:00:00 | 00:00:00 | 00:00:00 | |
| DO3MHA-11 | 2026-09-02 00:38:13 | 45.59942 | 9.69147 | 248° | 16km/h | 24864m | 4.9m/s | -50.2°C | 3.7% | 0hPa | 2.6V | 00:00:00 | 02:04:30 | 00:00:00 | |
| IW2NTF | 2026-09-02 00:38:12 | 45.59947 | 9.69163 | 249° | 16km/h | 24849m | 5m/s | -50.5°C | 3.8% | 0hPa | 2.5V | 08:30:00 | 02:04:27 | 00:00:00 | |
| BAUMI2-15 | 2026-09-02 00:38:10 | 45.59947 | 9.69163 | 250° | 16km/h | 24849m | 5.0m/s | 0°C | 0% | 0hPa | 2.6V | 00:00:00 | 02:04:27 | 00:00:00 | |
| OE5DRO-10 | 2026-09-02 00:38:09 | 45.59949 | 9.69168 | 247° | 18km/h | 24844m | 4.3m/s | -50.6°C | 3.9% | 0hPa | 2.6V | 00:00:00 | 00:00:00 | 08:30:00 | |
| RDZBGO | 2026-09-02 00:38:07 | 45.59951 | 9.69174 | 241° | 16km/h | 24840m | 4.1m/s | -50.6°C | 1.4% | 0hPa | 2.5V | 00:00:00 | 00:00:00 | 00:00:00 | |
| IW2NTF | 2026-09-02 00:38:06 | 45.59970 | 9.69216 | 241° | 18km/h | 24801m | 5.4m/s | -50.6°C | 3.9% | 0hPa | 2.5V | 08:30:00 | 02:04:17 | 00:00:00 | |
| BAUMI2-15 | 2026-09-02 00:38:05 | 45.59959 | 9.69187 | 224° | 18km/h | 24825m | 4.0m/s | 0°C | 0% | 0hPa | 2.5V | 00:00:00 | 02:04:22 | 00:00:00 | |
| DO3MHA-11 | 2026-09-02 00:38:03 | 45.59964 | 9.69197 | 243° | 18km/h | 24816m | 5.3m/s | -50.6°C | 3.8% | 0hPa | 2.5V | 00:00:00 | 02:04:20 | 00:00:00 | |
| BAUMI2-15 | 2026-09-02 00:38:00 | 45.59970 | 9.69216 | 242° | 18km/h | 24802m | 5.4m/s | 0°C | 0% | 0hPa | 2.5V | 00:00:00 | 02:04:17 | 00:00:00 | |
| BAUMI2-15 | 2026-09-02 00:37:55 | 45.59986 | 9.69236 | 218° | 18km/h | 24776m | 4.8m/s | 0°C | 0% | 0hPa | 2.5V | 00:00:00 | 02:04:12 | 00:00:00 | |
| DO3MHA-11 | 2026-09-02 00:37:53 | 45.59993 | 9.69242 | 204° | 18km/h | 24767m | 4.9m/s | -50.5°C | 3.8% | 0hPa | 2.5V | 00:00:00 | 02:04:10 | 00:00:00 | |
| IW2NTF | 2026-09-02 00:37:52 | 45.60008 | 9.69249 | 200° | 20km/h | 24752m | 4.4m/s | -50.5°C | 3.8% | 0hPa | 2.5V | 08:30:00 | 02:04:07 | 00:00:00 | |
| DB0UT-7 | 2026-09-02 00:37:52 | 45.59998 | 9.69244 | 197° | 15km/h | 24762m | 5.4m/s | -50.5°C | 3.8% | 0hPa | 2.5V | 00:00:00 | 02:04:09 | 00:00:00 | |
| OE5DRO-10 | 2026-09-02 00:37:50 | 45.60008 | 9.69249 | 201° | 16km/h | 24753m | 4.3m/s | -50.5°C | 3.8% | 0hPa | 2.5V | 00:00:00 | 00:00:00 | 00:00:00 | |
| RDZBGO | 2026-09-02 00:37:47 | 45.60017 | 9.69256 | 223° | 18km/h | 24743m | 4.5m/s | -50.5°C | 1.3% | 0hPa | 2.5V | 00:00:00 | 00:00:00 | 00:00:00 | |
| DO3MHA-11 | 2026-09-02 00:37:43 | 45.60033 | 9.69274 | 202° | 15km/h | 24720m | 4.3m/s | -50.5°C | 3.8% | 0hPa | 2.5V | 00:00:00 | 02:04:00 | 00:00:00 | |
| IW2NTF | 2026-09-02 00:37:41 | 45.60040 | 9.69278 | 191° | 9km/h | 24705m | 3.5m/s | -50.7°C | 3.8% | 0hPa | 2.5V | 08:30:00 | 02:03:57 | 00:00:00 | |
| DO3MHA-11 | 2026-09-02 00:37:33 | 45.60067 | 9.69289 | 213° | 13km/h | 24673m | 3.7m/s | -50.8°C | 3.8% | 0hPa | 2.6V | 00:00:00 | 02:03:50 | 00:00:00 | |
| IW2NTF | 2026-09-02 00:37:31 | 45.60078 | 9.69294 | 175° | 15km/h | 24658m | 4.6m/s | -51°C | 3.9% | 0hPa | 2.6V | 08:30:00 | 02:03:47 | 00:00:00 | |
| OE5DRO-10 | 2026-09-02 00:37:31 | 45.60074 | 9.69293 | 191° | 13km/h | 24664m | 5.1m/s | -50.9°C | 3.9% | 0hPa | 2.6V | 00:00:00 | 00:00:00 | 00:00:00 | |
| NBG1-10 | 2026-09-02 00:37:30 | 45.60078 | 9.69294 | 176° | 13km/h | 24659m | 4.5m/s | -50.9°C | 3.9% | 0hPa | 2.6V | 00:00:00 | 02:03:47 | 08:30:00 | |
| RDZBGO | 2026-09-02 00:37:26 | 45.60088 | 9.69290 | 166° | 11km/h | 24645m | 4.7m/s | -51.0°C | 1.4% | 0hPa | 2.5V | 00:00:00 | 00:00:00 | 00:00:00 | |
| DO3MHA-11 | 2026-09-02 00:37:23 | 45.60099 | 9.69284 | 143° | 13km/h | 24627m | 4.9m/s | -50.9°C | 3.9% | 0hPa | 2.5V | 00:00:00 | 02:03:40 | 00:00:00 | |
| DB0UT-7 | 2026-09-02 00:37:22 | 45.60101 | 9.69280 | 139° | 13km/h | 24622m | 4.1m/s | -50.9°C | 4.0% | 0hPa | 2.5V | 00:00:00 | 00:00:00 | 08:30:00 | |
| IW2NTF | 2026-09-02 00:37:21 | 45.60106 | 9.69275 | 148° | 9km/h | 24614m | 4.2m/s | -50.9°C | 3.9% | 0hPa | 2.5V | 08:30:00 | 02:03:37 | 00:00:00 | |
| DO3MHA-11 | 2026-09-02 00:37:13 | 45.60128 | 9.69278 | 142° | 15km/h | 24585m | 4.7m/s | -50.7°C | 3.9% | 0hPa | 2.5V | 00:00:00 | 02:03:30 | 08:30:00 | |
| OE5DRO-10 | 2026-09-02 00:37:12 | 45.60132 | 9.69272 | 124° | 13km/h | 24580m | 5.1m/s | -50.7°C | 3.9% | 0hPa | 2.5V | 00:00:00 | 00:00:00 | 00:00:00 | |
| IW2NTF | 2026-09-02 00:37:10 | 45.60135 | 9.69257 | 97° | 20km/h | 24570m | 4.3m/s | -50.7°C | 3.9% | 0hPa | 2.5V | 08:30:00 | 02:03:27 | 00:00:00 | |
| RDZBGO | 2026-09-02 00:37:05 | 45.60137 | 9.69240 | 148° | 5km/h | 24552m | 4.3m/s | -50.8°C | 1.3% | 0hPa | 2.6V | 00:00:00 | 00:00:00 | 00:00:00 | |
| IW2NTF | 2026-09-02 00:37:04 | 45.60142 | 9.69246 | 182° | 5km/h | 24526m | 3.8m/s | -50.8°C | 3.8% | 0hPa | 2.6V | 08:30:00 | 02:03:17 | 00:00:00 | |
| DO3MHA-11 | 2026-09-02 00:37:03 | 45.60140 | 9.69242 | 247° | 11km/h | 24539m | 4.9m/s | -50.7°C | 3.8% | 0hPa | 2.5V | 00:00:00 | 02:03:20 | 00:00:00 | |
| NBG1-10 | 2026-09-02 00:36:57 | 45.60149 | 9.69241 | 136° | 11km/h | 24512m | 4.1m/s | -50.6°C | 3.8% | 0hPa | 2.5V | 00:00:00 | 02:03:14 | 00:00:00 | |
| IW2NTF | 2026-09-02 00:36:54 | 45.60155 | 9.69203 | 119° | 11km/h | 24480m | 5m/s | -50.5°C | 3.7% | 0hPa | 2.5V | 08:30:00 | 02:03:07 | 00:00:00 | |
| DO3MHA-11 | 2026-09-02 00:36:53 | 45.60154 | 9.69218 | 87° | 9km/h | 24494m | 3.6m/s | -50.5°C | 3.8% | 0hPa | 2.6V | 00:00:00 | 02:03:10 | 00:00:00 | |
| DB0UT-7 | 2026-09-02 00:36:52 | 45.60154 | 9.69212 | 89° | 11km/h | 24490m | 4.0m/s | -50.5°C | 3.8% | 0hPa | 2.6V | 00:00:00 | 02:03:09 | 00:00:00 | |
| DO3MHA-11 | 2026-09-02 00:36:43 | 45.60160 | 9.69192 | 73° | 15km/h | 24448m | 5.3m/s | -50.8°C | 3.8% | 0hPa | 2.6V | 00:00:00 | 02:03:00 | 00:00:00 | |
| IW2NTF | 2026-09-02 00:36:41 | 45.60158 | 9.69180 | 74° | 16km/h | 24433m | 5.7m/s | -51°C | 3.8% | 0hPa | 2.5V | 08:30:00 | 02:02:57 | 00:00:00 | |
| IW2NTF | 2026-09-02 00:36:36 | 45.60159 | 9.69141 | 14° | 7km/h | 24387m | 5m/s | -51.7°C | 4% | 0hPa | 2.5V | 08:30:00 | 02:02:47 | 00:00:00 | |
| OE5DRO-10 | 2026-09-02 00:36:34 | 45.60158 | 9.69148 | 131° | 13km/h | 24407m | 3.5m/s | -51.4°C | 3.9% | 0hPa | 2.6V | 00:00:00 | 00:00:00 | 00:00:00 | |
| DO3MHA-11 | 2026-09-02 00:36:33 | 45.60160 | 9.69145 | 126° | 11km/h | 24402m | 5.0m/s | -51.5°C | 3.9% | 0hPa | 2.6V | 00:00:00 | 02:02:50 | 00:00:00 | |
| NBG1-10 | 2026-09-02 00:36:24 | 45.60141 | 9.69129 | 40° | 15km/h | 24358m | 4.0m/s | -51.5°C | 4.0% | 0hPa | 2.6V | 00:00:00 | 02:02:41 | 00:00:00 | |
| DO3MHA-11 | 2026-09-02 00:36:23 | 45.60138 | 9.69124 | 51° | 15km/h | 24354m | 4.0m/s | -51.5°C | 4.0% | 0hPa | 2.6V | 00:00:00 | 02:02:40 | 00:00:00 | |
| DB0UT-7 | 2026-09-02 00:36:22 | 45.60135 | 9.69119 | 67° | 15km/h | 24349m | 5.6m/s | -51.5°C | 4.0% | 0hPa | 2.6V | 00:00:00 | 00:00:00 | 00:00:00 | |
| IW2NTF | 2026-09-02 00:36:21 | 45.60135 | 9.69109 | 99° | 15km/h | 24339m | 4.2m/s | -51.5°C | 3.9% | 0hPa | 2.6V | 08:30:00 | 02:02:37 | 00:00:00 | |
| RDZBGO | 2026-09-02 00:36:16 | 45.60134 | 9.69093 | 71° | 15km/h | 24325m | 4.1m/s | -51.5°C | 1.4% | 0hPa | 2.5V | 00:00:00 | 00:00:00 | 00:00:00 | |
| IW2NTF | 2026-09-02 00:36:15 | 45.60113 | 9.69073 | 25° | 18km/h | 24291m | 3.6m/s | -51.7°C | 4% | 0hPa | 2.5V | 08:30:00 | 02:02:27 | 00:00:00 | |
| OE5DRO-10 | 2026-09-02 00:36:15 | 45.60131 | 9.69085 | 46° | 15km/h | 24316m | 5.6m/s | -51.5°C | 4.0% | 0hPa | 2.5V | 00:00:00 | 00:00:00 | 00:00:00 | |
| DO3MHA-11 | 2026-09-02 00:36:13 | 45.60126 | 9.69080 | 25° | 13km/h | 24306m | 4.3m/s | -51.5°C | 4.0% | 0hPa | 2.6V | 00:00:00 | 02:02:30 | 00:00:00 | |
| IW2NTF | 2026-09-02 00:36:04 | 45.60106 | 9.69034 | 36° | 9km/h | 24243m | 4.7m/s | -51.5°C | 4% | 0hPa | 2.5V | 08:30:00 | 02:02:17 | 00:00:00 | |
| DO3MHA-11 | 2026-09-02 00:36:00 | 45.60106 | 9.69034 | 37° | 13km/h | 24244m | 4.6m/s | -51.5°C | 4.0% | 0hPa | 2.5V | 00:00:00 | 02:02:17 | 00:00:00 | |
| OE5DRO-10 | 2026-09-02 00:35:56 | 45.60091 | 9.69027 | 18° | 9km/h | 24225m | 4.0m/s | -51.5°C | 3.9% | 0hPa | 2.5V | 00:00:00 | 00:00:00 | 00:00:00 | |
| IW2NTF | 2026-09-02 00:35:55 | 45.60081 | 9.69019 | 148° | 9km/h | 24197m | 5.3m/s | -51.5°C | 3.9% | 0hPa | 2.5V | 08:30:00 | 02:02:07 | 00:00:00 | |
| RDZBGO | 2026-09-02 00:35:54 | 45.60086 | 9.69025 | 19° | 20km/h | 24221m | 3.9m/s | -51.5°C | 1.4% | 0hPa | 2.5V | 00:00:00 | 00:00:00 | 00:00:00 | |
| DB0UT-7 | 2026-09-02 00:35:52 | 45.60079 | 9.69021 | 118° | 7km/h | 24207m | 4.6m/s | -51.5°C | 4.0% | 0hPa | 2.5V | 00:00:00 | 02:02:09 | 00:00:00 | |
| NBG1-10 | 2026-09-02 00:35:51 | 45.60080 | 9.69020 | 157° | 9km/h | 24202m | 4.3m/s | -51.5°C | 3.9% | 0hPa | 2.5V | 00:00:00 | 02:02:08 | 00:00:00 | |
| DO3MHA-11 | 2026-09-02 00:35:50 | 45.60081 | 9.69019 | 149° | 7km/h | 24197m | 5.2m/s | -51.5°C | 3.9% | 0hPa | 2.6V | 00:00:00 | 02:02:07 | 00:00:00 | |
| IW2NTF | 2026-09-02 00:35:44 | 45.60072 | 9.69012 | 37° | 9km/h | 24150m | 4.8m/s | -51.6°C | 3.9% | 0hPa | 2.6V | 08:30:00 | 02:01:57 | 00:00:00 | |
| DO3MHA-11 | 2026-09-02 00:35:40 | 45.60071 | 9.69012 | 38° | 9km/h | 24150m | 4.8m/s | -51.5°C | 3.9% | 0hPa | 2.6V | 00:00:00 | 02:01:57 | 08:30:00 | |
| OE5DRO-10 | 2026-09-02 00:35:37 | 45.60071 | 9.69005 | 145° | 9km/h | 24137m | 5.8m/s | -51.6°C | 3.9% | 0hPa | 2.5V | 00:00:00 | 00:00:00 | 00:00:00 | |
| RDZBGO | 2026-09-02 00:35:34 | 45.60077 | 9.69004 | 185° | 15km/h | 24126m | 4.2m/s | -51.7°C | 1.4% | 0hPa | 2.5V | 00:00:00 | 00:00:00 | 00:00:00 | |
| IW2NTF | 2026-09-02 00:35:32 | 45.60088 | 9.69003 | 7° | 2km/h | 24102m | 4.3m/s | -51.9°C | 3.9% | 0hPa | 2.5V | 08:30:00 | 02:01:47 | 00:00:00 | |
| DO3MHA-11 | 2026-09-02 00:35:30 | 45.60088 | 9.69003 | 8° | 9km/h | 24103m | 4.3m/s | -51.8°C | 3.9% | 0hPa | 2.5V | 00:00:00 | 02:01:47 | 00:00:00 | |
| IW2NTF | 2026-09-02 00:35:25 | 45.60104 | 9.69003 | 167° | 13km/h | 24055m | 5.2m/s | -52.2°C | 4.1% | 0hPa | 2.5V | 08:30:00 | 02:01:37 | 00:00:00 | |
| DB0UT-7 | 2026-09-02 00:35:22 | 45.60098 | 9.69007 | 152° | 11km/h | 24065m | 4.0m/s | -52.1°C | 4.0% | 0hPa | 2.5V | 00:00:00 | 00:00:00 | 00:00:00 | |
| DO3MHA-11 | 2026-09-02 00:35:20 | 45.60104 | 9.69003 | 168° | 11km/h | 24055m | 5.2m/s | -52.2°C | 4.1% | 0hPa | 2.5V | 00:00:00 | 02:01:37 | 00:00:00 | |
| OE5DRO-10 | 2026-09-02 00:35:18 | 45.60110 | 9.69003 | 190° | 11km/h | 24046m | 4.3m/s | -52.3°C | 4.1% | 0hPa | 2.5V | 00:00:00 | 00:00:00 | 08:30:00 | |
| IW2NTF | 2026-09-02 00:35:14 | 45.60130 | 9.68993 | 118° | 13km/h | 24007m | 5.4m/s | -52.6°C | 4.1% | 0hPa | 2.5V | 08:30:00 | 02:01:27 | 00:00:00 | |
| RDZBGO | 2026-09-02 00:35:12 | 45.60125 | 9.69000 | 155° | 9km/h | 24022m | 5.4m/s | -52.5°C | 1.5% | 0hPa | 2.5V | 00:00:00 | 00:00:00 | 00:00:00 | |
| DO3MHA-11 | 2026-09-02 00:35:10 | 45.60130 | 9.68993 | 119° | 15km/h | 24007m | 5.4m/s | -52.5°C | 4.1% | 0hPa | 2.5V | 00:00:00 | 02:01:27 | 00:00:00 | |
| IW2NTF | 2026-09-02 00:35:05 | 45.60138 | 9.68957 | 149° | 7km/h | 23958m | 4.2m/s | -52.7°C | 4.2% | 0hPa | 2.6V | 08:30:00 | 02:01:17 | 00:00:00 | |
| DO3MHA-11 | 2026-09-02 00:35:00 | 45.60138 | 9.68957 | 150° | 15km/h | 23958m | 4.2m/s | -52.7°C | 4.2% | 0hPa | 2.5V | 00:00:00 | 02:01:17 | 00:00:00 | |
| OE5DRO-10 | 2026-09-02 00:34:59 | 45.60140 | 9.68956 | 164° | 7km/h | 23954m | 3.9m/s | -52.7°C | 4.3% | 0hPa | 2.5V | 00:00:00 | 00:00:00 | 00:00:00 | |
| IW2NTF | 2026-09-02 00:34:53 | 45.60155 | 9.68950 | 109° | 2km/h | 23909m | 5.6m/s | -52.8°C | 4.3% | 0hPa | 2.5V | 08:30:00 | 02:01:07 | 00:00:00 | |
| DB0UT-7 | 2026-09-02 00:34:52 | 45.60153 | 9.68953 | 131° | 5km/h | 23919m | 4.2m/s | -52.7°C | 4.3% | 0hPa | 2.5V | 00:00:00 | 02:01:09 | 00:00:00 | |
| RDZBGO | 2026-09-02 00:34:51 | 45.60153 | 9.68953 | 131° | 7km/h | 23919m | 4.3m/s | -52.8°C | 1.5% | 0hPa | 2.5V | 00:00:00 | 00:00:00 | 00:00:00 | |
| NBG1-10 | 2026-09-02 00:34:46 | 45.60157 | 9.68951 | 168° | 5km/h | 23884m | 4.6m/s | -52.6°C | 4.2% | 0hPa | 2.5V | 00:00:00 | 02:01:02 | 00:00:00 | |
| IW2NTF | 2026-09-02 00:34:42 | 45.60168 | 9.68955 | 199° | 7km/h | 23859m | 4.7m/s | -52.5°C | 4.2% | 0hPa | 2.5V | 08:30:00 | 02:00:57 | 00:00:00 | |
| IW2NTF | 2026-09-02 00:34:31 | 45.60170 | 9.68951 | 116° | 5km/h | 23811m | 4.4m/s | -52.2°C | 4.1% | 0hPa | 2.5V | 08:30:00 | 02:00:47 | 00:00:00 | |
| RDZBGO | 2026-09-02 00:34:29 | 45.60169 | 9.68951 | 117° | 5km/h | 23811m | 4.4m/s | -52.2°C | 1.4% | 0hPa | 2.6V | 00:00:00 | 00:00:00 | 00:00:00 | |
| IW2NTF | 2026-09-02 00:34:24 | 45.60193 | 9.68948 | 185° | 7km/h | 23762m | 4.6m/s | -52.1°C | 4.1% | 0hPa | 2.6V | 08:30:00 | 02:00:37 | 00:00:00 | |
| DB0UT-7 | 2026-09-02 00:34:22 | 45.60189 | 9.68947 | 182° | 15km/h | 23772m | 5.6m/s | -52.1°C | 4.0% | 0hPa | 2.5V | 00:00:00 | 00:00:00 | 00:00:00 | |
| OE5DRO-10 | 2026-09-02 00:34:21 | 45.60191 | 9.68948 | 191° | 13km/h | 23766m | 4.4m/s | -52.1°C | 4.0% | 0hPa | 2.6V | 00:00:00 | 00:00:00 | 00:00:00 | |
| IW2NTF | 2026-09-02 00:34:15 | 45.60215 | 9.68930 | 157° | 18km/h | 23713m | 4.3m/s | -52.2°C | 4.1% | 0hPa | 2.5V | 08:30:00 | 02:00:27 | 00:00:00 | |
| NBG1-10 | 2026-09-02 00:34:12 | 45.60208 | 9.68935 | 155° | 18km/h | 23723m | 5.0m/s | -52.1°C | 4.0% | 0hPa | 2.6V | 00:00:00 | 02:00:29 | 00:00:00 | |
| RDZBGO | 2026-09-02 00:34:08 | 45.60220 | 9.68928 | 162° | 18km/h | 23709m | 4.3m/s | -52.2°C | 1.4% | 0hPa | 2.5V | 00:00:00 | 00:00:00 | 00:00:00 | |
| IW2NTF | 2026-09-02 00:34:03 | 45.60252 | 9.68900 | 123° | 20km/h | 23665m | 5.5m/s | -52.4°C | 4.1% | 0hPa | 2.5V | 08:30:00 | 02:00:17 | 00:00:00 | |
| OE5DRO-10 | 2026-09-02 00:34:02 | 45.60245 | 9.68912 | 131° | 18km/h | 23675m | 4.5m/s | -52.3°C | 4.2% | 0hPa | 2.5V | 00:00:00 | 00:00:00 | 00:00:00 | |
| IW2NTF | 2026-09-02 00:33:53 | 45.60284 | 9.68873 | 150° | 13km/h | 23618m | 4.8m/s | -52.4°C | 4.1% | 0hPa | 2.5V | 08:30:00 | 02:00:07 | 00:00:00 | |
| DB0UT-7 | 2026-09-02 00:33:52 | 45.60279 | 9.68874 | 188° | 16km/h | 23627m | 4.5m/s | -52.4°C | 4.1% | 0hPa | 2.6V | 00:00:00 | 02:00:09 | 00:00:00 | |
| RDZBGO | 2026-09-02 00:33:48 | 45.60287 | 9.68870 | 132° | 16km/h | 23613m | 5.4m/s | -52.4°C | 1.4% | 0hPa | 2.6V | 00:00:00 | 00:00:00 | 00:00:00 | |
| OE5DRO-10 | 2026-09-02 00:33:43 | 45.60301 | 9.68829 | 118° | 16km/h | 23585m | 4.3m/s | -52.5°C | 4.1% | 0hPa | 2.6V | 00:00:00 | 00:00:00 | 00:00:00 | |
| IW2NTF | 2026-09-02 00:33:40 | 45.60309 | 9.68812 | 131° | 18km/h | 23570m | 4.2m/s | -52.5°C | 4% | 0hPa | 2.6V | 08:30:00 | 01:59:57 | 00:00:00 | |
| NBG1-10 | 2026-09-02 00:33:39 | 45.60312 | 9.68807 | 133° | 18km/h | 23566m | 4.2m/s | -52.5°C | 4.1% | 0hPa | 2.5V | 00:00:00 | 01:59:56 | 00:00:00 | |
| IW2NTF | 2026-09-02 00:33:35 | 45.60330 | 9.68768 | 125° | 20km/h | 23523m | 5.2m/s | -52.8°C | 4.1% | 0hPa | 2.5V | 08:30:00 | 01:59:47 | 00:00:00 | |
| BAUMI2-15 | 2026-09-02 00:33:34 | 45.60319 | 9.68792 | 116° | 18km/h | 23542m | 5.1m/s | 0°C | 0% | 0hPa | 2.5V | 00:00:00 | 01:59:51 | 00:00:00 | |
| BAUMI2-15 | 2026-09-02 00:33:26 | 45.60341 | 9.68745 | 118° | 16km/h | 23504m | 4.7m/s | 0°C | 0% | 0hPa | 2.5V | 00:00:00 | 01:59:43 | 00:00:00 | |
| DO3MHA-11 | 2026-09-02 00:33:25 | 45.60343 | 9.68739 | 112° | 18km/h | 23500m | 4.0m/s | -53.1°C | 4.2% | 0hPa | 2.5V | 00:00:00 | 01:59:42 | 00:00:00 | |
| IW2NTF | 2026-09-02 00:33:24 | 45.60343 | 9.68713 | 86° | 18km/h | 23475m | 5.6m/s | -53.2°C | 4.2% | 0hPa | 2.5V | 08:30:00 | 01:59:37 | 00:00:00 | |
| OE5DRO-10 | 2026-09-02 00:33:24 | 45.60344 | 9.68733 | 103° | 18km/h | 23495m | 5.1m/s | -53.2°C | 4.2% | 0hPa | 2.6V | 00:00:00 | 00:00:00 | 00:00:00 | |
| DB0UT-7 | 2026-09-02 00:33:22 | 45.60344 | 9.68723 | 79° | 16km/h | 23485m | 4.2m/s | -53.2°C | 4.3% | 0hPa | 2.6V | 00:00:00 | 00:00:00 | 00:00:00 | |
| BAUMI2-15 | 2026-09-02 00:33:21 | 45.60344 | 9.68718 | 81° | 15km/h | 23481m | 4.4m/s | 0°C | 0% | 0hPa | 2.6V | 00:00:00 | 01:59:38 | 00:00:00 | |
| DO3MHA-11 | 2026-09-02 00:33:15 | 45.60346 | 9.68673 | 95° | 18km/h | 23451m | 4.5m/s | -53.2°C | 4.2% | 0hPa | 2.6V | 00:00:00 | 01:59:32 | 00:00:00 | |
| IW2NTF | 2026-09-02 00:33:14 | 45.60345 | 9.68636 | 70° | 18km/h | 23427m | 5.7m/s | -53.2°C | 4.2% | 0hPa | 2.5V | 08:30:00 | 01:59:27 | 00:00:00 | |
| BAUMI2-15 | 2026-09-02 00:33:14 | 45.60346 | 9.68666 | 94° | 22km/h | 23447m | 4.5m/s | 0°C | 0% | 0hPa | 2.5V | 00:00:00 | 01:59:31 | 00:00:00 | |
| BAUMI2-15 | 2026-09-02 00:33:09 | 45.60344 | 9.68631 | 56° | 15km/h | 23422m | 4.8m/s | 0°C | 0% | 0hPa | 2.5V | 00:00:00 | 01:59:26 | 08:30:00 | |
| NBG1-10 | 2026-09-02 00:33:06 | 45.60337 | 9.68618 | 64° | 9km/h | 23408m | 5.1m/s | -53.2°C | 4.2% | 0hPa | 2.5V | 00:00:00 | 01:59:23 | 00:00:00 | |
| DO3MHA-11 | 2026-09-02 00:33:05 | 45.60336 | 9.68613 | 78° | 13km/h | 23404m | 4.1m/s | -53.3°C | 4.2% | 0hPa | 2.5V | 00:00:00 | 01:59:22 | 00:00:00 | |
| BAUMI2-15 | 2026-09-02 00:33:04 | 45.60335 | 9.68608 | 84° | 11km/h | 23400m | 3.9m/s | 0°C | 0% | 0hPa | 2.5V | 00:00:00 | 01:59:21 | 00:00:00 | |
| IW2NTF | 2026-09-02 00:33:03 | 45.60334 | 9.68583 | 95° | 11km/h | 23370m | 5.3m/s | -53.6°C | 4.3% | 0hPa | 2.5V | 08:30:00 | 01:59:15 | 00:00:00 | |
| BAUMI2-15 | 2026-09-02 00:32:58 | 45.60334 | 9.68583 | 96° | 11km/h | 23371m | 5.3m/s | 0°C | 0% | 0hPa | 2.5V | 00:00:00 | 01:59:15 | 00:00:00 | |
| DO3MHA-11 | 2026-09-02 00:32:55 | 45.60333 | 9.68572 | 49° | 7km/h | 23357m | 5.6m/s | -53.6°C | 4.3% | 0hPa | 2.5V | 00:00:00 | 01:59:12 | 00:00:00 | |
| IW2NTF | 2026-09-02 00:32:53 | 45.60315 | 9.68559 | 46° | 5km/h | 23325m | 5.3m/s | -53.7°C | 4.3% | 0hPa | 2.5V | 08:30:00 | 01:59:05 | 00:00:00 | |
| BAUMI2-15 | 2026-09-02 00:32:53 | 45.60328 | 9.68569 | 13° | 13km/h | 23347m | 4.3m/s | 0°C | 0% | 0hPa | 2.6V | 00:00:00 | 01:59:10 | 00:00:00 | |
| DB0UT-7 | 2026-09-02 00:32:52 | 45.60324 | 9.68568 | 17° | 7km/h | 23342m | 5.0m/s | -53.6°C | 4.3% | 0hPa | 2.6V | 00:00:00 | 01:59:09 | 08:30:00 | |
| BAUMI2-15 | 2026-09-02 00:32:48 | 45.60315 | 9.68559 | 47° | 4km/h | 23325m | 5.3m/s | 0°C | 0% | 0hPa | 2.5V | 00:00:00 | 01:59:05 | 00:00:00 | |
| OE5DRO-10 | 2026-09-02 00:32:46 | 45.60314 | 9.68557 | 117° | 5km/h | 23315m | 4.0m/s | -53.7°C | 4.3% | 0hPa | 2.5V | 00:00:00 | 00:00:00 | 00:00:00 | |
| RDZBGO | 2026-09-02 00:32:44 | 45.60314 | 9.68556 | 126° | 4km/h | 23310m | 5.3m/s | -53.8°C | 1.5% | 0hPa | 2.5V | 00:00:00 | 00:00:00 | 00:00:00 | |
| IW2NTF | 2026-09-02 00:32:43 | 45.60307 | 9.68558 | 333° | 11km/h | 23277m | 5.6m/s | -53.9°C | 4.4% | 0hPa | 2.5V | 08:30:00 | 01:58:55 | 00:00:00 | |
| BAUMI2-15 | 2026-09-02 00:32:43 | 45.60315 | 9.68553 | 85° | 7km/h | 23301m | 3.9m/s | 0°C | 0% | 0hPa | 2.5V | 00:00:00 | 01:59:00 | 00:00:00 | |
| DO3MHA-11 | 2026-09-02 00:32:42 | 45.60315 | 9.68552 | 16° | 9km/h | 23297m | 4.8m/s | -53.9°C | 4.4% | 0hPa | 2.5V | 00:00:00 | 01:58:59 | 08:30:00 | |
| BAUMI2-15 | 2026-09-02 00:32:38 | 45.60307 | 9.68558 | 334° | 5km/h | 23277m | 5.5m/s | 0°C | 0% | 0hPa | 2.6V | 00:00:00 | 01:58:55 | 00:00:00 | |
| IW2NTF | 2026-09-02 00:32:33 | 45.60298 | 9.68565 | 9° | 7km/h | 23229m | 4.4m/s | -53.8°C | 4.4% | 0hPa | 2.6V | 08:30:00 | 01:58:45 | 00:00:00 | |
| BAUMI2-15 | 2026-09-02 00:32:33 | 45.60301 | 9.68561 | 295° | 4km/h | 23253m | 4.6m/s | 0°C | 0% | 0hPa | 2.6V | 00:00:00 | 01:58:50 | 00:00:00 | |
| BAUMI2-15 | 2026-09-02 00:32:28 | 45.60297 | 9.68565 | 10° | 7km/h | 23230m | 4.4m/s | 0°C | 0% | 0hPa | 2.6V | 00:00:00 | 01:58:45 | 00:00:00 | |
| OE5DRO-10 | 2026-09-02 00:32:27 | 45.60295 | 9.68564 | 360° | 7km/h | 23225m | 5.6m/s | -53.8°C | 4.4% | 0hPa | 2.6V | 00:00:00 | 00:00:00 | 08:30:00 | |
| IW2NTF | 2026-09-02 00:32:23 | 45.60280 | 9.68576 | 251° | 7km/h | 23182m | 4.3m/s | -53.8°C | 4.4% | 0hPa | 2.5V | 08:30:00 | 01:58:35 | 00:00:00 | |
| BAUMI2-15 | 2026-09-02 00:32:23 | 45.60283 | 9.68566 | 357° | 7km/h | 23206m | 4.7m/s | 0°C | 0% | 0hPa | 2.6V | 00:00:00 | 01:58:40 | 00:00:00 | |
| DB0UT-7 | 2026-09-02 00:32:22 | 45.60282 | 9.68566 | 342° | 7km/h | 23201m | 4.3m/s | -53.8°C | 4.4% | 0hPa | 2.6V | 00:00:00 | 00:00:00 | 00:00:00 | |
| OE5DRO-10 | 2026-09-02 00:32:08 | 45.60273 | 9.68577 | 18° | 7km/h | 23134m | 3.5m/s | -53.7°C | 4.4% | 0hPa | 2.6V | 00:00:00 | 00:00:00 | 00:00:00 | |
| IW2NTF | 2026-09-02 00:32:04 | 45.60266 | 9.68583 | 278° | 11km/h | 23115m | 4.6m/s | -53.7°C | 4.4% | 0hPa | 2.6V | 08:30:00 | 01:58:21 | 00:00:00 | |
| RDZBGO | 2026-09-02 00:32:02 | 45.60266 | 9.68586 | 265° | 9km/h | 23111m | 5.6m/s | -53.7°C | 1.6% | 0hPa | 2.5V | 00:00:00 | 00:00:00 | 00:00:00 | |
| NBG1-10 | 2026-09-02 00:32:00 | 45.60268 | 9.68591 | 222° | 7km/h | 23097m | 4.3m/s | -53.6°C | 4.4% | 0hPa | 2.5V | 00:00:00 | 01:58:17 | 00:00:00 | |
| IW2NTF | 2026-09-02 00:31:55 | 45.60263 | 9.68588 | 40° | 11km/h | 23066m | 4.3m/s | -53.6°C | 4.3% | 0hPa | 2.5V | 08:30:00 | 01:58:11 | 00:00:00 | |
| DB0UT-7 | 2026-09-02 00:31:52 | 45.60259 | 9.68586 | 353° | 7km/h | 23058m | 5.2m/s | -53.7°C | 4.3% | 0hPa | 2.5V | 00:00:00 | 01:58:09 | 00:00:00 | |
| OE5DRO-10 | 2026-09-02 00:31:49 | 45.60255 | 9.68595 | 276° | 9km/h | 23043m | 4.1m/s | -53.8°C | 4.3% | 0hPa | 2.5V | 00:00:00 | 00:00:00 | 00:00:00 | |
| IW2NTF | 2026-09-02 00:31:47 | 45.60259 | 9.68604 | 138° | 0km/h | 23018m | 5.5m/s | -54°C | 4.4% | 0hPa | 2.5V | 08:30:00 | 01:58:01 | 00:00:00 | |
| RDZBGO | 2026-09-02 00:31:41 | 45.60258 | 9.68603 | 18° | 7km/h | 23009m | 4.1m/s | -54.0°C | 1.6% | 0hPa | 2.5V | 00:00:00 | 00:00:00 | 00:00:00 | |
| IW2NTF | 2026-09-02 00:31:35 | 45.60241 | 9.68602 | 295° | 11km/h | 22970m | 4.5m/s | -54°C | 4.4% | 0hPa | 2.5V | 08:30:00 | 01:57:51 | 00:00:00 | |
| OE5DRO-10 | 2026-09-02 00:31:30 | 45.60242 | 9.68613 | 243° | 5km/h | 22952m | 4.3m/s | -54.0°C | 4.5% | 0hPa | 2.5V | 00:00:00 | 00:00:00 | 00:00:00 | |
| IW2NTF | 2026-09-02 00:31:27 | 45.60239 | 9.68621 | 282° | 2km/h | 22923m | 5.5m/s | -53.9°C | 4.4% | 0hPa | 2.6V | 08:30:00 | 01:57:41 | 00:00:00 | |
| NBG1-10 | 2026-09-02 00:31:27 | 45.60241 | 9.68617 | 313° | 5km/h | 22937m | 4.0m/s | -53.9°C | 4.4% | 0hPa | 2.5V | 00:00:00 | 01:57:44 | 00:00:00 | |
| DB0UT-7 | 2026-09-02 00:31:22 | 45.60239 | 9.68622 | 144° | 5km/h | 22913m | 4.2m/s | -53.8°C | 4.4% | 0hPa | 2.5V | 00:00:00 | 00:00:00 | 00:00:00 | |
| IW2NTF | 2026-09-02 00:31:15 | 45.60229 | 9.68630 | 265° | 5km/h | 22874m | 4.8m/s | -53.8°C | 4.3% | 0hPa | 2.5V | 08:30:00 | 01:57:31 | 00:00:00 | |
| OE5DRO-10 | 2026-09-02 00:31:11 | 45.60228 | 9.68637 | 299° | 5km/h | 22859m | 4.5m/s | -53.6°C | 4.3% | 0hPa | 2.5V | 00:00:00 | 00:00:00 | 00:00:00 | |
| IW2NTF | 2026-09-02 00:31:09 | 45.60224 | 9.68645 | 338° | 7km/h | 22824m | 4.6m/s | -53.8°C | 4.4% | 0hPa | 2.5V | 08:30:00 | 01:57:21 | 00:00:00 | |
| RDZBGO | 2026-09-02 00:30:59 | 45.60221 | 9.68650 | 252° | 5km/h | 22805m | 4.2m/s | -53.8°C | 1.6% | 0hPa | 2.5V | 00:00:00 | 00:00:00 | 00:00:00 | |
| IW2NTF | 2026-09-02 00:30:56 | 45.60223 | 9.68665 | 236° | 4km/h | 22776m | 5m/s | -53.7°C | 4.4% | 0hPa | 2.5V | 08:30:00 | 01:57:11 | 00:00:00 | |
| NBG1-10 | 2026-09-02 00:30:54 | 45.60223 | 9.68665 | 237° | 7km/h | 22777m | 5.0m/s | -53.7°C | 4.4% | 0hPa | 2.5V | 00:00:00 | 01:57:11 | 00:00:00 | |
| OE5DRO-10 | 2026-09-02 00:30:52 | 45.60223 | 9.68667 | 304° | 5km/h | 22767m | 5.6m/s | -53.6°C | 4.4% | 0hPa | 2.6V | 00:00:00 | 00:00:00 | 00:00:00 | |
| IW2NTF | 2026-09-02 00:30:49 | 45.60228 | 9.68681 | 262° | 7km/h | 22728m | 5.5m/s | -53.7°C | 4.4% | 0hPa | 2.6V | 08:30:00 | 01:57:01 | 00:00:00 | |
| RDZBGO | 2026-09-02 00:30:39 | 45.60225 | 9.68686 | 0° | 0km/h | 22709m | 5.7m/s | -53.7°C | 0% | 0hPa | 2.5V | 00:00:00 | 00:00:00 | 00:00:00 | |
| IW2NTF | 2026-09-02 00:30:36 | 45.60233 | 9.68687 | 204° | 9km/h | 22679m | 5.2m/s | -53.5°C | 4.3% | 0hPa | 2.5V | 08:30:00 | 01:56:51 | 00:00:00 | |
| OE5DRO-10 | 2026-09-02 00:30:33 | 45.60235 | 9.68689 | 211° | 9km/h | 22674m | 5.4m/s | -53.4°C | 4.3% | 0hPa | 2.5V | 00:00:00 | 00:00:00 | 00:00:00 | |
| IW2NTF | 2026-09-02 00:30:29 | 45.60239 | 9.68709 | 218° | 11km/h | 22632m | 3.8m/s | -53.4°C | 4.3% | 0hPa | 2.5V | 08:30:00 | 01:56:41 | 00:00:00 | |
| DB0UT-7 | 2026-09-02 00:30:22 | 45.60244 | 9.68713 | 211° | 11km/h | 22623m | 5.4m/s | -53.3°C | 4.3% | 0hPa | 2.5V | 00:00:00 | 00:00:00 | 00:00:00 | |
| NBG1-10 | 2026-09-02 00:30:21 | 45.60246 | 9.68715 | 207° | 11km/h | 22618m | 4.8m/s | -53.3°C | 4.3% | 0hPa | 2.5V | 00:00:00 | 01:56:38 | 00:00:00 | |
| RDZBGO | 2026-09-02 00:30:19 | 45.60249 | 9.68717 | 203° | 9km/h | 22613m | 4.3m/s | -53.4°C | 0% | 0hPa | 2.5V | 00:00:00 | 00:00:00 | 00:00:00 | |
| DO3MHA-11 | 2026-09-02 00:30:18 | 45.60253 | 9.68719 | 195° | 13km/h | 22603m | 5.6m/s | -53.3°C | 4.3% | 0hPa | 2.5V | 00:00:00 | 01:56:35 | 00:00:00 | |
| IW2NTF | 2026-09-02 00:30:17 | 45.60265 | 9.68725 | 223° | 9km/h | 22583m | 5.2m/s | -53.3°C | 4.3% | 0hPa | 2.5V | 08:30:00 | 01:56:31 | 00:00:00 | |
| OE5DRO-10 | 2026-09-02 00:30:14 | 45.60264 | 9.68725 | 224° | 9km/h | 22583m | 5.1m/s | -53.3°C | 4.3% | 0hPa | 2.6V | 00:00:00 | 00:00:00 | 00:00:00 | |
| IW2NTF | 2026-09-02 00:30:10 | 45.60286 | 9.68741 | 200° | 13km/h | 22536m | 5m/s | -53.4°C | 4.3% | 0hPa | 2.6V | 08:30:00 | 01:56:21 | 00:00:00 | |
| OE3JTB-15 | 2026-09-02 00:30:03 | 45.60292 | 9.68746 | 223° | 15km/h | 22528m | 4.3m/s | 0°C | 0% | 0hPa | 2.5V | 00:00:00 | 00:00:00 | 00:00:00 | |
| IW2NTF | 2026-09-02 00:29:55 | 45.60302 | 9.68767 | 219° | 13km/h | 22491m | 4.4m/s | -53.2°C | 4.3% | 0hPa | 2.5V | 08:30:00 | 01:56:11 | 00:00:00 | |
| OE5DRO-10 | 2026-09-02 00:29:55 | 45.60300 | 9.68764 | 219° | 15km/h | 22496m | 4.2m/s | -53.2°C | 4.3% | 0hPa | 2.5V | 00:00:00 | 00:00:00 | 00:00:00 | |
| RDZBGO | 2026-09-02 00:29:54 | 45.60300 | 9.68764 | 219° | 13km/h | 22496m | 4.3m/s | -53.3°C | 0% | 0hPa | 2.5V | 00:00:00 | 00:00:00 | 00:00:00 | |
| DB0UT-7 | 2026-09-02 00:29:52 | 45.60306 | 9.68773 | 231° | 18km/h | 22482m | 4.3m/s | -53.2°C | 4.3% | 0hPa | 2.5V | 00:00:00 | 01:56:09 | 00:00:00 | |
| IW2NTF | 2026-09-02 00:29:49 | 45.60330 | 9.68799 | 221° | 16km/h | 22444m | 4.5m/s | -53.1°C | 4.2% | 0hPa | 2.5V | 08:30:00 | 01:56:01 | 00:00:00 | |
| NBG1-10 | 2026-09-02 00:29:48 | 45.60316 | 9.68784 | 211° | 20km/h | 22463m | 4.4m/s | -53.1°C | 4.3% | 0hPa | 2.5V | 00:00:00 | 01:56:05 | 00:00:00 | |
| OE5DRO-10 | 2026-09-02 00:29:36 | 45.60355 | 9.68823 | 196° | 22km/h | 22408m | 5.1m/s | -53.1°C | 4.3% | 0hPa | 2.5V | 00:00:00 | 00:00:00 | 08:30:00 | |
| IW2NTF | 2026-09-02 00:29:35 | 45.60365 | 9.68827 | 198° | 20km/h | 22399m | 4m/s | -53.2°C | 4.3% | 0hPa | 2.5V | 08:30:00 | 01:55:51 | 00:00:00 | |
| DO3MHA-11 | 2026-09-02 00:29:34 | 45.60364 | 9.68827 | 199° | 24km/h | 22399m | 3.9m/s | -53.2°C | 4.3% | 0hPa | 2.6V | 00:00:00 | 01:55:51 | 00:00:00 | |
| OE3JTB-15 | 2026-09-02 00:29:32 | 45.60374 | 9.68832 | 211° | 22km/h | 22389m | 4.3m/s | 0°C | 0% | 0hPa | 2.6V | 00:00:00 | 01:55:49 | 00:00:00 | |
| IW2NTF | 2026-09-02 00:29:28 | 45.60419 | 9.68857 | 178° | 18km/h | 22353m | 4.2m/s | -53.1°C | 4.2% | 0hPa | 2.6V | 08:30:00 | 01:55:41 | 00:00:00 | |
| RDZBGO | 2026-09-02 00:29:26 | 45.60401 | 9.68853 | 199° | 27km/h | 22367m | 4.1m/s | -53.2°C | 0% | 0hPa | 2.5V | 00:00:00 | 00:00:00 | 00:00:00 | |
| DB0UT-7 | 2026-09-02 00:29:22 | 45.60427 | 9.68856 | 174° | 20km/h | 22345m | 5.0m/s | -53.0°C | 4.2% | 0hPa | 2.5V | 00:00:00 | 00:00:00 | 00:00:00 | |
| OE5DRO-10 | 2026-09-02 00:29:17 | 45.60456 | 9.68857 | 188° | 20km/h | 22321m | 4.5m/s | -53.0°C | 4.2% | 0hPa | 2.5V | 00:00:00 | 00:00:00 | 00:00:00 | |
| IW2NTF | 2026-09-02 00:29:15 | 45.60473 | 9.68861 | 193° | 24km/h | 22307m | 4m/s | -53.1°C | 4.3% | 0hPa | 2.5V | 08:30:00 | 01:55:31 | 00:00:00 | |
| NBG1-10 | 2026-09-02 00:29:15 | 45.60467 | 9.68859 | 192° | 20km/h | 22312m | 5.3m/s | -53.0°C | 4.2% | 0hPa | 2.6V | 00:00:00 | 01:55:32 | 00:00:00 | |
| DO3MHA-11 | 2026-09-02 00:29:14 | 45.60473 | 9.68861 | 194° | 22km/h | 22307m | 3.9m/s | -53.1°C | 4.3% | 0hPa | 2.5V | 00:00:00 | 01:55:31 | 00:00:00 | |
| IW2NTF | 2026-09-02 00:29:09 | 45.60519 | 9.68867 | 186° | 20km/h | 22262m | 4.8m/s | -53.2°C | 4.1% | 0hPa | 2.5V | 08:30:00 | 01:55:21 | 00:00:00 | |
| RDZBGO | 2026-09-02 00:29:05 | 45.60509 | 9.68866 | 183° | 22km/h | 22272m | 3.9m/s | -53.2°C | 0% | 0hPa | 2.5V | 00:00:00 | 00:00:00 | 00:00:00 | |
| OE3JTB-15 | 2026-09-02 00:29:03 | 45.60524 | 9.68868 | 185° | 22km/h | 22258m | 3.9m/s | 0°C | 0% | 0hPa | 2.5V | 00:00:00 | 00:00:00 | 00:00:00 | |
| OE5DRO-10 | 2026-09-02 00:28:58 | 45.60551 | 9.68863 | 165° | 20km/h | 22237m | 4.3m/s | -53.3°C | 4.1% | 0hPa | 2.5V | 00:00:00 | 00:00:00 | 00:00:00 | |
| IW2NTF | 2026-09-02 00:28:55 | 45.60566 | 9.68855 | 152° | 15km/h | 22219m | 4.6m/s | -53.4°C | 4.2% | 0hPa | 2.5V | 08:30:00 | 01:55:11 | 00:00:00 | |
| DB0UT-7 | 2026-09-02 00:28:52 | 45.60574 | 9.68849 | 152° | 20km/h | 22211m | 3.9m/s | -53.5°C | 4.2% | 0hPa | 2.6V | 00:00:00 | 01:55:09 | 00:00:00 | |
| IW2NTF | 2026-09-02 00:28:49 | 45.60611 | 9.68814 | 133° | 26km/h | 22175m | 4.4m/s | -54°C | 4.4% | 0hPa | 2.6V | 08:30:00 | 01:55:01 | 00:00:00 | |
| NBG1-10 | 2026-09-02 00:28:42 | 45.60618 | 9.68801 | 123° | 18km/h | 22164m | 4.8m/s | -54.0°C | 4.4% | 0hPa | 2.5V | 00:00:00 | 01:54:59 | 00:00:00 | |
| OE5DRO-10 | 2026-09-02 00:28:39 | 45.60627 | 9.68783 | 129° | 20km/h | 22150m | 4.8m/s | -54.0°C | 4.4% | 0hPa | 2.5V | 00:00:00 | 00:00:00 | 00:00:00 | |
| RDZBGO | 2026-09-02 00:28:38 | 45.60627 | 9.68783 | 129° | 22km/h | 22150m | 4.9m/s | -54.0°C | 0% | 0hPa | 2.5V | 00:00:00 | 00:00:00 | 00:00:00 | |
| IW2NTF | 2026-09-02 00:28:36 | 45.60643 | 9.68755 | 122° | 18km/h | 22127m | 4.1m/s | -54°C | 4.4% | 0hPa | 2.5V | 08:30:00 | 01:54:51 | 00:00:00 | |
| IW2NTF | 2026-09-02 00:28:29 | 45.60658 | 9.68690 | 107° | 20km/h | 22081m | 4.1m/s | -54°C | 4.3% | 0hPa | 2.5V | 08:30:00 | 01:54:41 | 00:00:00 | |
| DB0UT-7 | 2026-09-02 00:28:22 | 45.60661 | 9.68677 | 112° | 16km/h | 22074m | 4.8m/s | -54.0°C | 4.2% | 0hPa | 2.5V | 00:00:00 | 00:00:00 | 08:30:00 | |
| OE5DRO-10 | 2026-09-02 00:28:20 | 45.60664 | 9.68667 | 110° | 16km/h | 22064m | 4.2m/s | -53.9°C | 4.2% | 0hPa | 2.5V | 00:00:00 | 00:00:00 | 00:00:00 | |
| RDZBGO | 2026-09-02 00:28:17 | 45.60666 | 9.68657 | 113° | 16km/h | 22055m | 5.1m/s | -54.1°C | 0% | 0hPa | 2.5V | 00:00:00 | 00:00:00 | 00:00:00 | |
| IW2NTF | 2026-09-02 00:28:15 | 45.60670 | 9.68637 | 89° | 13km/h | 22037m | 4.1m/s | -54.1°C | 4.2% | 0hPa | 2.5V | 08:30:00 | 01:54:31 | 00:00:00 | |
| IW2NTF | 2026-09-02 00:28:09 | 45.60666 | 9.68571 | 93° | 18km/h | 21991m | 4.2m/s | -54.8°C | 4.5% | 0hPa | 2.6V | 08:30:00 | 01:54:21 | 00:00:00 | |
| NBG1-10 | 2026-09-02 00:28:09 | 45.60668 | 9.68604 | 83° | 22km/h | 22014m | 4.4m/s | -54.4°C | 4.5% | 0hPa | 2.5V | 00:00:00 | 01:54:26 | 00:00:00 | |
| OE5DRO-10 | 2026-09-02 00:28:01 | 45.60666 | 9.68553 | 83° | 20km/h | 21979m | 5.0m/s | -54.8°C | 4.4% | 0hPa | 2.5V | 00:00:00 | 00:00:00 | 00:00:00 | |
| RDZBGO | 2026-09-02 00:27:56 | 45.60664 | 9.68534 | 89° | 18km/h | 21960m | 4.2m/s | -55.1°C | 0% | 0hPa | 2.5V | 00:00:00 | 00:00:00 | 00:00:00 | |
| IW2NTF | 2026-09-02 00:27:55 | 45.60661 | 9.68512 | 72° | 22km/h | 21947m | 4.9m/s | -55.1°C | 4.6% | 0hPa | 2.5V | 08:30:00 | 01:54:11 | 00:00:00 | |
| DB0UT-7 | 2026-09-02 00:27:52 | 45.60657 | 9.68497 | 65° | 24km/h | 21939m | 4.1m/s | -55.1°C | 4.6% | 0hPa | 2.5V | 00:00:00 | 01:54:09 | 00:00:00 | |
| IW2NTF | 2026-09-02 00:27:49 | 45.60632 | 9.68439 | 53° | 24km/h | 21902m | 5m/s | -55.3°C | 4.7% | 0hPa | 2.5V | 08:30:00 | 01:54:01 | 00:00:00 | |
| OE5DRO-10 | 2026-09-02 00:27:42 | 45.60625 | 9.68424 | 56° | 26km/h | 21894m | 3.8m/s | -55.3°C | 4.7% | 0hPa | 2.5V | 00:00:00 | 00:00:00 | 00:00:00 | |
| NBG1-10 | 2026-09-02 00:27:36 | 45.60597 | 9.68381 | 56° | 22km/h | 21867m | 4.1m/s | -55.4°C | 4.7% | 0hPa | 2.5V | 00:00:00 | 01:53:53 | 08:30:00 | |
| IW2NTF | 2026-09-02 00:27:34 | 45.60589 | 9.68366 | 52° | 24km/h | 21859m | 5.1m/s | -55.4°C | 4.7% | 0hPa | 2.5V | 08:30:00 | 01:53:51 | 00:00:00 | |
| RDZBGO | 2026-09-02 00:27:34 | 45.60593 | 9.68373 | 56° | 26km/h | 21863m | 3.8m/s | 0°C | 0% | 0hPa | 2.6V | 00:00:00 | 00:00:00 | 00:00:00 | |
| IW2NTF | 2026-09-02 00:27:29 | 45.60541 | 9.68322 | 27° | 26km/h | 21813m | 5.1m/s | -55.3°C | 4.8% | 0hPa | 2.6V | 08:30:00 | 01:53:41 | 00:00:00 | |
| DO3MHA-11 | 2026-09-02 00:27:24 | 45.60541 | 9.68322 | 28° | 22km/h | 21813m | 5.0m/s | -55.3°C | 4.8% | 0hPa | 2.5V | 00:00:00 | 01:53:41 | 00:00:00 | |
| OE5DRO-10 | 2026-09-02 00:27:23 | 45.60536 | 9.68318 | 34° | 20km/h | 21809m | 3.9m/s | -55.2°C | 4.8% | 0hPa | 2.5V | 00:00:00 | 00:00:00 | 00:00:00 | |
| DB0UT-7 | 2026-09-02 00:27:22 | 45.60531 | 9.68313 | 36° | 20km/h | 21805m | 3.9m/s | -55.2°C | 4.7% | 0hPa | 2.5V | 00:00:00 | 00:00:00 | 00:00:00 | |
| IW2NTF | 2026-09-02 00:27:15 | 45.60496 | 9.68285 | 29° | 18km/h | 21772m | 4.6m/s | -55°C | 4.6% | 0hPa | 2.5V | 08:30:00 | 01:53:31 | 00:00:00 | |
| RDZBGO | 2026-09-02 00:27:13 | 45.60496 | 9.68285 | 30° | 20km/h | 21772m | 4.6m/s | 0°C | 0% | 0hPa | 2.5V | 00:00:00 | 00:00:00 | 00:00:00 | |
| IW2NTF | 2026-09-02 00:27:10 | 45.60445 | 9.68272 | 12° | 16km/h | 21729m | 4.5m/s | -54.9°C | 4.4% | 0hPa | 2.5V | 08:30:00 | 01:53:21 | 00:00:00 | |
| OE5DRO-10 | 2026-09-02 00:27:04 | 45.60444 | 9.68272 | 13° | 20km/h | 21729m | 4.5m/s | -54.8°C | 4.4% | 0hPa | 2.5V | 00:00:00 | 00:00:00 | 00:00:00 | |
| NBG1-10 | 2026-09-02 00:27:03 | 45.60440 | 9.68271 | 10° | 22km/h | 21725m | 4.0m/s | -54.8°C | 4.4% | 0hPa | 2.5V | 00:00:00 | 01:53:20 | 00:00:00 | |
| IW2NTF | 2026-09-02 00:26:56 | 45.60398 | 9.68264 | 1° | 20km/h | 21684m | 5m/s | -55°C | 4.6% | 0hPa | 2.5V | 08:30:00 | 01:53:11 | 00:00:00 | |
| DB0UT-7 | 2026-09-02 00:26:52 | 45.60388 | 9.68263 | 2° | 24km/h | 21676m | 3.8m/s | -54.9°C | 4.5% | 0hPa | 2.6V | 00:00:00 | 01:53:09 | 00:00:00 | |
| RDZBGO | 2026-09-02 00:26:47 | 45.60366 | 9.68266 | 353° | 22km/h | 21658m | 4.2m/s | 0°C | 0% | 0hPa | 2.6V | 00:00:00 | 00:00:00 | 00:00:00 | |
| IW2NTF | 2026-09-02 00:26:46 | 45.60342 | 9.68266 | 358° | 27km/h | 21639m | 5.4m/s | -55.4°C | 4.7% | 0hPa | 2.6V | 08:30:00 | 01:53:01 | 00:00:00 | |
| OE5DRO-10 | 2026-09-02 00:26:45 | 45.60348 | 9.68266 | 4° | 24km/h | 21644m | 4.4m/s | -55.4°C | 4.7% | 0hPa | 2.7V | 00:00:00 | 00:00:00 | 08:30:00 | |
| IW2NTF | 2026-09-02 00:26:40 | 45.60286 | 9.68299 | 316° | 20km/h | 21593m | 4.9m/s | -55.4°C | 4.7% | 0hPa | 2.5V | 08:30:00 | 01:52:51 | 00:00:00 | |
| NBG1-10 | 2026-09-02 00:26:30 | 45.60269 | 9.68313 | 334° | 16km/h | 21574m | 5.2m/s | -55.2°C | 4.7% | 0hPa | 2.5V | 00:00:00 | 01:52:47 | 00:00:00 | |
| IW2NTF | 2026-09-02 00:26:28 | 45.60239 | 9.68346 | 316° | 24km/h | 21546m | 4.1m/s | -55.1°C | 4.7% | 0hPa | 2.5V | 08:30:00 | 01:52:41 | 00:00:00 | |
| OE5DRO-10 | 2026-09-02 00:26:26 | 45.60248 | 9.68334 | 321° | 20km/h | 21555m | 5.1m/s | -55.1°C | 4.7% | 0hPa | 2.5V | 00:00:00 | 00:00:00 | 00:00:00 | |
| DB0UT-7 | 2026-09-02 00:26:22 | 45.60230 | 9.68358 | 309° | 16km/h | 21537m | 4.9m/s | -55.0°C | 4.7% | 0hPa | 2.5V | 00:00:00 | 00:00:00 | 00:00:00 | |
| IW2NTF | 2026-09-02 00:26:15 | 45.60206 | 9.68392 | 312° | 20km/h | 21499m | 4.1m/s | -54.9°C | 4.6% | 0hPa | 2.5V | 08:30:00 | 01:52:31 | 00:00:00 | |
| IW2NTF | 2026-09-02 00:26:09 | 45.60176 | 9.68441 | 317° | 7km/h | 21452m | 4.5m/s | -54.7°C | 4.6% | 0hPa | 2.6V | 08:30:00 | 01:52:21 | 00:00:00 | |
| OE5DRO-10 | 2026-09-02 00:26:07 | 45.60182 | 9.68430 | 312° | 13km/h | 21467m | 3.7m/s | -54.6°C | 4.5% | 0hPa | 2.5V | 00:00:00 | 00:00:00 | 00:00:00 | |
| RDZBGO | 2026-09-02 00:26:00 | 45.60171 | 9.68451 | 300° | 11km/h | 21433m | 5.4m/s | 0°C | 0% | 0hPa | 2.5V | 00:00:00 | 00:00:00 | 00:00:00 | |
| IW2NTF | 2026-09-02 00:25:58 | 45.60159 | 9.68481 | 302° | 20km/h | 21404m | 4.1m/s | -54.6°C | 4.5% | 0hPa | 2.5V | 08:30:00 | 01:52:11 | 00:00:00 | |
| NBG1-10 | 2026-09-02 00:25:55 | 45.60161 | 9.68475 | 299° | 11km/h | 21408m | 4.6m/s | -54.6°C | 4.5% | 0hPa | 2.6V | 00:00:00 | 01:52:12 | 00:00:00 | |
| DB0UT-7 | 2026-09-02 00:25:52 | 45.60153 | 9.68490 | 322° | 11km/h | 21394m | 4.5m/s | -54.5°C | 4.5% | 0hPa | 2.6V | 00:00:00 | 01:52:09 | 00:00:00 | |
| OE5DRO-10 | 2026-09-02 00:25:48 | 45.60151 | 9.68495 | 221° | 11km/h | 21375m | 4.8m/s | -54.5°C | 4.5% | 0hPa | 2.6V | 00:00:00 | 00:00:00 | 00:00:00 | |
| IW2NTF | 2026-09-02 00:25:46 | 45.60159 | 9.68503 | 233° | 9km/h | 21355m | 4.1m/s | -54.5°C | 4.5% | 0hPa | 2.5V | 08:30:00 | 01:52:01 | 00:00:00 | |
| DO3MHA-11 | 2026-09-02 00:25:40 | 45.60160 | 9.68520 | 285° | 13km/h | 21337m | 4.6m/s | -54.6°C | 4.5% | 0hPa | 2.7V | 00:00:00 | 01:51:57 | 00:00:00 | |
| IW2NTF | 2026-09-02 00:25:35 | 45.60155 | 9.68535 | 211° | 7km/h | 21309m | 4.2m/s | -54.5°C | 4.5% | 0hPa | 2.7V | 08:30:00 | 01:51:51 | 00:00:00 | |
| OE5DRO-10 | 2026-09-02 00:25:29 | 45.60171 | 9.68540 | 209° | 9km/h | 21284m | 4.7m/s | -54.4°C | 4.5% | 0hPa | 2.6V | 00:00:00 | 00:00:00 | 00:00:00 | |
| DO3MHA-11 | 2026-09-02 00:25:28 | 45.60175 | 9.68544 | 218° | 7km/h | 21280m | 3.7m/s | -54.4°C | 4.5% | 0hPa | 2.6V | 00:00:00 | 01:51:45 | 00:00:00 | |
| IW2NTF | 2026-09-02 00:25:25 | 45.60185 | 9.68555 | 219° | 7km/h | 21262m | 4.2m/s | -54.3°C | 4.5% | 0hPa | 2.5V | 08:30:00 | 01:51:41 | 00:00:00 | |
| DB0UT-7 | 2026-09-02 00:25:22 | 45.60186 | 9.68558 | 250° | 5km/h | 21253m | 4.8m/s | -54.3°C | 4.4% | 0hPa | 2.6V | 00:00:00 | 00:00:00 | 00:00:00 | |
| DO3MHA-11 | 2026-09-02 00:25:16 | 45.60196 | 9.68562 | 180° | 7km/h | 21224m | 5.3m/s | -54.5°C | 4.4% | 0hPa | 2.5V | 00:00:00 | 01:51:33 | 00:00:00 | |
| IW2NTF | 2026-09-02 00:25:15 | 45.60202 | 9.68563 | 192° | 13km/h | 21215m | 3.8m/s | -54.6°C | 4.5% | 0hPa | 2.5V | 08:30:00 | 01:51:31 | 00:00:00 | |
| OE5DRO-10 | 2026-09-02 00:25:10 | 45.60210 | 9.68564 | 218° | 4km/h | 21197m | 4.5m/s | -54.5°C | 4.4% | 0hPa | 2.5V | 00:00:00 | 00:00:00 | 00:00:00 | |
| IW2NTF | 2026-09-02 00:25:06 | 45.60208 | 9.68566 | 103° | 7km/h | 21169m | 4.7m/s | -54.5°C | 4.5% | 0hPa | 2.5V | 08:30:00 | 01:51:21 | 00:00:00 | |
| DO3MHA-11 | 2026-09-02 00:24:56 | 45.60212 | 9.68550 | 33° | 9km/h | 21132m | 5.5m/s | -54.4°C | 4.4% | 0hPa | 2.7V | 00:00:00 | 01:51:13 | 08:30:00 | |
| IW2NTF | 2026-09-02 00:24:55 | 45.60211 | 9.68551 | 334° | 4km/h | 21122m | 4m/s | -54.5°C | 4.4% | 0hPa | 2.5V | 08:30:00 | 01:51:11 | 00:00:00 | |
| DB0UT-7 | 2026-09-02 00:24:52 | 45.60210 | 9.68549 | 87° | 15km/h | 21113m | 4.8m/s | -54.5°C | 4.4% | 0hPa | 2.7V | 00:00:00 | 01:51:09 | 00:00:00 | |
| OE5DRO-10 | 2026-09-02 00:24:51 | 45.60210 | 9.68547 | 102° | 15km/h | 21108m | 4.3m/s | -54.6°C | 4.4% | 0hPa | 2.7V | 00:00:00 | 00:00:00 | 00:00:00 | |
| NBG1-10 | 2026-09-02 00:24:49 | 45.60212 | 9.68538 | 121° | 15km/h | 21099m | 5.3m/s | -54.6°C | 4.5% | 0hPa | 2.5V | 00:00:00 | 01:51:06 | 00:00:00 | |
| DO3MHA-11 | 2026-09-02 00:24:46 | 45.60218 | 9.68525 | 111° | 15km/h | 21086m | 5.0m/s | -54.7°C | 4.5% | 0hPa | 2.5V | 00:00:00 | 01:51:03 | 00:00:00 | |
| IW2NTF | 2026-09-02 00:24:44 | 45.60219 | 9.68514 | 79° | 16km/h | 21075m | 4.2m/s | -54.8°C | 4.6% | 0hPa | 2.5V | 08:30:00 | 01:51:01 | 00:00:00 | |
| DO3MHA-11 | 2026-09-02 00:24:36 | 45.60208 | 9.68474 | 103° | 18km/h | 21040m | 4.8m/s | -54.7°C | 4.6% | 0hPa | 2.7V | 00:00:00 | 01:50:53 | 00:00:00 | |
| IW2NTF | 2026-09-02 00:24:35 | 45.60212 | 9.68463 | 123° | 18km/h | 21030m | 4.3m/s | -54.7°C | 4.5% | 0hPa | 2.7V | 08:30:00 | 01:50:51 | 00:00:00 | |
| OE5DRO-10 | 2026-09-02 00:24:32 | 45.60216 | 9.68451 | 107° | 15km/h | 21022m | 5.1m/s | -54.6°C | 4.5% | 0hPa | 2.6V | 00:00:00 | 00:00:00 | 00:00:00 | |
| IW2NTF | 2026-09-02 00:24:29 | 45.60200 | 9.68413 | 70° | 15km/h | 20984m | 4.6m/s | -54.5°C | 4.4% | 0hPa | 2.6V | 08:30:00 | 01:50:41 | 00:00:00 | |
| DO3MHA-11 | 2026-09-02 00:24:26 | 45.60204 | 9.68421 | 41° | 13km/h | 20994m | 4.0m/s | -54.5°C | 4.5% | 0hPa | 2.7V | 00:00:00 | 01:50:43 | 00:00:00 | |
| DB0UT-7 | 2026-09-02 00:24:22 | 45.60200 | 9.68403 | 102° | 13km/h | 20975m | 5.4m/s | -54.4°C | 4.4% | 0hPa | 2.5V | 00:00:00 | 00:00:00 | 00:00:00 | |
| DO3MHA-11 | 2026-09-02 00:24:16 | 45.60199 | 9.68376 | 59° | 13km/h | 20948m | 4.1m/s | -54.3°C | 4.3% | 0hPa | 2.5V | 00:00:00 | 01:50:33 | 00:00:00 | |
| IW2NTF | 2026-09-02 00:24:14 | 45.60194 | 9.68367 | 39° | 16km/h | 20938m | 4.8m/s | -54.4°C | 4.3% | 0hPa | 2.5V | 08:30:00 | 01:50:31 | 00:00:00 | |
| OE5DRO-10 | 2026-09-02 00:24:13 | 45.60191 | 9.68364 | 37° | 13km/h | 20934m | 4.2m/s | -54.4°C | 4.3% | 0hPa | 2.5V | 00:00:00 | 00:00:00 | 00:00:00 | |
| DO3MHA-11 | 2026-09-02 00:24:06 | 45.60177 | 9.68343 | 54° | 11km/h | 20902m | 4.3m/s | -54.9°C | 4.5% | 0hPa | 2.5V | 00:00:00 | 01:50:23 | 00:00:00 | |
| IW2NTF | 2026-09-02 00:24:05 | 45.60175 | 9.68338 | 69° | 11km/h | 20893m | 4.8m/s | -55°C | 4.5% | 0hPa | 2.5V | 08:30:00 | 01:50:21 | 00:00:00 | |
| IW2NTF | 2026-09-02 00:23:59 | 45.60146 | 9.68312 | 8° | 16km/h | 20848m | 5.1m/s | -55.3°C | 4.4% | 0hPa | 2.7V | 08:30:00 | 01:50:11 | 00:00:00 | |
| DO3MHA-11 | 2026-09-02 00:23:56 | 45.60156 | 9.68316 | 21° | 13km/h | 20857m | 3.9m/s | -55.2°C | 4.5% | 0hPa | 2.5V | 00:00:00 | 01:50:13 | 00:00:00 | |
| OE5DRO-10 | 2026-09-02 00:23:54 | 45.60146 | 9.68312 | 9° | 11km/h | 20848m | 5.0m/s | -55.3°C | 4.4% | 0hPa | 2.7V | 00:00:00 | 00:00:00 | 08:30:00 | |
| DB0UT-7 | 2026-09-02 00:23:52 | 45.60139 | 9.68311 | 8° | 13km/h | 20839m | 4.1m/s | -55.4°C | 4.5% | 0hPa | 2.6V | 00:00:00 | 01:50:09 | 08:30:00 | |
| DO3MHA-11 | 2026-09-02 00:23:46 | 45.60131 | 9.68300 | 64° | 13km/h | 20812m | 4.0m/s | -55.7°C | 4.6% | 0hPa | 2.6V | 00:00:00 | 01:50:03 | 00:00:00 | |
| IW2NTF | 2026-09-02 00:23:45 | 45.60128 | 9.68294 | 50° | 15km/h | 20803m | 5.3m/s | -55.8°C | 4.7% | 0hPa | 2.6V | 08:30:00 | 01:50:01 | 00:00:00 | |
| NBG1-10 | 2026-09-02 00:23:43 | 45.60126 | 9.68290 | 49° | 15km/h | 20798m | 4.3m/s | -55.8°C | 4.7% | 0hPa | 2.7V | 00:00:00 | 01:50:00 | 00:00:00 | |
| IW2NTF | 2026-09-02 00:23:39 | 45.60113 | 9.68256 | 82° | 7km/h | 20757m | 4.5m/s | -56.1°C | 4.8% | 0hPa | 2.7V | 08:30:00 | 01:49:51 | 00:00:00 | |
| DO3MHA-11 | 2026-09-02 00:23:36 | 45.60114 | 9.68263 | 71° | 15km/h | 20767m | 4.1m/s | -56.0°C | 4.8% | 0hPa | 2.5V | 00:00:00 | 01:49:53 | 00:00:00 | |
| OE5DRO-10 | 2026-09-02 00:23:35 | 45.60113 | 9.68259 | 78° | 15km/h | 20762m | 4.6m/s | -56.0°C | 4.8% | 0hPa | 2.5V | 00:00:00 | 00:00:00 | 00:00:00 | |
| DO3MHA-11 | 2026-09-02 00:23:26 | 45.60090 | 9.68227 | 31° | 13km/h | 20722m | 3.9m/s | -56.0°C | 4.9% | 0hPa | 2.5V | 00:00:00 | 01:49:43 | 08:30:00 | |
| IW2NTF | 2026-09-02 00:23:25 | 45.60084 | 9.68221 | 39° | 15km/h | 20714m | 5m/s | -56°C | 4.8% | 0hPa | 2.5V | 08:30:00 | 01:49:41 | 00:00:00 | |
| DB0UT-7 | 2026-09-02 00:23:22 | 45.60077 | 9.68213 | 39° | 11km/h | 20705m | 3.6m/s | -56.0°C | 4.9% | 0hPa | 2.5V | 00:00:00 | 00:00:00 | 00:00:00 | |
| IW2NTF | 2026-09-02 00:23:19 | 45.60056 | 9.68192 | 32° | 18km/h | 20672m | 3.7m/s | -55.9°C | 4.8% | 0hPa | 2.5V | 08:30:00 | 01:49:31 | 00:00:00 | |
| DO3MHA-11 | 2026-09-02 00:23:16 | 45.60062 | 9.68199 | 46° | 13km/h | 20680m | 4.4m/s | -55.9°C | 4.8% | 0hPa | 2.5V | 00:00:00 | 01:49:33 | 00:00:00 | |
| NBG1-10 | 2026-09-02 00:23:10 | 45.60040 | 9.68187 | 353° | 7km/h | 20655m | 3.4m/s | -55.7°C | 4.8% | 0hPa | 2.5V | 00:00:00 | 01:49:27 | 00:00:00 | |
| DO3MHA-11 | 2026-09-02 00:23:06 | 45.60035 | 9.68183 | 71° | 9km/h | 20638m | 3.5m/s | -55.6°C | 4.8% | 0hPa | 2.5V | 00:00:00 | 01:49:23 | 00:00:00 | |
| IW2NTF | 2026-09-02 00:23:05 | 45.60033 | 9.68180 | 15° | 5km/h | 20629m | 5m/s | -55.6°C | 4.8% | 0hPa | 2.5V | 08:30:00 | 01:49:21 | 00:00:00 | |
| IW2NTF | 2026-09-02 00:22:59 | 45.60011 | 9.68186 | 282° | 5km/h | 20585m | 4.2m/s | -55.5°C | 4.7% | 0hPa | 2.5V | 08:30:00 | 01:49:11 | 00:00:00 | |
| OE5DRO-10 | 2026-09-02 00:22:57 | 45.60013 | 9.68182 | 355° | 5km/h | 20599m | 4.2m/s | -55.5°C | 4.7% | 0hPa | 2.5V | 00:00:00 | 00:00:00 | 00:00:00 | |
| DO3MHA-11 | 2026-09-02 00:22:56 | 45.60012 | 9.68182 | 325° | 5km/h | 20595m | 4.8m/s | -55.5°C | 4.7% | 0hPa | 2.7V | 00:00:00 | 01:49:13 | 00:00:00 | |
| DB0UT-7 | 2026-09-02 00:22:52 | 45.60010 | 9.68188 | 349° | 7km/h | 20576m | 4.5m/s | -55.4°C | 4.6% | 0hPa | 2.7V | 00:00:00 | 01:49:09 | 00:00:00 | |
| DO3MHA-11 | 2026-09-02 00:22:46 | 45.60003 | 9.68192 | 347° | 7km/h | 20549m | 4.8m/s | -55.2°C | 4.6% | 0hPa | 2.7V | 00:00:00 | 01:49:03 | 00:00:00 | |
| IW2NTF | 2026-09-02 00:22:45 | 45.60001 | 9.68194 | 307° | 5km/h | 20540m | 4.5m/s | -55.2°C | 4.5% | 0hPa | 2.7V | 08:30:00 | 01:49:01 | 00:00:00 | |
| IW2NTF | 2026-09-02 00:22:38 | 45.60012 | 9.68219 | 260° | 7km/h | 20487m | 4.6m/s | -55.2°C | 4.5% | 0hPa | 2.5V | 08:30:00 | 01:48:49 | 00:00:00 | |
| OE5DRO-10 | 2026-09-02 00:22:38 | 45.60004 | 9.68207 | 201° | 9km/h | 20514m | 3.8m/s | -55.0°C | 4.6% | 0hPa | 2.7V | 00:00:00 | 00:00:00 | 00:00:00 | |
| NBG1-10 | 2026-09-02 00:22:37 | 45.60006 | 9.68208 | 203° | 11km/h | 20510m | 3.6m/s | -55.0°C | 4.5% | 0hPa | 2.7V | 00:00:00 | 01:48:54 | 08:30:00 | |
| DO3MHA-11 | 2026-09-02 00:22:36 | 45.60008 | 9.68209 | 217° | 9km/h | 20506m | 4.9m/s | -55.0°C | 4.5% | 0hPa | 2.5V | 00:00:00 | 01:48:53 | 00:00:00 | |
| DO3MHA-11 | 2026-09-02 00:22:26 | 45.60013 | 9.68239 | 252° | 9km/h | 20459m | 5.0m/s | -55.6°C | 4.7% | 0hPa | 2.5V | 00:00:00 | 01:48:43 | 00:00:00 | |
| IW2NTF | 2026-09-02 00:22:22 | 45.60021 | 9.68244 | 202° | 13km/h | 20441m | 4.3m/s | -55.7°C | 4.8% | 0hPa | 2.7V | 08:30:00 | 01:48:39 | 00:00:00 | |
| DB0UT-7 | 2026-09-02 00:22:22 | 45.60021 | 9.68244 | 203° | 11km/h | 20441m | 4.2m/s | -55.7°C | 4.8% | 0hPa | 2.7V | 00:00:00 | 00:00:00 | 00:00:00 | |
| OE5DRO-10 | 2026-09-02 00:22:19 | 45.60029 | 9.68249 | 206° | 11km/h | 20428m | 4.6m/s | -55.6°C | 4.8% | 0hPa | 2.5V | 00:00:00 | 00:00:00 | 00:00:00 | |
| DO3MHA-11 | 2026-09-02 00:22:16 | 45.60035 | 9.68257 | 240° | 11km/h | 20414m | 5.0m/s | -55.5°C | 4.7% | 0hPa | 2.5V | 00:00:00 | 01:48:33 | 00:00:00 | |
| IW2NTF | 2026-09-02 00:22:12 | 45.60042 | 9.68270 | 209° | 11km/h | 20395m | 4.1m/s | -55.5°C | 4.7% | 0hPa | 2.5V | 08:30:00 | 01:48:29 | 00:00:00 | |
| DO3MHA-11 | 2026-09-02 00:22:06 | 45.60057 | 9.68280 | 215° | 9km/h | 20368m | 3.8m/s | -55.3°C | 4.6% | 0hPa | 2.6V | 00:00:00 | 01:48:23 | 00:00:00 | |
| IW2NTF | 2026-09-02 00:22:02 | 45.60061 | 9.68293 | 252° | 13km/h | 20349m | 4.5m/s | -55.4°C | 4.6% | 0hPa | 2.6V | 08:30:00 | 01:48:19 | 00:00:00 | |
| OE5DRO-10 | 2026-09-02 00:22:00 | 45.60063 | 9.68299 | 239° | 9km/h | 20340m | 4.5m/s | 0°C | 0% | 0hPa | 2.7V | 00:00:00 | 00:00:00 | 00:00:00 | |
| IW2NTF | 2026-09-02 00:21:56 | 45.60078 | 9.68318 | 226° | 9km/h | 20303m | 4.3m/s | -55.9°C | 4.7% | 0hPa | 2.7V | 08:30:00 | 01:48:09 | 00:00:00 | |
| DO3MHA-11 | 2026-09-02 00:21:56 | 45.60070 | 9.68308 | 223° | 11km/h | 20322m | 4.4m/s | -55.7°C | 4.6% | 0hPa | 2.7V | 00:00:00 | 01:48:13 | 08:30:00 | |
| DB0UT-7 | 2026-09-02 00:21:52 | 45.60078 | 9.68318 | 227° | 9km/h | 20303m | 4.2m/s | -55.8°C | 4.7% | 0hPa | 2.5V | 00:00:00 | 01:48:09 | 00:00:00 | |
| IW2NTF | 2026-09-02 00:21:46 | 45.60083 | 9.68343 | 219° | 5km/h | 20255m | 4.6m/s | -55.9°C | 4.7% | 0hPa | 2.5V | 08:30:00 | 01:47:59 | 00:00:00 | |
| OE5DRO-10 | 2026-09-02 00:21:41 | 45.60084 | 9.68344 | 199° | 11km/h | 20251m | 5.4m/s | 0°C | 0% | 0hPa | 2.5V | 00:00:00 | 00:00:00 | 00:00:00 | |
| DO3MHA-11 | 2026-09-02 00:21:36 | 45.60090 | 9.68356 | 273° | 11km/h | 20227m | 4.9m/s | -55.7°C | 4.7% | 0hPa | 2.5V | 00:00:00 | 01:47:53 | 00:00:00 | |
| IW2NTF | 2026-09-02 00:21:35 | 45.60085 | 9.68375 | 288° | 15km/h | 20208m | 5.2m/s | -55.7°C | 4.8% | 0hPa | 2.5V | 08:30:00 | 01:47:49 | 00:00:00 | |
| NBG1-10 | 2026-09-02 00:21:31 | 45.60084 | 9.68384 | 274° | 11km/h | 20199m | 4.3m/s | -55.7°C | 4.8% | 0hPa | 2.5V | 00:00:00 | 01:47:47 | 00:00:00 | |
| DO3MHA-11 | 2026-09-02 00:21:26 | 45.60087 | 9.68392 | 221° | 11km/h | 20181m | 5.2m/s | -55.7°C | 4.8% | 0hPa | 2.5V | 00:00:00 | 01:47:43 | 00:00:00 | |
| IW2NTF | 2026-09-02 00:21:25 | 45.60091 | 9.68408 | 283° | 13km/h | 20163m | 4.7m/s | -55.6°C | 4.7% | 0hPa | 2.5V | 08:30:00 | 01:47:39 | 00:00:00 | |
| DB0UT-7 | 2026-09-02 00:21:22 | 45.60091 | 9.68408 | 284° | 11km/h | 20163m | 4.7m/s | -55.6°C | 4.7% | 0hPa | 2.5V | 00:00:00 | 00:00:00 | 00:00:00 | |
| DO3MHA-11 | 2026-09-02 00:21:16 | 45.60084 | 9.68430 | 269° | 7km/h | 20136m | 4.3m/s | -55.4°C | 4.7% | 0hPa | 2.5V | 00:00:00 | 01:47:33 | 00:00:00 | |
| IW2NTF | 2026-09-02 00:21:15 | 45.60088 | 9.68440 | 179° | 4km/h | 20117m | 4.7m/s | -55.4°C | 4.6% | 0hPa | 2.5V | 08:30:00 | 01:47:29 | 00:00:00 | |
| DO3MHA-11 | 2026-09-02 00:21:06 | 45.60090 | 9.68446 | 237° | 15km/h | 20091m | 4.9m/s | -55.2°C | 4.6% | 0hPa | 2.5V | 00:00:00 | 01:47:23 | 00:00:00 | |
| IW2NTF | 2026-09-02 00:21:05 | 45.60102 | 9.68455 | 204° | 16km/h | 20073m | 4.3m/s | -55.2°C | 4.6% | 0hPa | 2.5V | 08:30:00 | 01:47:19 | 00:00:00 | |
| OE5DRO-10 | 2026-09-02 00:21:02 | 45.60102 | 9.68455 | 205° | 13km/h | 20073m | 4.3m/s | 0°C | 0% | 0hPa | 2.5V | 00:00:00 | 00:00:00 | 00:00:00 | |
| NBG1-10 | 2026-09-02 00:20:57 | 45.60117 | 9.68471 | 203° | 13km/h | 20051m | 5.3m/s | -55.1°C | 4.6% | 0hPa | 2.5V | 00:00:00 | 01:47:14 | 00:00:00 | |
| IW2NTF | 2026-09-02 00:20:56 | 45.60130 | 9.68469 | 171° | 7km/h | 20027m | 4.6m/s | -55.2°C | 4.6% | 0hPa | 2.7V | 08:30:00 | 01:47:09 | 00:00:00 | |
| DB0UT-7 | 2026-09-02 00:20:52 | 45.60130 | 9.68469 | 172° | 13km/h | 20027m | 4.5m/s | -55.1°C | 4.6% | 0hPa | 2.7V | 00:00:00 | 01:47:09 | 00:00:00 | |
| IW2NTF | 2026-09-02 00:20:45 | 45.60163 | 9.68475 | 163° | 18km/h | 19981m | 4.2m/s | -55.3°C | 4.6% | 0hPa | 2.7V | 08:30:00 | 01:46:59 | 00:00:00 | |
| DO3MHA-11 | 2026-09-02 00:20:36 | 45.60181 | 9.68461 | 151° | 13km/h | 19955m | 4.4m/s | -55.3°C | 4.6% | 0hPa | 2.7V | 00:00:00 | 01:46:53 | 00:00:00 | |
| IW2NTF | 2026-09-02 00:20:34 | 45.60191 | 9.68449 | 135° | 13km/h | 19937m | 4.7m/s | -55.2°C | 4.6% | 0hPa | 2.7V | 08:30:00 | 01:46:49 | 00:00:00 | |
| IW2NTF | 2026-09-02 00:20:28 | 45.60210 | 9.68407 | 109° | 15km/h | 19891m | 4.5m/s | -55.1°C | 4.6% | 0hPa | 2.5V | 08:30:00 | 01:46:39 | 00:00:00 | |
| DO3MHA-11 | 2026-09-02 00:20:26 | 45.60204 | 9.68428 | 113° | 16km/h | 19910m | 4.3m/s | -55.2°C | 4.6% | 0hPa | 2.7V | 00:00:00 | 01:46:43 | 08:30:00 | |
| NBG1-10 | 2026-09-02 00:20:24 | 45.60207 | 9.68417 | 114° | 16km/h | 19901m | 5.2m/s | -55.1°C | 4.6% | 0hPa | 2.5V | 00:00:00 | 01:46:41 | 00:00:00 | |
| DB0UT-7 | 2026-09-02 00:20:22 | 45.60210 | 9.68407 | 110° | 16km/h | 19892m | 4.4m/s | -55.1°C | 4.6% | 0hPa | 2.5V | 00:00:00 | 00:00:00 | 00:00:00 | |
| IW2NTF | 2026-09-02 00:20:16 | 45.60219 | 9.68351 | 96° | 18km/h | 19844m | 5.4m/s | -55.4°C | 4.6% | 0hPa | 2.5V | 08:30:00 | 01:46:29 | 00:00:00 | |
| IW2NTF | 2026-09-02 00:20:07 | 45.60221 | 9.68282 | 96° | 20km/h | 19796m | 5.3m/s | -55.4°C | 4.5% | 0hPa | 2.5V | 08:30:00 | 01:46:19 | 00:00:00 | |
| DO3MHA-11 | 2026-09-02 00:20:06 | 45.60219 | 9.68310 | 88° | 18km/h | 19816m | 4.0m/s | -55.3°C | 4.6% | 0hPa | 2.5V | 00:00:00 | 01:46:23 | 00:00:00 | |
| DO3MHA-11 | 2026-09-02 00:19:56 | 45.60228 | 9.68245 | 116° | 15km/h | 19771m | 4.1m/s | -55.6°C | 4.7% | 0hPa | 2.5V | 00:00:00 | 01:46:13 | 00:00:00 | |
| DB0UT-7 | 2026-09-02 00:19:52 | 45.60232 | 9.68224 | 104° | 15km/h | 19752m | 5.1m/s | -55.6°C | 4.6% | 0hPa | 2.5V | 00:00:00 | 01:46:09 | 00:00:00 | |
| IW2NTF | 2026-09-02 00:19:51 | 45.60234 | 9.68192 | 90° | 11km/h | 19724m | 5.1m/s | -55.6°C | 4.6% | 0hPa | 2.5V | 08:30:00 | 01:46:03 | 00:00:00 | |
| NBG1-10 | 2026-09-02 00:19:51 | 45.60232 | 9.68219 | 105° | 15km/h | 19747m | 4.3m/s | -55.6°C | 4.7% | 0hPa | 2.5V | 00:00:00 | 01:46:08 | 00:00:00 | |
| DO3MHA-11 | 2026-09-02 00:19:46 | 45.60234 | 9.68192 | 91° | 11km/h | 19724m | 5.1m/s | -55.6°C | 4.6% | 0hPa | 2.5V | 00:00:00 | 01:46:03 | 00:00:00 | |
| DO3MHA-11 | 2026-09-02 00:19:36 | 45.60228 | 9.68153 | 67° | 16km/h | 19678m | 4.3m/s | -55.8°C | 4.7% | 0hPa | 2.5V | 00:00:00 | 01:45:53 | 00:00:00 | |
| DO3MHA-11 | 2026-09-02 00:19:26 | 45.60215 | 9.68097 | 74° | 18km/h | 19634m | 4.5m/s | -55.7°C | 4.7% | 0hPa | 2.5V | 00:00:00 | 01:45:43 | 00:00:00 | |
| DB0UT-7 | 2026-09-02 00:19:22 | 45.60208 | 9.68074 | 62° | 18km/h | 19616m | 4.1m/s | -55.6°C | 4.7% | 0hPa | 2.7V | 00:00:00 | 00:00:00 | 08:30:00 | |
| NBG1-10 | 2026-09-02 00:19:18 | 45.60197 | 9.68048 | 53° | 13km/h | 19597m | 4.9m/s | -55.6°C | 4.6% | 0hPa | 2.5V | 00:00:00 | 01:45:35 | 00:00:00 | |
| DO3MHA-11 | 2026-09-02 00:19:16 | 45.60189 | 9.68037 | 41° | 20km/h | 19588m | 3.7m/s | -55.8°C | 4.8% | 0hPa | 2.5V | 00:00:00 | 01:45:33 | 00:00:00 | |
| DO3MHA-11 | 2026-09-02 00:19:06 | 45.60161 | 9.67979 | 64° | 16km/h | 19545m | 4.2m/s | -55.7°C | 4.8% | 0hPa | 2.5V | 00:00:00 | 01:45:23 | 00:00:00 | |
| IW2NTF | 2026-09-02 00:19:02 | 45.60131 | 9.67949 | 30° | 11km/h | 19506m | 4.6m/s | -55.6°C | 4.6% | 0hPa | 2.5V | 08:30:00 | 01:45:14 | 00:00:00 | |
| DO3MHA-11 | 2026-09-02 00:18:56 | 45.60129 | 9.67947 | 38° | 13km/h | 19502m | 3.9m/s | -55.5°C | 4.6% | 0hPa | 2.7V | 00:00:00 | 01:45:13 | 08:30:00 | |
| DB0UT-7 | 2026-09-02 00:18:52 | 45.60124 | 9.67934 | 77° | 13km/h | 19485m | 3.7m/s | -55.6°C | 4.5% | 0hPa | 2.5V | 00:00:00 | 01:45:09 | 00:00:00 | |
| DO3MHA-11 | 2026-09-02 00:18:46 | 45.60112 | 9.67911 | 61° | 13km/h | 19458m | 3.9m/s | -56.1°C | 4.7% | 0hPa | 2.5V | 00:00:00 | 01:45:03 | 00:00:00 | |
| IW2NTF | 2026-09-02 00:18:42 | 45.60106 | 9.67886 | 87° | 13km/h | 19436m | 5.3m/s | -56.1°C | 4.7% | 0hPa | 2.5V | 08:30:00 | 01:44:58 | 00:00:00 | |
| DO3MHA-11 | 2026-09-02 00:18:36 | 45.60109 | 9.67868 | 92° | 13km/h | 19415m | 4.1m/s | -56.2°C | 4.8% | 0hPa | 2.7V | 00:00:00 | 01:44:53 | 00:00:00 | |
| IW2NTF | 2026-09-02 00:18:35 | 45.60107 | 9.67839 | 79° | 15km/h | 19384m | 3.5m/s | -56.4°C | 4.8% | 0hPa | 2.7V | 08:30:00 | 01:44:46 | 00:00:00 | |
| DO3MHA-11 | 2026-09-02 00:18:26 | 45.60108 | 9.67825 | 110° | 9km/h | 19371m | 4.1m/s | -56.3°C | 4.8% | 0hPa | 2.5V | 00:00:00 | 01:44:43 | 00:00:00 | |
| IW2NTF | 2026-09-02 00:18:22 | 45.60109 | 9.67803 | 46° | 7km/h | 19341m | 3.9m/s | -56.4°C | 4.9% | 0hPa | 2.5V | 08:30:00 | 01:44:36 | 00:00:00 | |
| DB0UT-7 | 2026-09-02 00:18:22 | 45.60111 | 9.67809 | 97° | 9km/h | 19354m | 4.4m/s | -56.4°C | 4.9% | 0hPa | 2.7V | 00:00:00 | 00:00:00 | 00:00:00 | |
| DO3MHA-11 | 2026-09-02 00:18:16 | 45.60105 | 9.67793 | 67° | 9km/h | 19329m | 3.1m/s | -56.4°C | 4.9% | 0hPa | 2.7V | 00:00:00 | 01:44:33 | 00:00:00 | |
| NBG1-10 | 2026-09-02 00:18:13 | 45.60103 | 9.67782 | 88° | 9km/h | 19317m | 3.9m/s | -56.5°C | 4.9% | 0hPa | 2.7V | 00:00:00 | 01:44:30 | 00:00:00 | |
| IW2NTF | 2026-09-02 00:18:12 | 45.60098 | 9.67777 | 14° | 11km/h | 19301m | 3.4m/s | -56.4°C | 4.9% | 0hPa | 2.7V | 08:30:00 | 01:44:26 | 00:00:00 | |
| DO3MHA-11 | 2026-09-02 00:18:06 | 45.60090 | 9.67776 | 359° | 7km/h | 19289m | 3.9m/s | -56.3°C | 4.8% | 0hPa | 2.5V | 00:00:00 | 01:44:23 | 00:00:00 | |
| IW2NTF | 2026-09-02 00:18:01 | 45.60084 | 9.67762 | 88° | 4km/h | 19260m | 3.6m/s | -56.2°C | 4.9% | 0hPa | 2.5V | 08:30:00 | 01:44:16 | 00:00:00 | |
| DO3MHA-11 | 2026-09-02 00:17:56 | 45.60080 | 9.67758 | 11° | 7km/h | 19247m | 3.2m/s | -56.2°C | 4.8% | 0hPa | 2.7V | 00:00:00 | 01:44:13 | 00:00:00 | |
| DB0UT-7 | 2026-09-02 00:17:52 | 45.60073 | 9.67761 | 276° | 13km/h | 19232m | 4.0m/s | -56.1°C | 4.9% | 0hPa | 2.5V | 00:00:00 | 01:44:09 | 00:00:00 | |
| IW2NTF | 2026-09-02 00:17:50 | 45.60075 | 9.67756 | 110° | 11km/h | 19219m | 3.5m/s | -56°C | 4.9% | 0hPa | 2.7V | 08:30:00 | 01:44:06 | 00:00:00 | |
| DO3MHA-11 | 2026-09-02 00:17:46 | 45.60077 | 9.67745 | 84° | 9km/h | 19207m | 4.0m/s | -55.9°C | 4.8% | 0hPa | 2.5V | 00:00:00 | 01:44:03 | 00:00:00 | |
| IW2NTF | 2026-09-02 00:17:40 | 45.60073 | 9.67725 | 150° | 5km/h | 19176m | 4.7m/s | -55.9°C | 4.7% | 0hPa | 2.5V | 08:30:00 | 01:43:56 | 00:00:00 | |
| NBG1-10 | 2026-09-02 00:17:40 | 45.60072 | 9.67727 | 107° | 22km/h | 19181m | 4.6m/s | -55.9°C | 4.7% | 0hPa | 2.5V | 00:00:00 | 01:43:57 | 00:00:00 | |
| DO3MHA-11 | 2026-09-02 00:17:36 | 45.60079 | 9.67723 | 145° | 20km/h | 19165m | 4.0m/s | -55.8°C | 4.7% | 0hPa | 2.5V | 00:00:00 | 01:43:53 | 00:00:00 | |
| IW2NTF | 2026-09-02 00:17:30 | 45.60086 | 9.67677 | 100° | 22km/h | 19132m | 5m/s | -55.8°C | 4.6% | 0hPa | 2.5V | 08:30:00 | 01:43:46 | 00:00:00 | |
| DO3MHA-11 | 2026-09-02 00:17:26 | 45.60091 | 9.67655 | 117° | 22km/h | 19119m | 4.9m/s | -55.8°C | 4.7% | 0hPa | 2.7V | 00:00:00 | 01:43:43 | 08:30:00 | |
| DB0UT-7 | 2026-09-02 00:17:22 | 45.60101 | 9.67632 | 119° | 33km/h | 19101m | 4.6m/s | -56.0°C | 4.8% | 0hPa | 2.5V | 00:00:00 | 00:00:00 | 00:00:00 | |
| IW2NTF | 2026-09-02 00:17:20 | 45.60108 | 9.67607 | 107° | 26km/h | 19089m | 4.6m/s | -56.2°C | 4.8% | 0hPa | 2.5V | 08:30:00 | 01:43:36 | 00:00:00 | |
| IW2NTF | 2026-09-02 00:17:10 | 45.60130 | 9.67506 | 103° | 31km/h | 19048m | 4.5m/s | -56.3°C | 4.9% | 0hPa | 2.5V | 08:30:00 | 01:43:26 | 00:00:00 | |
| NBG1-10 | 2026-09-02 00:17:07 | 45.60133 | 9.67482 | 99° | 35km/h | 19039m | 3.6m/s | -56.2°C | 4.8% | 0hPa | 2.7V | 00:00:00 | 01:43:24 | 08:30:00 | |
| DO3MHA-11 | 2026-09-02 00:17:06 | 45.60134 | 9.67469 | 96° | 37km/h | 19035m | 4.3m/s | -56.2°C | 4.8% | 0hPa | 2.5V | 00:00:00 | 01:43:23 | 00:00:00 | |
| IW2NTF | 2026-09-02 00:17:00 | 45.60136 | 9.67378 | 92° | 35km/h | 19006m | 4.6m/s | -56.2°C | 4.8% | 0hPa | 2.5V | 08:30:00 | 01:43:16 | 00:00:00 | |
| DO3MHA-11 | 2026-09-02 00:16:56 | 45.60138 | 9.67341 | 94° | 35km/h | 18994m | 4.2m/s | -56.2°C | 4.7% | 0hPa | 2.5V | 00:00:00 | 01:43:13 | 00:00:00 | |
| DB0UT-7 | 2026-09-02 00:16:52 | 45.60138 | 9.67293 | 88° | 35km/h | 18979m | 3.6m/s | -56.2°C | 4.7% | 0hPa | 2.5V | 00:00:00 | 01:43:09 | 00:00:00 | |
| IW2NTF | 2026-09-02 00:16:50 | 45.60137 | 9.67254 | 87° | 38km/h | 18966m | 3.4m/s | -56.3°C | 4.7% | 0hPa | 2.5V | 08:30:00 | 01:43:06 | 00:00:00 | |
| DO3MHA-11 | 2026-09-02 00:16:46 | 45.60135 | 9.67214 | 85° | 35km/h | 18955m | 3.6m/s | -56.2°C | 4.8% | 0hPa | 2.7V | 00:00:00 | 01:43:03 | 00:00:00 | |
| IW2NTF | 2026-09-02 00:16:41 | 45.60122 | 9.67129 | 68° | 29km/h | 18926m | 4.3m/s | -56.4°C | 4.8% | 0hPa | 2.7V | 08:30:00 | 01:42:56 | 00:00:00 | |
| DO3MHA-11 | 2026-09-02 00:16:36 | 45.60113 | 9.67097 | 69° | 35km/h | 18915m | 3.8m/s | -56.6°C | 4.9% | 0hPa | 2.5V | 00:00:00 | 01:42:53 | 00:00:00 | |
| NBG1-10 | 2026-09-02 00:16:34 | 45.60108 | 9.67074 | 76° | 27km/h | 18906m | 3.7m/s | -56.6°C | 4.9% | 0hPa | 2.5V | 00:00:00 | 01:42:51 | 00:00:00 | |
| IW2NTF | 2026-09-02 00:16:30 | 45.60101 | 9.67009 | 82° | 35km/h | 18885m | 4.5m/s | -56.6°C | 4.9% | 0hPa | 2.5V | 08:30:00 | 01:42:46 | 00:00:00 | |
| DO3MHA-11 | 2026-09-02 00:16:26 | 45.60094 | 9.66978 | 63° | 29km/h | 18874m | 4.5m/s | -56.6°C | 4.8% | 0hPa | 2.7V | 00:00:00 | 01:42:43 | 00:00:00 | |
| DB0UT-7 | 2026-09-02 00:16:22 | 45.60078 | 9.66940 | 57° | 22km/h | 18858m | 4.3m/s | -56.8°C | 5.0% | 0hPa | 2.5V | 00:00:00 | 00:00:00 | 00:00:00 | |
| IW2NTF | 2026-09-02 00:16:21 | 45.60067 | 9.66917 | 60° | 26km/h | 18846m | 4m/s | -56.9°C | 5% | 0hPa | 2.5V | 08:30:00 | 01:42:36 | 00:00:00 | |
| DO3MHA-11 | 2026-09-02 00:16:16 | 45.60058 | 9.66889 | 69° | 27km/h | 18835m | 3.6m/s | -56.8°C | 5.0% | 0hPa | 2.5V | 00:00:00 | 01:42:33 | 00:00:00 | |
| IW2NTF | 2026-09-02 00:16:10 | 45.60044 | 9.66829 | 69° | 18km/h | 18804m | 5.1m/s | -56.7°C | 5% | 0hPa | 2.5V | 08:30:00 | 01:42:26 | 00:00:00 | |
| DO3MHA-11 | 2026-09-02 00:16:06 | 45.60040 | 9.66810 | 76° | 22km/h | 18791m | 4.4m/s | -56.6°C | 5.1% | 0hPa | 2.5V | 00:00:00 | 01:42:23 | 00:00:00 | |
| IW2NTF | 2026-09-02 00:16:00 | 45.60036 | 9.66756 | 70° | 22km/h | 18762m | 3.5m/s | -56.4°C | 4.9% | 0hPa | 2.5V | 08:30:00 | 01:42:16 | 00:00:00 | |
| DO3MHA-11 | 2026-09-02 00:15:56 | 45.60031 | 9.66737 | 78° | 18km/h | 18750m | 4.3m/s | -56.3°C | 4.9% | 0hPa | 2.6V | 00:00:00 | 01:42:13 | 08:30:00 | |
| DB0UT-7 | 2026-09-02 00:15:52 | 45.60030 | 9.66714 | 91° | 20km/h | 18733m | 3.7m/s | -56.2°C | 4.9% | 0hPa | 2.7V | 00:00:00 | 01:42:09 | 00:00:00 | |
| IW2NTF | 2026-09-02 00:15:51 | 45.60032 | 9.66687 | 95° | 20km/h | 18717m | 4.4m/s | -56.1°C | 5% | 0hPa | 2.7V | 08:30:00 | 01:42:05 | 00:00:00 | |
| IW2NTF | 2026-09-02 00:15:40 | 45.60040 | 9.66621 | 103° | 20km/h | 18675m | 4.4m/s | -56°C | 4.8% | 0hPa | 2.6V | 08:30:00 | 01:41:55 | 00:00:00 | |
| DO3MHA-11 | 2026-09-02 00:15:36 | 45.60043 | 9.66608 | 111° | 18km/h | 18666m | 4.1m/s | -55.9°C | 4.7% | 0hPa | 2.7V | 00:00:00 | 01:41:53 | 00:00:00 | |
| IW2NTF | 2026-09-02 00:15:30 | 45.60058 | 9.66566 | 128° | 22km/h | 18631m | 5m/s | -55.7°C | 4.8% | 0hPa | 2.7V | 08:30:00 | 01:41:45 | 00:00:00 | |
| NBG1-10 | 2026-09-02 00:15:28 | 45.60058 | 9.66566 | 129° | 27km/h | 18631m | 4.9m/s | -55.7°C | 4.8% | 0hPa | 2.7V | 00:00:00 | 01:41:45 | 00:00:00 | |
| DO3MHA-11 | 2026-09-02 00:15:26 | 45.60066 | 9.66551 | 125° | 22km/h | 18622m | 4.0m/s | -55.6°C | 4.7% | 0hPa | 2.5V | 00:00:00 | 01:41:43 | 00:00:00 | |
| DB0UT-7 | 2026-09-02 00:15:22 | 45.60081 | 9.66519 | 115° | 27km/h | 18606m | 4.9m/s | -55.5°C | 4.6% | 0hPa | 2.5V | 00:00:00 | 00:00:00 | 00:00:00 | |
| IW2NTF | 2026-09-02 00:15:20 | 45.60088 | 9.66493 | 128° | 16km/h | 18589m | 4.4m/s | -55.5°C | 4.5% | 0hPa | 2.5V | 08:30:00 | 01:41:35 | 00:00:00 | |
| DO3MHA-11 | 2026-09-02 00:15:17 | 45.60095 | 9.66484 | 140° | 26km/h | 18582m | 3.4m/s | -55.6°C | 4.7% | 0hPa | 2.7V | 00:00:00 | 01:41:33 | 00:00:00 | |
| IW2NTF | 2026-09-02 00:15:10 | 45.60128 | 9.66426 | 125° | 29km/h | 18546m | 4.1m/s | -56°C | 4.6% | 0hPa | 2.7V | 08:30:00 | 01:41:25 | 00:00:00 | |
| DO3MHA-11 | 2026-09-02 00:15:06 | 45.60134 | 9.66410 | 116° | 31km/h | 18537m | 3.8m/s | -56.2°C | 4.6% | 0hPa | 2.7V | 00:00:00 | 01:41:23 | 00:00:00 | |
| IW2NTF | 2026-09-02 00:15:00 | 45.60171 | 9.66338 | 119° | 38km/h | 18503m | 4.9m/s | -57°C | 5% | 0hPa | 2.7V | 08:30:00 | 01:41:15 | 00:00:00 | |
| DO3MHA-11 | 2026-09-02 00:14:56 | 45.60180 | 9.66313 | 119° | 40km/h | 18495m | 3.9m/s | -57.0°C | 5.0% | 0hPa | 2.5V | 00:00:00 | 01:41:13 | 00:00:00 | |
| NBG1-10 | 2026-09-02 00:14:55 | 45.60186 | 9.66301 | 122° | 46km/h | 18490m | 5.0m/s | -57.1°C | 5.0% | 0hPa | 2.7V | 00:00:00 | 01:41:12 | 00:00:00 | |
| DB0UT-7 | 2026-09-02 00:14:52 | 45.60202 | 9.66267 | 126° | 47km/h | 18478m | 4.2m/s | -57.1°C | 5.1% | 0hPa | 2.7V | 00:00:00 | 01:41:09 | 08:30:00 | |
| IW2NTF | 2026-09-02 00:14:50 | 45.60222 | 9.66216 | 115° | 46km/h | 18462m | 4.2m/s | -57.1°C | 5.1% | 0hPa | 2.5V | 08:30:00 | 01:41:05 | 00:00:00 | |
| DO3MHA-11 | 2026-09-02 00:14:46 | 45.60232 | 9.66185 | 118° | 44km/h | 18454m | 3.7m/s | -57.1°C | 5.1% | 0hPa | 2.7V | 00:00:00 | 01:41:03 | 00:00:00 | |
| IW2NTF | 2026-09-02 00:14:41 | 45.60272 | 9.66072 | 114° | 46km/h | 18422m | 4.7m/s | -57°C | 4.9% | 0hPa | 2.7V | 08:30:00 | 01:40:55 | 00:00:00 | |
| DO3MHA-11 | 2026-09-02 00:14:36 | 45.60280 | 9.66041 | 110° | 49km/h | 18413m | 3.9m/s | -57.0°C | 4.9% | 0hPa | 2.6V | 00:00:00 | 01:40:53 | 00:00:00 | |
| IW2NTF | 2026-09-02 00:14:30 | 45.60313 | 9.65909 | 114° | 51km/h | 18379m | 4.4m/s | -57.3°C | 5% | 0hPa | 2.6V | 08:30:00 | 01:40:45 | 00:00:00 | |
| DO3MHA-11 | 2026-09-02 00:14:26 | 45.60324 | 9.65874 | 116° | 53km/h | 18371m | 3.8m/s | -57.6°C | 5.2% | 0hPa | 2.7V | 00:00:00 | 01:40:43 | 08:30:00 | |
| NBG1-10 | 2026-09-02 00:14:22 | 45.60346 | 9.65805 | 114° | 55km/h | 18354m | 4.7m/s | -57.8°C | 5.3% | 0hPa | 2.5V | 00:00:00 | 01:40:39 | 00:00:00 | |
| IW2NTF | 2026-09-02 00:14:21 | 45.60367 | 9.65733 | 109° | 53km/h | 18337m | 4.6m/s | -57.9°C | 5.3% | 0hPa | 2.5V | 08:30:00 | 01:40:35 | 00:00:00 | |
| DO3MHA-11 | 2026-09-02 00:14:16 | 45.60375 | 9.65696 | 110° | 55km/h | 18329m | 4.5m/s | -57.9°C | 5.3% | 0hPa | 2.7V | 00:00:00 | 01:40:33 | 00:00:00 | |
| IW2NTF | 2026-09-02 00:14:10 | 45.60413 | 9.65547 | 105° | 58km/h | 18295m | 4m/s | -57.8°C | 5.2% | 0hPa | 2.7V | 08:30:00 | 01:40:25 | 00:00:00 | |
| DO3MHA-11 | 2026-09-02 00:14:06 | 45.60419 | 9.65507 | 103° | 55km/h | 18287m | 4.8m/s | -57.7°C | 5.2% | 0hPa | 2.7V | 00:00:00 | 01:40:23 | 00:00:00 | |
| IW2NTF | 2026-09-02 00:14:00 | 45.60449 | 9.65317 | 100° | 57km/h | 18245m | 4.9m/s | -57.8°C | 5.2% | 0hPa | 2.7V | 08:30:00 | 01:40:13 | 00:00:00 | |
| DO3MHA-11 | 2026-09-02 00:13:56 | 45.60449 | 9.65317 | 101° | 57km/h | 18245m | 4.8m/s | -57.8°C | 5.2% | 0hPa | 2.7V | 00:00:00 | 01:40:13 | 00:00:00 | |
| DB0UT-7 | 2026-09-02 00:13:52 | 45.60455 | 9.65234 | 94° | 55km/h | 18229m | 4.1m/s | -57.8°C | 5.3% | 0hPa | 2.6V | 00:00:00 | 01:40:09 | 00:00:00 | |
| IW2NTF | 2026-09-02 00:13:50 | 45.60462 | 9.65112 | 95° | 55km/h | 18205m | 4.6m/s | -57.8°C | 5.3% | 0hPa | 2.6V | 08:30:00 | 01:40:03 | 00:00:00 | |
| NBG1-10 | 2026-09-02 00:13:49 | 45.60458 | 9.65174 | 96° | 55km/h | 18217m | 4.4m/s | -57.7°C | 5.3% | 0hPa | 2.5V | 00:00:00 | 01:40:06 | 00:00:00 | |
| DO3MHA-11 | 2026-09-02 00:13:46 | 45.60462 | 9.65112 | 96° | 55km/h | 18205m | 4.6m/s | -57.7°C | 5.3% | 0hPa | 2.5V | 00:00:00 | 01:40:03 | 00:00:00 | |
| IW2NTF | 2026-09-02 00:13:40 | 45.60470 | 9.64913 | 95° | 55km/h | 18165m | 4.2m/s | -57.9°C | 5.3% | 0hPa | 2.5V | 08:30:00 | 01:39:53 | 00:00:00 | |
| DO3MHA-11 | 2026-09-02 00:13:36 | 45.60470 | 9.64913 | 96° | 55km/h | 18165m | 4.2m/s | -57.9°C | 5.3% | 0hPa | 2.5V | 00:00:00 | 01:39:53 | 00:00:00 | |
| IW2NTF | 2026-09-02 00:13:30 | 45.60463 | 9.64719 | 78° | 55km/h | 18124m | 5m/s | -57.8°C | 5.3% | 0hPa | 2.5V | 08:30:00 | 01:39:43 | 00:00:00 | |
| DO3MHA-11 | 2026-09-02 00:13:26 | 45.60463 | 9.64719 | 79° | 53km/h | 18124m | 5.0m/s | -57.7°C | 5.3% | 0hPa | 2.5V | 00:00:00 | 01:39:43 | 00:00:00 | |
| DB0UT-7 | 2026-09-02 00:13:22 | 45.60454 | 9.64640 | 86° | 51km/h | 18108m | 3.5m/s | -57.7°C | 5.2% | 0hPa | 2.7V | 00:00:00 | 00:00:00 | 00:00:00 | |
| IW2NTF | 2026-09-02 00:13:20 | 45.60447 | 9.64532 | 80° | 49km/h | 18083m | 4.2m/s | -57.5°C | 5.3% | 0hPa | 2.6V | 08:30:00 | 01:39:33 | 00:00:00 | |
| DO3MHA-11 | 2026-09-02 00:13:16 | 45.60447 | 9.64532 | 81° | 49km/h | 18084m | 4.1m/s | -57.5°C | 5.3% | 0hPa | 2.6V | 00:00:00 | 01:39:33 | 00:00:00 | |
| IW2NTF | 2026-09-02 00:13:11 | 45.60420 | 9.64357 | 84° | 47km/h | 18041m | 4.2m/s | -57.3°C | 5.1% | 0hPa | 2.6V | 08:30:00 | 01:39:23 | 00:00:00 | |
| DO3MHA-11 | 2026-09-02 00:13:06 | 45.60420 | 9.64357 | 85° | 51km/h | 18042m | 4.1m/s | -57.2°C | 5.1% | 0hPa | 2.5V | 00:00:00 | 01:39:23 | 00:00:00 | |
| IW2NTF | 2026-09-02 00:12:59 | 45.60380 | 9.64185 | 64° | 58km/h | 18000m | 3.5m/s | -57.2°C | 5% | 0hPa | 2.5V | 08:30:00 | 01:39:13 | 00:00:00 | |
| DO3MHA-11 | 2026-09-02 00:12:56 | 45.60380 | 9.64184 | 65° | 53km/h | 18000m | 3.5m/s | -57.1°C | 5.0% | 0hPa | 2.5V | 00:00:00 | 01:39:13 | 08:30:00 | |
| DB0UT-7 | 2026-09-02 00:12:52 | 45.60360 | 9.64113 | 74° | 49km/h | 17984m | 3.5m/s | -57.3°C | 5.1% | 0hPa | 2.7V | 00:00:00 | 01:39:09 | 00:00:00 | |
| IW2NTF | 2026-09-02 00:12:48 | 45.60336 | 9.64006 | 65° | 49km/h | 17959m | 4.2m/s | -57.6°C | 5.1% | 0hPa | 2.7V | 08:30:00 | 01:39:03 | 00:00:00 | |
| DO3MHA-11 | 2026-09-02 00:12:46 | 45.60336 | 9.64006 | 66° | 51km/h | 17960m | 4.2m/s | -57.5°C | 5.1% | 0hPa | 2.7V | 00:00:00 | 01:39:03 | 00:00:00 | |
| IW2NTF | 2026-09-02 00:12:38 | 45.60294 | 9.63834 | 76° | 51km/h | 17917m | 4.7m/s | -57.7°C | 5.2% | 0hPa | 2.7V | 08:30:00 | 01:38:53 | 00:00:00 | |
| NBG1-10 | 2026-09-02 00:12:37 | 45.60296 | 9.63851 | 78° | 44km/h | 17922m | 4.9m/s | -57.7°C | 5.2% | 0hPa | 2.6V | 00:00:00 | 01:38:54 | 00:00:00 | |
| DO3MHA-11 | 2026-09-02 00:12:36 | 45.60294 | 9.63834 | 77° | 47km/h | 17918m | 4.6m/s | -57.7°C | 5.2% | 0hPa | 2.6V | 00:00:00 | 01:38:53 | 00:00:00 | |
| IW2NTF | 2026-09-02 00:12:28 | 45.60259 | 9.63673 | 78° | 42km/h | 17873m | 3.8m/s | -57.4°C | 5.2% | 0hPa | 2.6V | 08:30:00 | 01:38:43 | 00:00:00 | |
| DO3MHA-11 | 2026-09-02 00:12:26 | 45.60259 | 9.63673 | 79° | 44km/h | 17874m | 3.8m/s | -57.3°C | 5.2% | 0hPa | 2.6V | 00:00:00 | 01:38:43 | 00:00:00 | |
| DB0UT-7 | 2026-09-02 00:12:22 | 45.60251 | 9.63610 | 80° | 44km/h | 17858m | 3.5m/s | -57.2°C | 5.1% | 0hPa | 2.6V | 00:00:00 | 00:00:00 | 00:00:00 | |
| IW2NTF | 2026-09-02 00:12:18 | 45.60239 | 9.63515 | 75° | 42km/h | 17831m | 3.8m/s | -57.2°C | 5% | 0hPa | 2.6V | 08:30:00 | 01:38:33 | 00:00:00 | |
| DO3MHA-11 | 2026-09-02 00:12:16 | 45.60239 | 9.63515 | 76° | 42km/h | 17831m | 3.8m/s | -57.1°C | 5.0% | 0hPa | 2.7V | 00:00:00 | 01:38:33 | 00:00:00 | |
| IW2NTF | 2026-09-02 00:12:11 | 45.60219 | 9.63368 | 82° | 44km/h | 17788m | 4.5m/s | -57.1°C | 4.9% | 0hPa | 2.7V | 08:30:00 | 01:38:23 | 00:00:00 | |
| DO3MHA-11 | 2026-09-02 00:12:06 | 45.60219 | 9.63368 | 83° | 42km/h | 17788m | 4.4m/s | -57.1°C | 4.9% | 0hPa | 2.6V | 00:00:00 | 01:38:23 | 00:00:00 | |
| NBG1-10 | 2026-09-02 00:12:04 | 45.60216 | 9.63337 | 80° | 44km/h | 17780m | 3.8m/s | -57.3°C | 5.0% | 0hPa | 2.6V | 00:00:00 | 01:38:21 | 08:30:00 | |
| IW2NTF | 2026-09-02 00:11:56 | 45.60203 | 9.63218 | 88° | 46km/h | 17745m | 4.4m/s | -57.8°C | 5.3% | 0hPa | 2.7V | 08:30:00 | 01:38:13 | 00:00:00 | |
| DO3MHA-11 | 2026-09-02 00:11:56 | 45.60203 | 9.63218 | 89° | 46km/h | 17745m | 4.3m/s | -57.7°C | 5.3% | 0hPa | 2.7V | 00:00:00 | 01:38:13 | 00:00:00 | |
| DB0UT-7 | 2026-09-02 00:11:52 | 45.60203 | 9.63150 | 92° | 42km/h | 17727m | 4.0m/s | -57.6°C | 5.2% | 0hPa | 2.6V | 00:00:00 | 01:38:09 | 00:00:00 | |
| IW2NTF | 2026-09-02 00:11:46 | 45.60209 | 9.63052 | 93° | 46km/h | 17700m | 3.6m/s | -57.4°C | 5.3% | 0hPa | 2.7V | 08:30:00 | 01:38:03 | 00:00:00 | |
| DO3MHA-11 | 2026-09-02 00:11:46 | 45.60209 | 9.63051 | 94° | 42km/h | 17701m | 3.6m/s | -57.4°C | 5.3% | 0hPa | 2.6V | 00:00:00 | 01:38:03 | 00:00:00 | |
| IW2NTF | 2026-09-02 00:11:37 | 45.60210 | 9.62901 | 84° | 40km/h | 17655m | 5.2m/s | -57.1°C | 5.2% | 0hPa | 2.6V | 08:30:00 | 01:37:53 | 00:00:00 | |
| DO3MHA-11 | 2026-09-02 00:11:36 | 45.60210 | 9.62901 | 85° | 42km/h | 17656m | 5.1m/s | -57.1°C | 5.2% | 0hPa | 2.6V | 00:00:00 | 01:37:53 | 00:00:00 | |
| NBG1-10 | 2026-09-02 00:11:31 | 45.60207 | 9.62827 | 91° | 37km/h | 17633m | 4.3m/s | -57.0°C | 5.2% | 0hPa | 2.6V | 00:00:00 | 01:37:48 | 00:00:00 | |
| IW2NTF | 2026-09-02 00:11:26 | 45.60207 | 9.62750 | 87° | 40km/h | 17610m | 4.1m/s | -56.9°C | 5.1% | 0hPa | 2.6V | 08:30:00 | 01:37:43 | 00:00:00 | |
| DO3MHA-11 | 2026-09-02 00:11:26 | 45.60206 | 9.62750 | 88° | 38km/h | 17610m | 4.1m/s | -56.8°C | 5.1% | 0hPa | 2.6V | 00:00:00 | 01:37:43 | 08:30:00 | |
| DB0UT-7 | 2026-09-02 00:11:22 | 45.60201 | 9.62695 | 82° | 35km/h | 17592m | 5.3m/s | -56.7°C | 5.1% | 0hPa | 2.6V | 00:00:00 | 00:00:00 | 00:00:00 | |
| IW2NTF | 2026-09-02 00:11:17 | 45.60196 | 9.62615 | 88° | 38km/h | 17564m | 5.2m/s | -56.5°C | 5.1% | 0hPa | 2.6V | 08:30:00 | 01:37:33 | 00:00:00 | |
| DO3MHA-11 | 2026-09-02 00:11:16 | 45.60196 | 9.62614 | 89° | 38km/h | 17564m | 5.2m/s | -56.4°C | 5.1% | 0hPa | 2.7V | 00:00:00 | 01:37:33 | 00:00:00 | |
| IW2NTF | 2026-09-02 00:11:11 | 45.60193 | 9.62481 | 76° | 33km/h | 17520m | 4.4m/s | -56.3°C | 4.9% | 0hPa | 2.7V | 08:30:00 | 01:37:23 | 00:00:00 | |
| DO3MHA-11 | 2026-09-02 00:11:06 | 45.60193 | 9.62480 | 77° | 31km/h | 17520m | 4.4m/s | -56.3°C | 4.9% | 0hPa | 2.7V | 00:00:00 | 01:37:23 | 00:00:00 | |
| IW2NTF | 2026-09-02 00:11:00 | 45.60194 | 9.62344 | 88° | 37km/h | 17465m | 3.7m/s | -55.9°C | 4.9% | 0hPa | 2.7V | 08:30:00 | 01:37:11 | 00:00:00 | |
| NBG1-10 | 2026-09-02 00:10:58 | 45.60190 | 9.62394 | 103° | 37km/h | 17483m | 4.6m/s | -56.0°C | 4.9% | 0hPa | 2.6V | 00:00:00 | 01:37:15 | 00:00:00 | |
| DO3MHA-11 | 2026-09-02 00:10:56 | 45.60194 | 9.62370 | 98° | 35km/h | 17474m | 5.2m/s | -56.0°C | 4.9% | 0hPa | 2.6V | 00:00:00 | 01:37:13 | 00:00:00 | |
| DB0UT-7 | 2026-09-02 00:10:52 | 45.60193 | 9.62319 | 88° | 38km/h | 17457m | 4.8m/s | -55.8°C | 4.9% | 0hPa | 2.7V | 00:00:00 | 01:37:09 | 00:00:00 | |
| DO3MHA-11 | 2026-09-02 00:10:46 | 45.60193 | 9.62244 | 93° | 37km/h | 17431m | 5.0m/s | -55.8°C | 4.9% | 0hPa | 2.7V | 00:00:00 | 01:37:03 | 00:00:00 | |
| IW2NTF | 2026-09-02 00:10:45 | 45.60195 | 9.62216 | 95° | 38km/h | 17422m | 4.3m/s | -55.8°C | 4.9% | 0hPa | 2.7V | 08:30:00 | 01:37:01 | 00:00:00 | |
| DO3MHA-11 | 2026-09-02 00:10:36 | 45.60201 | 9.62112 | 91° | 40km/h | 17387m | 5.1m/s | -55.6°C | 4.7% | 0hPa | 2.7V | 00:00:00 | 01:36:53 | 00:00:00 | |
| IW2NTF | 2026-09-02 00:10:34 | 45.60200 | 9.62081 | 84° | 44km/h | 17377m | 4m/s | -55.7°C | 4.7% | 0hPa | 2.7V | 08:30:00 | 01:36:51 | 00:00:00 | |
| DO3MHA-11 | 2026-09-02 00:10:26 | 45.60197 | 9.61967 | 94° | 47km/h | 17342m | 4.0m/s | -55.6°C | 4.8% | 0hPa | 2.6V | 00:00:00 | 01:36:43 | 00:00:00 | |
| NBG1-10 | 2026-09-02 00:10:25 | 45.60198 | 9.61950 | 96° | 49km/h | 17338m | 4.3m/s | -55.6°C | 4.8% | 0hPa | 2.6V | 00:00:00 | 01:36:42 | 00:00:00 | |
| IW2NTF | 2026-09-02 00:10:24 | 45.60203 | 9.61900 | 99° | 49km/h | 17324m | 4.7m/s | -55.6°C | 4.7% | 0hPa | 2.7V | 08:30:00 | 01:36:39 | 00:00:00 | |
| DB0UT-7 | 2026-09-02 00:10:22 | 45.60203 | 9.61900 | 100° | 49km/h | 17324m | 4.6m/s | -55.5°C | 4.7% | 0hPa | 2.7V | 00:00:00 | 00:00:00 | 08:30:00 | |
| DO3MHA-11 | 2026-09-02 00:10:16 | 45.60215 | 9.61795 | 98° | 46km/h | 17297m | 4.0m/s | -55.6°C | 4.7% | 0hPa | 2.7V | 00:00:00 | 01:36:33 | 00:00:00 | |
| IW2NTF | 2026-09-02 00:10:14 | 45.60220 | 9.61731 | 94° | 46km/h | 17279m | 3.6m/s | -55.6°C | 4.7% | 0hPa | 2.7V | 08:30:00 | 01:36:29 | 00:00:00 | |
| DO3MHA-11 | 2026-09-02 00:10:06 | 45.60227 | 9.61628 | 97° | 49km/h | 17253m | 4.5m/s | -55.8°C | 4.8% | 0hPa | 2.7V | 00:00:00 | 01:36:23 | 00:00:00 | |
| IW2NTF | 2026-09-02 00:10:04 | 45.60231 | 9.61557 | 90° | 51km/h | 17236m | 4.8m/s | -56°C | 4.9% | 0hPa | 2.7V | 08:30:00 | 01:36:19 | 00:00:00 | |
| DO3MHA-11 | 2026-09-02 00:09:56 | 45.60230 | 9.61450 | 88° | 53km/h | 17212m | 3.9m/s | -55.9°C | 4.8% | 0hPa | 2.7V | 00:00:00 | 01:36:13 | 08:30:00 | |
| IW2NTF | 2026-09-02 00:09:54 | 45.60225 | 9.61376 | 85° | 55km/h | 17195m | 4.3m/s | -55.9°C | 4.8% | 0hPa | 2.7V | 08:30:00 | 01:36:09 | 00:00:00 | |
| DB0UT-7 | 2026-09-02 00:09:52 | 45.60225 | 9.61376 | 86° | 51km/h | 17196m | 4.3m/s | -55.9°C | 4.8% | 0hPa | 2.7V | 00:00:00 | 01:36:09 | 00:00:00 | |
| DO3MHA-11 | 2026-09-02 00:09:46 | 45.60227 | 9.61263 | 98° | 49km/h | 17170m | 5.1m/s | -55.9°C | 4.9% | 0hPa | 2.7V | 00:00:00 | 01:36:03 | 00:00:00 | |
| IW2NTF | 2026-09-02 00:09:44 | 45.60231 | 9.61197 | 88° | 47km/h | 17153m | 4.4m/s | -56°C | 4.9% | 0hPa | 2.7V | 08:30:00 | 01:35:59 | 00:00:00 | |
| DO3MHA-11 | 2026-09-02 00:09:36 | 45.60226 | 9.61084 | 88° | 49km/h | 17130m | 4.0m/s | -56.2°C | 4.9% | 0hPa | 2.7V | 00:00:00 | 01:35:53 | 00:00:00 | |
| IW2NTF | 2026-09-02 00:09:34 | 45.60224 | 9.61011 | 89° | 47km/h | 17112m | 4.7m/s | -56.1°C | 4.9% | 0hPa | 2.7V | 08:30:00 | 01:35:49 | 00:00:00 | |
| DO3MHA-11 | 2026-09-02 00:09:29 | 45.60225 | 9.60905 | 94° | 53km/h | 17087m | 4.1m/s | -56.0°C | 4.9% | 0hPa | 2.7V | 00:00:00 | 01:35:43 | 00:00:00 | |
| IW2NTF | 2026-09-02 00:09:29 | 45.60226 | 9.60829 | 88° | 55km/h | 17071m | 3.4m/s | -56°C | 4.9% | 0hPa | 2.7V | 08:30:00 | 01:35:39 | 00:00:00 | |
| DB0UT-7 | 2026-09-02 00:09:22 | 45.60226 | 9.60829 | 89° | 53km/h | 17071m | 3.3m/s | -56.0°C | 4.9% | 0hPa | 2.7V | 00:00:00 | 00:00:00 | 00:00:00 | |
| NBG1-10 | 2026-09-02 00:09:19 | 45.60227 | 9.60770 | 93° | 53km/h | 17059m | 3.6m/s | -56.2°C | 5.0% | 0hPa | 2.7V | 00:00:00 | 01:35:36 | 00:00:00 | |
| DO3MHA-11 | 2026-09-02 00:09:16 | 45.60227 | 9.60712 | 91° | 53km/h | 17047m | 3.1m/s | -56.1°C | 5.0% | 0hPa | 2.7V | 00:00:00 | 01:35:33 | 00:00:00 | |
| IW2NTF | 2026-09-02 00:09:14 | 45.60230 | 9.60640 | 91° | 49km/h | 17031m | 3.8m/s | -56°C | 5% | 0hPa | 2.7V | 08:30:00 | 01:35:29 | 00:00:00 | |
| DO3MHA-11 | 2026-09-02 00:09:06 | 45.60224 | 9.60523 | 86° | 55km/h | 17008m | 3.1m/s | -55.8°C | 4.9% | 0hPa | 2.7V | 00:00:00 | 01:35:23 | 00:00:00 | |
| IW2NTF | 2026-09-02 00:09:04 | 45.60215 | 9.60440 | 81° | 57km/h | 16992m | 3.5m/s | -55.8°C | 4.8% | 0hPa | 2.7V | 08:30:00 | 01:35:19 | 00:00:00 | |
| DO3MHA-11 | 2026-09-02 00:08:56 | 45.60212 | 9.60330 | 87° | 53km/h | 16969m | 3.1m/s | -55.9°C | 4.9% | 0hPa | 2.7V | 00:00:00 | 01:35:13 | 00:00:00 | |
| IW2NTF | 2026-09-02 00:08:54 | 45.60209 | 9.60260 | 86° | 55km/h | 16954m | 3.8m/s | -56.1°C | 5% | 0hPa | 2.7V | 08:30:00 | 01:35:09 | 00:00:00 | |
| DB0UT-7 | 2026-09-02 00:08:52 | 45.60209 | 9.60260 | 87° | 51km/h | 16954m | 3.7m/s | -56.1°C | 5.0% | 0hPa | 2.7V | 00:00:00 | 01:35:09 | 00:00:00 | |
| DO3MHA-11 | 2026-09-02 00:08:46 | 45.60203 | 9.60139 | 89° | 51km/h | 16930m | 3.9m/s | -56.2°C | 5.1% | 0hPa | 2.6V | 00:00:00 | 01:35:03 | 00:00:00 | |
| IW2NTF | 2026-09-02 00:08:44 | 45.60201 | 9.60031 | 91° | 51km/h | 16906m | 3.6m/s | -56.1°C | 5% | 0hPa | 2.6V | 08:30:00 | 01:34:57 | 00:00:00 | |
| DO3MHA-11 | 2026-09-02 00:08:36 | 45.60200 | 9.59955 | 88° | 49km/h | 16890m | 3.5m/s | -56.1°C | 5.0% | 0hPa | 2.6V | 00:00:00 | 01:34:53 | 00:00:00 | |
| IW2NTF | 2026-09-02 00:08:34 | 45.60200 | 9.59844 | 88° | 47km/h | 16865m | 4.1m/s | -56.1°C | 4.9% | 0hPa | 2.6V | 08:30:00 | 01:34:47 | 00:00:00 | |
| DO3MHA-11 | 2026-09-02 00:08:26 | 45.60200 | 9.59775 | 92° | 53km/h | 16848m | 4.2m/s | -56.2°C | 5.1% | 0hPa | 2.7V | 00:00:00 | 01:34:43 | 08:30:00 | |
| IW2NTF | 2026-09-02 00:08:24 | 45.60205 | 9.59659 | 93° | 55km/h | 16823m | 4.2m/s | -56.4°C | 5.2% | 0hPa | 2.6V | 08:30:00 | 01:34:37 | 00:00:00 | |
| DB0UT-7 | 2026-09-02 00:08:22 | 45.60203 | 9.59700 | 94° | 53km/h | 16832m | 3.1m/s | -56.3°C | 5.2% | 0hPa | 2.6V | 00:00:00 | 00:00:00 | 00:00:00 | |
| DO3MHA-11 | 2026-09-02 00:08:16 | 45.60211 | 9.59584 | 100° | 51km/h | 16808m | 3.7m/s | -56.3°C | 5.2% | 0hPa | 2.6V | 00:00:00 | 01:34:33 | 00:00:00 | |
| IW2NTF | 2026-09-02 00:08:15 | 45.60219 | 9.59476 | 97° | 53km/h | 16784m | 3.5m/s | -56.7°C | 5.1% | 0hPa | 2.6V | 08:30:00 | 01:34:27 | 00:00:00 | |
| NBG1-10 | 2026-09-02 00:08:13 | 45.60215 | 9.59530 | 95° | 55km/h | 16796m | 3.0m/s | -56.4°C | 5.1% | 0hPa | 2.6V | 00:00:00 | 01:34:30 | 00:00:00 | |
| DO3MHA-11 | 2026-09-02 00:08:06 | 45.60226 | 9.59401 | 97° | 55km/h | 16767m | 4.8m/s | -56.7°C | 5.3% | 0hPa | 2.6V | 00:00:00 | 01:34:23 | 00:00:00 | |
| IW2NTF | 2026-09-02 00:08:05 | 45.60223 | 9.59288 | 83° | 51km/h | 16743m | 3.8m/s | -56.7°C | 5.4% | 0hPa | 2.6V | 08:30:00 | 01:34:17 | 00:00:00 | |
| DO3MHA-11 | 2026-09-02 00:07:56 | 45.60220 | 9.59206 | 88° | 55km/h | 16727m | 4.3m/s | -56.6°C | 5.3% | 0hPa | 2.7V | 00:00:00 | 01:34:13 | 00:00:00 | |
| IW2NTF | 2026-09-02 00:07:55 | 45.60213 | 9.59085 | 85° | 51km/h | 16702m | 4.5m/s | -56.5°C | 5.2% | 0hPa | 2.6V | 08:30:00 | 01:34:07 | 00:00:00 | |
| DB0UT-7 | 2026-09-02 00:07:53 | 45.60215 | 9.59122 | 86° | 57km/h | 16710m | 4.6m/s | -56.5°C | 5.3% | 0hPa | 2.6V | 00:00:00 | 01:34:09 | 00:00:00 | |
| DO3MHA-11 | 2026-09-02 00:07:46 | 45.60210 | 9.59010 | 91° | 55km/h | 16684m | 3.5m/s | -56.4°C | 5.2% | 0hPa | 2.6V | 00:00:00 | 01:34:03 | 00:00:00 | |
| IW2NTF | 2026-09-02 00:07:45 | 45.60209 | 9.58887 | 91° | 55km/h | 16658m | 4m/s | -56.8°C | 5.3% | 0hPa | 2.6V | 08:30:00 | 01:33:57 | 00:00:00 | |
| NBG1-10 | 2026-09-02 00:07:40 | 45.60209 | 9.58887 | 92° | 58km/h | 16658m | 3.9m/s | -56.8°C | 5.3% | 0hPa | 2.6V | 00:00:00 | 01:33:57 | 00:00:00 | |
| DO3MHA-11 | 2026-09-02 00:07:36 | 45.60209 | 9.58813 | 92° | 60km/h | 16642m | 3.9m/s | -57.0°C | 5.4% | 0hPa | 2.6V | 00:00:00 | 01:33:53 | 00:00:00 | |
| IW2NTF | 2026-09-02 00:07:34 | 45.60221 | 9.58691 | 96° | 64km/h | 16615m | 3.9m/s | -57°C | 5.4% | 0hPa | 2.6V | 08:30:00 | 01:33:47 | 00:00:00 | |
| DO3MHA-11 | 2026-09-02 00:07:26 | 45.60228 | 9.58597 | 95° | 57km/h | 16598m | 4.8m/s | -57.0°C | 5.4% | 0hPa | 2.7V | 00:00:00 | 01:33:43 | 00:00:00 | |
| IW2NTF | 2026-09-02 00:07:25 | 45.60234 | 9.58476 | 94° | 55km/h | 16572m | 4.5m/s | -57°C | 5.4% | 0hPa | 2.6V | 08:30:00 | 01:33:37 | 00:00:00 | |
| DB0UT-7 | 2026-09-02 00:07:22 | 45.60231 | 9.58515 | 96° | 60km/h | 16581m | 4.4m/s | -57.0°C | 5.4% | 0hPa | 2.7V | 00:00:00 | 00:00:00 | 00:00:00 | |
| DO3MHA-11 | 2026-09-02 00:07:16 | 45.60239 | 9.58392 | 96° | 62km/h | 16554m | 3.7m/s | -56.9°C | 5.4% | 0hPa | 2.6V | 00:00:00 | 01:33:33 | 00:00:00 | |
| IW2NTF | 2026-09-02 00:07:14 | 45.60237 | 9.58253 | 85° | 58km/h | 16529m | 4.6m/s | -57.2°C | 5.6% | 0hPa | 2.6V | 08:30:00 | 01:33:27 | 00:00:00 | |
| NBG1-10 | 2026-09-02 00:07:07 | 45.60234 | 9.58192 | 87° | 64km/h | 16517m | 4.8m/s | -57.3°C | 5.5% | 0hPa | 2.7V | 00:00:00 | 01:33:24 | 08:30:00 | |
| DO3MHA-11 | 2026-09-02 00:07:06 | 45.60233 | 9.58171 | 88° | 62km/h | 16512m | 4.5m/s | -57.3°C | 5.5% | 0hPa | 2.6V | 00:00:00 | 01:33:23 | 00:00:00 | |
| IW2NTF | 2026-09-02 00:07:04 | 45.60230 | 9.58042 | 82° | 64km/h | 16485m | 4.4m/s | -57.4°C | 5.6% | 0hPa | 2.6V | 08:30:00 | 01:33:17 | 00:00:00 | |
| DO3MHA-11 | 2026-09-02 00:06:56 | 45.60221 | 9.57949 | 81° | 64km/h | 16467m | 4.9m/s | -57.3°C | 5.6% | 0hPa | 2.7V | 00:00:00 | 01:33:13 | 08:30:00 | |
| IW2NTF | 2026-09-02 00:06:55 | 45.60210 | 9.57813 | 87° | 62km/h | 16440m | 5m/s | -57.2°C | 5.6% | 0hPa | 2.6V | 08:30:00 | 01:33:07 | 00:00:00 | |
| DB0UT-7 | 2026-09-02 00:06:52 | 45.60212 | 9.57858 | 87° | 64km/h | 16449m | 4.6m/s | -57.2°C | 5.6% | 0hPa | 2.6V | 00:00:00 | 01:33:09 | 00:00:00 | |
| DO3MHA-11 | 2026-09-02 00:06:46 | 45.60208 | 9.57721 | 87° | 66km/h | 16422m | 3.7m/s | -57.1°C | 5.6% | 0hPa | 2.6V | 00:00:00 | 01:33:03 | 00:00:00 | |
| IW2NTF | 2026-09-02 00:06:44 | 45.60196 | 9.57577 | 86° | 68km/h | 16395m | 3.9m/s | -57.4°C | 5.7% | 0hPa | 2.6V | 08:30:00 | 01:32:57 | 00:00:00 | |
| DO3MHA-11 | 2026-09-02 00:06:36 | 45.60193 | 9.57483 | 91° | 62km/h | 16377m | 5.3m/s | -57.3°C | 5.6% | 0hPa | 2.6V | 00:00:00 | 01:32:53 | 00:00:00 | |
| NBG1-10 | 2026-09-02 00:06:34 | 45.60193 | 9.57435 | 91° | 62km/h | 16368m | 4.0m/s | -57.3°C | 5.6% | 0hPa | 2.6V | 00:00:00 | 01:32:51 | 00:00:00 | |
| IW2NTF | 2026-09-02 00:06:33 | 45.60190 | 9.57345 | 85° | 60km/h | 16350m | 5.2m/s | -57.3°C | 5.6% | 0hPa | 2.6V | 08:30:00 | 01:32:47 | 00:00:00 | |
| DO3MHA-11 | 2026-09-02 00:06:26 | 45.60185 | 9.57261 | 84° | 62km/h | 16331m | 4.2m/s | -57.2°C | 5.7% | 0hPa | 2.7V | 00:00:00 | 01:32:43 | 00:00:00 | |
| IW2NTF | 2026-09-02 00:06:23 | 45.60174 | 9.57128 | 80° | 64km/h | 16306m | 4.1m/s | -57.2°C | 5.6% | 0hPa | 2.6V | 08:30:00 | 01:32:37 | 00:00:00 | |
| DB0UT-7 | 2026-09-02 00:06:22 | 45.60179 | 9.57174 | 84° | 58km/h | 16315m | 4.0m/s | -57.2°C | 5.6% | 0hPa | 2.6V | 00:00:00 | 00:00:00 | 00:00:00 | |
| DO3MHA-11 | 2026-09-02 00:06:16 | 45.60165 | 9.57037 | 83° | 60km/h | 16289m | 3.9m/s | -57.1°C | 5.7% | 0hPa | 2.6V | 00:00:00 | 01:32:33 | 00:00:00 | |
| IW2NTF | 2026-09-02 00:06:12 | 45.60148 | 9.56908 | 77° | 60km/h | 16264m | 3.9m/s | -57°C | 5.6% | 0hPa | 2.6V | 08:30:00 | 01:32:27 | 00:00:00 | |
| DO3MHA-11 | 2026-09-02 00:06:06 | 45.60135 | 9.56827 | 79° | 58km/h | 16247m | 5.0m/s | -56.8°C | 5.5% | 0hPa | 2.6V | 00:00:00 | 01:32:23 | 00:00:00 | |
| IW2NTF | 2026-09-02 00:06:02 | 45.60115 | 9.56703 | 74° | 57km/h | 16222m | 4m/s | -56.7°C | 5.5% | 0hPa | 2.6V | 08:30:00 | 01:32:17 | 00:00:00 | |
| NBG1-10 | 2026-09-02 00:06:01 | 45.60119 | 9.56723 | 75° | 53km/h | 16226m | 3.7m/s | -56.7°C | 5.5% | 0hPa | 2.7V | 00:00:00 | 01:32:18 | 00:00:00 | |
| DO3MHA-11 | 2026-09-02 00:05:56 | 45.60101 | 9.56625 | 76° | 51km/h | 16205m | 4.0m/s | -56.5°C | 5.5% | 0hPa | 2.7V | 00:00:00 | 01:32:13 | 00:00:00 | |
| IW2NTF | 2026-09-02 00:05:55 | 45.60083 | 9.56516 | 79° | 51km/h | 16179m | 4m/s | -56.4°C | 5.5% | 0hPa | 2.6V | 08:30:00 | 01:32:07 | 00:00:00 | |
| DB0UT-7 | 2026-09-02 00:05:52 | 45.60088 | 9.56553 | 78° | 51km/h | 16188m | 4.6m/s | -56.4°C | 5.5% | 0hPa | 2.7V | 00:00:00 | 01:32:09 | 08:30:00 | |
| DO3MHA-11 | 2026-09-02 00:05:47 | 45.60072 | 9.56443 | 78° | 51km/h | 16163m | 5.0m/s | -56.4°C | 5.4% | 0hPa | 2.6V | 00:00:00 | 01:32:03 | 00:00:00 | |
| IW2NTF | 2026-09-02 00:05:43 | 45.60053 | 9.56332 | 81° | 49km/h | 16137m | 4.9m/s | -56.2°C | 5.3% | 0hPa | 2.6V | 08:30:00 | 01:31:57 | 00:00:00 | |
| DO3MHA-11 | 2026-09-02 00:05:36 | 45.60049 | 9.56262 | 85° | 51km/h | 16121m | 4.2m/s | -56.1°C | 5.3% | 0hPa | 2.7V | 00:00:00 | 01:31:53 | 00:00:00 | |
| IW2NTF | 2026-09-02 00:05:34 | 45.60038 | 9.56152 | 79° | 53km/h | 16094m | 3.7m/s | -56°C | 5.3% | 0hPa | 2.7V | 08:30:00 | 01:31:47 | 00:00:00 | |
| NBG1-10 | 2026-09-02 00:05:27 | 45.60033 | 9.56094 | 87° | 55km/h | 16082m | 3.4m/s | -55.9°C | 5.3% | 0hPa | 2.6V | 00:00:00 | 01:31:44 | 00:00:00 | |
| DO3MHA-11 | 2026-09-02 00:05:26 | 45.60033 | 9.56075 | 87° | 51km/h | 16079m | 4.3m/s | -55.9°C | 5.2% | 0hPa | 2.6V | 00:00:00 | 01:31:43 | 08:30:00 | |
| IW2NTF | 2026-09-02 00:05:23 | 45.60025 | 9.55966 | 85° | 55km/h | 16054m | 3.3m/s | -55.9°C | 5.2% | 0hPa | 2.7V | 08:30:00 | 01:31:37 | 00:00:00 | |
| DB0UT-7 | 2026-09-02 00:05:22 | 45.60027 | 9.56004 | 84° | 57km/h | 16062m | 4.5m/s | -55.9°C | 5.3% | 0hPa | 2.7V | 00:00:00 | 00:00:00 | 00:00:00 | |
| DO3MHA-11 | 2026-09-02 00:05:16 | 45.60018 | 9.55891 | 79° | 55km/h | 16039m | 3.1m/s | -55.8°C | 5.2% | 0hPa | 2.7V | 00:00:00 | 01:31:33 | 00:00:00 | |
| IW2NTF | 2026-09-02 00:05:13 | 45.60006 | 9.55774 | 81° | 53km/h | 16015m | 3.4m/s | -55.9°C | 5.2% | 0hPa | 2.7V | 08:30:00 | 01:31:27 | 00:00:00 | |
| DO3MHA-11 | 2026-09-02 00:05:07 | 45.59997 | 9.55693 | 84° | 58km/h | 15999m | 4.0m/s | -55.8°C | 5.1% | 0hPa | 2.6V | 00:00:00 | 01:31:23 | 00:00:00 | |
| IW2NTF | 2026-09-02 00:05:02 | 45.59990 | 9.55569 | 88° | 58km/h | 15975m | 3.8m/s | -55.9°C | 5.2% | 0hPa | 2.6V | 08:30:00 | 01:31:17 | 00:00:00 | |
| DO3MHA-11 | 2026-09-02 00:04:57 | 45.59987 | 9.55485 | 88° | 62km/h | 15959m | 3.9m/s | -55.8°C | 5.2% | 0hPa | 2.6V | 00:00:00 | 01:31:13 | 00:00:00 | |
| IW2NTF | 2026-09-02 00:04:56 | 45.59985 | 9.55349 | 87° | 62km/h | 15935m | 4.6m/s | -55.7°C | 5.1% | 0hPa | 2.6V | 08:30:00 | 01:31:07 | 00:00:00 | |
| NBG1-10 | 2026-09-02 00:04:54 | 45.59986 | 9.55439 | 90° | 66km/h | 15951m | 3.4m/s | -55.8°C | 5.2% | 0hPa | 2.7V | 00:00:00 | 01:31:11 | 00:00:00 | |
| DB0UT-7 | 2026-09-02 00:04:52 | 45.59986 | 9.55393 | 89° | 66km/h | 15943m | 4.1m/s | -55.7°C | 5.1% | 0hPa | 2.7V | 00:00:00 | 01:31:09 | 00:00:00 | |
| DO3MHA-11 | 2026-09-02 00:04:46 | 45.59981 | 9.55261 | 87° | 66km/h | 15919m | 3.3m/s | -55.7°C | 5.1% | 0hPa | 2.7V | 00:00:00 | 01:31:03 | 00:00:00 | |
| IW2NTF | 2026-09-02 00:04:44 | 45.59978 | 9.55119 | 88° | 66km/h | 15895m | 3.9m/s | -55.7°C | 5% | 0hPa | 2.7V | 08:30:00 | 01:30:57 | 00:00:00 | |
| DO3MHA-11 | 2026-09-02 00:04:36 | 45.59975 | 9.55025 | 87° | 68km/h | 15879m | 3.7m/s | -55.8°C | 5.1% | 0hPa | 2.7V | 00:00:00 | 01:30:53 | 00:00:00 | |
| IW2NTF | 2026-09-02 00:04:33 | 45.59968 | 9.54884 | 84° | 71km/h | 15855m | 2.9m/s | -55.8°C | 5.2% | 0hPa | 2.7V | 08:30:00 | 01:30:47 | 00:00:00 | |
| DO3MHA-11 | 2026-09-02 00:04:26 | 45.59962 | 9.54784 | 87° | 68km/h | 15841m | 3.0m/s | -55.6°C | 5.1% | 0hPa | 2.7V | 00:00:00 | 01:30:43 | 00:00:00 | |
| IW2NTF | 2026-09-02 00:04:23 | 45.59956 | 9.54639 | 85° | 64km/h | 15818m | 3.7m/s | -55.5°C | 5.1% | 0hPa | 2.7V | 08:30:00 | 01:30:37 | 00:00:00 | |
| DB0UT-7 | 2026-09-02 00:04:22 | 45.59958 | 9.54686 | 87° | 66km/h | 15826m | 3.7m/s | -55.5°C | 5.1% | 0hPa | 2.6V | 00:00:00 | 00:00:00 | 00:00:00 | |
| NBG1-10 | 2026-09-02 00:04:21 | 45.59957 | 9.54662 | 87° | 66km/h | 15822m | 4.0m/s | -55.5°C | 5.1% | 0hPa | 2.6V | 00:00:00 | 01:30:38 | 00:00:00 | |
| DO3MHA-11 | 2026-09-02 00:04:16 | 45.59948 | 9.54543 | 82° | 68km/h | 15803m | 3.9m/s | -55.4°C | 5.0% | 0hPa | 2.6V | 00:00:00 | 01:30:33 | 00:00:00 | |
| IW2NTF | 2026-09-02 00:04:14 | 45.59930 | 9.54396 | 80° | 69km/h | 15780m | 3.9m/s | -55.3°C | 5% | 0hPa | 2.6V | 08:30:00 | 01:30:27 | 00:00:00 | |
| DO3MHA-11 | 2026-09-02 00:04:07 | 45.59920 | 9.54300 | 83° | 66km/h | 15765m | 4.1m/s | -55.1°C | 5.0% | 0hPa | 2.6V | 00:00:00 | 01:30:23 | 00:00:00 | |
| IW2NTF | 2026-09-02 00:04:03 | 45.59900 | 9.54113 | 79° | 66km/h | 15735m | 3.4m/s | -55°C | 4.9% | 0hPa | 2.6V | 08:30:00 | 01:30:15 | 00:00:00 | |
| DO3MHA-11 | 2026-09-02 00:04:01 | 45.59894 | 9.54068 | 84° | 66km/h | 15726m | 3.9m/s | -55.0°C | 4.9% | 0hPa | 2.7V | 00:00:00 | 01:30:13 | 08:30:00 | |
| DB0UT-7 | 2026-09-02 00:03:56 | 45.59889 | 9.53976 | 87° | 62km/h | 15710m | 4.7m/s | -55.1°C | 5.0% | 0hPa | 2.6V | 00:00:00 | 01:30:09 | 00:00:00 | |
| IW2NTF | 2026-09-02 00:03:52 | 45.59883 | 9.53882 | 81° | 68km/h | 15692m | 3.6m/s | -55.1°C | 5% | 0hPa | 2.6V | 08:30:00 | 01:30:05 | 00:00:00 | |
| IW2NTF | 2026-09-02 00:03:43 | 45.59862 | 9.53661 | 89° | 64km/h | 15655m | 3.8m/s | -55°C | 4.9% | 0hPa | 2.6V | 08:30:00 | 01:29:55 | 00:00:00 | |
| DO3MHA-11 | 2026-09-02 00:03:38 | 45.59861 | 9.53614 | 88° | 62km/h | 15648m | 4.3m/s | -54.9°C | 4.9% | 0hPa | 2.7V | 00:00:00 | 01:29:53 | 00:00:00 | |
| IW2NTF | 2026-09-02 00:03:34 | 45.59849 | 9.53433 | 83° | 60km/h | 15615m | 4.6m/s | -55.1°C | 5% | 0hPa | 2.7V | 08:30:00 | 01:29:45 | 00:00:00 | |
| DO3MHA-11 | 2026-09-02 00:03:29 | 45.59847 | 9.53391 | 89° | 60km/h | 15607m | 3.2m/s | -55.1°C | 5.1% | 0hPa | 2.6V | 00:00:00 | 01:29:43 | 00:00:00 | |
| DB0UT-7 | 2026-09-02 00:03:26 | 45.59846 | 9.53303 | 91° | 60km/h | 15592m | 4.2m/s | -55.1°C | 5.0% | 0hPa | 2.7V | 00:00:00 | 00:00:00 | 00:00:00 | |
| IW2NTF | 2026-09-02 00:03:20 | 45.59846 | 9.53217 | 87° | 60km/h | 15575m | 4m/s | -55.2°C | 5% | 0hPa | 2.7V | 08:30:00 | 01:29:35 | 00:00:00 | |
| IW2NTF | 2026-09-02 00:03:14 | 45.59842 | 9.52999 | 90° | 60km/h | 15534m | 4.8m/s | -55°C | 5% | 0hPa | 2.6V | 08:30:00 | 01:29:25 | 00:00:00 | |
| DO3MHA-11 | 2026-09-02 00:03:10 | 45.59832 | 9.52744 | 89° | 58km/h | 15486m | 3.3m/s | -54.9°C | 5.0% | 0hPa | 2.6V | 00:00:00 | 01:29:13 | 00:00:00 | |
| DB0UT-7 | 2026-09-02 00:03:07 | 45.59836 | 9.52660 | 97° | 69km/h | 15470m | 3.4m/s | -54.9°C | 4.9% | 0hPa | 2.6V | 00:00:00 | 01:29:09 | 00:00:00 | |
| IW2NTF | 2026-09-02 00:02:59 | 45.59834 | 9.52786 | 85° | 57km/h | 15493m | 3.7m/s | -54.9°C | 5% | 0hPa | 2.7V | 08:30:00 | 01:29:15 | 00:00:00 | |
| DO3MHA-11 | 2026-09-02 00:02:58 | 45.59834 | 9.52533 | 88° | 68km/h | 15445m | 5.0m/s | -55.0°C | 4.8% | 0hPa | 2.7V | 00:00:00 | 01:29:03 | 00:00:00 | |
| NBG1-10 | 2026-09-02 00:02:52 | 45.59840 | 9.52439 | 99° | 77km/h | 15426m | 5.0m/s | -55.3°C | 4.9% | 0hPa | 2.7V | 00:00:00 | 01:28:59 | 00:00:00 | |
| IW2NTF | 2026-09-02 00:02:51 | 45.59837 | 9.52577 | 84° | 60km/h | 15453m | 3.1m/s | -55°C | 4.8% | 0hPa | 2.7V | 08:30:00 | 01:29:05 | 00:00:00 | |
| IW2NTF | 2026-09-02 00:02:44 | 45.59853 | 9.52288 | 95° | 73km/h | 15397m | 5.8m/s | -55.4°C | 5% | 0hPa | 2.7V | 08:30:00 | 01:28:53 | 00:00:00 | |
| DO3MHA-11 | 2026-09-02 00:02:35 | 45.59872 | 9.52016 | 98° | 80km/h | 15352m | 3.9m/s | -55.5°C | 5.2% | 0hPa | 2.6V | 00:00:00 | 01:28:43 | 08:30:00 | |
| DB0UT-7 | 2026-09-02 00:02:32 | 45.59882 | 9.51901 | 97° | 78km/h | 15335m | 4.0m/s | -55.4°C | 5.2% | 0hPa | 2.6V | 00:00:00 | 00:00:00 | 00:00:00 | |
| DO3MHA-11 | 2026-09-02 00:02:25 | 45.59893 | 9.51728 | 94° | 80km/h | 15310m | 3.8m/s | -55.2°C | 5.1% | 0hPa | 2.6V | 00:00:00 | 01:28:33 | 00:00:00 | |
| IW2NTF | 2026-09-02 00:02:20 | 45.59894 | 9.51698 | 93° | 84km/h | 15306m | 4.2m/s | -55.2°C | 5.1% | 0hPa | 2.6V | 08:30:00 | 01:28:32 | 00:00:00 | |
| NBG1-10 | 2026-09-02 00:02:17 | 45.59899 | 9.51526 | 95° | 77km/h | 15280m | 4.0m/s | -55.0°C | 5.0% | 0hPa | 2.6V | 00:00:00 | 01:28:26 | 08:30:00 | |
| DO3MHA-11 | 2026-09-02 00:02:14 | 45.59905 | 9.51442 | 96° | 78km/h | 15267m | 3.9m/s | -54.9°C | 5.0% | 0hPa | 2.6V | 00:00:00 | 01:28:23 | 00:00:00 | |
| IW2NTF | 2026-09-02 00:02:07 | 45.59908 | 9.51327 | 88° | 78km/h | 15249m | 4.6m/s | -54.9°C | 5% | 0hPa | 2.6V | 08:30:00 | 01:28:19 | 00:00:00 | |
| DO3MHA-11 | 2026-09-02 00:02:02 | 45.59909 | 9.51158 | 93° | 77km/h | 15225m | 4.3m/s | -54.7°C | 5.0% | 0hPa | 2.6V | 00:00:00 | 01:28:13 | 00:00:00 | |
| DB0UT-7 | 2026-09-02 00:01:58 | 45.59912 | 9.51049 | 91° | 73km/h | 15208m | 4.5m/s | -54.7°C | 5.0% | 0hPa | 2.6V | 00:00:00 | 01:28:09 | 00:00:00 | |
| DO3MHA-11 | 2026-09-02 00:01:55 | 45.59913 | 9.50882 | 90° | 73km/h | 15182m | 5.0m/s | -54.7°C | 4.9% | 0hPa | 2.6V | 00:00:00 | 01:28:03 | 00:00:00 | |
| IW2NTF | 2026-09-02 00:01:54 | 45.59912 | 9.51049 | 90° | 77km/h | 15208m | 4.5m/s | -54.7°C | 5% | 0hPa | 2.6V | 08:30:00 | 01:28:09 | 00:00:00 | |
| IW2NTF | 2026-09-02 00:01:47 | 45.59913 | 9.50775 | 90° | 71km/h | 15164m | 4.6m/s | -54.8°C | 5% | 0hPa | 2.7V | 08:30:00 | 01:27:59 | 00:00:00 | |
| NBG1-10 | 2026-09-02 00:01:43 | 45.59913 | 9.50618 | 87° | 73km/h | 15138m | 3.8m/s | -54.9°C | 5.1% | 0hPa | 2.6V | 00:00:00 | 01:27:53 | 00:00:00 | |
| IW2NTF | 2026-09-02 00:01:37 | 45.59909 | 9.50508 | 87° | 77km/h | 15121m | 4m/s | -55°C | 5.1% | 0hPa | 2.6V | 08:30:00 | 01:27:49 | 00:00:00 | |
| DO3MHA-11 | 2026-09-02 00:01:32 | 45.59906 | 9.50354 | 91° | 73km/h | 15096m | 4.5m/s | -55.1°C | 5.2% | 0hPa | 2.6V | 00:00:00 | 01:27:43 | 00:00:00 | |
| IW2NTF | 2026-09-02 00:01:27 | 45.59908 | 9.50253 | 93° | 75km/h | 15078m | 3.8m/s | -55°C | 5.2% | 0hPa | 2.7V | 08:30:00 | 01:27:39 | 00:00:00 | |
| DB0UT-7 | 2026-09-02 00:01:27 | 45.59908 | 9.50253 | 94° | 75km/h | 15078m | 3.7m/s | -55.0°C | 5.2% | 0hPa | 2.7V | 00:00:00 | 00:00:00 | 08:30:00 | |
| DO3MHA-11 | 2026-09-02 00:01:19 | 45.59911 | 9.50087 | 93° | 71km/h | 15053m | 3.3m/s | -55.0°C | 5.1% | 0hPa | 2.7V | 00:00:00 | 01:27:33 | 00:00:00 | |
| IW2NTF | 2026-09-02 00:01:17 | 45.59917 | 9.49936 | 96° | 69km/h | 15027m | 3.2m/s | -55°C | 5% | 0hPa | 2.7V | 08:30:00 | 01:27:27 | 00:00:00 | |
| DO3MHA-11 | 2026-09-02 00:01:08 | 45.59919 | 9.49834 | 88° | 77km/h | 15011m | 4.0m/s | -55.1°C | 5.1% | 0hPa | 2.6V | 00:00:00 | 01:27:23 | 00:00:00 | |
| IW2NTF | 2026-09-02 00:01:07 | 45.59917 | 9.49695 | 90° | 77km/h | 14989m | 4m/s | -55.6°C | 5.2% | 0hPa | 2.6V | 08:30:00 | 01:27:18 | 00:00:00 | |
| DO3MHA-11 | 2026-09-02 00:00:57 | 45.59921 | 9.49559 | 91° | 78km/h | 14970m | 4.3m/s | -55.8°C | 5.4% | 0hPa | 2.7V | 00:00:00 | 01:27:13 | 08:30:00 | |
| IW2NTF | 2026-09-02 00:00:56 | 45.59916 | 9.49418 | 84° | 84km/h | 14950m | 3.8m/s | -56°C | 5.4% | 0hPa | 2.7V | 08:30:00 | 01:27:08 | 00:00:00 | |
| DB0UT-7 | 2026-09-02 00:00:52 | 45.59917 | 9.49447 | 86° | 75km/h | 14954m | 3.9m/s | -55.9°C | 5.4% | 0hPa | 2.7V | 00:00:00 | 01:27:09 | 00:00:00 | |
| DO3MHA-11 | 2026-09-02 00:00:49 | 45.59907 | 9.49273 | 88° | 78km/h | 14930m | 4.1m/s | -55.9°C | 5.5% | 0hPa | 2.7V | 00:00:00 | 01:27:03 | 00:00:00 | |
| IW2NTF | 2026-09-02 00:00:46 | 45.59902 | 9.49077 | 88° | 78km/h | 14903m | 3.6m/s | -55.9°C | 5.4% | 0hPa | 2.7V | 08:30:00 | 01:26:56 | 00:00:00 | |
| DO3MHA-11 | 2026-09-02 00:00:37 | 45.59900 | 9.48994 | 87° | 71km/h | 14891m | 3.7m/s | -55.8°C | 5.4% | 0hPa | 2.6V | 00:00:00 | 01:26:53 | 00:00:00 | |
| IW2NTF | 2026-09-02 00:00:35 | 45.59886 | 9.48815 | 86° | 69km/h | 14862m | 4.3m/s | -55.8°C | 5.4% | 0hPa | 2.6V | 08:30:00 | 01:26:46 | 00:00:00 | |
| DB0UT-7 | 2026-09-02 00:00:27 | 45.59880 | 9.48639 | 86° | 69km/h | 14836m | 3.8m/s | -55.9°C | 5.3% | 0hPa | 2.6V | 00:00:00 | 00:00:00 | 00:00:00 | |
| IW2NTF | 2026-09-02 00:00:23 | 45.59876 | 9.48566 | 85° | 66km/h | 14824m | 3.6m/s | -56.2°C | 5.5% | 0hPa | 2.6V | 08:30:00 | 01:26:36 | 00:00:00 | |
| DO3MHA-11 | 2026-09-02 00:00:21 | 45.59875 | 9.48493 | 92° | 71km/h | 14813m | 3.9m/s | -56.3°C | 5.6% | 0hPa | 2.7V | 00:00:00 | 01:26:33 | 00:00:00 | |
| IW2NTF | 2026-09-02 00:00:17 | 45.59880 | 9.48312 | 91° | 71km/h | 14786m | 4m/s | -56.3°C | 5.6% | 0hPa | 2.7V | 08:30:00 | 01:26:26 | 00:00:00 | |
| DO3MHA-11 | 2026-09-02 00:00:09 | 45.59881 | 9.48238 | 91° | 69km/h | 14775m | 4.3m/s | -56.2°C | 5.6% | 0hPa | 2.6V | 00:00:00 | 01:26:23 | 00:00:00 | |
| IW2NTF | 2026-09-02 00:00:00 | 45.59882 | 9.48065 | 91° | 71km/h | 14748m | 3m/s | -56.1°C | 5.7% | 0hPa | 2.6V | 08:30:00 | 01:26:16 | 00:00:00 | |
| NBG1-10 | 2026-09-01 23:59:57 | 45.59882 | 9.48014 | 92° | 71km/h | 14741m | 4.1m/s | -56.1°C | 5.6% | 0hPa | 2.7V | 00:00:00 | 01:26:14 | 00:00:00 | |
| DO3MHA-11 | 2026-09-01 23:59:56 | 45.59883 | 9.47989 | 91° | 69km/h | 14737m | 3.7m/s | -56.2°C | 5.6% | 0hPa | 2.7V | 00:00:00 | 01:26:13 | 00:00:00 | |
| IW2NTF | 2026-09-01 23:59:54 | 45.59882 | 9.47814 | 88° | 66km/h | 14711m | 3.8m/s | -56.3°C | 5.6% | 0hPa | 2.7V | 08:30:00 | 01:26:06 | 00:00:00 | |
| DB0UT-7 | 2026-09-01 23:59:52 | 45.59883 | 9.47886 | 90° | 71km/h | 14722m | 4.2m/s | -56.3°C | 5.6% | 0hPa | 2.6V | 00:00:00 | 01:26:09 | 00:00:00 | |
| DO3MHA-11 | 2026-09-01 23:59:45 | 45.59883 | 9.47716 | 95° | 71km/h | 14697m | 4.0m/s | -56.3°C | 5.6% | 0hPa | 2.6V | 00:00:00 | 01:26:02 | 00:00:00 | |
| IW2NTF | 2026-09-01 23:59:44 | 45.59897 | 9.47565 | 97° | 71km/h | 14675m | 3.9m/s | -56.3°C | 5.7% | 0hPa | 2.6V | 08:30:00 | 01:25:56 | 00:00:00 | |
| DO3MHA-11 | 2026-09-01 23:59:35 | 45.59903 | 9.47462 | 93° | 71km/h | 14661m | 2.8m/s | -56.5°C | 5.8% | 0hPa | 2.7V | 00:00:00 | 01:25:52 | 00:00:00 | |
| IW2NTF | 2026-09-01 23:59:33 | 45.59914 | 9.47307 | 96° | 73km/h | 14641m | 3.5m/s | -56.6°C | 5.8% | 0hPa | 2.7V | 08:30:00 | 01:25:46 | 00:00:00 | |
| DO3MHA-11 | 2026-09-01 23:59:25 | 45.59921 | 9.47204 | 95° | 78km/h | 14627m | 4.2m/s | -56.6°C | 5.9% | 0hPa | 2.6V | 00:00:00 | 01:25:42 | 08:30:00 | |
| IW2NTF | 2026-09-01 23:59:24 | 45.59927 | 9.47037 | 94° | 80km/h | 14605m | 4.3m/s | -56.7°C | 5.9% | 0hPa | 2.6V | 08:30:00 | 01:25:36 | 00:00:00 | |
| NBG1-10 | 2026-09-01 23:59:24 | 45.59922 | 9.47177 | 94° | 82km/h | 14623m | 3.2m/s | -56.6°C | 5.9% | 0hPa | 2.6V | 00:00:00 | 01:25:41 | 00:00:00 | |
| DB0UT-7 | 2026-09-01 23:59:22 | 45.59924 | 9.47121 | 92° | 82km/h | 14616m | 4.3m/s | -56.6°C | 5.9% | 0hPa | 2.6V | 00:00:00 | 00:00:00 | 00:00:00 | |
| DO3MHA-11 | 2026-09-01 23:59:15 | 45.59936 | 9.46923 | 98° | 82km/h | 14590m | 3.5m/s | -56.8°C | 6.0% | 0hPa | 2.6V | 00:00:00 | 01:25:32 | 00:00:00 | |
| IW2NTF | 2026-09-01 23:59:14 | 45.59951 | 9.46749 | 95° | 80km/h | 14569m | 3.6m/s | -56.8°C | 6.1% | 0hPa | 2.6V | 08:30:00 | 01:25:26 | 00:00:00 | |
| DO3MHA-11 | 2026-09-01 23:59:05 | 45.59958 | 9.46629 | 94° | 84km/h | 14555m | 4.4m/s | -56.7°C | 6.1% | 0hPa | 2.7V | 00:00:00 | 01:25:22 | 00:00:00 | |
| IW2NTF | 2026-09-01 23:58:57 | 45.59963 | 9.46267 | 90° | 82km/h | 14511m | 4.1m/s | -56.7°C | 6% | 0hPa | 2.7V | 08:30:00 | 01:25:10 | 00:00:00 | |
| DO3MHA-11 | 2026-09-01 23:58:54 | 45.59963 | 9.46297 | 91° | 86km/h | 14515m | 3.6m/s | -56.7°C | 6.0% | 0hPa | 2.7V | 00:00:00 | 01:25:11 | 00:00:00 | |
| DB0UT-7 | 2026-09-01 23:58:52 | 45.59963 | 9.46237 | 91° | 93km/h | 14508m | 3.4m/s | -56.7°C | 6.0% | 0hPa | 2.6V | 00:00:00 | 01:25:09 | 00:00:00 | |
| NBG1-10 | 2026-09-01 23:58:51 | 45.59964 | 9.46207 | 91° | 93km/h | 14504m | 4.2m/s | -56.7°C | 5.9% | 0hPa | 2.6V | 00:00:00 | 01:25:08 | 00:00:00 | |
| IW2NTF | 2026-09-01 23:58:47 | 45.59966 | 9.45955 | 89° | 91km/h | 14474m | 3.5m/s | -56.9°C | 6% | 0hPa | 2.7V | 08:30:00 | 01:25:00 | 00:00:00 | |
| DO3MHA-11 | 2026-09-01 23:58:44 | 45.59966 | 9.45988 | 90° | 91km/h | 14478m | 4.4m/s | -56.8°C | 6.0% | 0hPa | 2.6V | 00:00:00 | 01:25:01 | 00:00:00 | |
| IW2NTF | 2026-09-01 23:58:37 | 45.59962 | 9.45623 | 88° | 97km/h | 14436m | 4.2m/s | -57.1°C | 6.2% | 0hPa | 2.6V | 08:30:00 | 01:24:50 | 00:00:00 | |
| DO3MHA-11 | 2026-09-01 23:58:34 | 45.59962 | 9.45658 | 89° | 99km/h | 14440m | 3.6m/s | -57.0°C | 6.2% | 0hPa | 2.7V | 00:00:00 | 01:24:51 | 00:00:00 | |
| IW2NTF | 2026-09-01 23:58:27 | 45.59951 | 9.45232 | 86° | 99km/h | 14394m | 4.7m/s | -57.5°C | 6.2% | 0hPa | 2.7V | 08:30:00 | 01:24:39 | 00:00:00 | |
| DO3MHA-11 | 2026-09-01 23:58:24 | 45.59954 | 9.45302 | 88° | 100km/h | 14402m | 3.2m/s | -57.4°C | 6.3% | 0hPa | 2.7V | 00:00:00 | 01:24:41 | 00:00:00 | |
| DB0UT-7 | 2026-09-01 23:58:22 | 45.59951 | 9.45232 | 87° | 100km/h | 14395m | 4.7m/s | -57.4°C | 6.2% | 0hPa | 2.7V | 00:00:00 | 00:00:00 | 00:00:00 | |
| IW2NTF | 2026-09-01 23:58:18 | 45.59921 | 9.44872 | 81° | 97km/h | 14351m | 3.7m/s | -57.5°C | 6.3% | 0hPa | 2.6V | 08:30:00 | 01:24:29 | 00:00:00 | |
| DO3MHA-11 | 2026-09-01 23:58:14 | 45.59928 | 9.44943 | 82° | 100km/h | 14359m | 4.1m/s | -57.4°C | 6.3% | 0hPa | 2.6V | 00:00:00 | 01:24:31 | 00:00:00 | |
| IW2NTF | 2026-09-01 23:58:07 | 45.59877 | 9.44516 | 80° | 102km/h | 14312m | 3.7m/s | -57.4°C | 6.3% | 0hPa | 2.6V | 08:30:00 | 01:24:19 | 00:00:00 | |
| DO3MHA-11 | 2026-09-01 23:58:04 | 45.59885 | 9.44588 | 81° | 102km/h | 14320m | 4.3m/s | -57.4°C | 6.3% | 0hPa | 2.7V | 00:00:00 | 01:24:21 | 00:00:00 | |
| IW2NTF | 2026-09-01 23:57:57 | 45.59823 | 9.44160 | 75° | 99km/h | 14271m | 4.2m/s | -57°C | 6.2% | 0hPa | 2.7V | 08:30:00 | 01:24:09 | 00:00:00 | |
| DO3MHA-11 | 2026-09-01 23:57:54 | 45.59835 | 9.44229 | 77° | 99km/h | 14279m | 4.6m/s | -57.1°C | 6.3% | 0hPa | 2.7V | 00:00:00 | 01:24:11 | 08:30:00 | |
| DB0UT-7 | 2026-09-01 23:57:52 | 45.59823 | 9.44160 | 76° | 95km/h | 14271m | 4.1m/s | -57.0°C | 6.2% | 0hPa | 2.6V | 00:00:00 | 01:24:09 | 00:00:00 | |
| IW2NTF | 2026-09-01 23:57:47 | 45.59761 | 9.43824 | 75° | 88km/h | 14228m | 4.8m/s | -56.7°C | 6% | 0hPa | 2.6V | 08:30:00 | 01:23:59 | 00:00:00 | |
| NBG1-10 | 2026-09-01 23:57:45 | 45.59778 | 9.43919 | 75° | 93km/h | 14241m | 5.1m/s | 0°C | 0% | 0hPa | 2.7V | 00:00:00 | 01:24:02 | 00:00:00 | |
| DO3MHA-11 | 2026-09-01 23:57:44 | 45.59772 | 9.43886 | 76° | 93km/h | 14237m | 3.9m/s | -56.7°C | 6.0% | 0hPa | 2.7V | 00:00:00 | 01:24:01 | 00:00:00 | |
| IW2NTF | 2026-09-01 23:57:35 | 45.59690 | 9.43459 | 72° | 97km/h | 14184m | 3.6m/s | -56.3°C | 6.1% | 0hPa | 2.7V | 08:30:00 | 01:23:48 | 00:00:00 | |
| DO3MHA-11 | 2026-09-01 23:57:34 | 45.59713 | 9.43560 | 72° | 95km/h | 14196m | 3.4m/s | -56.4°C | 6.1% | 0hPa | 2.7V | 00:00:00 | 01:23:51 | 00:00:00 | |
| DO3MHA-11 | 2026-09-01 23:57:24 | 45.59641 | 9.43233 | 75° | 93km/h | 14156m | 4.9m/s | -56.0°C | 5.9% | 0hPa | 2.7V | 00:00:00 | 01:23:41 | 00:00:00 | |
| IW2NTF | 2026-09-01 23:57:22 | 45.59622 | 9.43136 | 74° | 95km/h | 14142m | 4.7m/s | -55.9°C | 5.9% | 0hPa | 2.6V | 08:30:00 | 01:23:38 | 00:00:00 | |
| DB0UT-7 | 2026-09-01 23:57:22 | 45.59629 | 9.43169 | 75° | 91km/h | 14147m | 4.1m/s | -55.9°C | 5.8% | 0hPa | 2.7V | 00:00:00 | 00:00:00 | 00:00:00 | |
| IW2NTF | 2026-09-01 23:57:16 | 45.59552 | 9.42817 | 73° | 91km/h | 14099m | 4.9m/s | -55.7°C | 5.7% | 0hPa | 2.7V | 08:30:00 | 01:23:28 | 00:00:00 | |
| DO3MHA-11 | 2026-09-01 23:57:14 | 45.59573 | 9.42910 | 72° | 91km/h | 14113m | 4.6m/s | -55.7°C | 5.8% | 0hPa | 2.6V | 00:00:00 | 01:23:31 | 00:00:00 | |
| NBG1-10 | 2026-09-01 23:57:12 | 45.59558 | 9.42848 | 73° | 91km/h | 14104m | 3.9m/s | 0°C | 0% | 0hPa | 2.6V | 00:00:00 | 01:23:29 | 00:00:00 | |
| IW2NTF | 2026-09-01 23:57:06 | 45.59484 | 9.42504 | 69° | 86km/h | 14057m | 3.9m/s | -55.6°C | 5.8% | 0hPa | 2.6V | 08:30:00 | 01:23:18 | 00:00:00 | |
| DO3MHA-11 | 2026-09-01 23:57:04 | 45.59506 | 9.42595 | 73° | 88km/h | 14070m | 4.0m/s | -55.6°C | 5.7% | 0hPa | 2.7V | 00:00:00 | 01:23:21 | 00:00:00 | |
| IW2NTF | 2026-09-01 23:56:56 | 45.59415 | 9.42207 | 72° | 84km/h | 14016m | 4.8m/s | -55.4°C | 5.7% | 0hPa | 2.7V | 08:30:00 | 01:23:08 | 00:00:00 | |
| DO3MHA-11 | 2026-09-01 23:56:54 | 45.59434 | 9.42296 | 73° | 84km/h | 14028m | 4.3m/s | -55.4°C | 5.7% | 0hPa | 2.6V | 00:00:00 | 01:23:11 | 00:00:00 | |
| DB0UT-7 | 2026-09-01 23:56:52 | 45.59421 | 9.42236 | 74° | 84km/h | 14020m | 3.8m/s | -55.4°C | 5.7% | 0hPa | 2.7V | 00:00:00 | 01:23:09 | 08:30:00 | |
| IW2NTF | 2026-09-01 23:56:46 | 45.59350 | 9.41921 | 75° | 84km/h | 13976m | 4.1m/s | -55.1°C | 5.6% | 0hPa | 2.7V | 08:30:00 | 01:22:58 | 00:00:00 | |
| DO3MHA-11 | 2026-09-01 23:56:44 | 45.59369 | 9.42006 | 71° | 84km/h | 13988m | 3.4m/s | -55.2°C | 5.7% | 0hPa | 2.6V | 00:00:00 | 01:23:01 | 00:00:00 | |
| IW2NTF | 2026-09-01 23:56:36 | 45.59292 | 9.41634 | 69° | 84km/h | 13937m | 4.4m/s | -54.9°C | 5.6% | 0hPa | 2.6V | 08:30:00 | 01:22:48 | 00:00:00 | |
| DO3MHA-11 | 2026-09-01 23:56:34 | 45.59313 | 9.41717 | 73° | 84km/h | 13949m | 4.4m/s | -54.8°C | 5.5% | 0hPa | 2.7V | 00:00:00 | 01:22:51 | 00:00:00 | |
| IW2NTF | 2026-09-01 23:56:26 | 45.59229 | 9.41340 | 71° | 84km/h | 13894m | 3.6m/s | -54.7°C | 5.5% | 0hPa | 2.7V | 08:30:00 | 01:22:38 | 00:00:00 | |
| DO3MHA-11 | 2026-09-01 23:56:24 | 45.59249 | 9.41427 | 73° | 88km/h | 13907m | 4.5m/s | -54.7°C | 5.5% | 0hPa | 2.6V | 00:00:00 | 01:22:41 | 08:30:00 | |
| DB0UT-7 | 2026-09-01 23:56:22 | 45.59236 | 9.41369 | 72° | 88km/h | 13898m | 5.2m/s | -54.6°C | 5.5% | 0hPa | 2.6V | 00:00:00 | 00:00:00 | 00:00:00 | |
| IW2NTF | 2026-09-01 23:56:16 | 45.59159 | 9.41039 | 70° | 86km/h | 13855m | 4m/s | -54.5°C | 5.4% | 0hPa | 2.6V | 08:30:00 | 01:22:28 | 00:00:00 | |
| DO3MHA-11 | 2026-09-01 23:56:14 | 45.59181 | 9.41129 | 72° | 88km/h | 13867m | 3.8m/s | -54.5°C | 5.5% | 0hPa | 2.6V | 00:00:00 | 01:22:31 | 00:00:00 | |
| IW2NTF | 2026-09-01 23:56:05 | 45.59092 | 9.40747 | 74° | 88km/h | 13817m | 4.7m/s | -54.5°C | 5.4% | 0hPa | 2.6V | 08:30:00 | 01:22:18 | 00:00:00 | |
| DO3MHA-11 | 2026-09-01 23:56:04 | 45.59111 | 9.40837 | 73° | 88km/h | 13829m | 4.4m/s | -54.5°C | 5.5% | 0hPa | 2.6V | 00:00:00 | 01:22:21 | 00:00:00 | |
| DO3MHA-11 | 2026-09-01 23:55:54 | 45.59052 | 9.40534 | 75° | 89km/h | 13789m | 3.8m/s | -54.5°C | 5.3% | 0hPa | 2.6V | 00:00:00 | 01:22:11 | 00:00:00 | |
| IW2NTF | 2026-09-01 23:55:53 | 45.59034 | 9.40444 | 72° | 88km/h | 13777m | 4.5m/s | -54.8°C | 5.5% | 0hPa | 2.8V | 08:30:00 | 01:22:08 | 00:00:00 | |
| DB0UT-7 | 2026-09-01 23:55:52 | 45.59040 | 9.40474 | 73° | 88km/h | 13781m | 3.5m/s | -54.7°C | 5.5% | 0hPa | 2.6V | 00:00:00 | 01:22:09 | 00:00:00 | |
| DO3MHA-11 | 2026-09-01 23:55:44 | 45.58990 | 9.40226 | 77° | 91km/h | 13749m | 3.9m/s | -54.9°C | 5.8% | 0hPa | 2.6V | 00:00:00 | 01:22:01 | 00:00:00 | |
| IW2NTF | 2026-09-01 23:55:42 | 45.58976 | 9.40128 | 79° | 91km/h | 13736m | 3.7m/s | -55°C | 5.8% | 0hPa | 2.6V | 08:30:00 | 01:21:58 | 00:00:00 | |
| IW2NTF | 2026-09-01 23:55:36 | 45.58937 | 9.39811 | 78° | 88km/h | 13697m | 4.7m/s | -55.2°C | 5.9% | 0hPa | 2.7V | 08:30:00 | 01:21:48 | 00:00:00 | |
| DO3MHA-11 | 2026-09-01 23:55:34 | 45.58949 | 9.39906 | 81° | 88km/h | 13710m | 4.5m/s | -55.1°C | 5.8% | 0hPa | 2.6V | 00:00:00 | 01:21:51 | 00:00:00 | |
| DO3MHA-11 | 2026-09-01 23:55:24 | 45.58896 | 9.39604 | 74° | 84km/h | 13670m | 3.6m/s | -55.1°C | 5.9% | 0hPa | 2.6V | 00:00:00 | 01:21:41 | 00:00:00 | |
| DB0UT-7 | 2026-09-01 23:55:22 | 45.58884 | 9.39547 | 74° | 82km/h | 13662m | 4.4m/s | -55.1°C | 5.9% | 0hPa | 2.7V | 00:00:00 | 00:00:00 | 00:00:00 | |
| IW2NTF | 2026-09-01 23:55:21 | 45.58866 | 9.39460 | 72° | 82km/h | 13650m | 4.5m/s | -55°C | 5.9% | 0hPa | 2.6V | 08:30:00 | 01:21:36 | 00:00:00 | |
| IW2NTF | 2026-09-01 23:55:14 | 45.58796 | 9.39178 | 69° | 86km/h | 13612m | 3.2m/s | -54.8°C | 6% | 0hPa | 2.7V | 08:30:00 | 01:21:26 | 00:00:00 | |
| DO3MHA-11 | 2026-09-01 23:55:14 | 45.58831 | 9.39319 | 71° | 82km/h | 13632m | 4.0m/s | -54.8°C | 5.9% | 0hPa | 2.6V | 00:00:00 | 01:21:31 | 00:00:00 | |
| DO3MHA-11 | 2026-09-01 23:55:04 | 45.58760 | 9.39040 | 71° | 82km/h | 13593m | 3.7m/s | -55.0°C | 6.2% | 0hPa | 2.6V | 00:00:00 | 01:21:21 | 00:00:00 | |
| IW2NTF | 2026-09-01 23:55:01 | 45.58725 | 9.38902 | 70° | 82km/h | 13575m | 4.6m/s | -55.1°C | 6.2% | 0hPa | 2.6V | 08:30:00 | 01:21:16 | 00:00:00 | |
| IW2NTF | 2026-09-01 23:54:55 | 45.58657 | 9.38630 | 68° | 78km/h | 13537m | 3.4m/s | -54.9°C | 6.5% | 0hPa | 2.6V | 08:30:00 | 01:21:06 | 00:00:00 | |
| DO3MHA-11 | 2026-09-01 23:54:54 | 45.58690 | 9.38764 | 71° | 78km/h | 13557m | 3.4m/s | -55.0°C | 6.4% | 0hPa | 2.6V | 00:00:00 | 01:21:11 | 08:30:00 | |
| DB0UT-7 | 2026-09-01 23:54:52 | 45.58678 | 9.38711 | 72° | 77km/h | 13549m | 3.6m/s | -54.9°C | 6.4% | 0hPa | 2.8V | 00:00:00 | 01:21:09 | 00:00:00 | |
| DO3MHA-11 | 2026-09-01 23:54:44 | 45.58625 | 9.38497 | 72° | 75km/h | 13519m | 4.1m/s | -54.7°C | 6.5% | 0hPa | 2.8V | 00:00:00 | 01:21:01 | 00:00:00 | |
| IW2NTF | 2026-09-01 23:54:40 | 45.58595 | 9.38367 | 71° | 78km/h | 13501m | 3.2m/s | -54.6°C | 6.4% | 0hPa | 2.8V | 08:30:00 | 01:20:56 | 00:00:00 | |
| IW2NTF | 2026-09-01 23:54:35 | 45.58532 | 9.38113 | 72° | 77km/h | 13464m | 4.3m/s | -54.4°C | 6.5% | 0hPa | 2.6V | 08:30:00 | 01:20:46 | 00:00:00 | |
| DO3MHA-11 | 2026-09-01 23:54:34 | 45.58563 | 9.38242 | 69° | 75km/h | 13483m | 3.9m/s | -54.5°C | 6.4% | 0hPa | 2.6V | 00:00:00 | 01:20:51 | 00:00:00 | |
| DO3MHA-11 | 2026-09-01 23:54:24 | 45.58505 | 9.37983 | 75° | 75km/h | 13447m | 3.0m/s | -54.5°C | 6.7% | 0hPa | 2.6V | 00:00:00 | 01:20:41 | 00:00:00 | |
| DB0UT-7 | 2026-09-01 23:54:22 | 45.58495 | 9.37934 | 71° | 73km/h | 13439m | 3.9m/s | -54.5°C | 6.8% | 0hPa | 2.6V | 00:00:00 | 00:00:00 | 00:00:00 | |
| IW2NTF | 2026-09-01 23:54:19 | 45.58477 | 9.37859 | 72° | 75km/h | 13428m | 3.3m/s | -55°C | 7.1% | 0hPa | 2.6V | 08:30:00 | 01:20:36 | 00:00:00 | |
| IW2NTF | 2026-09-01 23:54:14 | 45.58435 | 9.37599 | 72° | 68km/h | 13393m | 3.2m/s | -55°C | 7.4% | 0hPa | 2.6V | 08:30:00 | 01:20:26 | 00:00:00 | |
| DO3MHA-11 | 2026-09-01 23:54:14 | 45.58452 | 9.37722 | 81° | 69km/h | 13411m | 4.3m/s | -55.1°C | 7.5% | 0hPa | 2.8V | 00:00:00 | 01:20:31 | 00:00:00 | |
| DO3MHA-11 | 2026-09-01 23:54:04 | 45.58410 | 9.37484 | 74° | 73km/h | 13376m | 4.6m/s | -55.4°C | 7.7% | 0hPa | 2.8V | 00:00:00 | 01:20:21 | 00:00:00 | |
| IW2NTF | 2026-09-01 23:53:59 | 45.58392 | 9.37354 | 84° | 73km/h | 13354m | 4.5m/s | -55.7°C | 8% | 0hPa | 2.8V | 08:30:00 | 01:20:16 | 00:00:00 | |
| IW2NTF | 2026-09-01 23:53:54 | 45.58358 | 9.37077 | 81° | 86km/h | 13316m | 4.2m/s | -56.3°C | 8.6% | 0hPa | 2.8V | 08:30:00 | 01:20:06 | 00:00:00 | |
| DO3MHA-11 | 2026-09-01 23:53:54 | 45.58378 | 9.37225 | 78° | 84km/h | 13337m | 3.5m/s | -56.1°C | 8.3% | 0hPa | 2.7V | 00:00:00 | 01:20:11 | 00:00:00 | |
| DB0UT-7 | 2026-09-01 23:53:52 | 45.58369 | 9.37168 | 80° | 82km/h | 13328m | 4.0m/s | -56.1°C | 8.5% | 0hPa | 2.6V | 00:00:00 | 01:20:09 | 00:00:00 | |
| DO3MHA-11 | 2026-09-01 23:53:44 | 45.58348 | 9.36922 | 87° | 86km/h | 13298m | 4.0m/s | -56.3°C | 8.7% | 0hPa | 2.6V | 00:00:00 | 01:20:01 | 00:00:00 | |
| IW2NTF | 2026-09-01 23:53:39 | 45.58340 | 9.36771 | 83° | 84km/h | 13280m | 4.1m/s | -56.2°C | 8.5% | 0hPa | 2.6V | 08:30:00 | 01:19:56 | 00:00:00 | |
| DO3MHA-11 | 2026-09-01 23:53:34 | 45.58323 | 9.36617 | 81° | 80km/h | 13264m | 3.8m/s | -56.1°C | 8.5% | 0hPa | 2.6V | 00:00:00 | 01:19:51 | 00:00:00 | |
| IW2NTF | 2026-09-01 23:53:32 | 45.58311 | 9.36472 | 86° | 80km/h | 13246m | 3.5m/s | -56°C | 8.7% | 0hPa | 2.6V | 08:30:00 | 01:19:46 | 00:00:00 | |
| IW2NTF | 2026-09-01 23:53:24 | 45.58285 | 9.36187 | 80° | 80km/h | 13210m | 3.8m/s | -56.1°C | 9.1% | 0hPa | 2.6V | 08:30:00 | 01:19:36 | 00:00:00 | |
| DO3MHA-11 | 2026-09-01 23:53:24 | 45.58303 | 9.36328 | 83° | 78km/h | 13228m | 3.9m/s | -56.1°C | 8.9% | 0hPa | 2.6V | 00:00:00 | 01:19:41 | 08:30:00 | |
| DO3MHA-11 | 2026-09-01 23:53:14 | 45.58276 | 9.36047 | 88° | 80km/h | 13193m | 3.8m/s | -56.0°C | 9.0% | 0hPa | 2.8V | 00:00:00 | 01:19:31 | 00:00:00 | |
| IW2NTF | 2026-09-01 23:53:11 | 45.58272 | 9.35904 | 86° | 78km/h | 13174m | 3.2m/s | -55.9°C | 9.3% | 0hPa | 2.8V | 08:30:00 | 01:19:26 | 00:00:00 | |
| DB0UT-7 | 2026-09-01 23:53:06 | 45.58267 | 9.35817 | 84° | 84km/h | 13163m | 2.8m/s | -55.8°C | 9.3% | 0hPa | 2.6V | 00:00:00 | 00:00:00 | 00:00:00 | |
| DO3MHA-11 | 2026-09-01 23:53:04 | 45.58262 | 9.35759 | 84° | 82km/h | 13156m | 3.3m/s | -55.8°C | 9.3% | 0hPa | 2.6V | 00:00:00 | 01:19:21 | 00:00:00 | |
| IW2NTF | 2026-09-01 23:53:03 | 45.58253 | 9.35613 | 86° | 82km/h | 13137m | 4.2m/s | -55.7°C | 9.1% | 0hPa | 2.6V | 08:30:00 | 01:19:16 | 00:00:00 | |
| IW2NTF | 2026-09-01 23:52:55 | 45.58231 | 9.35310 | 80° | 88km/h | 13100m | 2.9m/s | -55.6°C | 9.7% | 0hPa | 2.8V | 08:30:00 | 01:19:06 | 00:00:00 | |
| DO3MHA-11 | 2026-09-01 23:52:54 | 45.58246 | 9.35464 | 85° | 86km/h | 13119m | 4.4m/s | -55.6°C | 9.4% | 0hPa | 2.7V | 00:00:00 | 01:19:11 | 00:00:00 | |
| IW2NTF | 2026-09-01 23:52:44 | 45.58206 | 9.35006 | 84° | 88km/h | 13063m | 3.8m/s | -56°C | 9.9% | 0hPa | 2.8V | 08:30:00 | 01:18:56 | 00:00:00 | |
| DO3MHA-11 | 2026-09-01 23:52:44 | 45.58217 | 9.35159 | 85° | 86km/h | 13082m | 3.4m/s | -55.7°C | 9.7% | 0hPa | 2.8V | 00:00:00 | 01:19:01 | 00:00:00 | |
| DB0UT-7 | 2026-09-01 23:52:36 | 45.58200 | 9.34912 | 84° | 91km/h | 13052m | 3.6m/s | -56.1°C | 10.2% | 0hPa | 2.8V | 00:00:00 | 01:18:53 | 00:00:00 | |
| IW2NTF | 2026-09-01 23:52:34 | 45.58177 | 9.34684 | 82° | 91km/h | 13026m | 4.1m/s | -56.1°C | 10.5% | 0hPa | 2.8V | 08:30:00 | 01:18:46 | 00:00:00 | |
| DO3MHA-11 | 2026-09-01 23:52:34 | 45.58194 | 9.34848 | 83° | 91km/h | 13045m | 4.2m/s | -56.1°C | 10.3% | 0hPa | 2.8V | 00:00:00 | 01:18:51 | 00:00:00 | |
| IW2NTF | 2026-09-01 23:52:24 | 45.58133 | 9.34363 | 77° | 91km/h | 12987m | 4.6m/s | -56°C | 10.7% | 0hPa | 2.8V | 08:30:00 | 01:18:36 | 00:00:00 | |
| DO3MHA-11 | 2026-09-01 23:52:24 | 45.58159 | 9.34523 | 79° | 91km/h | 13007m | 3.4m/s | -55.9°C | 10.5% | 0hPa | 2.7V | 00:00:00 | 01:18:41 | 00:00:00 | |
| IW2NTF | 2026-09-01 23:52:14 | 45.58099 | 9.34037 | 79° | 93km/h | 12948m | 3.5m/s | -56.2°C | 11% | 0hPa | 2.6V | 08:30:00 | 01:18:26 | 00:00:00 | |
| DO3MHA-11 | 2026-09-01 23:52:14 | 45.58114 | 9.34201 | 84° | 91km/h | 12967m | 4.1m/s | -55.9°C | 10.9% | 0hPa | 2.7V | 00:00:00 | 01:18:31 | 00:00:00 | |
| DB0UT-7 | 2026-09-01 23:52:06 | 45.58086 | 9.33940 | 80° | 91km/h | 12936m | 3.6m/s | -56.1°C | 11.2% | 0hPa | 2.7V | 00:00:00 | 00:00:00 | 08:30:00 | |
| DO3MHA-11 | 2026-09-01 23:52:04 | 45.58078 | 9.33875 | 82° | 89km/h | 12927m | 3.6m/s | -56.0°C | 11.3% | 0hPa | 2.8V | 00:00:00 | 01:18:21 | 00:00:00 | |
| IW2NTF | 2026-09-01 23:52:03 | 45.58062 | 9.33683 | 83° | 91km/h | 12904m | 3.9m/s | -56°C | 11.5% | 0hPa | 2.8V | 08:30:00 | 01:18:15 | 00:00:00 | |
| DO3MHA-11 | 2026-09-01 23:51:54 | 45.58050 | 9.33555 | 82° | 89km/h | 12888m | 4.6m/s | -55.9°C | 11.9% | 0hPa | 2.7V | 00:00:00 | 01:18:11 | 08:30:00 | |
| IW2NTF | 2026-09-01 23:51:53 | 45.58035 | 9.33364 | 84° | 89km/h | 12864m | 4.3m/s | -56.5°C | 12.7% | 0hPa | 2.8V | 08:30:00 | 01:18:05 | 00:00:00 | |
| DO3MHA-11 | 2026-09-01 23:51:44 | 45.58028 | 9.33234 | 87° | 95km/h | 12848m | 3.6m/s | -56.6°C | 12.9% | 0hPa | 2.6V | 00:00:00 | 01:18:01 | 00:00:00 | |
| IW2NTF | 2026-09-01 23:51:43 | 45.58020 | 9.33034 | 86° | 95km/h | 12824m | 4.1m/s | -56.5°C | 13.5% | 0hPa | 2.6V | 08:30:00 | 01:17:55 | 00:00:00 | |
| DB0UT-7 | 2026-09-01 23:51:36 | 45.58016 | 9.32964 | 85° | 99km/h | 12816m | 3.5m/s | -56.4°C | 13.7% | 0hPa | 2.6V | 00:00:00 | 01:17:53 | 00:00:00 | |
| DO3MHA-11 | 2026-09-01 23:51:34 | 45.58012 | 9.32893 | 87° | 99km/h | 12808m | 4.3m/s | -56.3°C | 13.6% | 0hPa | 2.6V | 00:00:00 | 01:17:51 | 00:00:00 | |
| IW2NTF | 2026-09-01 23:51:33 | 45.58004 | 9.32679 | 85° | 100km/h | 12785m | 3.9m/s | -56.1°C | 13.9% | 0hPa | 2.6V | 08:30:00 | 01:17:45 | 00:00:00 | |
| DO3MHA-11 | 2026-09-01 23:51:24 | 45.57995 | 9.32537 | 85° | 99km/h | 12768m | 4.6m/s | -56.0°C | 14.0% | 0hPa | 2.7V | 00:00:00 | 01:17:41 | 00:00:00 | |
| IW2NTF | 2026-09-01 23:51:23 | 45.57979 | 9.32326 | 81° | 95km/h | 12742m | 4.3m/s | -55.9°C | 14.7% | 0hPa | 2.6V | 08:30:00 | 01:17:35 | 00:00:00 | |
| DO3MHA-11 | 2026-09-01 23:51:14 | 45.57962 | 9.32184 | 81° | 99km/h | 12727m | 4.2m/s | -55.8°C | 14.9% | 0hPa | 2.6V | 00:00:00 | 01:17:31 | 00:00:00 | |
| IW2NTF | 2026-09-01 23:51:13 | 45.57935 | 9.31975 | 78° | 95km/h | 12700m | 4.3m/s | -55.9°C | 15.6% | 0hPa | 2.6V | 08:30:00 | 01:17:25 | 00:00:00 | |
| DB0UT-7 | 2026-09-01 23:51:06 | 45.57926 | 9.31907 | 82° | 102km/h | 12693m | 3.5m/s | -56.1°C | 16.2% | 0hPa | 2.8V | 00:00:00 | 00:00:00 | 00:00:00 | |
| DO3MHA-11 | 2026-09-01 23:51:04 | 45.57918 | 9.31835 | 81° | 102km/h | 12685m | 4.4m/s | -56.1°C | 16.2% | 0hPa | 2.8V | 00:00:00 | 01:17:21 | 00:00:00 | |
| IW2NTF | 2026-09-01 23:51:03 | 45.57889 | 9.31615 | 77° | 102km/h | 12660m | 4.7m/s | -56.4°C | 17.2% | 0hPa | 2.8V | 08:30:00 | 01:17:15 | 00:00:00 | |
| DO3MHA-11 | 2026-09-01 23:50:54 | 45.57868 | 9.31472 | 80° | 100km/h | 12644m | 3.4m/s | -56.4°C | 17.6% | 0hPa | 2.7V | 00:00:00 | 01:17:11 | 00:00:00 | |
| IW2NTF | 2026-09-01 23:50:53 | 45.57837 | 9.31259 | 78° | 100km/h | 12620m | 3.7m/s | -56.6°C | 18.3% | 0hPa | 2.8V | 08:30:00 | 01:17:05 | 00:00:00 | |
| DO3MHA-11 | 2026-09-01 23:50:44 | 45.57816 | 9.31119 | 78° | 102km/h | 12605m | 3.6m/s | -56.9°C | 18.9% | 0hPa | 2.8V | 00:00:00 | 01:17:01 | 00:00:00 | |
| IW2NTF | 2026-09-01 23:50:43 | 45.57790 | 9.30900 | 79° | 104km/h | 12581m | 3.5m/s | -57°C | 19.9% | 0hPa | 2.8V | 08:30:00 | 01:16:55 | 00:00:00 | |
| DB0UT-7 | 2026-09-01 23:50:36 | 45.57781 | 9.30827 | 81° | 99km/h | 12574m | 3.9m/s | -57.0°C | 20.1% | 0hPa | 2.7V | 00:00:00 | 01:16:53 | 00:00:00 | |
| IW2NTF | 2026-09-01 23:50:34 | 45.57748 | 9.30537 | 81° | 97km/h | 12542m | 4.6m/s | -57.1°C | 21.4% | 0hPa | 2.6V | 08:30:00 | 01:16:45 | 00:00:00 | |
| DO3MHA-11 | 2026-09-01 23:50:34 | 45.57773 | 9.30753 | 81° | 100km/h | 12566m | 4.0m/s | -57.0°C | 20.1% | 0hPa | 2.7V | 00:00:00 | 01:16:51 | 00:00:00 | |
| DO3MHA-11 | 2026-09-01 23:50:24 | 45.57734 | 9.30397 | 83° | 99km/h | 12527m | 3.7m/s | -57.2°C | 22.2% | 0hPa | 2.7V | 00:00:00 | 01:16:41 | 08:30:00 | |
| IW2NTF | 2026-09-01 23:50:23 | 45.57710 | 9.30186 | 81° | 99km/h | 12504m | 3.9m/s | -57.7°C | 23.9% | 0hPa | 2.8V | 08:30:00 | 01:16:35 | 00:00:00 | |
| DO3MHA-11 | 2026-09-01 23:50:14 | 45.57695 | 9.30046 | 83° | 97km/h | 12489m | 3.4m/s | -57.9°C | 25.3% | 0hPa | 2.7V | 00:00:00 | 01:16:31 | 00:00:00 | |
| IW2NTF | 2026-09-01 23:50:13 | 45.57676 | 9.29838 | 83° | 99km/h | 12467m | 4m/s | -58°C | 25.6% | 0hPa | 2.7V | 08:30:00 | 01:16:25 | 00:00:00 | |
| DB0UT-7 | 2026-09-01 23:50:06 | 45.57670 | 9.29768 | 84° | 102km/h | 12460m | 4.2m/s | -58.0°C | 25.8% | 0hPa | 2.8V | 00:00:00 | 00:00:00 | 00:00:00 | |
| DO3MHA-11 | 2026-09-01 23:50:04 | 45.57664 | 9.29697 | 84° | 100km/h | 12453m | 3.6m/s | -58.0°C | 26.2% | 0hPa | 2.8V | 00:00:00 | 01:16:21 | 00:00:00 | |
| IW2NTF | 2026-09-01 23:50:03 | 45.57650 | 9.29479 | 85° | 102km/h | 12429m | 4m/s | -57.9°C | 26.9% | 0hPa | 2.8V | 08:30:00 | 01:16:15 | 00:00:00 | |
| DO3MHA-11 | 2026-09-01 23:49:54 | 45.57642 | 9.29335 | 87° | 102km/h | 12414m | 4.1m/s | -57.8°C | 27.2% | 0hPa | 2.7V | 00:00:00 | 01:16:11 | 00:00:00 | |
| IW2NTF | 2026-09-01 23:49:53 | 45.57631 | 9.29115 | 85° | 104km/h | 12392m | 3.9m/s | -57.9°C | 28.4% | 0hPa | 2.8V | 08:30:00 | 01:16:05 | 00:00:00 | |
| IW2NTF | 2026-09-01 23:49:44 | 45.57615 | 9.28743 | 88° | 106km/h | 12354m | 3.3m/s | -57.6°C | 28.8% | 0hPa | 2.8V | 08:30:00 | 01:15:55 | 00:00:00 | |
| DB0UT-7 | 2026-09-01 23:49:36 | 45.57614 | 9.28666 | 90° | 110km/h | 12347m | 2.6m/s | -57.5°C | 0% | 0hPa | 2.7V | 00:00:00 | 01:15:53 | 00:00:00 | |
| DO3MHA-11 | 2026-09-01 23:49:34 | 45.57612 | 9.28588 | 88° | 106km/h | 12340m | 3.9m/s | -57.5°C | 29.2% | 0hPa | 2.7V | 00:00:00 | 01:15:51 | 00:00:00 | |
| IW2NTF | 2026-09-01 23:49:33 | 45.57604 | 9.28359 | 87° | 102km/h | 12315m | 4.3m/s | -57.3°C | 30% | 0hPa | 2.7V | 08:30:00 | 01:15:45 | 00:00:00 | |
| DO3MHA-11 | 2026-09-01 23:49:24 | 45.57600 | 9.28206 | 88° | 110km/h | 12301m | 3.0m/s | -57.1°C | 31.3% | 0hPa | 2.7V | 00:00:00 | 01:15:41 | 00:00:00 | |
| IW2NTF | 2026-09-01 23:49:23 | 45.57585 | 9.27968 | 85° | 108km/h | 12280m | 3.6m/s | -57.1°C | 32.8% | 0hPa | 2.8V | 08:30:00 | 01:15:35 | 00:00:00 | |
| DO3MHA-11 | 2026-09-01 23:49:14 | 45.57576 | 9.27814 | 85° | 111km/h | 12267m | 3.3m/s | -57.0°C | 33.8% | 0hPa | 2.8V | 00:00:00 | 01:15:31 | 00:00:00 | |
| IW2NTF | 2026-09-01 23:49:13 | 45.57563 | 9.27575 | 86° | 115km/h | 12244m | 4.2m/s | -57.3°C | 36.6% | 0hPa | 2.8V | 08:30:00 | 01:15:25 | 00:00:00 | |
| DB0UT-7 | 2026-09-01 23:49:06 | 45.57560 | 9.27493 | 89° | 115km/h | 12237m | 2.6m/s | 0°C | 0% | 0hPa | 2.7V | 00:00:00 | 00:00:00 | 00:00:00 | |
| DO3MHA-11 | 2026-09-01 23:49:04 | 45.57559 | 9.27413 | 88° | 113km/h | 12230m | 4.2m/s | -57.5°C | 39.4% | 0hPa | 2.7V | 00:00:00 | 01:15:21 | 00:00:00 | |
| IW2NTF | 2026-09-01 23:49:03 | 45.57545 | 9.27172 | 83° | 113km/h | 12208m | 4m/s | -57.9°C | 43.8% | 0hPa | 2.7V | 08:30:00 | 01:15:15 | 00:00:00 | |
| DO3MHA-11 | 2026-09-01 23:48:54 | 45.57534 | 9.27007 | 86° | 115km/h | 12195m | 1.9m/s | -58.1°C | 46.5% | 0hPa | 2.7V | 00:00:00 | 01:15:11 | 08:30:00 | |
| IW2NTF | 2026-09-01 23:48:53 | 45.57513 | 9.26762 | 82° | 115km/h | 12174m | 3.4m/s | -58.2°C | 49.3% | 0hPa | 2.8V | 08:30:00 | 01:15:05 | 00:00:00 | |
| DO3MHA-11 | 2026-09-01 23:48:44 | 45.57495 | 9.26599 | 81° | 119km/h | 12160m | 3.3m/s | -58.3°C | 52.6% | 0hPa | 2.7V | 00:00:00 | 01:15:01 | 00:00:00 | |
| IW2NTF | 2026-09-01 23:48:43 | 45.57465 | 9.26351 | 81° | 117km/h | 12139m | 4.1m/s | -58.6°C | 54% | 0hPa | 2.7V | 08:30:00 | 01:14:55 | 00:00:00 | |
| DB0UT-7 | 2026-09-01 23:48:36 | 45.57456 | 9.26266 | 82° | 120km/h | 12133m | 2.6m/s | 0°C | 0% | 0hPa | 2.7V | 00:00:00 | 01:14:53 | 00:00:00 | |
| DO3MHA-11 | 2026-09-01 23:48:34 | 45.57447 | 9.26180 | 80° | 119km/h | 12125m | 3.6m/s | -58.7°C | 54.6% | 0hPa | 2.7V | 00:00:00 | 01:14:51 | 00:00:00 | |
| IW2NTF | 2026-09-01 23:48:31 | 45.57396 | 9.25848 | 77° | 120km/h | 12097m | 2.8m/s | -58.9°C | 57.7% | 0hPa | 2.7V | 08:30:00 | 01:14:43 | 00:00:00 | |
| DO3MHA-11 | 2026-09-01 23:48:24 | 45.57383 | 9.25762 | 79° | 124km/h | 12091m | 3.5m/s | -58.8°C | 57.9% | 0hPa | 2.7V | 00:00:00 | 01:14:41 | 00:00:00 | |
| IW2NTF | 2026-09-01 23:48:21 | 45.57325 | 9.25412 | 74° | 124km/h | 12062m | 3.9m/s | -58.7°C | 59.8% | 0hPa | 2.7V | 08:30:00 | 01:14:33 | 00:00:00 | |
| DO3MHA-11 | 2026-09-01 23:48:14 | 45.57307 | 9.25325 | 74° | 124km/h | 12056m | 3.8m/s | -58.6°C | 59.7% | 0hPa | 2.8V | 00:00:00 | 01:14:31 | 00:00:00 | |
| IW2NTF | 2026-09-01 23:48:08 | 45.57239 | 9.24979 | 75° | 122km/h | 12027m | 2.9m/s | -58.4°C | 60.6% | 0hPa | 2.8V | 08:30:00 | 01:14:23 | 00:00:00 | |
| DB0UT-7 | 2026-09-01 23:48:06 | 45.57239 | 9.24979 | 76° | 124km/h | 12028m | 2.9m/s | 0°C | 0% | 0hPa | 2.8V | 00:00:00 | 00:00:00 | 00:00:00 | |
| DO3MHA-11 | 2026-09-01 23:48:04 | 45.57224 | 9.24892 | 76° | 124km/h | 12020m | 3.6m/s | -58.3°C | 61.2% | 0hPa | 2.8V | 00:00:00 | 01:14:21 | 00:00:00 | |
| IW2NTF | 2026-09-01 23:48:01 | 45.57161 | 9.24546 | 74° | 120km/h | 11991m | 4m/s | -58.1°C | 62% | 0hPa | 2.8V | 08:30:00 | 01:14:13 | 00:00:00 | |
| DO3MHA-11 | 2026-09-01 23:47:54 | 45.57145 | 9.24462 | 75° | 124km/h | 11984m | 3.8m/s | -58.0°C | 61.6% | 0hPa | 2.7V | 00:00:00 | 01:14:11 | 00:00:00 | |
| IW2NTF | 2026-09-01 23:47:48 | 45.57077 | 9.24118 | 74° | 126km/h | 11953m | 4.1m/s | -57.9°C | 61.3% | 0hPa | 2.8V | 08:30:00 | 01:14:03 | 00:00:00 | |
| DO3MHA-11 | 2026-09-01 23:47:44 | 45.57062 | 9.24032 | 76° | 122km/h | 11946m | 3.3m/s | -57.8°C | 61.8% | 0hPa | 2.8V | 00:00:00 | 01:14:01 | 00:00:00 | |
| IW2NTF | 2026-09-01 23:47:41 | 45.57000 | 9.23691 | 73° | 126km/h | 11915m | 3.8m/s | -57.6°C | 61.4% | 0hPa | 2.8V | 08:30:00 | 01:13:53 | 00:00:00 | |
| DO3MHA-11 | 2026-09-01 23:47:34 | 45.56982 | 9.23603 | 75° | 124km/h | 11908m | 4.2m/s | -57.5°C | 61.4% | 0hPa | 2.8V | 00:00:00 | 01:13:51 | 00:00:00 | |
| IW2NTF | 2026-09-01 23:47:28 | 45.56918 | 9.23215 | 77° | 122km/h | 11871m | 4.6m/s | -57.2°C | 61.9% | 0hPa | 2.8V | 08:30:00 | 01:13:42 | 00:00:00 | |
| DB0UT-7 | 2026-09-01 23:47:26 | 45.56924 | 9.23258 | 78° | 124km/h | 11875m | 3.4m/s | 0°C | 0% | 0hPa | 2.8V | 00:00:00 | 01:13:43 | 00:00:00 | |
| IW2NTF | 2026-09-01 23:47:17 | 45.56844 | 9.22786 | 76° | 122km/h | 11831m | 3.7m/s | -57°C | 61.7% | 0hPa | 2.8V | 08:30:00 | 01:13:32 | 00:00:00 | |
| IW2NTF | 2026-09-01 23:47:12 | 45.56768 | 9.22361 | 75° | 122km/h | 11792m | 4.3m/s | -56.8°C | 61.5% | 0hPa | 2.8V | 08:30:00 | 01:13:22 | 00:00:00 | |
| DO3MHA-11 | 2026-09-01 23:47:04 | 45.56760 | 9.22319 | 76° | 119km/h | 11788m | 4.1m/s | -56.8°C | 62.1% | 0hPa | 2.8V | 00:00:00 | 01:13:21 | 00:00:00 | |
| IW2NTF | 2026-09-01 23:46:55 | 45.56694 | 9.21903 | 80° | 120km/h | 11748m | 3.6m/s | -56.5°C | 63.1% | 0hPa | 2.8V | 08:30:00 | 01:13:11 | 00:00:00 | |
| DO3MHA-11 | 2026-09-01 23:46:54 | 45.56694 | 9.21903 | 81° | 120km/h | 11748m | 3.6m/s | -56.5°C | 63.1% | 0hPa | 2.7V | 00:00:00 | 01:13:11 | 00:00:00 | |
| IW2NTF | 2026-09-01 23:46:49 | 45.56622 | 9.21485 | 79° | 115km/h | 11706m | 3.8m/s | -56.2°C | 61.6% | 0hPa | 2.7V | 08:30:00 | 01:13:01 | 00:00:00 | |
| DO3MHA-11 | 2026-09-01 23:46:44 | 45.56622 | 9.21485 | 80° | 113km/h | 11706m | 3.8m/s | -56.2°C | 61.6% | 0hPa | 2.7V | 00:00:00 | 01:13:01 | 00:00:00 | |
| IW2NTF | 2026-09-01 23:46:38 | 45.56545 | 9.21051 | 76° | 115km/h | 11660m | 4.4m/s | -55.9°C | 62% | 0hPa | 2.7V | 08:30:00 | 01:12:50 | 00:00:00 | |
| DO3MHA-11 | 2026-09-01 23:46:34 | 45.56552 | 9.21092 | 76° | 115km/h | 11664m | 3.6m/s | -55.9°C | 62.2% | 0hPa | 2.7V | 00:00:00 | 01:12:51 | 00:00:00 | |
| IW2NTF | 2026-09-01 23:46:28 | 45.56480 | 9.20654 | 73° | 110km/h | 11619m | 4.5m/s | -55.6°C | 61.5% | 0hPa | 2.7V | 08:30:00 | 01:12:40 | 00:00:00 | |
| DO3MHA-11 | 2026-09-01 23:46:24 | 45.56487 | 9.20692 | 76° | 110km/h | 11624m | 4.3m/s | -55.6°C | 61.4% | 0hPa | 2.7V | 00:00:00 | 01:12:41 | 00:00:00 | |
| IW2NTF | 2026-09-01 23:46:18 | 45.56406 | 9.20273 | 77° | 113km/h | 11577m | 4.9m/s | -55.2°C | 61.2% | 0hPa | 2.8V | 08:30:00 | 01:12:30 | 00:00:00 | |
| DO3MHA-11 | 2026-09-01 23:46:14 | 45.56413 | 9.20313 | 78° | 111km/h | 11581m | 3.7m/s | -55.2°C | 60.9% | 0hPa | 2.8V | 00:00:00 | 01:12:31 | 00:00:00 | |
| IW2NTF | 2026-09-01 23:46:08 | 45.56334 | 9.19899 | 73° | 106km/h | 11537m | 4.2m/s | -54.9°C | 61.9% | 0hPa | 2.8V | 08:30:00 | 01:12:20 | 00:00:00 | |
| DO3MHA-11 | 2026-09-01 23:46:04 | 45.56341 | 9.19935 | 73° | 108km/h | 11541m | 3.7m/s | -54.9°C | 62.2% | 0hPa | 2.8V | 00:00:00 | 01:12:21 | 00:00:00 | |
| IW2NTF | 2026-09-01 23:45:57 | 45.56250 | 9.19487 | 76° | 108km/h | 11492m | 4.4m/s | -54.5°C | 62.7% | 0hPa | 2.8V | 08:30:00 | 01:12:09 | 00:00:00 | |
| DO3MHA-11 | 2026-09-01 23:45:54 | 45.56263 | 9.19562 | 75° | 108km/h | 11500m | 4.2m/s | -54.5°C | 62.2% | 0hPa | 2.7V | 00:00:00 | 01:12:11 | 08:30:00 | |
| IW2NTF | 2026-09-01 23:45:47 | 45.56184 | 9.19108 | 74° | 108km/h | 11455m | 3.4m/s | -54.2°C | 63.7% | 0hPa | 2.8V | 08:30:00 | 01:11:59 | 00:00:00 | |
| DO3MHA-11 | 2026-09-01 23:45:44 | 45.56198 | 9.19183 | 76° | 106km/h | 11463m | 3.2m/s | -54.2°C | 63.3% | 0hPa | 2.7V | 00:00:00 | 01:12:01 | 00:00:00 | |
| IW2NTF | 2026-09-01 23:45:37 | 45.56118 | 9.18740 | 75° | 108km/h | 11417m | 3.8m/s | -53.9°C | 62.7% | 0hPa | 2.7V | 08:30:00 | 01:11:49 | 00:00:00 | |
| DO3MHA-11 | 2026-09-01 23:45:34 | 45.56132 | 9.18814 | 76° | 108km/h | 11425m | 4.2m/s | -53.9°C | 63.1% | 0hPa | 2.8V | 00:00:00 | 01:11:51 | 00:00:00 | |
| IW2NTF | 2026-09-01 23:45:27 | 45.56048 | 9.18367 | 73° | 102km/h | 11377m | 3.8m/s | -53.6°C | 63.6% | 0hPa | 2.8V | 08:30:00 | 01:11:39 | 00:00:00 | |
| DO3MHA-11 | 2026-09-01 23:45:24 | 45.56063 | 9.18438 | 75° | 106km/h | 11384m | 3.6m/s | -53.6°C | 63.8% | 0hPa | 2.7V | 00:00:00 | 01:11:41 | 00:00:00 | |
| IW2NTF | 2026-09-01 23:45:17 | 45.55965 | 9.17927 | 74° | 104km/h | 11332m | 4.5m/s | -53.2°C | 63.7% | 0hPa | 2.8V | 08:30:00 | 01:11:27 | 00:00:00 | |
| DO3MHA-11 | 2026-09-01 23:45:14 | 45.55994 | 9.18072 | 75° | 104km/h | 11347m | 3.5m/s | 0°C | 0% | 0hPa | 2.8V | 00:00:00 | 01:11:31 | 00:00:00 | |
| DO3MHA-11 | 2026-09-01 23:45:04 | 45.55927 | 9.17707 | 77° | 106km/h | 11309m | 3.6m/s | 0°C | 0% | 0hPa | 2.8V | 00:00:00 | 01:11:21 | 00:00:00 | |
| IW2NTF | 2026-09-01 23:45:01 | 45.55894 | 9.17516 | 76° | 110km/h | 11290m | 3.6m/s | -52.9°C | 63.6% | 0hPa | 2.8V | 08:30:00 | 01:11:16 | 00:00:00 | |
| DO3MHA-11 | 2026-09-01 23:44:54 | 45.55864 | 9.17335 | 78° | 106km/h | 11272m | 3.8m/s | 0°C | 0% | 0hPa | 2.8V | 00:00:00 | 01:11:11 | 00:00:00 | |
| IW2NTF | 2026-09-01 23:44:51 | 45.55826 | 9.17111 | 76° | 108km/h | 11250m | 3.8m/s | -52.6°C | 63% | 0hPa | 2.8V | 08:30:00 | 01:11:05 | 00:00:00 | |
| DO3MHA-11 | 2026-09-01 23:44:44 | 45.55801 | 9.16961 | 77° | 108km/h | 11235m | 4.4m/s | 0°C | 0% | 0hPa | 2.7V | 00:00:00 | 01:11:01 | 00:00:00 | |
| IW2NTF | 2026-09-01 23:44:40 | 45.55757 | 9.16699 | 77° | 108km/h | 11208m | 4.2m/s | -52.3°C | 63.9% | 0hPa | 2.7V | 08:30:00 | 01:10:54 | 00:00:00 | |
| DO3MHA-11 | 2026-09-01 23:44:34 | 45.55739 | 9.16586 | 79° | 108km/h | 11197m | 4.2m/s | 0°C | 0% | 0hPa | 2.8V | 00:00:00 | 01:10:51 | 00:00:00 | |
| IW2NTF | 2026-09-01 23:44:30 | 45.55696 | 9.16320 | 76° | 111km/h | 11172m | 3.5m/s | -52.1°C | 64.4% | 0hPa | 2.8V | 08:30:00 | 01:10:44 | 00:00:00 | |
| DO3MHA-11 | 2026-09-01 23:44:24 | 45.55678 | 9.16204 | 79° | 104km/h | 11162m | 3.2m/s | 0°C | 0% | 0hPa | 2.7V | 00:00:00 | 01:10:41 | 08:30:00 | |
| IW2NTF | 2026-09-01 23:44:19 | 45.55642 | 9.15949 | 76° | 104km/h | 11137m | 3.5m/s | -51.8°C | 63.2% | 0hPa | 2.7V | 08:30:00 | 01:10:34 | 00:00:00 | |
| IW2NTF | 2026-09-01 23:44:08 | 45.55585 | 9.15585 | 78° | 100km/h | 11102m | 3.8m/s | -51.5°C | 61.9% | 0hPa | 2.8V | 08:30:00 | 01:10:24 | 00:00:00 | |
| IW2NTF | 2026-09-01 23:43:58 | 45.55535 | 9.15226 | 77° | 100km/h | 11069m | 3m/s | -51.2°C | 62.9% | 0hPa | 2.7V | 08:30:00 | 01:10:14 | 00:00:00 | |
| IW2NTF | 2026-09-01 23:43:49 | 45.55482 | 9.14869 | 77° | 99km/h | 11036m | 3.1m/s | -50.9°C | 63.1% | 0hPa | 2.8V | 08:30:00 | 01:10:04 | 00:00:00 | |
| IW2NTF | 2026-09-01 23:43:39 | 45.55420 | 9.14445 | 77° | 104km/h | 10996m | 2.8m/s | -50.6°C | 62.4% | 0hPa | 2.7V | 08:30:00 | 01:09:52 | 00:00:00 | |
| IW2NTF | 2026-09-01 23:43:28 | 45.55370 | 9.14083 | 78° | 102km/h | 10963m | 3m/s | -50.3°C | 61.2% | 0hPa | 2.7V | 08:30:00 | 01:09:42 | 00:00:00 | |
| IW2NTF | 2026-09-01 23:43:19 | 45.55319 | 9.13733 | 80° | 99km/h | 10931m | 2.7m/s | -50°C | 61.3% | 0hPa | 2.8V | 08:30:00 | 01:09:32 | 00:00:00 | |
| IW2NTF | 2026-09-01 23:43:07 | 45.55268 | 9.13371 | 79° | 104km/h | 10899m | 3.2m/s | -49.7°C | 61.3% | 0hPa | 2.8V | 08:30:00 | 01:09:22 | 00:00:00 | |
| IW2NTF | 2026-09-01 23:43:00 | 45.55218 | 9.13012 | 79° | 102km/h | 10866m | 3.8m/s | -49.5°C | 65.1% | 0hPa | 2.7V | 08:30:00 | 01:09:12 | 00:00:00 | |
| IW2NTF | 2026-09-01 23:42:50 | 45.55177 | 9.12644 | 78° | 100km/h | 10833m | 3.6m/s | -49.2°C | 68.5% | 0hPa | 2.7V | 08:30:00 | 01:09:02 | 00:00:00 | |
| IW2NTF | 2026-09-01 23:42:41 | 45.55128 | 9.12287 | 79° | 100km/h | 10801m | 3.5m/s | -48.9°C | 65.4% | 0hPa | 2.7V | 08:30:00 | 01:08:52 | 00:00:00 | |
| IW2NTF | 2026-09-01 23:42:30 | 45.55081 | 9.11931 | 78° | 102km/h | 10767m | 3.2m/s | -48.6°C | 64.1% | 0hPa | 2.7V | 08:30:00 | 01:08:42 | 00:00:00 | |
| IW2NTF | 2026-09-01 23:42:21 | 45.55030 | 9.11577 | 78° | 100km/h | 10732m | 3.3m/s | -48.4°C | 63.2% | 0hPa | 2.7V | 08:30:00 | 01:08:32 | 00:00:00 | |
| IW2NTF | 2026-09-01 23:42:11 | 45.54982 | 9.11226 | 80° | 102km/h | 10698m | 3.3m/s | -48.2°C | 70.2% | 0hPa | 2.7V | 08:30:00 | 01:08:22 | 00:00:00 | |
| IW2NTF | 2026-09-01 23:42:00 | 45.54929 | 9.10875 | 79° | 95km/h | 10664m | 4m/s | -48°C | 70.2% | 0hPa | 2.7V | 08:30:00 | 01:08:12 | 00:00:00 | |
| IW2NTF | 2026-09-01 23:41:51 | 45.54891 | 9.10492 | 80° | 97km/h | 10624m | 3.1m/s | -47.7°C | 68.4% | 0hPa | 2.7V | 08:30:00 | 01:08:01 | 00:00:00 | |
| IW2NTF | 2026-09-01 23:41:37 | 45.54855 | 9.10109 | 81° | 97km/h | 10587m | 3m/s | -47.3°C | 66.6% | 0hPa | 2.8V | 08:30:00 | 01:07:50 | 00:00:00 | |
| IW2NTF | 2026-09-01 23:41:28 | 45.54827 | 9.09755 | 84° | 93km/h | 10553m | 2.7m/s | -47°C | 64.5% | 0hPa | 2.8V | 08:30:00 | 01:07:40 | 00:00:00 | |
| IW2NTF | 2026-09-01 23:41:18 | 45.54804 | 9.09398 | 87° | 106km/h | 10518m | 2.3m/s | -46.7°C | 63.9% | 0hPa | 2.8V | 08:30:00 | 01:07:30 | 00:00:00 | |
| IW2NTF | 2026-09-01 23:41:08 | 45.54779 | 9.09010 | 85° | 100km/h | 10475m | 4.2m/s | -46.4°C | 62.3% | 0hPa | 2.8V | 08:30:00 | 01:07:19 | 00:00:00 | |
| IW2NTF | 2026-09-01 23:40:58 | 45.54759 | 9.08644 | 83° | 102km/h | 10438m | 3.9m/s | -46.1°C | 62.7% | 0hPa | 2.8V | 08:30:00 | 01:07:09 | 00:00:00 | |
| IW2NTF | 2026-09-01 23:40:47 | 45.54743 | 9.08272 | 86° | 106km/h | 10403m | 3.7m/s | -45.8°C | 64.1% | 0hPa | 2.8V | 08:30:00 | 01:06:59 | 00:00:00 | |
| IW2NTF | 2026-09-01 23:40:38 | 45.54727 | 9.07911 | 87° | 104km/h | 10368m | 4m/s | -45.5°C | 64.1% | 0hPa | 2.8V | 08:30:00 | 01:06:49 | 00:00:00 | |
| IW2NTF | 2026-09-01 23:40:27 | 45.54708 | 9.07535 | 86° | 99km/h | 10329m | 3.3m/s | -45.1°C | 64.5% | 0hPa | 2.8V | 08:30:00 | 01:06:39 | 00:00:00 | |
| IW2NTF | 2026-09-01 23:40:18 | 45.54690 | 9.07181 | 85° | 99km/h | 10290m | 4.4m/s | -44.8°C | 66.9% | 0hPa | 2.8V | 08:30:00 | 01:06:29 | 00:00:00 | |
| IW2NTF | 2026-09-01 23:40:03 | 45.54673 | 9.06829 | 84° | 99km/h | 10251m | 3.9m/s | -44.6°C | 70.2% | 0hPa | 2.7V | 08:30:00 | 01:06:19 | 00:00:00 | |
| IW2NTF | 2026-09-01 23:39:57 | 45.54654 | 9.06479 | 86° | 102km/h | 10214m | 3.4m/s | -44.2°C | 73.7% | 0hPa | 2.7V | 08:30:00 | 01:06:09 | 00:00:00 | |
| IW2NTF | 2026-09-01 23:39:47 | 45.54638 | 9.06126 | 86° | 93km/h | 10175m | 3.6m/s | -43.9°C | 73.8% | 0hPa | 2.8V | 08:30:00 | 01:05:59 | 00:00:00 | |
| IW2NTF | 2026-09-01 23:39:35 | 45.54625 | 9.05775 | 86° | 97km/h | 10136m | 4.2m/s | -43.6°C | 77.2% | 0hPa | 2.8V | 08:30:00 | 01:05:49 | 00:00:00 | |
| IW2NTF | 2026-09-01 23:39:25 | 45.54612 | 9.05440 | 86° | 93km/h | 10099m | 3.4m/s | -43.3°C | 76.3% | 0hPa | 2.9V | 08:30:00 | 01:05:39 | 00:00:00 | |
| IW2NTF | 2026-09-01 23:39:16 | 45.54599 | 9.05064 | 87° | 99km/h | 10055m | 4.5m/s | -42.9°C | 76.3% | 0hPa | 2.9V | 08:30:00 | 01:05:28 | 00:00:00 | |
| IW2NTF | 2026-09-01 23:39:07 | 45.54585 | 9.04718 | 85° | 95km/h | 10015m | 4.7m/s | -42.7°C | 81.3% | 0hPa | 2.7V | 08:30:00 | 01:05:18 | 00:00:00 | |
| IW2NTF | 2026-09-01 23:38:56 | 45.54570 | 9.04375 | 84° | 93km/h | 9972m | 5m/s | -42.5°C | 83.8% | 0hPa | 2.7V | 08:30:00 | 01:05:08 | 00:00:00 | |
| IW2NTF | 2026-09-01 23:38:46 | 45.54555 | 9.04040 | 88° | 99km/h | 9927m | 4.7m/s | -42.1°C | 86.5% | 0hPa | 2.8V | 08:30:00 | 01:04:58 | 00:00:00 | |
| IW2NTF | 2026-09-01 23:38:37 | 45.54538 | 9.03712 | 85° | 88km/h | 9876m | 6m/s | -41.8°C | 79.7% | 0hPa | 2.8V | 08:30:00 | 01:04:48 | 00:00:00 | |
| IW2NTF | 2026-09-01 23:38:27 | 45.54521 | 9.03409 | 82° | 80km/h | 9827m | 3m/s | -41.3°C | 74.1% | 0hPa | 2.7V | 08:30:00 | 01:04:38 | 00:00:00 | |
| IW2NTF | 2026-09-01 23:38:16 | 45.54496 | 9.03131 | 84° | 82km/h | 9777m | 6.3m/s | -40.8°C | 73.4% | 0hPa | 2.7V | 08:30:00 | 01:04:28 | 00:00:00 | |
| IW2NTF | 2026-09-01 23:38:06 | 45.54472 | 9.02813 | 81° | 82km/h | 9723m | 5.7m/s | -40.3°C | 74.1% | 0hPa | 2.8V | 08:30:00 | 01:04:17 | 00:00:00 | |
| IW2NTF | 2026-09-01 23:37:56 | 45.54451 | 9.02518 | 84° | 80km/h | 9674m | 3.8m/s | -39.9°C | 75.1% | 0hPa | 2.9V | 08:30:00 | 01:04:07 | 00:00:00 | |
| IW2NTF | 2026-09-01 23:37:46 | 45.54432 | 9.02225 | 86° | 77km/h | 9629m | 4.5m/s | -39.7°C | 76.3% | 0hPa | 2.7V | 08:30:00 | 01:03:57 | 00:00:00 | |
| IW2NTF | 2026-09-01 23:37:36 | 45.54414 | 9.01930 | 83° | 86km/h | 9584m | 4.7m/s | -39.4°C | 78.7% | 0hPa | 2.9V | 08:30:00 | 01:03:47 | 00:00:00 | |
| IW2NTF | 2026-09-01 23:37:26 | 45.54395 | 9.01629 | 84° | 86km/h | 9543m | 4.5m/s | -39.1°C | 81.9% | 0hPa | 2.9V | 08:30:00 | 01:03:37 | 00:00:00 | |
| IW2NTF | 2026-09-01 23:37:16 | 45.54375 | 9.01323 | 84° | 80km/h | 9501m | 4.5m/s | -38.8°C | 83.7% | 0hPa | 2.7V | 08:30:00 | 01:03:27 | 00:00:00 | |
| IW2NTF | 2026-09-01 23:37:03 | 45.54354 | 9.01032 | 83° | 80km/h | 9459m | 3.6m/s | -38.4°C | 82.9% | 0hPa | 2.9V | 08:30:00 | 01:03:17 | 00:00:00 | |
| IW2NTF | 2026-09-01 23:36:56 | 45.54335 | 9.00731 | 82° | 82km/h | 9418m | 3.2m/s | -38.1°C | 80.9% | 0hPa | 2.9V | 08:30:00 | 01:03:07 | 00:00:00 | |
| IW2NTF | 2026-09-01 23:36:46 | 45.54318 | 9.00435 | 86° | 86km/h | 9380m | 4.1m/s | -37.9°C | 82.9% | 0hPa | 2.7V | 08:30:00 | 01:02:57 | 00:00:00 | |
| IW2NTF | 2026-09-01 23:36:36 | 45.54306 | 9.00134 | 86° | 84km/h | 9343m | 4m/s | -37.6°C | 83.8% | 0hPa | 2.9V | 08:30:00 | 01:02:47 | 00:00:00 | |
| IW2NTF | 2026-09-01 23:36:26 | 45.54293 | 8.99832 | 84° | 86km/h | 9305m | 4.2m/s | -37.4°C | 83.6% | 0hPa | 2.9V | 08:30:00 | 01:02:37 | 00:00:00 | |
| IW2NTF | 2026-09-01 23:36:16 | 45.54278 | 8.99528 | 83° | 84km/h | 9269m | 4.6m/s | -37.1°C | 76.9% | 0hPa | 2.7V | 08:30:00 | 01:02:27 | 00:00:00 | |
| IW2NTF | 2026-09-01 23:36:05 | 45.54256 | 8.99229 | 87° | 86km/h | 9231m | 4.4m/s | -36.8°C | 74.2% | 0hPa | 2.9V | 08:30:00 | 01:02:17 | 00:00:00 | |
| IW2NTF | 2026-09-01 23:35:56 | 45.54229 | 8.98925 | 81° | 84km/h | 9196m | 3.5m/s | -36.5°C | 73.4% | 0hPa | 2.8V | 08:30:00 | 01:02:07 | 00:00:00 | |
| IW2NTF | 2026-09-01 23:35:46 | 45.54211 | 8.98626 | 82° | 84km/h | 9161m | 3.9m/s | -36.2°C | 72.2% | 0hPa | 2.9V | 08:30:00 | 01:01:57 | 00:00:00 | |
| IW2NTF | 2026-09-01 23:35:37 | 45.54173 | 8.98208 | 82° | 86km/h | 9109m | 3.9m/s | -35.8°C | 68.5% | 0hPa | 2.9V | 08:30:00 | 01:01:43 | 00:00:00 | |
| IW2NTF | 2026-09-01 23:35:30 | 45.54160 | 8.98023 | 84° | 84km/h | 9087m | 3.4m/s | -35.7°C | 67.9% | 0hPa | 2.9V | 08:30:00 | 01:01:37 | 00:00:00 | |
| IW2NTF | 2026-09-01 23:35:16 | 45.54132 | 8.97725 | 82° | 86km/h | 9050m | 4.2m/s | -35.4°C | 70.7% | 0hPa | 2.9V | 08:30:00 | 01:01:27 | 00:00:00 | |
| IW2NTF | 2026-09-01 23:35:05 | 45.54108 | 8.97423 | 82° | 86km/h | 9015m | 4.4m/s | -35.1°C | 70.7% | 0hPa | 2.9V | 08:30:00 | 01:01:17 | 00:00:00 | |
| IW2NTF | 2026-09-01 23:34:56 | 45.54082 | 8.97115 | 82° | 84km/h | 8978m | 3.2m/s | -34.8°C | 69.9% | 0hPa | 2.9V | 08:30:00 | 01:01:07 | 00:00:00 | |
| IW2NTF | 2026-09-01 23:34:46 | 45.54060 | 8.96811 | 86° | 88km/h | 8941m | 3.2m/s | -34.5°C | 70.9% | 0hPa | 2.9V | 08:30:00 | 01:00:57 | 00:00:00 | |
| IW2NTF | 2026-09-01 23:34:36 | 45.54042 | 8.96507 | 85° | 86km/h | 8906m | 4m/s | -34.2°C | 76.1% | 0hPa | 2.9V | 08:30:00 | 01:00:47 | 00:00:00 | |
| IW2NTF | 2026-09-01 23:34:26 | 45.54016 | 8.96210 | 81° | 77km/h | 8871m | 2.8m/s | -34.1°C | 76% | 0hPa | 2.9V | 08:30:00 | 01:00:37 | 00:00:00 | |
| IW2NTF | 2026-09-01 23:34:15 | 45.53996 | 8.95912 | 86° | 86km/h | 8836m | 4.5m/s | -33.9°C | 69.6% | 0hPa | 2.9V | 08:30:00 | 01:00:27 | 00:00:00 | |
| IW2NTF | 2026-09-01 23:34:01 | 45.53980 | 8.95608 | 87° | 86km/h | 8804m | 3m/s | -33.7°C | 70.4% | 0hPa | 2.9V | 08:30:00 | 01:00:17 | 00:00:00 | |
| IW2NTF | 2026-09-01 23:33:55 | 45.53962 | 8.95275 | 86° | 84km/h | 8766m | 3.4m/s | -33.6°C | 71.2% | 0hPa | 2.9V | 08:30:00 | 01:00:06 | 00:00:00 | |
| IW2NTF | 2026-09-01 23:33:44 | 45.53941 | 8.94917 | 84° | 80km/h | 8728m | 3m/s | -33.4°C | 73.3% | 0hPa | 2.8V | 08:30:00 | 00:59:54 | 00:00:00 | |
| IW2NTF | 2026-09-01 23:33:32 | 45.53929 | 8.94618 | 82° | 82km/h | 8694m | 3.1m/s | -33.3°C | 79.2% | 0hPa | 2.9V | 08:30:00 | 00:59:44 | 00:00:00 | |
| IW2NTF | 2026-09-01 23:33:22 | 45.53905 | 8.94330 | 83° | 80km/h | 8658m | 4.4m/s | -33.2°C | 81.4% | 0hPa | 2.8V | 08:30:00 | 00:59:34 | 00:00:00 | |
| IW2NTF | 2026-09-01 23:33:12 | 45.53878 | 8.94037 | 87° | 82km/h | 8624m | 3.7m/s | -33.2°C | 83.2% | 0hPa | 2.9V | 08:30:00 | 00:59:24 | 00:00:00 | |
| IW2NTF | 2026-09-01 23:33:02 | 45.53862 | 8.93733 | 82° | 84km/h | 8590m | 4m/s | -33.1°C | 87.8% | 0hPa | 2.9V | 08:30:00 | 00:59:14 | 00:00:00 | |
| IW2NTF | 2026-09-01 23:32:52 | 45.53842 | 8.93419 | 88° | 88km/h | 8555m | 3.5m/s | -32.9°C | 86.3% | 0hPa | 2.8V | 08:30:00 | 00:59:04 | 00:00:00 | |
| IW2NTF | 2026-09-01 23:32:42 | 45.53820 | 8.93131 | 82° | 82km/h | 8511m | 6.2m/s | -32.5°C | 85.8% | 0hPa | 2.9V | 08:30:00 | 00:58:54 | 00:00:00 | |
| IW2NTF | 2026-09-01 23:32:33 | 45.53800 | 8.92839 | 80° | 80km/h | 8464m | 4.1m/s | -32.2°C | 88.8% | 0hPa | 2.9V | 08:30:00 | 00:58:44 | 00:00:00 | |
| IW2NTF | 2026-09-01 23:32:22 | 45.53775 | 8.92540 | 84° | 77km/h | 8420m | 3.1m/s | -31.9°C | 90.5% | 0hPa | 2.9V | 08:30:00 | 00:58:34 | 00:00:00 | |
| IW2NTF | 2026-09-01 23:32:12 | 45.53755 | 8.92255 | 84° | 84km/h | 8378m | 4m/s | -31.7°C | 90.8% | 0hPa | 2.9V | 08:30:00 | 00:58:24 | 00:00:00 | |
| IW2NTF | 2026-09-01 23:32:02 | 45.53738 | 8.91950 | 87° | 84km/h | 8337m | 4.5m/s | -31.4°C | 89.4% | 0hPa | 2.9V | 08:30:00 | 00:58:14 | 00:00:00 | |
| IW2NTF | 2026-09-01 23:31:50 | 45.53719 | 8.91591 | 83° | 88km/h | 8289m | 4.3m/s | -31.3°C | 68.8% | 0hPa | 2.9V | 08:30:00 | 00:58:02 | 00:00:00 | |
| IW2NTF | 2026-09-01 23:31:40 | 45.53698 | 8.91286 | 86° | 84km/h | 8251m | 3.9m/s | -31°C | 43.9% | 0hPa | 2.9V | 08:30:00 | 00:57:52 | 00:00:00 | |
| IW2NTF | 2026-09-01 23:31:30 | 45.53667 | 8.90981 | 80° | 80km/h | 8213m | 5.1m/s | -30.8°C | 43.4% | 0hPa | 2.8V | 08:30:00 | 00:57:42 | 00:00:00 | |
| IW2NTF | 2026-09-01 23:31:21 | 45.53643 | 8.90688 | 83° | 78km/h | 8172m | 4.1m/s | -30.4°C | 42.6% | 0hPa | 2.9V | 08:30:00 | 00:57:32 | 00:00:00 | |
| IW2NTF | 2026-09-01 23:31:10 | 45.53627 | 8.90406 | 83° | 80km/h | 8137m | 3.4m/s | -30.1°C | 38.2% | 0hPa | 2.9V | 08:30:00 | 00:57:22 | 00:00:00 | |
| IW2NTF | 2026-09-01 23:31:01 | 45.53609 | 8.90120 | 86° | 77km/h | 8103m | 3.2m/s | -29.8°C | 36.9% | 0hPa | 2.9V | 08:30:00 | 00:57:12 | 00:00:00 | |
| IW2NTF | 2026-09-01 23:30:51 | 45.53593 | 8.89843 | 87° | 80km/h | 8069m | 4.2m/s | -29.5°C | 39.4% | 0hPa | 2.8V | 08:30:00 | 00:57:02 | 00:00:00 | |
| IW2NTF | 2026-09-01 23:30:41 | 45.53578 | 8.89562 | 84° | 77km/h | 8033m | 3.3m/s | -29.2°C | 39.2% | 0hPa | 2.9V | 08:30:00 | 00:56:52 | 00:00:00 | |
| IW2NTF | 2026-09-01 23:30:30 | 45.53557 | 8.89279 | 85° | 77km/h | 7998m | 4m/s | -28.8°C | 39.5% | 0hPa | 2.9V | 08:30:00 | 00:56:42 | 00:00:00 | |
| IW2NTF | 2026-09-01 23:30:20 | 45.53543 | 8.88997 | 84° | 75km/h | 7962m | 3.5m/s | -28.5°C | 38.8% | 0hPa | 2.9V | 08:30:00 | 00:56:32 | 00:00:00 | |
| IW2NTF | 2026-09-01 23:30:10 | 45.53517 | 8.88719 | 85° | 80km/h | 7928m | 3.5m/s | -28.2°C | 39.2% | 0hPa | 2.8V | 08:30:00 | 00:56:22 | 00:00:00 | |
| IW2NTF | 2026-09-01 23:30:00 | 45.53500 | 8.88451 | 85° | 75km/h | 7892m | 4m/s | -28°C | 44.2% | 0hPa | 2.9V | 08:30:00 | 00:56:12 | 00:00:00 | |
| IW2NTF | 2026-09-01 23:29:50 | 45.53476 | 8.88166 | 79° | 80km/h | 7857m | 3.6m/s | -27.7°C | 45.5% | 0hPa | 2.9V | 08:30:00 | 00:56:02 | 00:00:00 | |
| IW2NTF | 2026-09-01 23:29:40 | 45.53448 | 8.87893 | 82° | 77km/h | 7818m | 4.3m/s | -27.4°C | 43.1% | 0hPa | 2.8V | 08:30:00 | 00:55:52 | 00:00:00 | |
| IW2NTF | 2026-09-01 23:29:30 | 45.53417 | 8.87618 | 80° | 80km/h | 7782m | 2.8m/s | -27°C | 35.7% | 0hPa | 2.9V | 08:30:00 | 00:55:42 | 00:00:00 | |
| IW2NTF | 2026-09-01 23:29:20 | 45.53395 | 8.87347 | 80° | 78km/h | 7744m | 3.7m/s | -26.7°C | 33.9% | 0hPa | 2.9V | 08:30:00 | 00:55:32 | 00:00:00 | |
| IW2NTF | 2026-09-01 23:29:10 | 45.53357 | 8.87083 | 83° | 73km/h | 7705m | 3.1m/s | -26.4°C | 36% | 0hPa | 2.9V | 08:30:00 | 00:55:22 | 00:00:00 | |
| IW2NTF | 2026-09-01 23:29:01 | 45.53328 | 8.86816 | 76° | 82km/h | 7663m | 3.4m/s | -26.1°C | 29.7% | 0hPa | 2.9V | 08:30:00 | 00:55:12 | 00:00:00 | |
| IW2NTF | 2026-09-01 23:28:49 | 45.53286 | 8.86489 | 75° | 77km/h | 7613m | 5.1m/s | -25.7°C | 9.2% | 0hPa | 2.8V | 08:30:00 | 00:55:00 | 00:00:00 | |
| IW2NTF | 2026-09-01 23:28:33 | 45.53244 | 8.86225 | 74° | 73km/h | 7572m | 2.8m/s | -25.5°C | 13.5% | 0hPa | 2.8V | 08:30:00 | 00:54:50 | 00:00:00 | |
| IW2NTF | 2026-09-01 23:28:23 | 45.53199 | 8.85969 | 75° | 73km/h | 7537m | 3.9m/s | -25.1°C | 14.9% | 0hPa | 2.9V | 08:30:00 | 00:54:40 | 00:00:00 | |
| IW2NTF | 2026-09-01 23:28:13 | 45.53162 | 8.85717 | 77° | 69km/h | 7502m | 3.3m/s | -25.1°C | 23.8% | 0hPa | 2.9V | 08:30:00 | 00:54:30 | 00:00:00 | |
| IW2NTF | 2026-09-01 23:28:03 | 45.53117 | 8.85473 | 77° | 69km/h | 7464m | 4.8m/s | -25.1°C | 30.9% | 0hPa | 2.9V | 08:30:00 | 00:54:20 | 00:00:00 | |
| IW2NTF | 2026-09-01 23:27:52 | 45.53078 | 8.85191 | 78° | 68km/h | 7422m | 4.4m/s | -25°C | 29.5% | 0hPa | 2.9V | 08:30:00 | 00:54:09 | 00:00:00 | |
| IW2NTF | 2026-09-01 23:27:42 | 45.53030 | 8.84892 | 76° | 69km/h | 7378m | 4.3m/s | -24.7°C | 30.7% | 0hPa | 2.8V | 08:30:00 | 00:53:57 | 00:00:00 | |
| IW2NTF | 2026-09-01 23:27:30 | 45.52983 | 8.84645 | 73° | 68km/h | 7341m | 4.1m/s | -24.4°C | 28.6% | 0hPa | 2.8V | 08:30:00 | 00:53:47 | 00:00:00 | |
| IW2NTF | 2026-09-01 23:27:25 | 45.52938 | 8.84410 | 76° | 73km/h | 7304m | 4m/s | -24°C | 28.1% | 0hPa | 2.9V | 08:30:00 | 00:53:37 | 00:00:00 | |
| IW2NTF | 2026-09-01 23:27:15 | 45.52892 | 8.84168 | 74° | 68km/h | 7265m | 3.7m/s | -23.8°C | 28.6% | 0hPa | 2.9V | 08:30:00 | 00:53:27 | 00:00:00 | |
| IW2NTF | 2026-09-01 23:27:05 | 45.52843 | 8.83931 | 73° | 68km/h | 7231m | 3.9m/s | -23.6°C | 28.9% | 0hPa | 2.9V | 08:30:00 | 00:53:17 | 00:00:00 | |
| IW2NTF | 2026-09-01 23:26:55 | 45.52808 | 8.83692 | 81° | 73km/h | 7195m | 4.2m/s | -23.3°C | 27.3% | 0hPa | 2.9V | 08:30:00 | 00:53:07 | 00:00:00 | |
| IW2NTF | 2026-09-01 23:26:45 | 45.52777 | 8.83449 | 78° | 68km/h | 7162m | 2.9m/s | -23°C | 27.2% | 0hPa | 2.9V | 08:30:00 | 00:52:57 | 00:00:00 | |
| IW2NTF | 2026-09-01 23:26:35 | 45.52742 | 8.83203 | 78° | 69km/h | 7129m | 3.7m/s | -23°C | 31.3% | 0hPa | 2.8V | 08:30:00 | 00:52:47 | 00:00:00 | |
| IW2NTF | 2026-09-01 23:26:25 | 45.52715 | 8.82962 | 81° | 66km/h | 7096m | 2.6m/s | -23°C | 40.2% | 0hPa | 2.8V | 08:30:00 | 00:52:37 | 00:00:00 | |
| IW2NTF | 2026-09-01 23:26:15 | 45.52692 | 8.82724 | 80° | 64km/h | 7065m | 3.4m/s | -23°C | 59.7% | 0hPa | 2.9V | 08:30:00 | 00:52:27 | 00:00:00 | |
| IW2NTF | 2026-09-01 23:26:05 | 45.52659 | 8.82491 | 85° | 66km/h | 7032m | 3.3m/s | -22.7°C | 65.6% | 0hPa | 2.9V | 08:30:00 | 00:52:17 | 00:00:00 | |
| IW2NTF | 2026-09-01 23:25:49 | 45.52628 | 8.82237 | 77° | 68km/h | 6994m | 3.5m/s | -22.3°C | 64.8% | 0hPa | 2.9V | 08:30:00 | 00:52:06 | 00:00:00 | |
| IW2NTF | 2026-09-01 23:25:44 | 45.52598 | 8.82004 | 79° | 64km/h | 6959m | 3.2m/s | -22°C | 65.5% | 0hPa | 2.9V | 08:30:00 | 00:51:56 | 00:00:00 | |
| IW2NTF | 2026-09-01 23:25:30 | 45.52564 | 8.81774 | 79° | 66km/h | 6924m | 2.9m/s | -21.7°C | 62.7% | 0hPa | 2.8V | 08:30:00 | 00:51:46 | 00:00:00 | |
| IW2NTF | 2026-09-01 23:25:19 | 45.52520 | 8.81493 | 78° | 64km/h | 6882m | 3.8m/s | -21.3°C | 60.5% | 0hPa | 2.8V | 08:30:00 | 00:51:34 | 00:00:00 | |
| IW2NTF | 2026-09-01 23:25:09 | 45.52485 | 8.81265 | 75° | 66km/h | 6847m | 3.8m/s | -20.9°C | 58.1% | 0hPa | 2.9V | 08:30:00 | 00:51:24 | 00:00:00 | |
| IW2NTF | 2026-09-01 23:24:59 | 45.52447 | 8.81033 | 76° | 68km/h | 6814m | 3.8m/s | -20.6°C | 54.8% | 0hPa | 2.9V | 08:30:00 | 00:51:14 | 00:00:00 | |
| IW2NTF | 2026-09-01 23:24:49 | 45.52408 | 8.80803 | 77° | 64km/h | 6778m | 4.5m/s | -20.4°C | 50.2% | 0hPa | 2.8V | 08:30:00 | 00:51:04 | 00:00:00 | |
| IW2NTF | 2026-09-01 23:24:39 | 45.52372 | 8.80575 | 79° | 62km/h | 6744m | 2.6m/s | -20.1°C | 50.4% | 0hPa | 2.9V | 08:30:00 | 00:50:54 | 00:00:00 | |
| IW2NTF | 2026-09-01 23:24:29 | 45.52340 | 8.80351 | 81° | 62km/h | 6710m | 4m/s | -19.8°C | 49.4% | 0hPa | 2.9V | 08:30:00 | 00:50:44 | 00:00:00 | |
| IW2NTF | 2026-09-01 23:24:19 | 45.52314 | 8.80130 | 81° | 64km/h | 6675m | 3.4m/s | -19.5°C | 48.5% | 0hPa | 2.9V | 08:30:00 | 00:50:34 | 00:00:00 | |
| IW2NTF | 2026-09-01 23:24:10 | 45.52287 | 8.79911 | 80° | 62km/h | 6643m | 2.8m/s | -19.2°C | 47.2% | 0hPa | 2.9V | 08:30:00 | 00:50:24 | 00:00:00 | |
| IW2NTF | 2026-09-01 23:23:59 | 45.52265 | 8.79689 | 80° | 60km/h | 6610m | 2.9m/s | -19°C | 45.4% | 0hPa | 2.9V | 08:30:00 | 00:50:14 | 00:00:00 | |
| IW2NTF | 2026-09-01 23:23:49 | 45.52243 | 8.79467 | 81° | 62km/h | 6577m | 2.8m/s | -18.8°C | 44.1% | 0hPa | 2.8V | 08:30:00 | 00:50:04 | 00:00:00 | |
| IW2NTF | 2026-09-01 23:23:39 | 45.52224 | 8.79248 | 81° | 64km/h | 6545m | 3.9m/s | -18.6°C | 47.4% | 0hPa | 2.9V | 08:30:00 | 00:49:54 | 00:00:00 | |
| IW2NTF | 2026-09-01 23:23:29 | 45.52211 | 8.79029 | 86° | 58km/h | 6513m | 2.8m/s | -18.4°C | 55.9% | 0hPa | 2.9V | 08:30:00 | 00:49:44 | 00:00:00 | |
| IW2NTF | 2026-09-01 23:23:19 | 45.52200 | 8.78808 | 83° | 62km/h | 6482m | 2.8m/s | -18.1°C | 45.1% | 0hPa | 2.9V | 08:30:00 | 00:49:34 | 00:00:00 | |
| IW2NTF | 2026-09-01 23:23:09 | 45.52187 | 8.78597 | 83° | 64km/h | 6448m | 3.9m/s | -17.8°C | 42% | 0hPa | 2.9V | 08:30:00 | 00:49:24 | 00:00:00 | |
| IW2NTF | 2026-09-01 23:22:59 | 45.52173 | 8.78386 | 87° | 57km/h | 6418m | 3.1m/s | -17.5°C | 39.5% | 0hPa | 2.9V | 08:30:00 | 00:49:14 | 00:00:00 | |
| IW2NTF | 2026-09-01 23:22:49 | 45.52163 | 8.78168 | 86° | 62km/h | 6385m | 2.5m/s | -17.3°C | 36.4% | 0hPa | 2.9V | 08:30:00 | 00:49:04 | 00:00:00 | |
| IW2NTF | 2026-09-01 23:22:39 | 45.52157 | 8.77952 | 85° | 57km/h | 6353m | 3.2m/s | -17°C | 33.4% | 0hPa | 2.9V | 08:30:00 | 00:48:54 | 00:00:00 | |
| IW2NTF | 2026-09-01 23:22:29 | 45.52148 | 8.77744 | 85° | 53km/h | 6320m | 3.8m/s | -16.7°C | 29% | 0hPa | 2.9V | 08:30:00 | 00:48:44 | 00:00:00 | |
| IW2NTF | 2026-09-01 23:22:19 | 45.52134 | 8.77547 | 84° | 57km/h | 6281m | 4m/s | -16.5°C | 28.6% | 0hPa | 2.9V | 08:30:00 | 00:48:34 | 00:00:00 | |
| IW2NTF | 2026-09-01 23:22:10 | 45.52123 | 8.77345 | 86° | 53km/h | 6244m | 3.7m/s | -16.2°C | 29.2% | 0hPa | 2.8V | 08:30:00 | 00:48:24 | 00:00:00 | |
| IW2NTF | 2026-09-01 23:21:59 | 45.52117 | 8.77155 | 84° | 53km/h | 6209m | 3.4m/s | -15.9°C | 29.6% | 0hPa | 3V | 08:30:00 | 00:48:14 | 00:00:00 | |
| IW2NTF | 2026-09-01 23:21:50 | 45.52109 | 8.76960 | 83° | 58km/h | 6173m | 2.6m/s | -15.6°C | 27.1% | 0hPa | 3V | 08:30:00 | 00:48:04 | 00:00:00 | |
| IW2NTF | 2026-09-01 23:21:40 | 45.52099 | 8.76766 | 87° | 55km/h | 6139m | 3.9m/s | -15.3°C | 25.7% | 0hPa | 2.9V | 08:30:00 | 00:47:54 | 00:00:00 | |
| IW2NTF | 2026-09-01 23:21:29 | 45.52086 | 8.76578 | 84° | 47km/h | 6105m | 3.7m/s | -15°C | 24.8% | 0hPa | 2.9V | 08:30:00 | 00:47:44 | 00:00:00 | |
| IW2NTF | 2026-09-01 23:21:19 | 45.52076 | 8.76393 | 81° | 53km/h | 6072m | 3.8m/s | -14.8°C | 24.4% | 0hPa | 2.9V | 08:30:00 | 00:47:34 | 00:00:00 | |
| IW2NTF | 2026-09-01 23:21:09 | 45.52059 | 8.76211 | 81° | 51km/h | 6037m | 4m/s | -14.5°C | 24.2% | 0hPa | 2.9V | 08:30:00 | 00:47:24 | 00:00:00 | |
| IW2NTF | 2026-09-01 23:20:59 | 45.52040 | 8.76032 | 86° | 49km/h | 6002m | 3.2m/s | -14.3°C | 24.2% | 0hPa | 3V | 08:30:00 | 00:47:14 | 00:00:00 | |
| IW2NTF | 2026-09-01 23:20:49 | 45.52023 | 8.75855 | 85° | 46km/h | 5967m | 3.8m/s | -14°C | 24.2% | 0hPa | 3V | 08:30:00 | 00:47:04 | 00:00:00 | |
| IW2NTF | 2026-09-01 23:20:39 | 45.52011 | 8.75686 | 79° | 46km/h | 5932m | 4m/s | -13.7°C | 23.3% | 0hPa | 3V | 08:30:00 | 00:46:54 | 00:00:00 | |
| IW2NTF | 2026-09-01 23:20:29 | 45.51998 | 8.75523 | 82° | 46km/h | 5898m | 3.3m/s | -13.3°C | 23.1% | 0hPa | 3V | 08:30:00 | 00:46:44 | 00:00:00 | |
| IW2NTF | 2026-09-01 23:20:19 | 45.51988 | 8.75362 | 80° | 44km/h | 5863m | 3.3m/s | -13°C | 22.6% | 0hPa | 3V | 08:30:00 | 00:46:34 | 00:00:00 | |
| IW2NTF | 2026-09-01 23:20:09 | 45.51973 | 8.75199 | 88° | 46km/h | 5827m | 3.8m/s | -12.7°C | 21.7% | 0hPa | 2.8V | 08:30:00 | 00:46:24 | 00:00:00 | |
| IW2NTF | 2026-09-01 23:19:59 | 45.51962 | 8.75041 | 84° | 42km/h | 5791m | 3.8m/s | -12.3°C | 21.2% | 0hPa | 3V | 08:30:00 | 00:46:14 | 00:00:00 | |
| IW2NTF | 2026-09-01 23:19:49 | 45.51961 | 8.74878 | 85° | 44km/h | 5755m | 4.3m/s | -12°C | 21.1% | 0hPa | 3V | 08:30:00 | 00:46:04 | 00:00:00 | |
| IW2NTF | 2026-09-01 23:19:39 | 45.51953 | 8.74717 | 90° | 46km/h | 5717m | 2.9m/s | -11.7°C | 21.4% | 0hPa | 3V | 08:30:00 | 00:45:54 | 00:00:00 | |
| IW2NTF | 2026-09-01 23:19:29 | 45.51952 | 8.74546 | 85° | 44km/h | 5665m | 6.9m/s | -11.3°C | 20.7% | 0hPa | 2.9V | 08:30:00 | 00:45:43 | 00:00:00 | |
| IW2NTF | 2026-09-01 23:19:21 | 45.51946 | 8.74386 | 95° | 47km/h | 5605m | 5.7m/s | -10.7°C | 19.2% | 0hPa | 2.9V | 08:30:00 | 00:45:33 | 00:00:00 | |
| IW2NTF | 2026-09-01 23:19:11 | 45.51957 | 8.74242 | 94° | 40km/h | 5547m | 4.3m/s | -10.1°C | 19.2% | 0hPa | 2.9V | 08:30:00 | 00:45:23 | 00:00:00 | |
| IW2NTF | 2026-09-01 23:19:01 | 45.51964 | 8.74089 | 85° | 42km/h | 5489m | 7.5m/s | -9.7°C | 21.4% | 0hPa | 3V | 08:30:00 | 00:45:13 | 00:00:00 | |
| IW2NTF | 2026-09-01 23:18:51 | 45.51962 | 8.73960 | 92° | 42km/h | 5429m | 6.6m/s | -9.2°C | 22.1% | 0hPa | 3V | 08:30:00 | 00:45:03 | 00:00:00 | |
| IW2NTF | 2026-09-01 23:18:41 | 45.51974 | 8.73806 | 101° | 42km/h | 5374m | 4.5m/s | -8.7°C | 23.6% | 0hPa | 3V | 08:30:00 | 00:44:53 | 00:00:00 | |
| IW2NTF | 2026-09-01 23:18:32 | 45.51981 | 8.73648 | 90° | 42km/h | 5328m | 5.5m/s | -8.2°C | 23.5% | 0hPa | 3V | 08:30:00 | 00:44:43 | 00:00:00 | |
| IW2NTF | 2026-09-01 23:18:21 | 45.51991 | 8.73511 | 90° | 44km/h | 5284m | 4.6m/s | -7.8°C | 23.8% | 0hPa | 3V | 08:30:00 | 00:44:33 | 00:00:00 | |
| IW2NTF | 2026-09-01 23:18:11 | 45.51995 | 8.73350 | 101° | 46km/h | 5231m | 4.8m/s | -7.3°C | 23.5% | 0hPa | 3V | 08:30:00 | 00:44:23 | 00:00:00 | |
| IW2NTF | 2026-09-01 23:17:58 | 45.52020 | 8.73135 | 92° | 49km/h | 5163m | 3.8m/s | -6.7°C | 22.4% | 0hPa | 3V | 08:30:00 | 00:44:10 | 00:00:00 | |
| IW2NTF | 2026-09-01 23:17:48 | 45.52042 | 8.72974 | 104° | 53km/h | 5113m | 5m/s | -6.2°C | 21.6% | 0hPa | 3V | 08:30:00 | 00:44:00 | 00:00:00 | |
| IW2NTF | 2026-09-01 23:17:38 | 45.52057 | 8.72825 | 91° | 49km/h | 5051m | 7.2m/s | -5.7°C | 8.1% | 0hPa | 3V | 08:30:00 | 00:43:50 | 00:00:00 | |
| IW2NTF | 2026-09-01 23:17:29 | 45.52076 | 8.72667 | 91° | 46km/h | 4992m | 6.8m/s | -5.5°C | 5% | 0hPa | 3V | 08:30:00 | 00:43:40 | 00:00:00 | |
| IW2NTF | 2026-09-01 23:17:22 | 45.52084 | 8.72562 | 94° | 47km/h | 4960m | 4.8m/s | -5.3°C | 4.4% | 0hPa | 3V | 08:30:00 | 00:43:34 | 00:00:00 | |
| IW2NTF | 2026-09-01 23:17:16 | 45.52087 | 8.72470 | 94° | 46km/h | 4927m | 7.1m/s | -5.2°C | 5.9% | 0hPa | 3V | 08:30:00 | 00:43:28 | 00:00:00 | |
| IW2NTF | 2026-09-01 23:17:08 | 45.52099 | 8.72346 | 104° | 44km/h | 4881m | 6.5m/s | -4.9°C | 7.2% | 0hPa | 3V | 08:30:00 | 00:43:20 | 00:00:00 | |
| IW2NTF | 2026-09-01 23:17:02 | 45.52107 | 8.72254 | 93° | 44km/h | 4850m | 5.9m/s | -4.6°C | 7% | 0hPa | 3V | 08:30:00 | 00:43:14 | 00:00:00 | |
| IW2NTF | 2026-09-01 23:16:57 | 45.52116 | 8.72170 | 95° | 38km/h | 4817m | 6m/s | -4.3°C | 6.8% | 0hPa | 3V | 08:30:00 | 00:43:08 | 00:00:00 | |
| IW2NTF | 2026-09-01 23:16:51 | 45.52126 | 8.72082 | 96° | 37km/h | 4786m | 6.2m/s | -4.1°C | 6.7% | 0hPa | 3V | 08:30:00 | 00:43:02 | 00:00:00 | |
| IW2NTF | 2026-09-01 23:16:44 | 45.52135 | 8.72006 | 107° | 37km/h | 4756m | 4.4m/s | -3.9°C | 6.9% | 0hPa | 3V | 08:30:00 | 00:42:56 | 00:00:00 | |
| IW2NTF | 2026-09-01 23:16:36 | 45.52145 | 8.71891 | 96° | 40km/h | 4714m | 4m/s | -3.6°C | 6.7% | 0hPa | 3V | 08:30:00 | 00:42:48 | 00:00:00 | |
| IW2NTF | 2026-09-01 23:16:30 | 45.52156 | 8.71819 | 109° | 33km/h | 4681m | 6.7m/s | -3.3°C | 6.6% | 0hPa | 3V | 08:30:00 | 00:42:42 | 00:00:00 | |
| IW2NTF | 2026-09-01 23:16:25 | 45.52174 | 8.71743 | 100° | 35km/h | 4650m | 5m/s | -3.1°C | 6.7% | 0hPa | 3V | 08:30:00 | 00:42:36 | 00:00:00 | |
| IW2NTF | 2026-09-01 23:16:18 | 45.52183 | 8.71663 | 107° | 40km/h | 4614m | 7.1m/s | -2.9°C | 7.5% | 0hPa | 3V | 08:30:00 | 00:42:30 | 00:00:00 | |
| IW2NTF | 2026-09-01 23:16:12 | 45.52194 | 8.71583 | 92° | 37km/h | 4578m | 5.6m/s | -2.8°C | 8.4% | 0hPa | 3V | 08:30:00 | 00:42:24 | 00:00:00 | |
| IW2NTF | 2026-09-01 23:16:05 | 45.52197 | 8.71516 | 93° | 26km/h | 4549m | 5.5m/s | -2.5°C | 8.2% | 0hPa | 3V | 08:30:00 | 00:42:18 | 00:00:00 | |
| IW2NTF | 2026-09-01 23:16:00 | 45.52203 | 8.71439 | 110° | 42km/h | 4519m | 5.3m/s | -2.3°C | 8.3% | 0hPa | 3V | 08:30:00 | 00:42:12 | 00:00:00 | |
| IW2NTF | 2026-09-01 23:15:54 | 45.52226 | 8.71358 | 107° | 38km/h | 4488m | 6.1m/s | -2°C | 8.3% | 0hPa | 3V | 08:30:00 | 00:42:06 | 00:00:00 | |
| IW2NTF | 2026-09-01 23:15:48 | 45.52237 | 8.71285 | 103° | 29km/h | 4449m | 6.8m/s | -1.6°C | 8.1% | 0hPa | 3V | 08:30:00 | 00:42:00 | 00:00:00 | |
| IW2NTF | 2026-09-01 23:15:41 | 45.52252 | 8.71221 | 106° | 31km/h | 4417m | 3.7m/s | -1.3°C | 8% | 0hPa | 3V | 08:30:00 | 00:41:54 | 00:00:00 | |
| IW2NTF | 2026-09-01 23:15:36 | 45.52254 | 8.71151 | 100° | 37km/h | 4394m | 3.2m/s | -1.1°C | 8% | 0hPa | 3V | 08:30:00 | 00:41:48 | 00:00:00 | |
| IW2NTF | 2026-09-01 23:15:30 | 45.52269 | 8.71078 | 102° | 27km/h | 4362m | 4.6m/s | -0.8°C | 7.8% | 0hPa | 3V | 08:30:00 | 00:41:42 | 00:00:00 | |
| IW2NTF | 2026-09-01 23:15:24 | 45.52281 | 8.71007 | 105° | 38km/h | 4330m | 6.5m/s | -0.6°C | 7.7% | 0hPa | 3V | 08:30:00 | 00:41:36 | 00:00:00 | |
| IW2NTF | 2026-09-01 23:15:19 | 45.52291 | 8.70940 | 98° | 24km/h | 4298m | 4.1m/s | -0.3°C | 7.4% | 0hPa | 3V | 08:30:00 | 00:41:30 | 00:00:00 | |
| IW2NTF | 2026-09-01 23:15:12 | 45.52297 | 8.70880 | 99° | 37km/h | 4268m | 5.7m/s | -0°C | 7.2% | 0hPa | 3V | 08:30:00 | 00:41:24 | 00:00:00 | |
| IW2NTF | 2026-09-01 23:15:06 | 45.52304 | 8.70802 | 94° | 35km/h | 4236m | 4.5m/s | 0.1°C | 7.5% | 0hPa | 3V | 08:30:00 | 00:41:18 | 00:00:00 | |
| IW2NTF | 2026-09-01 23:15:00 | 45.52311 | 8.70740 | 107° | 26km/h | 4205m | 5m/s | 0.3°C | 7.6% | 0hPa | 3V | 08:30:00 | 00:41:12 | 00:00:00 | |
| IW2NTF | 2026-09-01 23:14:54 | 45.52330 | 8.70678 | 109° | 37km/h | 4176m | 4.2m/s | 0.3°C | 8.8% | 0hPa | 3V | 08:30:00 | 00:41:06 | 00:00:00 | |
| IW2NTF | 2026-09-01 23:14:48 | 45.52343 | 8.70609 | 96° | 33km/h | 4145m | 5.3m/s | 0.4°C | 9.2% | 0hPa | 3V | 08:30:00 | 00:41:00 | 00:00:00 | |
| IW2NTF | 2026-09-01 23:14:42 | 45.52357 | 8.70531 | 112° | 38km/h | 4120m | 4.5m/s | 0.5°C | 9.6% | 0hPa | 3V | 08:30:00 | 00:40:54 | 00:00:00 | |
| IW2NTF | 2026-09-01 23:14:36 | 45.52380 | 8.70460 | 114° | 35km/h | 4095m | 3.3m/s | 0.7°C | 9.6% | 0hPa | 3V | 08:30:00 | 00:40:48 | 00:00:00 | |
| IW2NTF | 2026-09-01 23:14:30 | 45.52402 | 8.70384 | 115° | 37km/h | 4072m | 4.1m/s | 0.8°C | 9.8% | 0hPa | 3V | 08:30:00 | 00:40:42 | 00:00:00 | |
| IW2NTF | 2026-09-01 23:14:24 | 45.52430 | 8.70314 | 120° | 37km/h | 4049m | 3.6m/s | 0.9°C | 10% | 0hPa | 3V | 08:30:00 | 00:40:36 | 00:00:00 | |
| IW2NTF | 2026-09-01 23:14:19 | 45.52462 | 8.70235 | 114° | 44km/h | 4028m | 3.1m/s | 1.1°C | 9.5% | 0hPa | 3V | 08:30:00 | 00:40:30 | 00:00:00 | |
| IW2NTF | 2026-09-01 23:14:12 | 45.52491 | 8.70154 | 114° | 38km/h | 4006m | 4.2m/s | 1.3°C | 7.8% | 0hPa | 3V | 08:30:00 | 00:40:24 | 00:00:00 | |
| IW2NTF | 2026-09-01 23:14:06 | 45.52519 | 8.70076 | 119° | 46km/h | 3981m | 4.6m/s | 1.4°C | 6.9% | 0hPa | 3V | 08:30:00 | 00:40:18 | 00:00:00 | |
| IW2NTF | 2026-09-01 23:14:00 | 45.52549 | 8.69995 | 121° | 37km/h | 3958m | 3.7m/s | 1.6°C | 6.5% | 0hPa | 3V | 08:30:00 | 00:40:12 | 00:00:00 | |
| IW2NTF | 2026-09-01 23:13:54 | 45.52578 | 8.69924 | 123° | 40km/h | 3935m | 4.5m/s | 1.8°C | 5.8% | 0hPa | 3V | 08:30:00 | 00:40:06 | 00:00:00 | |
| IW2NTF | 2026-09-01 23:13:48 | 45.52608 | 8.69847 | 115° | 38km/h | 3913m | 4.5m/s | 1.9°C | 6.5% | 0hPa | 3V | 08:30:00 | 00:40:00 | 00:00:00 | |
| IW2NTF | 2026-09-01 23:13:42 | 45.52633 | 8.69777 | 119° | 38km/h | 3890m | 3.7m/s | 2.1°C | 7.9% | 0hPa | 3V | 08:30:00 | 00:39:54 | 00:00:00 | |
| IW2NTF | 2026-09-01 23:13:36 | 45.52660 | 8.69698 | 112° | 35km/h | 3869m | 3.5m/s | 2.3°C | 8.6% | 0hPa | 3V | 08:30:00 | 00:39:48 | 00:00:00 | |
| IW2NTF | 2026-09-01 23:13:30 | 45.52677 | 8.69639 | 99° | 33km/h | 3847m | 3.5m/s | 2.5°C | 9.4% | 0hPa | 3V | 08:30:00 | 00:39:42 | 00:00:00 | |
| IW2NTF | 2026-09-01 23:13:24 | 45.52700 | 8.69561 | 125° | 38km/h | 3814m | 6.6m/s | 2.7°C | 9.6% | 0hPa | 3V | 08:30:00 | 00:39:36 | 00:00:00 | |
| IW2NTF | 2026-09-01 23:13:18 | 45.52724 | 8.69491 | 110° | 37km/h | 3782m | 4m/s | 2.9°C | 9.6% | 0hPa | 3V | 08:30:00 | 00:39:30 | 00:00:00 | |
| IW2NTF | 2026-09-01 23:13:12 | 45.52752 | 8.69423 | 122° | 31km/h | 3760m | 2.8m/s | 3.1°C | 9.4% | 0hPa | 3V | 08:30:00 | 00:39:24 | 00:00:00 | |
| IW2NTF | 2026-09-01 23:13:06 | 45.52778 | 8.69358 | 115° | 38km/h | 3739m | 2.7m/s | 3.2°C | 8.7% | 0hPa | 3V | 08:30:00 | 00:39:18 | 00:00:00 | |
| IW2NTF | 2026-09-01 23:12:58 | 45.52811 | 8.69261 | 128° | 26km/h | 3708m | 5.8m/s | 3.3°C | 7.7% | 0hPa | 3V | 08:30:00 | 00:39:10 | 00:00:00 | |
| IW2NTF | 2026-09-01 23:12:52 | 45.52839 | 8.69201 | 110° | 40km/h | 3676m | 7m/s | 3.3°C | 7.3% | 0hPa | 3V | 08:30:00 | 00:39:04 | 00:00:00 | |
| IW2NTF | 2026-09-01 23:12:44 | 45.52864 | 8.69096 | 121° | 42km/h | 3637m | 3m/s | 3.5°C | 8% | 0hPa | 3V | 08:30:00 | 00:38:56 | 00:00:00 | |
| IW2NTF | 2026-09-01 23:12:39 | 45.52897 | 8.69026 | 114° | 35km/h | 3612m | 7.2m/s | 3.5°C | 8.2% | 0hPa | 3V | 08:30:00 | 00:38:50 | 00:00:00 | |
| IW2NTF | 2026-09-01 23:12:33 | 45.52915 | 8.68957 | 121° | 31km/h | 3573m | 6m/s | 3.5°C | 10.9% | 0hPa | 3V | 08:30:00 | 00:38:44 | 00:00:00 | |
| IW2NTF | 2026-09-01 23:12:26 | 45.52945 | 8.68877 | 109° | 51km/h | 3542m | 5.7m/s | 3.6°C | 13% | 0hPa | 3V | 08:30:00 | 00:38:38 | 00:00:00 | |
| IW2NTF | 2026-09-01 23:12:18 | 45.52981 | 8.68747 | 115° | 38km/h | 3502m | 6.1m/s | 3.8°C | 16.4% | 0hPa | 3V | 08:30:00 | 00:38:30 | 00:00:00 | |
| IW2NTF | 2026-09-01 23:12:12 | 45.52992 | 8.68667 | 98° | 44km/h | 3470m | 5.5m/s | 4°C | 19.3% | 0hPa | 3V | 08:30:00 | 00:38:24 | 00:00:00 | |
| IW2NTF | 2026-09-01 23:12:06 | 45.53001 | 8.68584 | 86° | 33km/h | 3442m | 5.2m/s | 4.2°C | 19.6% | 0hPa | 3V | 08:30:00 | 00:38:18 | 00:00:00 | |
| IW2NTF | 2026-09-01 23:12:00 | 45.53006 | 8.68509 | 107° | 37km/h | 3410m | 5.9m/s | 4.5°C | 20% | 0hPa | 3V | 08:30:00 | 00:38:12 | 00:00:00 | |
| IW2NTF | 2026-09-01 23:11:54 | 45.53025 | 8.68442 | 108° | 38km/h | 3381m | 4m/s | 4.7°C | 23.5% | 0hPa | 3V | 08:30:00 | 00:38:06 | 00:00:00 | |
| IW2NTF | 2026-09-01 23:11:48 | 45.53031 | 8.68357 | 94° | 37km/h | 3358m | 4.9m/s | 4.8°C | 29.6% | 0hPa | 3V | 08:30:00 | 00:38:00 | 00:00:00 | |
| IW2NTF | 2026-09-01 23:11:42 | 45.53046 | 8.68285 | 111° | 33km/h | 3325m | 5.2m/s | 4.8°C | 36.6% | 0hPa | 3V | 08:30:00 | 00:37:54 | 00:00:00 | |
| IW2NTF | 2026-09-01 23:11:36 | 45.53055 | 8.68235 | 99° | 24km/h | 3300m | 4m/s | 4.7°C | 36.9% | 0hPa | 3V | 08:30:00 | 00:37:48 | 00:00:00 | |
| IW2NTF | 2026-09-01 23:11:28 | 45.53066 | 8.68131 | 97° | 35km/h | 3268m | 4.6m/s | 4.8°C | 43.5% | 0hPa | 3V | 08:30:00 | 00:37:40 | 00:00:00 | |
| IW2NTF | 2026-09-01 23:11:22 | 45.53065 | 8.68079 | 87° | 26km/h | 3235m | 3.8m/s | 5°C | 45.7% | 0hPa | 3V | 08:30:00 | 00:37:34 | 00:00:00 | |
| IW2NTF | 2026-09-01 23:11:16 | 45.53072 | 8.68018 | 107° | 24km/h | 3206m | 3m/s | 5.2°C | 45.2% | 0hPa | 3V | 08:30:00 | 00:37:28 | 00:00:00 | |
| IW2NTF | 2026-09-01 23:11:10 | 45.53084 | 8.67980 | 98° | 22km/h | 3185m | 3.8m/s | 5.4°C | 44.8% | 0hPa | 3V | 08:30:00 | 00:37:22 | 00:00:00 | |
| IW2NTF | 2026-09-01 23:11:02 | 45.53090 | 8.67914 | 97° | 20km/h | 3148m | 3.9m/s | 5.5°C | 40.8% | 0hPa | 3V | 08:30:00 | 00:37:14 | 00:00:00 | |
| IW2NTF | 2026-09-01 23:10:56 | 45.53098 | 8.67884 | 122° | 15km/h | 3127m | 3.4m/s | 5.4°C | 44% | 0hPa | 3V | 08:30:00 | 00:37:08 | 00:00:00 | |
| IW2NTF | 2026-09-01 23:10:51 | 45.53112 | 8.67838 | 123° | 33km/h | 3095m | 4.7m/s | 5.5°C | 47.9% | 0hPa | 3V | 08:30:00 | 00:37:02 | 00:00:00 | |
| IW2NTF | 2026-09-01 23:10:44 | 45.53141 | 8.67779 | 115° | 24km/h | 3071m | 4.8m/s | 5.7°C | 51.1% | 0hPa | 3V | 08:30:00 | 00:36:56 | 00:00:00 | |
| IW2NTF | 2026-09-01 23:10:38 | 45.53151 | 8.67733 | 119° | 29km/h | 3042m | 3.9m/s | 6°C | 52.4% | 0hPa | 3V | 08:30:00 | 00:36:50 | 00:00:00 | |
| IW2NTF | 2026-09-01 23:10:32 | 45.53179 | 8.67680 | 128° | 26km/h | 3018m | 4.7m/s | 6.2°C | 52.9% | 0hPa | 3V | 08:30:00 | 00:36:44 | 00:00:00 | |
| IW2NTF | 2026-09-01 23:10:26 | 45.53191 | 8.67631 | 92° | 27km/h | 2989m | 4.1m/s | 6.3°C | 56.5% | 0hPa | 3V | 08:30:00 | 00:36:38 | 00:00:00 | |
| IW2NTF | 2026-09-01 23:10:20 | 45.53204 | 8.67571 | 126° | 26km/h | 2969m | 3.1m/s | 6.5°C | 57.4% | 0hPa | 3V | 08:30:00 | 00:36:32 | 00:00:00 | |
| IW2NTF | 2026-09-01 23:10:14 | 45.53216 | 8.67546 | 129° | 7km/h | 2939m | 5.9m/s | 6.6°C | 63.2% | 0hPa | 3V | 08:30:00 | 00:36:26 | 00:00:00 | |
| IW2NTF | 2026-09-01 23:10:08 | 45.53234 | 8.67517 | 127° | 22km/h | 2914m | 3.8m/s | 6.7°C | 70.4% | 0hPa | 3V | 08:30:00 | 00:36:20 | 00:00:00 | |
| IW2NTF | 2026-09-01 23:10:02 | 45.53240 | 8.67481 | 82° | 20km/h | 2884m | 5m/s | 6.8°C | 74.6% | 0hPa | 3V | 08:30:00 | 00:36:14 | 00:00:00 | |
| IW2NTF | 2026-09-01 23:09:56 | 45.53240 | 8.67440 | 79° | 16km/h | 2862m | 3.1m/s | 6.6°C | 85.1% | 0hPa | 3V | 08:30:00 | 00:36:08 | 00:00:00 | |
| IW2NTF | 2026-09-01 23:09:51 | 45.53238 | 8.67395 | 85° | 18km/h | 2843m | 3m/s | 6.5°C | 92.4% | 0hPa | 3V | 08:30:00 | 00:36:02 | 00:00:00 | |
| IW2NTF | 2026-09-01 23:09:44 | 45.53228 | 8.67357 | 81° | 18km/h | 2826m | 3.3m/s | 6.5°C | 86.7% | 0hPa | 3V | 08:30:00 | 00:35:56 | 00:00:00 | |
| IW2NTF | 2026-09-01 23:09:38 | 45.53234 | 8.67315 | 83° | 18km/h | 2808m | 4m/s | 6.5°C | 87.9% | 0hPa | 3V | 08:30:00 | 00:35:50 | 00:00:00 | |
| IW2NTF | 2026-09-01 23:09:30 | 45.53226 | 8.67254 | 83° | 29km/h | 2760m | 7.5m/s | 6.8°C | 86.6% | 0hPa | 3V | 08:30:00 | 00:35:42 | 00:00:00 | |
| IW2NTF | 2026-09-01 23:09:24 | 45.53227 | 8.67211 | 101° | 22km/h | 2723m | 5.5m/s | 7.1°C | 83.6% | 0hPa | 3V | 08:30:00 | 00:35:36 | 00:00:00 | |
| IW2NTF | 2026-09-01 23:09:18 | 45.53226 | 8.67160 | 83° | 26km/h | 2697m | 3.8m/s | 7.2°C | 86% | 0hPa | 3V | 08:30:00 | 00:35:30 | 00:00:00 | |
| IW2NTF | 2026-09-01 23:09:12 | 45.53233 | 8.67094 | 106° | 26km/h | 2676m | 3.3m/s | 7.4°C | 87.6% | 0hPa | 3V | 08:30:00 | 00:35:24 | 00:00:00 | |
| IW2NTF | 2026-09-01 23:09:07 | 45.53236 | 8.67058 | 94° | 20km/h | 2649m | 6.5m/s | 7.7°C | 79.3% | 0hPa | 3V | 08:30:00 | 00:35:19 | 00:00:00 | |
| IW2NTF | 2026-09-01 23:09:01 | 45.53237 | 8.67001 | 87° | 31km/h | 2624m | 3.4m/s | 7.8°C | 79.8% | 0hPa | 3V | 08:30:00 | 00:35:13 | 00:00:00 | |
| IW2NTF | 2026-09-01 23:08:55 | 45.53239 | 8.66928 | 105° | 27km/h | 2602m | 4.3m/s | 8°C | 81.9% | 0hPa | 3V | 08:30:00 | 00:35:07 | 00:00:00 | |
| IW2NTF | 2026-09-01 23:08:49 | 45.53249 | 8.66891 | 106° | 13km/h | 2574m | 4.7m/s | 8.1°C | 88.1% | 0hPa | 3V | 08:30:00 | 00:35:01 | 00:00:00 | |
| IW2NTF | 2026-09-01 23:08:43 | 45.53247 | 8.66848 | 79° | 24km/h | 2546m | 5.5m/s | 8.3°C | 90.4% | 0hPa | 3V | 08:30:00 | 00:34:55 | 00:00:00 | |
| IW2NTF | 2026-09-01 23:08:37 | 45.53246 | 8.66795 | 93° | 24km/h | 2521m | 4.2m/s | 8.6°C | 82.9% | 0hPa | 3V | 08:30:00 | 00:34:49 | 00:00:00 | |
| IW2NTF | 2026-09-01 23:08:31 | 45.53245 | 8.66744 | 81° | 22km/h | 2500m | 3.3m/s | 8.8°C | 84.5% | 0hPa | 3V | 08:30:00 | 00:34:43 | 00:00:00 | |
| IW2NTF | 2026-09-01 23:08:25 | 45.53242 | 8.66695 | 102° | 24km/h | 2479m | 3.1m/s | 8.9°C | 88.2% | 0hPa | 3V | 08:30:00 | 00:34:37 | 00:00:00 | |
| IW2NTF | 2026-09-01 23:08:19 | 45.53247 | 8.66649 | 97° | 22km/h | 2458m | 3.8m/s | 9.1°C | 83.5% | 0hPa | 3V | 08:30:00 | 00:34:31 | 00:00:00 | |
| IW2NTF | 2026-09-01 23:08:13 | 45.53252 | 8.66593 | 91° | 26km/h | 2439m | 3.9m/s | 9.2°C | 83.6% | 0hPa | 3V | 08:30:00 | 00:34:25 | 00:00:00 | |
| IW2NTF | 2026-09-01 23:08:08 | 45.53248 | 8.66533 | 81° | 29km/h | 2416m | 3.5m/s | 9.3°C | 85.1% | 0hPa | 3V | 08:30:00 | 00:34:19 | 00:00:00 | |
| IW2NTF | 2026-09-01 23:08:01 | 45.53240 | 8.66474 | 85° | 26km/h | 2392m | 4.9m/s | 9.5°C | 85.2% | 0hPa | 3V | 08:30:00 | 00:34:13 | 00:00:00 | |
| IW2NTF | 2026-09-01 23:07:55 | 45.53238 | 8.66429 | 91° | 15km/h | 2366m | 3.4m/s | 9.8°C | 79.7% | 0hPa | 3V | 08:30:00 | 00:34:07 | 00:00:00 | |
| IW2NTF | 2026-09-01 23:07:49 | 45.53248 | 8.66384 | 113° | 26km/h | 2347m | 2.9m/s | 10°C | 75.6% | 0hPa | 3V | 08:30:00 | 00:34:01 | 00:00:00 | |
| IW2NTF | 2026-09-01 23:07:43 | 45.53249 | 8.66349 | 54° | 16km/h | 2322m | 4.3m/s | 10.2°C | 74.2% | 0hPa | 3V | 08:30:00 | 00:33:55 | 00:00:00 | |
| IW2NTF | 2026-09-01 23:07:38 | 45.53244 | 8.66325 | 95° | 11km/h | 2297m | 4.9m/s | 10.5°C | 73.7% | 0hPa | 3V | 08:30:00 | 00:33:49 | 00:00:00 | |
| IW2NTF | 2026-09-01 23:07:31 | 45.53249 | 8.66307 | 142° | 7km/h | 2274m | 3.8m/s | 10.7°C | 71.4% | 0hPa | 3V | 08:30:00 | 00:33:43 | 00:00:00 | |
| IW2NTF | 2026-09-01 23:07:25 | 45.53246 | 8.66283 | 76° | 18km/h | 2250m | 5.6m/s | 10.9°C | 71.4% | 0hPa | 3V | 08:30:00 | 00:33:37 | 00:00:00 | |
| IW2NTF | 2026-09-01 23:07:19 | 45.53238 | 8.66265 | 33° | 9km/h | 2224m | 2.5m/s | 11.1°C | 71.4% | 0hPa | 3V | 08:30:00 | 00:33:31 | 00:00:00 | |
| IW2NTF | 2026-09-01 23:07:13 | 45.53239 | 8.66232 | 118° | 26km/h | 2196m | 5.1m/s | 11.4°C | 70.5% | 0hPa | 3V | 08:30:00 | 00:33:25 | 00:00:00 | |
| IW2NTF | 2026-09-01 23:07:07 | 45.53243 | 8.66195 | 48° | 13km/h | 2165m | 6.3m/s | 11.7°C | 69.9% | 0hPa | 3V | 08:30:00 | 00:33:19 | 00:00:00 | |
| IW2NTF | 2026-09-01 23:07:01 | 45.53239 | 8.66174 | 96° | 11km/h | 2133m | 5.9m/s | 11.8°C | 76.8% | 0hPa | 3V | 08:30:00 | 00:33:13 | 00:00:00 | |
| IW2NTF | 2026-09-01 23:06:55 | 45.53240 | 8.66141 | 102° | 16km/h | 2110m | 3.3m/s | 11.9°C | 85.2% | 0hPa | 3V | 08:30:00 | 00:33:07 | 00:00:00 | |
| IW2NTF | 2026-09-01 23:06:49 | 45.53241 | 8.66106 | 82° | 20km/h | 2088m | 4.2m/s | 12.1°C | 81.7% | 0hPa | 3V | 08:30:00 | 00:33:01 | 00:00:00 | |
| IW2NTF | 2026-09-01 23:06:43 | 45.53226 | 8.66060 | 61° | 22km/h | 2068m | 3.3m/s | 12.3°C | 82.9% | 0hPa | 3V | 08:30:00 | 00:32:55 | 00:00:00 | |
| IW2NTF | 2026-09-01 23:06:37 | 45.53220 | 8.66026 | 91° | 15km/h | 2037m | 3.5m/s | 12.7°C | 72% | 0hPa | 3V | 08:30:00 | 00:32:49 | 00:00:00 | |
| IW2NTF | 2026-09-01 23:06:31 | 45.53224 | 8.66001 | 117° | 11km/h | 2014m | 1.9m/s | 12.9°C | 73.9% | 0hPa | 3V | 08:30:00 | 00:32:43 | 00:00:00 | |
| IW2NTF | 2026-09-01 23:06:21 | 45.53228 | 8.65975 | 87° | 22km/h | 1990m | 4.5m/s | 13.1°C | 77% | 0hPa | 3V | 08:30:00 | 00:32:37 | 00:00:00 | |
| IW2NTF | 2026-09-01 23:06:21 | 45.53229 | 8.65959 | 93° | 22km/h | 1980m | 6.3m/s | 13.2°C | 78% | 0hPa | 3V | 08:30:00 | 00:32:35 | 00:00:00 | |
| IW2NTF | 2026-09-01 23:06:21 | 45.53230 | 8.65947 | 105° | 11km/h | 1969m | 4m/s | 13.2°C | 79.2% | 0hPa | 3V | 08:30:00 | 00:32:33 | 00:00:00 | |
| IW2NTF | 2026-09-01 23:06:16 | 45.53230 | 8.65942 | 50° | 5km/h | 1960m | 4.2m/s | 13.4°C | 73.4% | 0hPa | 3V | 08:30:00 | 00:32:31 | 00:00:00 | |
| IW2NTF | 2026-09-01 23:06:16 | 45.53228 | 8.65939 | 46° | 7km/h | 1952m | 4.1m/s | 13.5°C | 72.9% | 0hPa | 3V | 08:30:00 | 00:32:29 | 00:00:00 | |
| IW2NTF | 2026-09-01 23:06:16 | 45.53226 | 8.65933 | 75° | 11km/h | 1942m | 5.5m/s | 13.7°C | 59.2% | 0hPa | 3V | 08:30:00 | 00:32:27 | 00:00:00 | |
| IW2NTF | 2026-09-01 23:06:07 | 45.53222 | 8.65902 | 75° | 26km/h | 1922m | 6.2m/s | 13.9°C | 56.6% | 0hPa | 3V | 08:30:00 | 00:32:23 | 00:00:00 | |
| IW2NTF | 2026-09-01 23:06:07 | 45.53219 | 8.65885 | 78° | 20km/h | 1908m | 8.1m/s | 14.1°C | 51.9% | 0hPa | 3V | 08:30:00 | 00:32:21 | 00:00:00 | |
| IW2NTF | 2026-09-01 23:06:07 | 45.53218 | 8.65874 | 81° | 13km/h | 1893m | 7.8m/s | 14.2°C | 50.6% | 0hPa | 3V | 08:30:00 | 00:32:19 | 00:00:00 | |
| IW2NTF | 2026-09-01 23:06:02 | 45.53216 | 8.65866 | 64° | 11km/h | 1877m | 6.6m/s | 14.3°C | 49.4% | 0hPa | 3V | 08:30:00 | 00:32:17 | 00:00:00 | |
| IW2NTF | 2026-09-01 23:06:02 | 45.53214 | 8.65858 | 74° | 13km/h | 1866m | 4.5m/s | 14.3°C | 53.8% | 0hPa | 3V | 08:30:00 | 00:32:15 | 00:00:00 | |
| IW2NTF | 2026-09-01 23:06:02 | 45.53214 | 8.65849 | 89° | 15km/h | 1859m | 3.6m/s | 14.3°C | 56.6% | 0hPa | 3V | 08:30:00 | 00:32:13 | 00:00:00 | |
| IW2NTF | 2026-09-01 23:05:56 | 45.53213 | 8.65838 | 88° | 16km/h | 1852m | 4.1m/s | 14.3°C | 57.6% | 0hPa | 3V | 08:30:00 | 00:32:11 | 00:00:00 | |
| IW2NTF | 2026-09-01 23:05:56 | 45.53213 | 8.65827 | 95° | 13km/h | 1844m | 3.4m/s | 14.4°C | 57.7% | 0hPa | 3V | 08:30:00 | 00:32:09 | 00:00:00 | |
| IW2NTF | 2026-09-01 23:05:56 | 45.53213 | 8.65818 | 81° | 13km/h | 1837m | 4.5m/s | 14.4°C | 58.7% | 0hPa | 3V | 08:30:00 | 00:32:07 | 00:00:00 | |
| IW2NTF | 2026-09-01 23:05:49 | 45.53212 | 8.65807 | 79° | 18km/h | 1829m | 3.1m/s | 14.4°C | 59.4% | 0hPa | 3V | 08:30:00 | 00:32:05 | 00:00:00 | |
| IW2NTF | 2026-09-01 23:05:49 | 45.53212 | 8.65794 | 95° | 16km/h | 1823m | 3.1m/s | 14.5°C | 60.2% | 0hPa | 3V | 08:30:00 | 00:32:03 | 00:00:00 | |
| IW2NTF | 2026-09-01 23:05:49 | 45.53214 | 8.65785 | 106° | 11km/h | 1817m | 3.1m/s | 14.5°C | 60.1% | 0hPa | 3V | 08:30:00 | 00:32:01 | 00:00:00 | |
| IW2NTF | 2026-09-01 23:05:43 | 45.53216 | 8.65780 | 158° | 5km/h | 1810m | 3.6m/s | 14.5°C | 63.6% | 0hPa | 3V | 08:30:00 | 00:31:59 | 00:00:00 | |
| IW2NTF | 2026-09-01 23:05:43 | 45.53218 | 8.65778 | 179° | 5km/h | 1804m | 2.9m/s | 14.5°C | 63.9% | 0hPa | 3V | 08:30:00 | 00:31:57 | 00:00:00 | |
| IW2NTF | 2026-09-01 23:05:43 | 45.53222 | 8.65777 | 168° | 7km/h | 1797m | 3.2m/s | 14.4°C | 67.6% | 0hPa | 3V | 08:30:00 | 00:31:55 | 00:00:00 | |
| IW2NTF | 2026-09-01 23:05:37 | 45.53225 | 8.65774 | 146° | 7km/h | 1790m | 4.2m/s | 14.4°C | 69.3% | 0hPa | 3V | 08:30:00 | 00:31:53 | 00:00:00 | |
| IW2NTF | 2026-09-01 23:05:37 | 45.53228 | 8.65771 | 140° | 9km/h | 1780m | 5.7m/s | 14.4°C | 72.6% | 0hPa | 3V | 08:30:00 | 00:31:51 | 00:00:00 | |
| IW2NTF | 2026-09-01 23:05:37 | 45.53231 | 8.65764 | 109° | 15km/h | 1768m | 5.2m/s | 14.4°C | 74.3% | 0hPa | 3V | 08:30:00 | 00:31:49 | 00:00:00 | |
| IW2NTF | 2026-09-01 23:05:31 | 45.53231 | 8.65753 | 81° | 18km/h | 1760m | 3.9m/s | 14.5°C | 75.2% | 0hPa | 3V | 08:30:00 | 00:31:47 | 00:00:00 | |
| IW2NTF | 2026-09-01 23:05:31 | 45.53228 | 8.65739 | 58° | 20km/h | 1750m | 5.5m/s | 14.6°C | 75.6% | 0hPa | 3V | 08:30:00 | 00:31:45 | 00:00:00 | |
| IW2NTF | 2026-09-01 23:05:31 | 45.53221 | 8.65729 | 40° | 18km/h | 1741m | 5.2m/s | 14.6°C | 78.1% | 0hPa | 3V | 08:30:00 | 00:31:43 | 00:00:00 | |
| IW2NTF | 2026-09-01 23:05:25 | 45.53215 | 8.65723 | 33° | 13km/h | 1730m | 5m/s | 14.6°C | 80.9% | 0hPa | 3V | 08:30:00 | 00:31:41 | 00:00:00 | |
| IW2NTF | 2026-09-01 23:05:25 | 45.53211 | 8.65717 | 45° | 13km/h | 1718m | 7.2m/s | 14.7°C | 81.2% | 0hPa | 3V | 08:30:00 | 00:31:39 | 00:00:00 | |
| IW2NTF | 2026-09-01 23:05:25 | 45.53207 | 8.65709 | 65° | 13km/h | 1705m | 4.2m/s | 14.7°C | 82.4% | 0hPa | 3V | 08:30:00 | 00:31:37 | 00:00:00 | |
| IW2NTF | 2026-09-01 23:05:19 | 45.53205 | 8.65704 | 45° | 5km/h | 1696m | 4.3m/s | 14.7°C | 85% | 0hPa | 3V | 08:30:00 | 00:31:35 | 00:00:00 | |
| IW2NTF | 2026-09-01 23:05:19 | 45.53203 | 8.65705 | 301° | 7km/h | 1689m | 3.3m/s | 14.7°C | 85.9% | 0hPa | 3V | 08:30:00 | 00:31:33 | 00:00:00 | |
| IW2NTF | 2026-09-01 23:05:19 | 45.53201 | 8.65711 | 307° | 9km/h | 1681m | 3.2m/s | 14.8°C | 86.3% | 0hPa | 3V | 08:30:00 | 00:31:31 | 00:00:00 | |
| IW2NTF | 2026-09-01 23:05:13 | 45.53198 | 8.65714 | 331° | 4km/h | 1674m | 3.5m/s | 14.9°C | 86.1% | 0hPa | 3V | 08:30:00 | 00:31:29 | 00:00:00 | |
| IW2NTF | 2026-09-01 23:05:13 | 45.53196 | 8.65713 | 31° | 5km/h | 1667m | 4.5m/s | 14.9°C | 86.7% | 0hPa | 3V | 08:30:00 | 00:31:27 | 00:00:00 | |
| IW2NTF | 2026-09-01 23:05:13 | 45.53192 | 8.65710 | 19° | 11km/h | 1656m | 4.7m/s | 15°C | 86.6% | 0hPa | 3V | 08:30:00 | 00:31:25 | 00:00:00 | |
| IW2NTF | 2026-09-01 23:05:07 | 45.53186 | 8.65710 | 350° | 11km/h | 1648m | 2.8m/s | 15.1°C | 86.3% | 0hPa | 3V | 08:30:00 | 00:31:23 | 00:00:00 | |
| IW2NTF | 2026-09-01 23:05:07 | 45.53181 | 8.65711 | 355° | 9km/h | 1642m | 3.6m/s | 15.1°C | 86% | 0hPa | 3V | 08:30:00 | 00:31:21 | 00:00:00 | |
| IW2NTF | 2026-09-01 23:05:07 | 45.53176 | 8.65711 | 356° | 9km/h | 1636m | 3.9m/s | 15.2°C | 85.8% | 0hPa | 3V | 08:30:00 | 00:31:19 | 00:00:00 | |
| IW2NTF | 2026-09-01 23:05:01 | 45.53171 | 8.65712 | 333° | 15km/h | 1628m | 4.5m/s | 15.3°C | 85.1% | 0hPa | 3V | 08:30:00 | 00:31:17 | 00:00:00 | |
| IW2NTF | 2026-09-01 23:05:01 | 45.53165 | 8.65719 | 322° | 15km/h | 1621m | 3.6m/s | 15.3°C | 85.6% | 0hPa | 3V | 08:30:00 | 00:31:15 | 00:00:00 | |
| IW2NTF | 2026-09-01 23:05:01 | 45.53158 | 8.65725 | 324° | 18km/h | 1615m | 3.4m/s | 15.4°C | 85.7% | 0hPa | 3V | 08:30:00 | 00:31:13 | 00:00:00 | |
| IW2NTF | 2026-09-01 23:04:56 | 45.53151 | 8.65732 | 328° | 16km/h | 1607m | 3.6m/s | 15.4°C | 85.6% | 0hPa | 3V | 08:30:00 | 00:31:11 | 00:00:00 | |
| IW2NTF | 2026-09-01 23:04:56 | 45.53144 | 8.65739 | 315° | 13km/h | 1599m | 4.8m/s | 15.5°C | 85.8% | 0hPa | 3V | 08:30:00 | 00:31:09 | 00:00:00 | |
| IW2NTF | 2026-09-01 23:04:56 | 45.53141 | 8.65743 | 340° | 2km/h | 1590m | 4.3m/s | 15.6°C | 86.2% | 0hPa | 3V | 08:30:00 | 00:31:07 | 00:00:00 | |
| IW2NTF | 2026-09-01 23:04:49 | 45.53139 | 8.65741 | 46° | 9km/h | 1580m | 6.6m/s | 15.7°C | 85.8% | 0hPa | 3V | 08:30:00 | 00:31:05 | 00:00:00 | |
| IW2NTF | 2026-09-01 23:04:49 | 45.53134 | 8.65735 | 28° | 16km/h | 1567m | 6.8m/s | 15.8°C | 85.4% | 0hPa | 3V | 08:30:00 | 00:31:03 | 00:00:00 | |
| IW2NTF | 2026-09-01 23:04:49 | 45.53126 | 8.65731 | 11° | 16km/h | 1552m | 7.5m/s | 15.9°C | 85% | 0hPa | 3V | 08:30:00 | 00:31:01 | 00:00:00 | |
| IW2NTF | 2026-09-01 23:04:43 | 45.53120 | 8.65732 | 321° | 9km/h | 1539m | 5.8m/s | 16°C | 84.8% | 0hPa | 3V | 08:30:00 | 00:30:59 | 00:00:00 | |
| IW2NTF | 2026-09-01 23:04:43 | 45.53118 | 8.65739 | 285° | 13km/h | 1528m | 6.2m/s | 16.1°C | 84.4% | 0hPa | 3V | 08:30:00 | 00:30:57 | 00:00:00 | |
| IW2NTF | 2026-09-01 23:04:43 | 45.53115 | 8.65748 | 303° | 13km/h | 1517m | 5.1m/s | 16.2°C | 84% | 0hPa | 3V | 08:30:00 | 00:30:55 | 00:00:00 | |
| IW2NTF | 2026-09-01 23:04:37 | 45.53111 | 8.65751 | 6° | 7km/h | 1509m | 4.5m/s | 16.3°C | 84% | 0hPa | 3V | 08:30:00 | 00:30:53 | 00:00:00 | |
| IW2NTF | 2026-09-01 23:04:37 | 45.53108 | 8.65747 | 60° | 9km/h | 1500m | 5.6m/s | 16.4°C | 83.5% | 0hPa | 3V | 08:30:00 | 00:30:51 | 00:00:00 | |
| IW2NTF | 2026-09-01 23:04:37 | 45.53107 | 8.65743 | 51° | 4km/h | 1490m | 3m/s | 16.5°C | 83.5% | 0hPa | 3V | 08:30:00 | 00:30:49 | 00:00:00 | |
| IW2NTF | 2026-09-01 23:04:31 | 45.53105 | 8.65742 | 344° | 5km/h | 1482m | 5.1m/s | 16.6°C | 83% | 0hPa | 3V | 08:30:00 | 00:30:47 | 00:00:00 | |
| IW2NTF | 2026-09-01 23:04:31 | 45.53100 | 8.65745 | 332° | 15km/h | 1472m | 3.8m/s | 16.6°C | 82.7% | 0hPa | 3V | 08:30:00 | 00:30:45 | 00:00:00 | |
| IW2NTF | 2026-09-01 23:04:31 | 45.53093 | 8.65752 | 324° | 18km/h | 1464m | 4.5m/s | 16.7°C | 82.3% | 0hPa | 3V | 08:30:00 | 00:30:43 | 00:00:00 | |
| IW2NTF | 2026-09-01 23:04:25 | 45.53086 | 8.65760 | 310° | 15km/h | 1458m | 3m/s | 16.8°C | 82.2% | 0hPa | 3V | 08:30:00 | 00:30:41 | 00:00:00 | |
| IW2NTF | 2026-09-01 23:04:25 | 45.53083 | 8.65767 | 285° | 9km/h | 1449m | 6m/s | 16.9°C | 81.6% | 0hPa | 3V | 08:30:00 | 00:30:39 | 00:00:00 | |
| IW2NTF | 2026-09-01 23:04:25 | 45.53083 | 8.65772 | 251° | 5km/h | 1439m | 4.1m/s | 17°C | 81.4% | 0hPa | 3V | 08:30:00 | 00:30:37 | 00:00:00 | |
| IW2NTF | 2026-09-01 23:04:19 | 45.53083 | 8.65780 | 308° | 9km/h | 1421m | 4.6m/s | 17.1°C | 80.7% | 0hPa | 3V | 08:30:00 | 00:30:33 | 00:00:00 | |
| IW2NTF | 2026-09-01 23:04:19 | 45.53079 | 8.65784 | 344° | 13km/h | 1413m | 3.8m/s | 17.2°C | 80.5% | 0hPa | 3V | 08:30:00 | 00:30:31 | 00:00:00 | |
| IW2NTF | 2026-09-01 23:04:13 | 45.53073 | 8.65785 | 6° | 13km/h | 1408m | 3m/s | 17.3°C | 80.3% | 0hPa | 3V | 08:30:00 | 00:30:29 | 00:00:00 | |
| IW2NTF | 2026-09-01 23:04:13 | 45.53067 | 8.65785 | 359° | 7km/h | 1401m | 3.6m/s | 17.3°C | 80.5% | 0hPa | 3V | 08:30:00 | 00:30:27 | 00:00:00 | |
| IW2NTF | 2026-09-01 23:04:13 | 45.53065 | 8.65786 | 258° | 4km/h | 1394m | 4.1m/s | 17.4°C | 80.7% | 0hPa | 3V | 08:30:00 | 00:30:25 | 00:00:00 | |
| IW2NTF | 2026-09-01 23:04:07 | 45.53067 | 8.65787 | 161° | 5km/h | 1384m | 5.4m/s | 17.4°C | 81% | 0hPa | 3V | 08:30:00 | 00:30:23 | 00:00:00 | |
| IW2NTF | 2026-09-01 23:04:07 | 45.53069 | 8.65784 | 82° | 7km/h | 1375m | 3.1m/s | 17.5°C | 80.9% | 0hPa | 3V | 08:30:00 | 00:30:21 | 00:00:00 | |
| IW2NTF | 2026-09-01 23:04:07 | 45.53066 | 8.65778 | 36° | 9km/h | 1368m | 4m/s | 17.6°C | 80.8% | 0hPa | 3V | 08:30:00 | 00:30:19 | 00:00:00 | |
| IW2NTF | 2026-09-01 23:04:01 | 45.53062 | 8.65777 | 336° | 11km/h | 1359m | 4.6m/s | 17.7°C | 80.5% | 0hPa | 3V | 08:30:00 | 00:30:17 | 00:00:00 | |
| IW2NTF | 2026-09-01 23:04:01 | 45.53054 | 8.65793 | 290° | 11km/h | 1337m | 5.5m/s | 17.8°C | 80.1% | 0hPa | 3V | 08:30:00 | 00:30:13 | 00:00:00 | |
| IW2NTF | 2026-09-01 23:03:55 | 45.53054 | 8.65797 | 298° | 4km/h | 1329m | 5.2m/s | 17.9°C | 80.2% | 0hPa | 3V | 08:30:00 | 00:30:11 | 00:00:00 | |
| IW2NTF | 2026-09-01 23:03:55 | 45.53054 | 8.65800 | 235° | 5km/h | 1314m | 8.5m/s | 18.1°C | 79.5% | 0hPa | 3V | 08:30:00 | 00:30:09 | 00:00:00 | |
| IW2NTF | 2026-09-01 23:03:55 | 45.53056 | 8.65803 | 208° | 9km/h | 1297m | 8.1m/s | 18.2°C | 78.8% | 0hPa | 3V | 08:30:00 | 00:30:07 | 00:00:00 | |
| IW2NTF | 2026-09-01 23:03:49 | 45.53061 | 8.65805 | 183° | 11km/h | 1283m | 6.8m/s | 18.4°C | 78.1% | 0hPa | 3V | 08:30:00 | 00:30:05 | 00:00:00 | |
| IW2NTF | 2026-09-01 23:03:49 | 45.53065 | 8.65803 | 121° | 5km/h | 1273m | 3.4m/s | 18.4°C | 0% | 0hPa | 3V | 08:30:00 | 00:30:03 | 00:00:00 | |
| IW2NTF | 2026-09-01 23:03:49 | 45.53064 | 8.65799 | 58° | 7km/h | 1263m | 6.3m/s | 18.5°C | 0% | 0hPa | 3V | 08:30:00 | 00:30:01 | 00:00:00 | |
| IW2NTF | 2026-09-01 23:03:43 | 45.53060 | 8.65796 | 7° | 11km/h | 1252m | 4.8m/s | 18.6°C | 0% | 0hPa | 3V | 08:30:00 | 00:29:59 | 00:00:00 | |
| IW2NTF | 2026-09-01 23:03:43 | 45.53055 | 8.65798 | 319° | 9km/h | 1241m | 5.5m/s | 18.7°C | 0% | 0hPa | 3V | 08:30:00 | 00:29:57 | 00:00:00 | |
| IW2NTF | 2026-09-01 23:03:43 | 45.53055 | 8.65804 | 246° | 11km/h | 1233m | 3.9m/s | 18.8°C | 0% | 0hPa | 3V | 08:30:00 | 00:29:55 | 00:00:00 | |
| IW2NTF | 2026-09-01 23:03:37 | 45.53058 | 8.65810 | 211° | 7km/h | 1222m | 6.8m/s | 18.9°C | 0% | 0hPa | 3V | 08:30:00 | 00:29:53 | 00:00:00 | |
| IW2NTF | 2026-09-01 23:03:37 | 45.53059 | 8.65808 | 87° | 7km/h | 1211m | 4.3m/s | 19°C | 0% | 0hPa | 3V | 08:30:00 | 00:29:51 | 00:00:00 | |
| IW2NTF | 2026-09-01 23:03:37 | 45.53057 | 8.65803 | 38° | 11km/h | 1199m | 6.3m/s | 0°C | 0% | 0hPa | 3V | 08:30:00 | 00:29:49 | 00:00:00 | |
| IW2NTF | 2026-09-01 23:03:31 | 45.53052 | 8.65802 | 343° | 11km/h | 1188m | 5.4m/s | 0°C | 0% | 0hPa | 3V | 08:30:00 | 00:29:47 | 00:00:00 | |
| IW2NTF | 2026-09-01 23:03:31 | 45.53048 | 8.65807 | 286° | 11km/h | 1178m | 4.5m/s | 0°C | 0% | 0hPa | 3V | 08:30:00 | 00:29:45 | 00:00:00 | |
| IW2NTF | 2026-09-01 23:03:31 | 45.53049 | 8.65816 | 233° | 11km/h | 1169m | 5.4m/s | 0°C | 0% | 0hPa | 3V | 00:00:00 | 00:29:43 | 00:00:00 | |
| IW2NTF | 2026-09-01 23:03:25 | 45.53053 | 8.65819 | 177° | 7km/h | 1158m | 5.8m/s | 0°C | 0% | 0hPa | 3V | 00:00:00 | 00:29:41 | 00:00:00 | |
| IW2NTF | 2026-09-01 23:03:25 | 45.53053 | 8.65816 | 76° | 7km/h | 1149m | 4.6m/s | 0°C | 0% | 0hPa | 3V | 00:00:00 | 00:29:39 | 00:00:00 | |
| IW2NTF | 2026-09-01 23:03:25 | 45.53049 | 8.65811 | 25° | 13km/h | 1139m | 4.5m/s | 0°C | 0% | 0hPa | 3V | 00:00:00 | 00:29:37 | 00:00:00 | |
| IW2NTF | 2026-09-01 23:03:19 | 45.53043 | 8.65810 | 359° | 15km/h | 1131m | 4m/s | 0°C | 0% | 0hPa | 3V | 00:00:00 | 00:29:35 | 00:00:00 | |
| IW2NTF | 2026-09-01 23:03:19 | 45.53036 | 8.65813 | 336° | 15km/h | 1124m | 3.5m/s | 0°C | 0% | 0hPa | 3V | 00:00:00 | 00:29:33 | 00:00:00 | |
| IW2NTF | 2026-09-01 23:03:19 | 45.53031 | 8.65819 | 286° | 11km/h | 1118m | 3.7m/s | 0°C | 0% | 0hPa | 3V | 00:00:00 | 00:29:31 | 00:00:00 | |
| IW2NTF | 2026-09-01 23:03:13 | 45.53033 | 8.65826 | 225° | 13km/h | 1108m | 5.5m/s | 0°C | 0% | 0hPa | 3V | 00:00:00 | 00:29:29 | 00:00:00 | |
| IW2NTF | 2026-09-01 23:03:13 | 45.53038 | 8.65830 | 174° | 9km/h | 1097m | 5.4m/s | 0°C | 0% | 0hPa | 3V | 00:00:00 | 00:29:27 | 00:00:00 | |
| IW2NTF | 2026-09-01 23:03:13 | 45.53040 | 8.65828 | 50° | 5km/h | 1088m | 4.5m/s | 0°C | 0% | 0hPa | 3V | 00:00:00 | 00:29:25 | 00:00:00 | |
| IW2NTF | 2026-09-01 23:03:07 | 45.53035 | 8.65827 | 345° | 11km/h | 1080m | 5.5m/s | 0°C | 0% | 0hPa | 3V | 00:00:00 | 00:29:23 | 00:00:00 | |
| IW2NTF | 2026-09-01 23:03:07 | 45.53031 | 8.65834 | 287° | 15km/h | 1070m | 3.8m/s | 0°C | 0% | 0hPa | 3V | 00:00:00 | 00:29:21 | 00:00:00 | |
| IW2NTF | 2026-09-01 23:03:07 | 45.53031 | 8.65844 | 254° | 13km/h | 1060m | 5.7m/s | 0°C | 0% | 0hPa | 3V | 00:00:00 | 00:29:19 | 00:00:00 | |
| IW2NTF | 2026-09-01 23:03:01 | 45.53033 | 8.65849 | 174° | 5km/h | 1050m | 4.2m/s | 0°C | 0% | 0hPa | 3V | 00:00:00 | 00:29:17 | 00:00:00 | |
| IW2NTF | 2026-09-01 23:03:01 | 45.53034 | 8.65846 | 70° | 7km/h | 1042m | 5.6m/s | 0°C | 0% | 0hPa | 3V | 00:00:00 | 00:29:15 | 00:00:00 | |
| IW2NTF | 2026-09-01 23:03:01 | 45.53031 | 8.65843 | 357° | 11km/h | 1031m | 4.2m/s | 0°C | 0% | 0hPa | 3V | 00:00:00 | 00:29:13 | 00:00:00 | |
| IW2NTF | 2026-09-01 23:02:55 | 45.53025 | 8.65847 | 311° | 15km/h | 1023m | 4.2m/s | 0°C | 0% | 0hPa | 3V | 00:00:00 | 00:29:11 | 00:00:00 | |
| IW2NTF | 2026-09-01 23:02:55 | 45.53022 | 8.65857 | 266° | 15km/h | 1014m | 5.3m/s | 0°C | 0% | 0hPa | 3V | 00:00:00 | 00:29:09 | 00:00:00 | |
| IW2NTF | 2026-09-01 23:02:55 | 45.53025 | 8.65866 | 219° | 11km/h | 1003m | 4.9m/s | 0°C | 0% | 0hPa | 3V | 00:00:00 | 00:29:07 | 00:00:00 | |
| IW2NTF | 2026-09-01 23:02:49 | 45.53028 | 8.65866 | 126° | 7km/h | 994m | 4.7m/s | 0°C | 0% | 0hPa | 3V | 00:00:00 | 00:29:05 | 00:00:00 | |
| IW2NTF | 2026-09-01 23:02:49 | 45.53028 | 8.65860 | 49° | 7km/h | 985m | 4.4m/s | 0°C | 0% | 0hPa | 3V | 00:00:00 | 00:29:03 | 00:00:00 | |
| IW2NTF | 2026-09-01 23:02:49 | 45.53025 | 8.65860 | 323° | 11km/h | 976m | 4.7m/s | 0°C | 0% | 0hPa | 3V | 00:00:00 | 00:29:01 | 00:00:00 | |
| IW2NTF | 2026-09-01 23:02:43 | 45.53022 | 8.65868 | 274° | 16km/h | 966m | 5.3m/s | 0°C | 0% | 0hPa | 3V | 00:00:00 | 00:28:59 | 00:00:00 | |
| IW2NTF | 2026-09-01 23:02:43 | 45.53025 | 8.65879 | 221° | 16km/h | 956m | 4.5m/s | 0°C | 0% | 0hPa | 3V | 00:00:00 | 00:28:57 | 00:00:00 | |
| IW2NTF | 2026-09-01 23:02:43 | 45.53032 | 8.65882 | 178° | 13km/h | 947m | 4.8m/s | 0°C | 0% | 0hPa | 3V | 00:00:00 | 00:28:55 | 00:00:00 | |
| IW2NTF | 2026-09-01 23:02:38 | 45.53036 | 8.65881 | 87° | 4km/h | 938m | 4.6m/s | 0°C | 0% | 0hPa | 3V | 00:00:00 | 00:28:53 | 00:00:00 | |
| IW2NTF | 2026-09-01 23:02:38 | 45.53033 | 8.65890 | 270° | 16km/h | 919m | 4.7m/s | 0°C | 0% | 0hPa | 3V | 00:00:00 | 00:28:49 | 00:00:00 | |
| IW2NTF | 2026-09-01 23:02:33 | 45.53036 | 8.65904 | 242° | 22km/h | 909m | 4.7m/s | 0°C | 0% | 0hPa | 3V | 00:00:00 | 00:28:47 | 00:00:00 | |
| IW2NTF | 2026-09-01 23:02:33 | 45.53043 | 8.65919 | 229° | 24km/h | 900m | 3.6m/s | 0°C | 0% | 0hPa | 3V | 00:00:00 | 00:28:45 | 00:00:00 | |
| IW2NTF | 2026-09-01 23:02:33 | 45.53052 | 8.65930 | 218° | 20km/h | 894m | 4.5m/s | 0°C | 0% | 0hPa | 3V | 00:00:00 | 00:28:43 | 00:00:00 | |
| IW2NTF | 2026-09-01 23:02:25 | 45.53059 | 8.65936 | 198° | 13km/h | 883m | 6.1m/s | 0°C | 0% | 0hPa | 3V | 00:00:00 | 00:28:41 | 00:00:00 | |
| IW2NTF | 2026-09-01 23:02:25 | 45.53062 | 8.65936 | 83° | 4km/h | 871m | 5.8m/s | 0°C | 0% | 0hPa | 3V | 00:00:00 | 00:28:39 | 00:00:00 | |
| IW2NTF | 2026-09-01 23:02:25 | 45.53062 | 8.65933 | 70° | 7km/h | 860m | 4.2m/s | 0°C | 0% | 0hPa | 3V | 00:00:00 | 00:28:37 | 00:00:00 | |
| IW2NTF | 2026-09-01 23:02:19 | 45.53062 | 8.65928 | 140° | 4km/h | 854m | 2.4m/s | 0°C | 0% | 0hPa | 3V | 00:00:00 | 00:28:35 | 00:00:00 | |
| IW2NTF | 2026-09-01 23:02:19 | 45.53066 | 8.65931 | 215° | 15km/h | 847m | 5.7m/s | 0°C | 0% | 0hPa | 3V | 00:00:00 | 00:28:33 | 00:00:00 | |
| IW2NTF | 2026-09-01 23:02:19 | 45.53071 | 8.65942 | 259° | 22km/h | 836m | 4.5m/s | 0°C | 0% | 0hPa | 3V | 00:00:00 | 00:28:31 | 00:00:00 |